<?xml version='1.0' encoding='UTF-8'?><gpx version="1.1" creator="JPX - https://github.com/jenetics/jpx" xmlns="http://www.topografix.com/GPX/1/1"><trk><trkseg><trkpt lat="45.6946224" lon="11.1187611"><ele>1377.0</ele><time>2026-04-22T15:45:56.556Z</time></trkpt><trkpt lat="45.6946406" lon="11.1188496"><ele>1377.0</ele><time>2026-04-22T15:45:59.551Z</time></trkpt><trkpt lat="45.6947275" lon="11.1188626"><ele>1377.0</ele><time>2026-04-22T15:54:55.553Z</time></trkpt><trkpt lat="45.6947898" lon="11.1188952"><ele>1377.0</ele><time>2026-04-22T15:54:58.549Z</time></trkpt><trkpt lat="45.6947963" lon="11.118991"><ele>1377.0</ele><time>2026-04-22T15:55:01.555Z</time></trkpt><trkpt lat="45.6946487" lon="11.1189701"><ele>1377.0</ele><time>2026-04-22T15:55:04.545Z</time></trkpt><trkpt lat="45.6945764" lon="11.1189736"><ele>1377.0</ele><time>2026-04-22T15:55:05.555Z</time></trkpt><trkpt lat="45.6945037" lon="11.1189682"><ele>1377.0</ele><time>2026-04-22T15:55:06.554Z</time></trkpt><trkpt lat="45.6944252" lon="11.1189695"><ele>1377.0</ele><time>2026-04-22T15:55:07.555Z</time></trkpt><trkpt lat="45.6943418" lon="11.1189666"><ele>1377.0</ele><time>2026-04-22T15:55:08.554Z</time></trkpt><trkpt lat="45.6942531" lon="11.1189625"><ele>1377.0</ele><time>2026-04-22T15:55:09.548Z</time></trkpt><trkpt lat="45.6941668" lon="11.1189605"><ele>1377.0</ele><time>2026-04-22T15:55:10.551Z</time></trkpt><trkpt lat="45.6940761" lon="11.1189559"><ele>1377.3333333333333</ele><time>2026-04-22T15:55:11.548Z</time></trkpt><trkpt lat="45.6939867" lon="11.118952"><ele>1377.6666666666667</ele><time>2026-04-22T15:55:12.547Z</time></trkpt><trkpt lat="45.6938985" lon="11.1189492"><ele>1378.0</ele><time>2026-04-22T15:55:13.547Z</time></trkpt><trkpt lat="45.6938158" lon="11.1189343"><ele>1378.3333333333335</ele><time>2026-04-22T15:55:14.544Z</time></trkpt><trkpt lat="45.6937216" lon="11.1189359"><ele>1378.6666666666667</ele><time>2026-04-22T15:55:15.563Z</time></trkpt><trkpt lat="45.6936325" lon="11.1189249"><ele>1379.0</ele><time>2026-04-22T15:55:16.553Z</time></trkpt><trkpt lat="45.6935475" lon="11.1189103"><ele>1379.0</ele><time>2026-04-22T15:55:17.555Z</time></trkpt><trkpt lat="45.6934642" lon="11.1188988"><ele>1379.0</ele><time>2026-04-22T15:55:18.547Z</time></trkpt><trkpt lat="45.6933819" lon="11.1188941"><ele>1379.0</ele><time>2026-04-22T15:55:19.55Z</time></trkpt><trkpt lat="45.6932985" lon="11.1188963"><ele>1379.0</ele><time>2026-04-22T15:55:20.556Z</time></trkpt><trkpt lat="45.6932137" lon="11.118899"><ele>1379.0</ele><time>2026-04-22T15:55:21.549Z</time></trkpt><trkpt lat="45.6931335" lon="11.1189232"><ele>1379.0</ele><time>2026-04-22T15:55:22.561Z</time></trkpt><trkpt lat="45.6930461" lon="11.1189667"><ele>1379.0</ele><time>2026-04-22T15:55:23.556Z</time></trkpt><trkpt lat="45.6929671" lon="11.1190143"><ele>1379.0</ele><time>2026-04-22T15:55:24.565Z</time></trkpt><trkpt lat="45.6928866" lon="11.1190712"><ele>1379.0</ele><time>2026-04-22T15:55:25.552Z</time></trkpt><trkpt lat="45.6928145" lon="11.1191219"><ele>1379.0</ele><time>2026-04-22T15:55:26.558Z</time></trkpt><trkpt lat="45.6927395" lon="11.1191624"><ele>1379.0</ele><time>2026-04-22T15:55:27.55Z</time></trkpt><trkpt lat="45.6926611" lon="11.1191811"><ele>1379.0</ele><time>2026-04-22T15:55:28.56Z</time></trkpt><trkpt lat="45.6925773" lon="11.1191965"><ele>1376.3333333333335</ele><time>2026-04-22T15:55:29.546Z</time></trkpt><trkpt lat="45.6924993" lon="11.1191811"><ele>1373.6666666666667</ele><time>2026-04-22T15:55:30.557Z</time></trkpt><trkpt lat="45.692414" lon="11.1191743"><ele>1371.0</ele><time>2026-04-22T15:55:31.549Z</time></trkpt><trkpt lat="45.692339" lon="11.1191482"><ele>1368.3333333333333</ele><time>2026-04-22T15:55:32.546Z</time></trkpt><trkpt lat="45.6922614" lon="11.1191077"><ele>1365.6666666666665</ele><time>2026-04-22T15:55:33.551Z</time></trkpt><trkpt lat="45.6921809" lon="11.1190637"><ele>1363.0</ele><time>2026-04-22T15:55:34.551Z</time></trkpt><trkpt lat="45.6921236" lon="11.1189958"><ele>1363.0</ele><time>2026-04-22T15:55:35.545Z</time></trkpt><trkpt lat="45.6920708" lon="11.1189299"><ele>1363.0</ele><time>2026-04-22T15:55:36.558Z</time></trkpt><trkpt lat="45.6920507" lon="11.1188263"><ele>1363.0</ele><time>2026-04-22T15:55:37.55Z</time></trkpt><trkpt lat="45.6920244" lon="11.1187243"><ele>1363.0</ele><time>2026-04-22T15:55:38.556Z</time></trkpt><trkpt lat="45.6919913" lon="11.1186236"><ele>1363.0</ele><time>2026-04-22T15:55:39.544Z</time></trkpt><trkpt lat="45.6919493" lon="11.1185477"><ele>1363.0</ele><time>2026-04-22T15:55:40.557Z</time></trkpt><trkpt lat="45.6918782" lon="11.1184257"><ele>1363.0</ele><time>2026-04-22T15:55:42.552Z</time></trkpt><trkpt lat="45.6918034" lon="11.1184021"><ele>1363.0</ele><time>2026-04-22T15:55:44.549Z</time></trkpt><trkpt lat="45.6918135" lon="11.1185246"><ele>1363.0</ele><time>2026-04-22T15:55:46.558Z</time></trkpt><trkpt lat="45.6918689" lon="11.1185782"><ele>1363.0</ele><time>2026-04-22T15:55:47.55Z</time></trkpt><trkpt lat="45.691924" lon="11.1186502"><ele>1363.0</ele><time>2026-04-22T15:55:48.548Z</time></trkpt><trkpt lat="45.691963" lon="11.1187316"><ele>1363.0</ele><time>2026-04-22T15:55:49.56Z</time></trkpt><trkpt lat="45.6919963" lon="11.1188239"><ele>1363.0</ele><time>2026-04-22T15:55:50.553Z</time></trkpt><trkpt lat="45.6919843" lon="11.1189576"><ele>1363.0</ele><time>2026-04-22T15:55:51.554Z</time></trkpt><trkpt lat="45.6920334" lon="11.11906"><ele>1363.0</ele><time>2026-04-22T15:55:52.548Z</time></trkpt><trkpt lat="45.6920912" lon="11.1191512"><ele>1363.0</ele><time>2026-04-22T15:55:53.557Z</time></trkpt><trkpt lat="45.6921421" lon="11.1192336"><ele>1363.0</ele><time>2026-04-22T15:55:54.56Z</time></trkpt><trkpt lat="45.6922163" lon="11.1193024"><ele>1363.0</ele><time>2026-04-22T15:55:55.553Z</time></trkpt><trkpt lat="45.6922938" lon="11.1193687"><ele>1363.0</ele><time>2026-04-22T15:55:56.556Z</time></trkpt><trkpt lat="45.6923813" lon="11.1194217"><ele>1359.5</ele><time>2026-04-22T15:55:57.552Z</time></trkpt><trkpt lat="45.6924643" lon="11.1194696"><ele>1356.0</ele><time>2026-04-22T15:55:58.55Z</time></trkpt><trkpt lat="45.6925396" lon="11.1194943"><ele>1352.5</ele><time>2026-04-22T15:55:59.559Z</time></trkpt><trkpt lat="45.6926198" lon="11.1195202"><ele>1349.0</ele><time>2026-04-22T15:56:00.548Z</time></trkpt><trkpt lat="45.692708" lon="11.1195584"><ele>1345.5</ele><time>2026-04-22T15:56:01.552Z</time></trkpt><trkpt lat="45.6927931" lon="11.1195859"><ele>1342.0</ele><time>2026-04-22T15:56:02.556Z</time></trkpt><trkpt lat="45.6928836" lon="11.1195555"><ele>1342.0</ele><time>2026-04-22T15:56:03.556Z</time></trkpt><trkpt lat="45.6929624" lon="11.1195032"><ele>1342.0</ele><time>2026-04-22T15:56:04.547Z</time></trkpt><trkpt lat="45.693042" lon="11.1194926"><ele>1342.0</ele><time>2026-04-22T15:56:05.557Z</time></trkpt><trkpt lat="45.6931252" lon="11.1194855"><ele>1342.0</ele><time>2026-04-22T15:56:06.552Z</time></trkpt><trkpt lat="45.6932044" lon="11.1195065"><ele>1342.0</ele><time>2026-04-22T15:56:07.558Z</time></trkpt><trkpt lat="45.6932951" lon="11.1195715"><ele>1342.0</ele><time>2026-04-22T15:56:08.558Z</time></trkpt><trkpt lat="45.6933657" lon="11.1196516"><ele>1342.0</ele><time>2026-04-22T15:56:09.553Z</time></trkpt><trkpt lat="45.6934414" lon="11.1197286"><ele>1342.0</ele><time>2026-04-22T15:56:10.558Z</time></trkpt><trkpt lat="45.6935201" lon="11.1198035"><ele>1342.0</ele><time>2026-04-22T15:56:11.556Z</time></trkpt><trkpt lat="45.6936112" lon="11.1198747"><ele>1342.0</ele><time>2026-04-22T15:56:12.547Z</time></trkpt><trkpt lat="45.6937202" lon="11.1199339"><ele>1342.0</ele><time>2026-04-22T15:56:13.543Z</time></trkpt><trkpt lat="45.693824" lon="11.1200035"><ele>1337.8333333333333</ele><time>2026-04-22T15:56:14.566Z</time></trkpt><trkpt lat="45.6939234" lon="11.1200633"><ele>1333.6666666666665</ele><time>2026-04-22T15:56:15.548Z</time></trkpt><trkpt lat="45.6940106" lon="11.1201191"><ele>1329.5</ele><time>2026-04-22T15:56:16.547Z</time></trkpt><trkpt lat="45.6940896" lon="11.1201759"><ele>1325.3333333333333</ele><time>2026-04-22T15:56:17.545Z</time></trkpt><trkpt lat="45.6941565" lon="11.1202239"><ele>1321.1666666666667</ele><time>2026-04-22T15:56:18.55Z</time></trkpt><trkpt lat="45.6942096" lon="11.1202747"><ele>1317.0</ele><time>2026-04-22T15:56:19.556Z</time></trkpt><trkpt lat="45.6943004" lon="11.1203612"><ele>1317.0</ele><time>2026-04-22T15:56:21.55Z</time></trkpt><trkpt lat="45.6943142" lon="11.1204723"><ele>1317.0</ele><time>2026-04-22T15:56:23.551Z</time></trkpt><trkpt lat="45.6942109" lon="11.1204329"><ele>1317.0</ele><time>2026-04-22T15:56:25.56Z</time></trkpt><trkpt lat="45.6941465" lon="11.1203648"><ele>1317.0</ele><time>2026-04-22T15:56:26.546Z</time></trkpt><trkpt lat="45.6940881" lon="11.120325"><ele>1317.0</ele><time>2026-04-22T15:56:27.555Z</time></trkpt><trkpt lat="45.6939728" lon="11.1202982"><ele>1317.0</ele><time>2026-04-22T15:56:28.552Z</time></trkpt><trkpt lat="45.6938611" lon="11.1202777"><ele>1317.0</ele><time>2026-04-22T15:56:29.554Z</time></trkpt><trkpt lat="45.6937546" lon="11.1202568"><ele>1317.0</ele><time>2026-04-22T15:56:30.555Z</time></trkpt><trkpt lat="45.6936428" lon="11.1202411"><ele>1317.0</ele><time>2026-04-22T15:56:31.551Z</time></trkpt><trkpt lat="45.6935293" lon="11.120224"><ele>1317.0</ele><time>2026-04-22T15:56:32.561Z</time></trkpt><trkpt lat="45.6934179" lon="11.1202012"><ele>1317.0</ele><time>2026-04-22T15:56:33.554Z</time></trkpt><trkpt lat="45.6933064" lon="11.1201796"><ele>1315.0</ele><time>2026-04-22T15:56:34.551Z</time></trkpt><trkpt lat="45.6931981" lon="11.1201586"><ele>1313.0</ele><time>2026-04-22T15:56:35.549Z</time></trkpt><trkpt lat="45.6930911" lon="11.1201437"><ele>1311.0</ele><time>2026-04-22T15:56:36.548Z</time></trkpt><trkpt lat="45.6929749" lon="11.1201356"><ele>1309.0</ele><time>2026-04-22T15:56:37.556Z</time></trkpt><trkpt lat="45.6928552" lon="11.1201484"><ele>1307.4</ele><time>2026-04-22T15:56:38.56Z</time></trkpt><trkpt lat="45.692743" lon="11.1201657"><ele>1305.8000000000002</ele><time>2026-04-22T15:56:39.544Z</time></trkpt><trkpt lat="45.6926364" lon="11.1201762"><ele>1304.1999999999998</ele><time>2026-04-22T15:56:40.555Z</time></trkpt><trkpt lat="45.6925379" lon="11.1201826"><ele>1302.6</ele><time>2026-04-22T15:56:41.548Z</time></trkpt><trkpt lat="45.6924373" lon="11.1201653"><ele>1301.0</ele><time>2026-04-22T15:56:42.551Z</time></trkpt><trkpt lat="45.692332" lon="11.1201359"><ele>1301.0</ele><time>2026-04-22T15:56:43.557Z</time></trkpt><trkpt lat="45.6922341" lon="11.1201019"><ele>1301.0</ele><time>2026-04-22T15:56:44.554Z</time></trkpt><trkpt lat="45.6921371" lon="11.1200772"><ele>1301.0</ele><time>2026-04-22T15:56:45.552Z</time></trkpt><trkpt lat="45.6920433" lon="11.1200647"><ele>1301.0</ele><time>2026-04-22T15:56:46.549Z</time></trkpt><trkpt lat="45.6919542" lon="11.1200537"><ele>1301.0</ele><time>2026-04-22T15:56:47.547Z</time></trkpt><trkpt lat="45.6918696" lon="11.1200556"><ele>1297.6666666666667</ele><time>2026-04-22T15:56:48.559Z</time></trkpt><trkpt lat="45.6917894" lon="11.120059"><ele>1294.3333333333335</ele><time>2026-04-22T15:56:49.552Z</time></trkpt><trkpt lat="45.6917138" lon="11.120051"><ele>1291.0</ele><time>2026-04-22T15:56:50.55Z</time></trkpt><trkpt lat="45.6916435" lon="11.1200378"><ele>1287.6666666666667</ele><time>2026-04-22T15:56:51.558Z</time></trkpt><trkpt lat="45.6915709" lon="11.1201168"><ele>1284.3333333333333</ele><time>2026-04-22T15:56:53.55Z</time></trkpt><trkpt lat="45.6916196" lon="11.1202282"><ele>1281.0</ele><time>2026-04-22T15:56:55.547Z</time></trkpt><trkpt lat="45.6916793" lon="11.120263"><ele>1281.0</ele><time>2026-04-22T15:56:56.549Z</time></trkpt><trkpt lat="45.6917495" lon="11.1202716"><ele>1281.0</ele><time>2026-04-22T15:56:57.544Z</time></trkpt><trkpt lat="45.6918229" lon="11.1202529"><ele>1281.0</ele><time>2026-04-22T15:56:58.554Z</time></trkpt><trkpt lat="45.6918993" lon="11.1202432"><ele>1281.0</ele><time>2026-04-22T15:56:59.549Z</time></trkpt><trkpt lat="45.6919735" lon="11.1202501"><ele>1281.0</ele><time>2026-04-22T15:57:00.55Z</time></trkpt><trkpt lat="45.6920449" lon="11.1202818"><ele>1281.0</ele><time>2026-04-22T15:57:01.557Z</time></trkpt><trkpt lat="45.6921152" lon="11.1203191"><ele>1281.0</ele><time>2026-04-22T15:57:02.553Z</time></trkpt><trkpt lat="45.6921807" lon="11.1203785"><ele>1280.3333333333333</ele><time>2026-04-22T15:57:03.559Z</time></trkpt><trkpt lat="45.6922454" lon="11.1204313"><ele>1279.6666666666667</ele><time>2026-04-22T15:57:04.548Z</time></trkpt><trkpt lat="45.6923128" lon="11.1204895"><ele>1279.0</ele><time>2026-04-22T15:57:05.545Z</time></trkpt><trkpt lat="45.6923853" lon="11.1205551"><ele>1278.3333333333335</ele><time>2026-04-22T15:57:06.55Z</time></trkpt><trkpt lat="45.6924552" lon="11.1206184"><ele>1277.6666666666667</ele><time>2026-04-22T15:57:07.545Z</time></trkpt><trkpt lat="45.6925242" lon="11.1206737"><ele>1277.0</ele><time>2026-04-22T15:57:08.562Z</time></trkpt><trkpt lat="45.6925869" lon="11.1207344"><ele>1277.0</ele><time>2026-04-22T15:57:09.555Z</time></trkpt><trkpt lat="45.6926563" lon="11.1207933"><ele>1277.0</ele><time>2026-04-22T15:57:10.547Z</time></trkpt><trkpt lat="45.6927252" lon="11.1208498"><ele>1277.0</ele><time>2026-04-22T15:57:11.555Z</time></trkpt><trkpt lat="45.6927958" lon="11.1209077"><ele>1277.0</ele><time>2026-04-22T15:57:12.551Z</time></trkpt><trkpt lat="45.692869" lon="11.1209612"><ele>1277.0</ele><time>2026-04-22T15:57:13.547Z</time></trkpt><trkpt lat="45.692932" lon="11.1210323"><ele>1277.0</ele><time>2026-04-22T15:57:14.547Z</time></trkpt><trkpt lat="45.6929842" lon="11.1211204"><ele>1275.8333333333335</ele><time>2026-04-22T15:57:15.548Z</time></trkpt><trkpt lat="45.693023" lon="11.121193"><ele>1274.6666666666667</ele><time>2026-04-22T15:57:16.553Z</time></trkpt><trkpt lat="45.6930183" lon="11.1212978"><ele>1273.5</ele><time>2026-04-22T15:57:17.55Z</time></trkpt><trkpt lat="45.6929793" lon="11.1214305"><ele>1272.3333333333333</ele><time>2026-04-22T15:57:18.56Z</time></trkpt><trkpt lat="45.6929695" lon="11.1215356"><ele>1271.1666666666665</ele><time>2026-04-22T15:57:19.565Z</time></trkpt><trkpt lat="45.6929034" lon="11.1216555"><ele>1270.0</ele><time>2026-04-22T15:57:21.545Z</time></trkpt><trkpt lat="45.6928415" lon="11.1216079"><ele>1271.4</ele><time>2026-04-22T15:57:23.545Z</time></trkpt><trkpt lat="45.6928369" lon="11.1214305"><ele>1272.8</ele><time>2026-04-22T15:57:25.552Z</time></trkpt><trkpt lat="45.6928128" lon="11.1213185"><ele>1274.2</ele><time>2026-04-22T15:57:26.554Z</time></trkpt><trkpt lat="45.6927704" lon="11.1212514"><ele>1275.6</ele><time>2026-04-22T15:57:27.547Z</time></trkpt><trkpt lat="45.6927078" lon="11.1211551"><ele>1277.0</ele><time>2026-04-22T15:57:28.562Z</time></trkpt><trkpt lat="45.6926019" lon="11.1211372"><ele>1277.0</ele><time>2026-04-22T15:57:29.558Z</time></trkpt><trkpt lat="45.6925292" lon="11.1211071"><ele>1277.0</ele><time>2026-04-22T15:57:30.558Z</time></trkpt><trkpt lat="45.6924561" lon="11.1210763"><ele>1277.0</ele><time>2026-04-22T15:57:31.547Z</time></trkpt><trkpt lat="45.6923925" lon="11.1210771"><ele>1277.0</ele><time>2026-04-22T15:57:32.555Z</time></trkpt><trkpt lat="45.6923348" lon="11.1211355"><ele>1277.0</ele><time>2026-04-22T15:57:33.552Z</time></trkpt><trkpt lat="45.6922911" lon="11.1212369"><ele>1277.0</ele><time>2026-04-22T15:57:35.557Z</time></trkpt><trkpt lat="45.6923638" lon="11.1213325"><ele>1277.0</ele><time>2026-04-22T15:57:37.55Z</time></trkpt><trkpt lat="45.6924443" lon="11.1214006"><ele>1277.0</ele><time>2026-04-22T15:57:38.547Z</time></trkpt><trkpt lat="45.6925524" lon="11.1214215"><ele>1277.0</ele><time>2026-04-22T15:57:39.56Z</time></trkpt><trkpt lat="45.6926189" lon="11.1214476"><ele>1277.0</ele><time>2026-04-22T15:57:40.549Z</time></trkpt><trkpt lat="45.692697" lon="11.1214749"><ele>1277.0</ele><time>2026-04-22T15:57:41.552Z</time></trkpt><trkpt lat="45.6926341" lon="11.121622"><ele>1275.8333333333335</ele><time>2026-04-22T15:57:42.548Z</time></trkpt><trkpt lat="45.692608" lon="11.1217383"><ele>1274.6666666666667</ele><time>2026-04-22T15:57:43.548Z</time></trkpt><trkpt lat="45.6925979" lon="11.1218576"><ele>1273.5</ele><time>2026-04-22T15:57:44.552Z</time></trkpt><trkpt lat="45.6926222" lon="11.1219638"><ele>1272.3333333333333</ele><time>2026-04-22T15:57:45.548Z</time></trkpt><trkpt lat="45.6926701" lon="11.1220469"><ele>1271.1666666666665</ele><time>2026-04-22T15:57:46.549Z</time></trkpt><trkpt lat="45.6927246" lon="11.1221158"><ele>1270.0</ele><time>2026-04-22T15:57:47.553Z</time></trkpt><trkpt lat="45.6927973" lon="11.1221975"><ele>1270.0</ele><time>2026-04-22T15:57:48.547Z</time></trkpt><trkpt lat="45.692886" lon="11.1221936"><ele>1270.0</ele><time>2026-04-22T15:57:49.553Z</time></trkpt><trkpt lat="45.6929563" lon="11.122217"><ele>1270.0</ele><time>2026-04-22T15:57:50.545Z</time></trkpt><trkpt lat="45.6930288" lon="11.1222299"><ele>1270.0</ele><time>2026-04-22T15:57:51.55Z</time></trkpt><trkpt lat="45.6931034" lon="11.1222329"><ele>1270.0</ele><time>2026-04-22T15:57:52.554Z</time></trkpt><trkpt lat="45.693194" lon="11.1223212"><ele>1270.0</ele><time>2026-04-22T15:57:54.556Z</time></trkpt><trkpt lat="45.6931873" lon="11.1224648"><ele>1270.0</ele><time>2026-04-22T15:57:56.549Z</time></trkpt><trkpt lat="45.6930315" lon="11.1224047"><ele>1270.0</ele><time>2026-04-22T15:57:57.546Z</time></trkpt><trkpt lat="45.6929294" lon="11.1223969"><ele>1270.0</ele><time>2026-04-22T15:57:58.557Z</time></trkpt><trkpt lat="45.6928297" lon="11.122385"><ele>1270.0</ele><time>2026-04-22T15:57:59.553Z</time></trkpt><trkpt lat="45.6927359" lon="11.122366"><ele>1268.0</ele><time>2026-04-22T15:58:00.556Z</time></trkpt><trkpt lat="45.6926263" lon="11.122352"><ele>1266.0</ele><time>2026-04-22T15:58:01.547Z</time></trkpt><trkpt lat="45.6925188" lon="11.1223368"><ele>1264.0</ele><time>2026-04-22T15:58:02.559Z</time></trkpt><trkpt lat="45.6924144" lon="11.1223476"><ele>1262.0</ele><time>2026-04-22T15:58:03.565Z</time></trkpt><trkpt lat="45.6923117" lon="11.1223708"><ele>1260.0</ele><time>2026-04-22T15:58:04.555Z</time></trkpt><trkpt lat="45.6922114" lon="11.1224099"><ele>1258.0</ele><time>2026-04-22T15:58:05.553Z</time></trkpt><trkpt lat="45.6921108" lon="11.1224355"><ele>1256.0</ele><time>2026-04-22T15:58:06.546Z</time></trkpt><trkpt lat="45.6920132" lon="11.1224247"><ele>1254.0</ele><time>2026-04-22T15:58:07.552Z</time></trkpt><trkpt lat="45.691912" lon="11.1224109"><ele>1252.0</ele><time>2026-04-22T15:58:08.543Z</time></trkpt><trkpt lat="45.6918295" lon="11.1223742"><ele>1250.0</ele><time>2026-04-22T15:58:09.552Z</time></trkpt><trkpt lat="45.6917597" lon="11.1223476"><ele>1248.6666666666667</ele><time>2026-04-22T15:58:10.549Z</time></trkpt><trkpt lat="45.6917027" lon="11.1223033"><ele>1247.3333333333335</ele><time>2026-04-22T15:58:11.552Z</time></trkpt><trkpt lat="45.691709" lon="11.1221545"><ele>1246.0</ele><time>2026-04-22T15:58:13.549Z</time></trkpt><trkpt lat="45.6918101" lon="11.1220301"><ele>1244.6666666666667</ele><time>2026-04-22T15:58:15.556Z</time></trkpt><trkpt lat="45.6918671" lon="11.1219694"><ele>1243.3333333333333</ele><time>2026-04-22T15:58:16.546Z</time></trkpt><trkpt lat="45.6919016" lon="11.1218859"><ele>1242.0</ele><time>2026-04-22T15:58:17.55Z</time></trkpt><trkpt lat="45.6918927" lon="11.1217916"><ele>1242.0</ele><time>2026-04-22T15:58:18.558Z</time></trkpt><trkpt lat="45.6917867" lon="11.12167"><ele>1242.0</ele><time>2026-04-22T15:58:20.559Z</time></trkpt><trkpt lat="45.6917023" lon="11.1216027"><ele>1242.0</ele><time>2026-04-22T15:58:21.555Z</time></trkpt><trkpt lat="45.6916058" lon="11.1215452"><ele>1242.0</ele><time>2026-04-22T15:58:22.555Z</time></trkpt><trkpt lat="45.6915117" lon="11.1214788"><ele>1242.0</ele><time>2026-04-22T15:58:23.559Z</time></trkpt><trkpt lat="45.6914168" lon="11.1214133"><ele>1245.0</ele><time>2026-04-22T15:58:24.553Z</time></trkpt><trkpt lat="45.691321" lon="11.1213529"><ele>1248.0</ele><time>2026-04-22T15:58:25.563Z</time></trkpt><trkpt lat="45.6912349" lon="11.121279"><ele>1251.0</ele><time>2026-04-22T15:58:26.55Z</time></trkpt><trkpt lat="45.6911622" lon="11.1211774"><ele>1254.0</ele><time>2026-04-22T15:58:27.552Z</time></trkpt><trkpt lat="45.6910971" lon="11.1210644"><ele>1257.0</ele><time>2026-04-22T15:58:28.556Z</time></trkpt><trkpt lat="45.6910445" lon="11.1209529"><ele>1246.75</ele><time>2026-04-22T15:58:29.553Z</time></trkpt><trkpt lat="45.6909852" lon="11.1208964"><ele>1236.5</ele><time>2026-04-22T15:58:30.552Z</time></trkpt><trkpt lat="45.6908777" lon="11.1208948"><ele>1226.25</ele><time>2026-04-22T15:58:32.551Z</time></trkpt><trkpt lat="45.6908601" lon="11.1210245"><ele>1216.0</ele><time>2026-04-22T15:58:34.562Z</time></trkpt><trkpt lat="45.6909809" lon="11.121228"><ele>1216.0</ele><time>2026-04-22T15:58:36.559Z</time></trkpt><trkpt lat="45.6910493" lon="11.1213389"><ele>1216.0</ele><time>2026-04-22T15:58:37.55Z</time></trkpt><trkpt lat="45.691119" lon="11.1214629"><ele>1216.0</ele><time>2026-04-22T15:58:38.554Z</time></trkpt><trkpt lat="45.691185" lon="11.1215644"><ele>1216.0</ele><time>2026-04-22T15:58:39.556Z</time></trkpt><trkpt lat="45.6912486" lon="11.1216605"><ele>1216.0</ele><time>2026-04-22T15:58:40.548Z</time></trkpt><trkpt lat="45.6912959" lon="11.1217561"><ele>1215.0</ele><time>2026-04-22T15:58:41.554Z</time></trkpt><trkpt lat="45.6913317" lon="11.1218666"><ele>1214.0</ele><time>2026-04-22T15:58:42.554Z</time></trkpt><trkpt lat="45.6913494" lon="11.1219752"><ele>1213.0</ele><time>2026-04-22T15:58:43.548Z</time></trkpt><trkpt lat="45.691236" lon="11.1221701"><ele>1212.0</ele><time>2026-04-22T15:58:45.549Z</time></trkpt><trkpt lat="45.6910813" lon="11.1222175"><ele>1212.0</ele><time>2026-04-22T15:58:46.549Z</time></trkpt><trkpt lat="45.6909971" lon="11.1222583"><ele>1212.0</ele><time>2026-04-22T15:58:47.547Z</time></trkpt><trkpt lat="45.6908663" lon="11.1222346"><ele>1212.0</ele><time>2026-04-22T15:58:48.554Z</time></trkpt><trkpt lat="45.6908013" lon="11.1222525"><ele>1212.0</ele><time>2026-04-22T15:58:49.557Z</time></trkpt><trkpt lat="45.6907369" lon="11.1222929"><ele>1212.0</ele><time>2026-04-22T15:58:50.553Z</time></trkpt><trkpt lat="45.6907729" lon="11.1224481"><ele>1210.8</ele><time>2026-04-22T15:58:52.551Z</time></trkpt><trkpt lat="45.6908452" lon="11.1225636"><ele>1209.6</ele><time>2026-04-22T15:58:53.55Z</time></trkpt><trkpt lat="45.6908334" lon="11.1227097"><ele>1208.3999999999999</ele><time>2026-04-22T15:58:55.548Z</time></trkpt><trkpt lat="45.6907507" lon="11.1226682"><ele>1207.2</ele><time>2026-04-22T15:58:56.557Z</time></trkpt><trkpt lat="45.6906708" lon="11.1225052"><ele>1206.0</ele><time>2026-04-22T15:58:58.545Z</time></trkpt><trkpt lat="45.690638" lon="11.1224192"><ele>1207.0</ele><time>2026-04-22T15:58:59.555Z</time></trkpt><trkpt lat="45.6906034" lon="11.1223257"><ele>1208.0</ele><time>2026-04-22T15:59:00.552Z</time></trkpt><trkpt lat="45.6906257" lon="11.1222262"><ele>1209.0</ele><time>2026-04-22T15:59:01.547Z</time></trkpt><trkpt lat="45.6906153" lon="11.1221299"><ele>1210.0</ele><time>2026-04-22T15:59:02.547Z</time></trkpt><trkpt lat="45.6906998" lon="11.1220923"><ele>1211.0</ele><time>2026-04-22T15:59:03.545Z</time></trkpt><trkpt lat="45.6907263" lon="11.1219462"><ele>1212.0</ele><time>2026-04-22T15:59:05.547Z</time></trkpt><trkpt lat="45.6906834" lon="11.121866"><ele>1212.0</ele><time>2026-04-22T15:59:06.553Z</time></trkpt><trkpt lat="45.6906437" lon="11.1217819"><ele>1212.0</ele><time>2026-04-22T15:59:07.551Z</time></trkpt><trkpt lat="45.6905712" lon="11.1217119"><ele>1212.0</ele><time>2026-04-22T15:59:08.549Z</time></trkpt><trkpt lat="45.6905392" lon="11.1216141"><ele>1212.0</ele><time>2026-04-22T15:59:09.551Z</time></trkpt><trkpt lat="45.6905231" lon="11.1215115"><ele>1212.0</ele><time>2026-04-22T15:59:10.552Z</time></trkpt><trkpt lat="45.6904966" lon="11.1214055"><ele>1212.0</ele><time>2026-04-22T15:59:11.556Z</time></trkpt><trkpt lat="45.6904649" lon="11.1212854"><ele>1212.8</ele><time>2026-04-22T15:59:12.553Z</time></trkpt><trkpt lat="45.6903786" lon="11.1212236"><ele>1213.6</ele><time>2026-04-22T15:59:13.555Z</time></trkpt><trkpt lat="45.6903005" lon="11.1210677"><ele>1214.3999999999999</ele><time>2026-04-22T15:59:15.547Z</time></trkpt><trkpt lat="45.6903146" lon="11.1209677"><ele>1215.2</ele><time>2026-04-22T15:59:16.553Z</time></trkpt><trkpt lat="45.6903817" lon="11.1208701"><ele>1216.0</ele><time>2026-04-22T15:59:17.561Z</time></trkpt><trkpt lat="45.6904126" lon="11.1207566"><ele>1219.0</ele><time>2026-04-22T15:59:18.552Z</time></trkpt><trkpt lat="45.6904462" lon="11.1206515"><ele>1222.0</ele><time>2026-04-22T15:59:19.556Z</time></trkpt><trkpt lat="45.6904494" lon="11.1205494"><ele>1225.0</ele><time>2026-04-22T15:59:20.551Z</time></trkpt><trkpt lat="45.6903435" lon="11.1204299"><ele>1228.0</ele><time>2026-04-22T15:59:22.553Z</time></trkpt><trkpt lat="45.6902757" lon="11.1204024"><ele>1231.0</ele><time>2026-04-22T15:59:23.552Z</time></trkpt><trkpt lat="45.6901711" lon="11.1204581"><ele>1224.8</ele><time>2026-04-22T15:59:24.547Z</time></trkpt><trkpt lat="45.6900996" lon="11.1204873"><ele>1218.6</ele><time>2026-04-22T15:59:25.551Z</time></trkpt><trkpt lat="45.6900211" lon="11.1205059"><ele>1212.4</ele><time>2026-04-22T15:59:26.553Z</time></trkpt><trkpt lat="45.6899466" lon="11.1203356"><ele>1206.2</ele><time>2026-04-22T15:59:28.55Z</time></trkpt><trkpt lat="45.689985" lon="11.1202023"><ele>1200.0</ele><time>2026-04-22T15:59:29.559Z</time></trkpt><trkpt lat="45.6899543" lon="11.1201003"><ele>1200.0</ele><time>2026-04-22T15:59:30.553Z</time></trkpt><trkpt lat="45.6898884" lon="11.1200373"><ele>1200.0</ele><time>2026-04-22T15:59:31.554Z</time></trkpt><trkpt lat="45.6898301" lon="11.1199762"><ele>1200.0</ele><time>2026-04-22T15:59:32.552Z</time></trkpt><trkpt lat="45.6897105" lon="11.1200942"><ele>1200.0</ele><time>2026-04-22T15:59:33.551Z</time></trkpt><trkpt lat="45.6896064" lon="11.120139"><ele>1200.0</ele><time>2026-04-22T15:59:34.554Z</time></trkpt><trkpt lat="45.6895003" lon="11.120147"><ele>1197.0</ele><time>2026-04-22T15:59:35.556Z</time></trkpt><trkpt lat="45.6893958" lon="11.1201468"><ele>1194.0</ele><time>2026-04-22T15:59:36.552Z</time></trkpt><trkpt lat="45.6892955" lon="11.1201533"><ele>1191.0</ele><time>2026-04-22T15:59:37.553Z</time></trkpt><trkpt lat="45.6891913" lon="11.1201587"><ele>1188.0</ele><time>2026-04-22T15:59:38.55Z</time></trkpt><trkpt lat="45.6890871" lon="11.1201369"><ele>1185.0</ele><time>2026-04-22T15:59:39.549Z</time></trkpt><trkpt lat="45.6889439" lon="11.1200157"><ele>1185.0</ele><time>2026-04-22T15:59:40.554Z</time></trkpt><trkpt lat="45.6888336" lon="11.1199655"><ele>1185.0</ele><time>2026-04-22T15:59:41.545Z</time></trkpt><trkpt lat="45.6886984" lon="11.1199381"><ele>1185.0</ele><time>2026-04-22T15:59:42.561Z</time></trkpt><trkpt lat="45.6885729" lon="11.1199585"><ele>1185.0</ele><time>2026-04-22T15:59:43.549Z</time></trkpt><trkpt lat="45.6884588" lon="11.1200263"><ele>1181.25</ele><time>2026-04-22T15:59:44.553Z</time></trkpt><trkpt lat="45.6883364" lon="11.120106"><ele>1177.5</ele><time>2026-04-22T15:59:45.556Z</time></trkpt><trkpt lat="45.688216" lon="11.120172"><ele>1173.75</ele><time>2026-04-22T15:59:46.546Z</time></trkpt><trkpt lat="45.6880983" lon="11.120201"><ele>1170.0</ele><time>2026-04-22T15:59:47.559Z</time></trkpt><trkpt lat="45.6880051" lon="11.1202013"><ele>1170.0</ele><time>2026-04-22T15:59:48.549Z</time></trkpt><trkpt lat="45.6879142" lon="11.1201886"><ele>1170.0</ele><time>2026-04-22T15:59:49.551Z</time></trkpt><trkpt lat="45.6878234" lon="11.1201743"><ele>1170.0</ele><time>2026-04-22T15:59:50.557Z</time></trkpt><trkpt lat="45.6877424" lon="11.120129"><ele>1170.0</ele><time>2026-04-22T15:59:51.553Z</time></trkpt><trkpt lat="45.6876934" lon="11.1200363"><ele>1170.0</ele><time>2026-04-22T15:59:52.544Z</time></trkpt><trkpt lat="45.6876596" lon="11.1199206"><ele>1170.0</ele><time>2026-04-22T15:59:53.55Z</time></trkpt><trkpt lat="45.6876295" lon="11.1198176"><ele>1171.0</ele><time>2026-04-22T15:59:54.553Z</time></trkpt><trkpt lat="45.6875799" lon="11.1197379"><ele>1172.0</ele><time>2026-04-22T15:59:55.554Z</time></trkpt><trkpt lat="45.6875113" lon="11.1197177"><ele>1173.0</ele><time>2026-04-22T15:59:56.549Z</time></trkpt><trkpt lat="45.6874517" lon="11.1198584"><ele>1174.0</ele><time>2026-04-22T15:59:58.557Z</time></trkpt><trkpt lat="45.6874902" lon="11.1199529"><ele>1175.0</ele><time>2026-04-22T15:59:59.553Z</time></trkpt><trkpt lat="45.6875478" lon="11.1200705"><ele>1176.0</ele><time>2026-04-22T16:00:00.553Z</time></trkpt><trkpt lat="45.6876037" lon="11.1202076"><ele>1174.5</ele><time>2026-04-22T16:00:01.549Z</time></trkpt><trkpt lat="45.6876663" lon="11.1203389"><ele>1173.0</ele><time>2026-04-22T16:00:02.542Z</time></trkpt><trkpt lat="45.6877357" lon="11.1204677"><ele>1171.5</ele><time>2026-04-22T16:00:03.554Z</time></trkpt><trkpt lat="45.6878098" lon="11.1205985"><ele>1170.0</ele><time>2026-04-22T16:00:04.557Z</time></trkpt><trkpt lat="45.6878882" lon="11.1207108"><ele>1165.6</ele><time>2026-04-22T16:00:05.548Z</time></trkpt><trkpt lat="45.6879822" lon="11.1207951"><ele>1161.2</ele><time>2026-04-22T16:00:06.548Z</time></trkpt><trkpt lat="45.6880769" lon="11.1208699"><ele>1156.8</ele><time>2026-04-22T16:00:07.549Z</time></trkpt><trkpt lat="45.6881453" lon="11.1209803"><ele>1152.4</ele><time>2026-04-22T16:00:08.554Z</time></trkpt><trkpt lat="45.6882133" lon="11.1210874"><ele>1148.0</ele><time>2026-04-22T16:00:09.55Z</time></trkpt><trkpt lat="45.6882383" lon="11.1212282"><ele>1148.0</ele><time>2026-04-22T16:00:10.559Z</time></trkpt><trkpt lat="45.688306" lon="11.1213296"><ele>1148.0</ele><time>2026-04-22T16:00:11.547Z</time></trkpt><trkpt lat="45.6883867" lon="11.1213937"><ele>1148.0</ele><time>2026-04-22T16:00:12.543Z</time></trkpt><trkpt lat="45.6884589" lon="11.1214527"><ele>1148.0</ele><time>2026-04-22T16:00:13.55Z</time></trkpt><trkpt lat="45.6885032" lon="11.1215319"><ele>1148.0</ele><time>2026-04-22T16:00:14.551Z</time></trkpt><trkpt lat="45.6884659" lon="11.1216797"><ele>1148.0</ele><time>2026-04-22T16:00:16.552Z</time></trkpt><trkpt lat="45.6883557" lon="11.1216805"><ele>1148.0</ele><time>2026-04-22T16:00:18.553Z</time></trkpt><trkpt lat="45.6882678" lon="11.1215515"><ele>1148.0</ele><time>2026-04-22T16:00:19.551Z</time></trkpt><trkpt lat="45.6881697" lon="11.1214992"><ele>1148.0</ele><time>2026-04-22T16:00:20.546Z</time></trkpt><trkpt lat="45.6880676" lon="11.1214364"><ele>1148.0</ele><time>2026-04-22T16:00:21.552Z</time></trkpt><trkpt lat="45.6879767" lon="11.121377"><ele>1148.0</ele><time>2026-04-22T16:00:22.545Z</time></trkpt><trkpt lat="45.6878864" lon="11.1213076"><ele>1148.0</ele><time>2026-04-22T16:00:23.549Z</time></trkpt><trkpt lat="45.6877991" lon="11.1212024"><ele>1148.0</ele><time>2026-04-22T16:00:24.551Z</time></trkpt><trkpt lat="45.687717" lon="11.1210891"><ele>1148.0</ele><time>2026-04-22T16:00:25.551Z</time></trkpt><trkpt lat="45.6876495" lon="11.1209713"><ele>1148.4</ele><time>2026-04-22T16:00:26.542Z</time></trkpt><trkpt lat="45.6875826" lon="11.1208588"><ele>1148.8</ele><time>2026-04-22T16:00:27.549Z</time></trkpt><trkpt lat="45.6875262" lon="11.1207292"><ele>1149.2</ele><time>2026-04-22T16:00:28.548Z</time></trkpt><trkpt lat="45.6874688" lon="11.1206272"><ele>1149.6</ele><time>2026-04-22T16:00:29.548Z</time></trkpt><trkpt lat="45.6873961" lon="11.1205405"><ele>1150.0</ele><time>2026-04-22T16:00:30.545Z</time></trkpt><trkpt lat="45.6873319" lon="11.1204339"><ele>1150.0</ele><time>2026-04-22T16:00:31.553Z</time></trkpt><trkpt lat="45.6872807" lon="11.1203288"><ele>1150.0</ele><time>2026-04-22T16:00:32.547Z</time></trkpt><trkpt lat="45.6872169" lon="11.1202281"><ele>1150.0</ele><time>2026-04-22T16:00:33.545Z</time></trkpt><trkpt lat="45.6871282" lon="11.1201428"><ele>1150.0</ele><time>2026-04-22T16:00:34.552Z</time></trkpt><trkpt lat="45.6870474" lon="11.1200828"><ele>1150.0</ele><time>2026-04-22T16:00:35.552Z</time></trkpt><trkpt lat="45.6869898" lon="11.1200115"><ele>1150.0</ele><time>2026-04-22T16:00:36.545Z</time></trkpt><trkpt lat="45.6869346" lon="11.1199248"><ele>1150.0</ele><time>2026-04-22T16:00:37.557Z</time></trkpt><trkpt lat="45.6868991" lon="11.1198144"><ele>1150.0</ele><time>2026-04-22T16:00:38.546Z</time></trkpt><trkpt lat="45.6868534" lon="11.1196735"><ele>1150.0</ele><time>2026-04-22T16:00:39.555Z</time></trkpt><trkpt lat="45.6868173" lon="11.1195492"><ele>1150.0</ele><time>2026-04-22T16:00:40.547Z</time></trkpt><trkpt lat="45.6867236" lon="11.1194564"><ele>1147.2</ele><time>2026-04-22T16:00:41.545Z</time></trkpt><trkpt lat="45.6866861" lon="11.1193296"><ele>1144.4</ele><time>2026-04-22T16:00:42.553Z</time></trkpt><trkpt lat="45.6866335" lon="11.1192099"><ele>1141.6</ele><time>2026-04-22T16:00:43.55Z</time></trkpt><trkpt lat="45.6865838" lon="11.1190673"><ele>1138.8</ele><time>2026-04-22T16:00:44.546Z</time></trkpt><trkpt lat="45.6864994" lon="11.1189413"><ele>1136.0</ele><time>2026-04-22T16:00:45.553Z</time></trkpt><trkpt lat="45.686434" lon="11.1187903"><ele>1134.75</ele><time>2026-04-22T16:00:46.545Z</time></trkpt><trkpt lat="45.6863218" lon="11.1187187"><ele>1133.5</ele><time>2026-04-22T16:00:47.557Z</time></trkpt><trkpt lat="45.6862136" lon="11.1186671"><ele>1132.25</ele><time>2026-04-22T16:00:48.547Z</time></trkpt><trkpt lat="45.6861061" lon="11.1185922"><ele>1131.0</ele><time>2026-04-22T16:00:49.553Z</time></trkpt><trkpt lat="45.686022" lon="11.1185171"><ele>1131.0</ele><time>2026-04-22T16:00:50.552Z</time></trkpt><trkpt lat="45.6859129" lon="11.11842"><ele>1131.0</ele><time>2026-04-22T16:00:51.547Z</time></trkpt><trkpt lat="45.6857995" lon="11.1183351"><ele>1131.0</ele><time>2026-04-22T16:00:52.553Z</time></trkpt><trkpt lat="45.6856909" lon="11.1182488"><ele>1131.0</ele><time>2026-04-22T16:00:53.557Z</time></trkpt><trkpt lat="45.6855595" lon="11.1182205"><ele>1133.0</ele><time>2026-04-22T16:00:54.553Z</time></trkpt><trkpt lat="45.6854433" lon="11.1181639"><ele>1135.0</ele><time>2026-04-22T16:00:55.551Z</time></trkpt><trkpt lat="45.685326" lon="11.1180951"><ele>1137.0</ele><time>2026-04-22T16:00:56.55Z</time></trkpt><trkpt lat="45.6852203" lon="11.1180507"><ele>1139.0</ele><time>2026-04-22T16:00:57.561Z</time></trkpt><trkpt lat="45.6850932" lon="11.1180635"><ele>1139.0</ele><time>2026-04-22T16:00:58.554Z</time></trkpt><trkpt lat="45.6850006" lon="11.1180693"><ele>1139.0</ele><time>2026-04-22T16:00:59.56Z</time></trkpt><trkpt lat="45.6848788" lon="11.1181635"><ele>1139.0</ele><time>2026-04-22T16:01:00.553Z</time></trkpt><trkpt lat="45.6847902" lon="11.1182571"><ele>1139.0</ele><time>2026-04-22T16:01:01.546Z</time></trkpt><trkpt lat="45.6847137" lon="11.1183907"><ele>1130.5</ele><time>2026-04-22T16:01:02.543Z</time></trkpt><trkpt lat="45.6846481" lon="11.1185537"><ele>1122.0</ele><time>2026-04-22T16:01:03.556Z</time></trkpt><trkpt lat="45.6845884" lon="11.1187114"><ele>1113.5</ele><time>2026-04-22T16:01:04.551Z</time></trkpt><trkpt lat="45.6845364" lon="11.1188542"><ele>1105.0</ele><time>2026-04-22T16:01:05.561Z</time></trkpt><trkpt lat="45.684489" lon="11.1189779"><ele>1104.75</ele><time>2026-04-22T16:01:06.554Z</time></trkpt><trkpt lat="45.6844479" lon="11.1190699"><ele>1104.5</ele><time>2026-04-22T16:01:07.546Z</time></trkpt><trkpt lat="45.6843625" lon="11.1191728"><ele>1104.25</ele><time>2026-04-22T16:01:09.549Z</time></trkpt><trkpt lat="45.6841815" lon="11.1190845"><ele>1104.0</ele><time>2026-04-22T16:01:11.559Z</time></trkpt><trkpt lat="45.684084" lon="11.1190224"><ele>1101.75</ele><time>2026-04-22T16:01:12.544Z</time></trkpt><trkpt lat="45.6839842" lon="11.1189542"><ele>1099.5</ele><time>2026-04-22T16:01:13.558Z</time></trkpt><trkpt lat="45.6838735" lon="11.1188721"><ele>1097.25</ele><time>2026-04-22T16:01:14.546Z</time></trkpt><trkpt lat="45.683758" lon="11.1187929"><ele>1095.0</ele><time>2026-04-22T16:01:15.546Z</time></trkpt><trkpt lat="45.6836382" lon="11.118713"><ele>1094.0</ele><time>2026-04-22T16:01:16.545Z</time></trkpt><trkpt lat="45.6835285" lon="11.1186297"><ele>1093.0</ele><time>2026-04-22T16:01:17.548Z</time></trkpt><trkpt lat="45.6834171" lon="11.1185437"><ele>1092.0</ele><time>2026-04-22T16:01:18.545Z</time></trkpt><trkpt lat="45.6833186" lon="11.1184547"><ele>1091.0</ele><time>2026-04-22T16:01:19.56Z</time></trkpt><trkpt lat="45.6832255" lon="11.1183617"><ele>1091.0</ele><time>2026-04-22T16:01:20.546Z</time></trkpt><trkpt lat="45.6831226" lon="11.1182668"><ele>1091.0</ele><time>2026-04-22T16:01:21.551Z</time></trkpt><trkpt lat="45.6830283" lon="11.1181662"><ele>1091.0</ele><time>2026-04-22T16:01:22.549Z</time></trkpt><trkpt lat="45.6829301" lon="11.1180593"><ele>1091.0</ele><time>2026-04-22T16:01:23.553Z</time></trkpt><trkpt lat="45.6828299" lon="11.1179457"><ele>1089.25</ele><time>2026-04-22T16:01:24.549Z</time></trkpt><trkpt lat="45.6827259" lon="11.1178362"><ele>1087.5</ele><time>2026-04-22T16:01:25.546Z</time></trkpt><trkpt lat="45.6826084" lon="11.11776"><ele>1085.75</ele><time>2026-04-22T16:01:26.557Z</time></trkpt><trkpt lat="45.6824998" lon="11.1176754"><ele>1084.0</ele><time>2026-04-22T16:01:27.551Z</time></trkpt><trkpt lat="45.6823903" lon="11.1175754"><ele>1084.0</ele><time>2026-04-22T16:01:28.548Z</time></trkpt><trkpt lat="45.6822669" lon="11.1174895"><ele>1084.0</ele><time>2026-04-22T16:01:29.552Z</time></trkpt><trkpt lat="45.6821453" lon="11.1174437"><ele>1084.0</ele><time>2026-04-22T16:01:30.546Z</time></trkpt><trkpt lat="45.6820191" lon="11.1173949"><ele>1084.0</ele><time>2026-04-22T16:01:31.549Z</time></trkpt><trkpt lat="45.6818919" lon="11.1173474"><ele>1084.5</ele><time>2026-04-22T16:01:32.556Z</time></trkpt><trkpt lat="45.6817707" lon="11.1172922"><ele>1085.0</ele><time>2026-04-22T16:01:33.546Z</time></trkpt><trkpt lat="45.6816458" lon="11.1172344"><ele>1085.5</ele><time>2026-04-22T16:01:34.545Z</time></trkpt><trkpt lat="45.6815154" lon="11.117181"><ele>1086.0</ele><time>2026-04-22T16:01:35.549Z</time></trkpt><trkpt lat="45.6813684" lon="11.117123"><ele>1086.0</ele><time>2026-04-22T16:01:36.557Z</time></trkpt><trkpt lat="45.6812358" lon="11.1170957"><ele>1086.0</ele><time>2026-04-22T16:01:37.556Z</time></trkpt><trkpt lat="45.6811093" lon="11.1171167"><ele>1086.0</ele><time>2026-04-22T16:01:38.548Z</time></trkpt><trkpt lat="45.6809897" lon="11.1170961"><ele>1086.0</ele><time>2026-04-22T16:01:39.546Z</time></trkpt><trkpt lat="45.6808901" lon="11.1169911"><ele>1090.5</ele><time>2026-04-22T16:01:40.545Z</time></trkpt><trkpt lat="45.6808109" lon="11.116912"><ele>1095.0</ele><time>2026-04-22T16:01:41.557Z</time></trkpt><trkpt lat="45.6807041" lon="11.116812"><ele>1099.5</ele><time>2026-04-22T16:01:42.548Z</time></trkpt><trkpt lat="45.6806299" lon="11.1166903"><ele>1104.0</ele><time>2026-04-22T16:01:43.544Z</time></trkpt><trkpt lat="45.6805398" lon="11.1165603"><ele>1104.0</ele><time>2026-04-22T16:01:44.551Z</time></trkpt><trkpt lat="45.680431" lon="11.1165137"><ele>1104.0</ele><time>2026-04-22T16:01:45.549Z</time></trkpt><trkpt lat="45.6803284" lon="11.1164315"><ele>1104.0</ele><time>2026-04-22T16:01:46.561Z</time></trkpt><trkpt lat="45.6802329" lon="11.1163412"><ele>1104.0</ele><time>2026-04-22T16:01:47.549Z</time></trkpt><trkpt lat="45.6801393" lon="11.1162629"><ele>1097.0</ele><time>2026-04-22T16:01:48.555Z</time></trkpt><trkpt lat="45.6800559" lon="11.1161715"><ele>1090.0</ele><time>2026-04-22T16:01:49.556Z</time></trkpt><trkpt lat="45.6799632" lon="11.1161089"><ele>1083.0</ele><time>2026-04-22T16:01:50.557Z</time></trkpt><trkpt lat="45.6798552" lon="11.1160654"><ele>1076.0</ele><time>2026-04-22T16:01:51.547Z</time></trkpt><trkpt lat="45.6797258" lon="11.1160586"><ele>1069.0</ele><time>2026-04-22T16:01:52.557Z</time></trkpt><trkpt lat="45.6796107" lon="11.1160717"><ele>1069.0</ele><time>2026-04-22T16:01:53.55Z</time></trkpt><trkpt lat="45.6795087" lon="11.1160415"><ele>1069.0</ele><time>2026-04-22T16:01:54.552Z</time></trkpt><trkpt lat="45.679412" lon="11.1159939"><ele>1069.0</ele><time>2026-04-22T16:01:55.544Z</time></trkpt><trkpt lat="45.6793154" lon="11.1159592"><ele>1069.0</ele><time>2026-04-22T16:01:56.554Z</time></trkpt><trkpt lat="45.6792221" lon="11.1159405"><ele>1069.0</ele><time>2026-04-22T16:01:57.561Z</time></trkpt><trkpt lat="45.6791377" lon="11.1159178"><ele>1067.2</ele><time>2026-04-22T16:01:58.554Z</time></trkpt><trkpt lat="45.6790349" lon="11.1159636"><ele>1065.4</ele><time>2026-04-22T16:01:59.556Z</time></trkpt><trkpt lat="45.6789447" lon="11.1159753"><ele>1063.6</ele><time>2026-04-22T16:02:00.554Z</time></trkpt><trkpt lat="45.6788544" lon="11.1159922"><ele>1061.8</ele><time>2026-04-22T16:02:01.549Z</time></trkpt><trkpt lat="45.6787539" lon="11.1160221"><ele>1060.0</ele><time>2026-04-22T16:02:02.545Z</time></trkpt><trkpt lat="45.6786575" lon="11.1160481"><ele>1057.6</ele><time>2026-04-22T16:02:03.551Z</time></trkpt><trkpt lat="45.678564" lon="11.1160572"><ele>1055.2</ele><time>2026-04-22T16:02:04.567Z</time></trkpt><trkpt lat="45.6784643" lon="11.1160503"><ele>1052.8</ele><time>2026-04-22T16:02:05.548Z</time></trkpt><trkpt lat="45.6783737" lon="11.1160392"><ele>1050.4</ele><time>2026-04-22T16:02:06.554Z</time></trkpt><trkpt lat="45.6782825" lon="11.1159937"><ele>1048.0</ele><time>2026-04-22T16:02:07.56Z</time></trkpt><trkpt lat="45.6781895" lon="11.115958"><ele>1048.0</ele><time>2026-04-22T16:02:08.556Z</time></trkpt><trkpt lat="45.6781137" lon="11.1158962"><ele>1048.0</ele><time>2026-04-22T16:02:09.549Z</time></trkpt><trkpt lat="45.6780263" lon="11.1158712"><ele>1048.0</ele><time>2026-04-22T16:02:10.554Z</time></trkpt><trkpt lat="45.6779452" lon="11.1158357"><ele>1048.0</ele><time>2026-04-22T16:02:11.543Z</time></trkpt><trkpt lat="45.6778513" lon="11.1158112"><ele>1048.0</ele><time>2026-04-22T16:02:12.56Z</time></trkpt><trkpt lat="45.6777527" lon="11.1157929"><ele>1048.2</ele><time>2026-04-22T16:02:13.556Z</time></trkpt><trkpt lat="45.677646" lon="11.1157795"><ele>1048.4</ele><time>2026-04-22T16:02:14.554Z</time></trkpt><trkpt lat="45.6775352" lon="11.1157755"><ele>1048.6000000000001</ele><time>2026-04-22T16:02:15.558Z</time></trkpt><trkpt lat="45.677424" lon="11.1157743"><ele>1048.8</ele><time>2026-04-22T16:02:16.561Z</time></trkpt><trkpt lat="45.6773083" lon="11.1157817"><ele>1049.0</ele><time>2026-04-22T16:02:17.549Z</time></trkpt><trkpt lat="45.6771888" lon="11.115797"><ele>1049.0</ele><time>2026-04-22T16:02:18.565Z</time></trkpt><trkpt lat="45.6770681" lon="11.1158125"><ele>1049.0</ele><time>2026-04-22T16:02:19.552Z</time></trkpt><trkpt lat="45.6769463" lon="11.1158255"><ele>1049.0</ele><time>2026-04-22T16:02:20.558Z</time></trkpt><trkpt lat="45.6768205" lon="11.1158406"><ele>1049.0</ele><time>2026-04-22T16:02:21.552Z</time></trkpt><trkpt lat="45.676696" lon="11.1158492"><ele>1047.75</ele><time>2026-04-22T16:02:22.57Z</time></trkpt><trkpt lat="45.6765663" lon="11.115851"><ele>1046.5</ele><time>2026-04-22T16:02:23.561Z</time></trkpt><trkpt lat="45.6764452" lon="11.1158657"><ele>1045.25</ele><time>2026-04-22T16:02:24.558Z</time></trkpt><trkpt lat="45.6763175" lon="11.1158901"><ele>1044.0</ele><time>2026-04-22T16:02:25.553Z</time></trkpt><trkpt lat="45.6761926" lon="11.1158783"><ele>1040.5</ele><time>2026-04-22T16:02:26.548Z</time></trkpt><trkpt lat="45.6760723" lon="11.115853"><ele>1037.0</ele><time>2026-04-22T16:02:27.549Z</time></trkpt><trkpt lat="45.675947" lon="11.1158421"><ele>1033.5</ele><time>2026-04-22T16:02:28.556Z</time></trkpt><trkpt lat="45.6758248" lon="11.1158626"><ele>1030.0</ele><time>2026-04-22T16:02:29.552Z</time></trkpt><trkpt lat="45.6757076" lon="11.1158931"><ele>1030.0</ele><time>2026-04-22T16:02:30.549Z</time></trkpt><trkpt lat="45.6755873" lon="11.115931"><ele>1030.0</ele><time>2026-04-22T16:02:31.547Z</time></trkpt><trkpt lat="45.6754663" lon="11.1159587"><ele>1030.0</ele><time>2026-04-22T16:02:32.548Z</time></trkpt><trkpt lat="45.6753413" lon="11.1159548"><ele>1030.0</ele><time>2026-04-22T16:02:33.559Z</time></trkpt><trkpt lat="45.6752191" lon="11.1159448"><ele>1026.5</ele><time>2026-04-22T16:02:34.554Z</time></trkpt><trkpt lat="45.6750987" lon="11.1159239"><ele>1023.0</ele><time>2026-04-22T16:02:35.555Z</time></trkpt><trkpt lat="45.6749855" lon="11.115915"><ele>1019.5</ele><time>2026-04-22T16:02:36.55Z</time></trkpt><trkpt lat="45.6748746" lon="11.1158935"><ele>1016.0</ele><time>2026-04-22T16:02:37.55Z</time></trkpt><trkpt lat="45.6747629" lon="11.1159408"><ele>1016.0</ele><time>2026-04-22T16:02:38.554Z</time></trkpt><trkpt lat="45.6746485" lon="11.1160299"><ele>1015.9999999999999</ele><time>2026-04-22T16:02:39.547Z</time></trkpt><trkpt lat="45.674552" lon="11.116099"><ele>1015.9999999999999</ele><time>2026-04-22T16:02:40.553Z</time></trkpt><trkpt lat="45.6744697" lon="11.1161379"><ele>1016.0</ele><time>2026-04-22T16:02:41.55Z</time></trkpt><trkpt lat="45.6743951" lon="11.1161375"><ele>1016.0</ele><time>2026-04-22T16:02:42.547Z</time></trkpt><trkpt lat="45.6743244" lon="11.1160644"><ele>1016.0</ele><time>2026-04-22T16:02:44.562Z</time></trkpt><trkpt lat="45.6743895" lon="11.1159655"><ele>1015.9999999999999</ele><time>2026-04-22T16:02:46.558Z</time></trkpt><trkpt lat="45.6744843" lon="11.1159015"><ele>1015.9999999999999</ele><time>2026-04-22T16:02:47.559Z</time></trkpt><trkpt lat="45.6745963" lon="11.1158603"><ele>1016.0</ele><time>2026-04-22T16:02:48.553Z</time></trkpt><trkpt lat="45.6747015" lon="11.1158241"><ele>1016.0</ele><time>2026-04-22T16:02:49.554Z</time></trkpt><trkpt lat="45.6747943" lon="11.1157949"><ele>1016.0000000000001</ele><time>2026-04-22T16:02:50.543Z</time></trkpt><trkpt lat="45.6748875" lon="11.115776"><ele>1016.0</ele><time>2026-04-22T16:02:51.553Z</time></trkpt><trkpt lat="45.6749642" lon="11.1157707"><ele>1016.0</ele><time>2026-04-22T16:02:52.55Z</time></trkpt><trkpt lat="45.6750347" lon="11.115735"><ele>1016.0</ele><time>2026-04-22T16:02:53.551Z</time></trkpt><trkpt lat="45.6750191" lon="11.1156151"><ele>1016.0000000000001</ele><time>2026-04-22T16:02:54.557Z</time></trkpt><trkpt lat="45.675013" lon="11.1155207"><ele>1016.0</ele><time>2026-04-22T16:02:55.549Z</time></trkpt><trkpt lat="45.6749054" lon="11.1154654"><ele>1015.0</ele><time>2026-04-22T16:02:57.548Z</time></trkpt><trkpt lat="45.6747819" lon="11.1154719"><ele>1014.0</ele><time>2026-04-22T16:02:58.562Z</time></trkpt><trkpt lat="45.6746698" lon="11.1155224"><ele>1013.0</ele><time>2026-04-22T16:02:59.546Z</time></trkpt><trkpt lat="45.6745594" lon="11.1155589"><ele>1012.0</ele><time>2026-04-22T16:03:00.552Z</time></trkpt><trkpt lat="45.6744504" lon="11.1156358"><ele>1010.75</ele><time>2026-04-22T16:03:01.555Z</time></trkpt><trkpt lat="45.6743524" lon="11.1157223"><ele>1009.5</ele><time>2026-04-22T16:03:02.55Z</time></trkpt><trkpt lat="45.6742691" lon="11.1158249"><ele>1008.25</ele><time>2026-04-22T16:03:03.555Z</time></trkpt><trkpt lat="45.6741773" lon="11.1159255"><ele>1007.0</ele><time>2026-04-22T16:03:04.547Z</time></trkpt><trkpt lat="45.6740879" lon="11.1160279"><ele>1006.4000000000001</ele><time>2026-04-22T16:03:05.548Z</time></trkpt><trkpt lat="45.6740031" lon="11.1161249"><ele>1005.8000000000001</ele><time>2026-04-22T16:03:06.557Z</time></trkpt><trkpt lat="45.6739027" lon="11.1161741"><ele>1005.2</ele><time>2026-04-22T16:03:07.556Z</time></trkpt><trkpt lat="45.6738038" lon="11.1162115"><ele>1004.6</ele><time>2026-04-22T16:03:08.557Z</time></trkpt><trkpt lat="45.6737083" lon="11.1162813"><ele>1004.0</ele><time>2026-04-22T16:03:09.546Z</time></trkpt><trkpt lat="45.6736297" lon="11.1163836"><ele>1003.4000000000001</ele><time>2026-04-22T16:03:10.551Z</time></trkpt><trkpt lat="45.6735642" lon="11.1165037"><ele>1002.8000000000001</ele><time>2026-04-22T16:03:11.55Z</time></trkpt><trkpt lat="45.6735138" lon="11.1166089"><ele>1002.1999999999999</ele><time>2026-04-22T16:03:12.554Z</time></trkpt><trkpt lat="45.6734624" lon="11.1166675"><ele>1001.5999999999999</ele><time>2026-04-22T16:03:13.553Z</time></trkpt><trkpt lat="45.6733526" lon="11.1167031"><ele>1001.0</ele><time>2026-04-22T16:03:15.548Z</time></trkpt><trkpt lat="45.6733513" lon="11.1165704"><ele>1001.5999999999999</ele><time>2026-04-22T16:03:16.559Z</time></trkpt><trkpt lat="45.6734224" lon="11.116405"><ele>1002.1999999999999</ele><time>2026-04-22T16:03:18.548Z</time></trkpt><trkpt lat="45.6734789" lon="11.1163101"><ele>1002.8000000000001</ele><time>2026-04-22T16:03:19.556Z</time></trkpt><trkpt lat="45.6735466" lon="11.116218"><ele>1003.4000000000001</ele><time>2026-04-22T16:03:20.55Z</time></trkpt><trkpt lat="45.6736007" lon="11.116138"><ele>1004.0</ele><time>2026-04-22T16:03:21.545Z</time></trkpt><trkpt lat="45.6736251" lon="11.1160484"><ele>998.5</ele><time>2026-04-22T16:03:22.546Z</time></trkpt><trkpt lat="45.6736025" lon="11.1159619"><ele>993.0</ele><time>2026-04-22T16:03:23.551Z</time></trkpt><trkpt lat="45.6735398" lon="11.1158454"><ele>987.5</ele><time>2026-04-22T16:03:25.55Z</time></trkpt><trkpt lat="45.6734194" lon="11.1158428"><ele>982.0</ele><time>2026-04-22T16:03:26.557Z</time></trkpt><trkpt lat="45.6733174" lon="11.1160305"><ele>982.0</ele><time>2026-04-22T16:03:27.551Z</time></trkpt><trkpt lat="45.6732384" lon="11.1161525"><ele>982.0</ele><time>2026-04-22T16:03:28.548Z</time></trkpt><trkpt lat="45.6731708" lon="11.1163044"><ele>982.0</ele><time>2026-04-22T16:03:29.554Z</time></trkpt><trkpt lat="45.673107" lon="11.1164354"><ele>982.0</ele><time>2026-04-22T16:03:30.554Z</time></trkpt><trkpt lat="45.6730432" lon="11.116559"><ele>982.0</ele><time>2026-04-22T16:03:31.553Z</time></trkpt><trkpt lat="45.6729721" lon="11.1166297"><ele>982.0</ele><time>2026-04-22T16:03:32.554Z</time></trkpt><trkpt lat="45.6728948" lon="11.1166768"><ele>982.0</ele><time>2026-04-22T16:03:33.556Z</time></trkpt><trkpt lat="45.6727667" lon="11.1166881"><ele>982.0</ele><time>2026-04-22T16:03:34.555Z</time></trkpt><trkpt lat="45.672657" lon="11.1166783"><ele>982.0</ele><time>2026-04-22T16:03:35.544Z</time></trkpt><trkpt lat="45.6725486" lon="11.1166707"><ele>982.0</ele><time>2026-04-22T16:03:36.551Z</time></trkpt><trkpt lat="45.6724234" lon="11.1166644"><ele>982.0</ele><time>2026-04-22T16:03:37.556Z</time></trkpt><trkpt lat="45.6722876" lon="11.1166617"><ele>982.0</ele><time>2026-04-22T16:03:38.553Z</time></trkpt><trkpt lat="45.6721599" lon="11.1166475"><ele>982.0</ele><time>2026-04-22T16:03:39.546Z</time></trkpt><trkpt lat="45.6720352" lon="11.116643"><ele>978.8</ele><time>2026-04-22T16:03:40.545Z</time></trkpt><trkpt lat="45.6719148" lon="11.1166339"><ele>975.6</ele><time>2026-04-22T16:03:41.56Z</time></trkpt><trkpt lat="45.6718025" lon="11.1166279"><ele>972.3999999999999</ele><time>2026-04-22T16:03:42.551Z</time></trkpt><trkpt lat="45.6717046" lon="11.1166272"><ele>969.1999999999999</ele><time>2026-04-22T16:03:43.553Z</time></trkpt><trkpt lat="45.6716106" lon="11.1166656"><ele>966.0</ele><time>2026-04-22T16:03:44.553Z</time></trkpt><trkpt lat="45.6715281" lon="11.1167445"><ele>966.0</ele><time>2026-04-22T16:03:45.552Z</time></trkpt><trkpt lat="45.6714533" lon="11.1168394"><ele>965.9999999999999</ele><time>2026-04-22T16:03:46.552Z</time></trkpt><trkpt lat="45.6713839" lon="11.1169494"><ele>965.9999999999999</ele><time>2026-04-22T16:03:47.546Z</time></trkpt><trkpt lat="45.6712864" lon="11.1170247"><ele>966.0</ele><time>2026-04-22T16:03:48.559Z</time></trkpt><trkpt lat="45.671177" lon="11.1170701"><ele>966.0</ele><time>2026-04-22T16:03:49.55Z</time></trkpt><trkpt lat="45.6710649" lon="11.1171034"><ele>962.1999999999999</ele><time>2026-04-22T16:03:50.557Z</time></trkpt><trkpt lat="45.6709541" lon="11.117138"><ele>958.3999999999999</ele><time>2026-04-22T16:03:51.551Z</time></trkpt><trkpt lat="45.6708454" lon="11.1171659"><ele>954.6</ele><time>2026-04-22T16:03:52.557Z</time></trkpt><trkpt lat="45.670745" lon="11.1171926"><ele>950.8</ele><time>2026-04-22T16:03:53.55Z</time></trkpt><trkpt lat="45.6706575" lon="11.1172223"><ele>947.0</ele><time>2026-04-22T16:03:54.548Z</time></trkpt><trkpt lat="45.6705832" lon="11.1172602"><ele>947.0</ele><time>2026-04-22T16:03:55.556Z</time></trkpt><trkpt lat="45.6704811" lon="11.1172692"><ele>947.0</ele><time>2026-04-22T16:03:57.55Z</time></trkpt><trkpt lat="45.6705499" lon="11.1172259"><ele>947.0</ele><time>2026-04-22T16:04:00.548Z</time></trkpt><trkpt lat="45.6706351" lon="11.117197"><ele>947.0</ele><time>2026-04-22T16:04:01.549Z</time></trkpt><trkpt lat="45.6707233" lon="11.1171602"><ele>947.0</ele><time>2026-04-22T16:04:02.556Z</time></trkpt><trkpt lat="45.6708192" lon="11.1170967"><ele>947.0</ele><time>2026-04-22T16:04:03.553Z</time></trkpt><trkpt lat="45.6709076" lon="11.1169906"><ele>947.0</ele><time>2026-04-22T16:04:04.556Z</time></trkpt><trkpt lat="45.6709886" lon="11.1168896"><ele>947.0</ele><time>2026-04-22T16:04:05.552Z</time></trkpt><trkpt lat="45.671073" lon="11.116776"><ele>947.0</ele><time>2026-04-22T16:04:06.553Z</time></trkpt><trkpt lat="45.6711527" lon="11.116692"><ele>947.0</ele><time>2026-04-22T16:04:07.567Z</time></trkpt><trkpt lat="45.6712185" lon="11.1166186"><ele>947.0000000000001</ele><time>2026-04-22T16:04:08.553Z</time></trkpt><trkpt lat="45.6712623" lon="11.1165422"><ele>947.0</ele><time>2026-04-22T16:04:09.558Z</time></trkpt><trkpt lat="45.6712341" lon="11.1164613"><ele>947.0</ele><time>2026-04-22T16:04:10.563Z</time></trkpt><trkpt lat="45.671126" lon="11.1164316"><ele>947.0</ele><time>2026-04-22T16:04:12.555Z</time></trkpt><trkpt lat="45.6710511" lon="11.1164991"><ele>947.0000000000001</ele><time>2026-04-22T16:04:13.55Z</time></trkpt><trkpt lat="45.6709644" lon="11.1165805"><ele>947.0</ele><time>2026-04-22T16:04:14.56Z</time></trkpt><trkpt lat="45.6708646" lon="11.1166567"><ele>947.0</ele><time>2026-04-22T16:04:15.554Z</time></trkpt><trkpt lat="45.6707683" lon="11.1167279"><ele>947.0</ele><time>2026-04-22T16:04:16.549Z</time></trkpt><trkpt lat="45.6706816" lon="11.1167895"><ele>947.0</ele><time>2026-04-22T16:04:17.558Z</time></trkpt><trkpt lat="45.6706002" lon="11.116834"><ele>947.0</ele><time>2026-04-22T16:04:18.551Z</time></trkpt><trkpt lat="45.6705244" lon="11.1168715"><ele>947.0</ele><time>2026-04-22T16:04:19.549Z</time></trkpt><trkpt lat="45.6704494" lon="11.1169088"><ele>947.0</ele><time>2026-04-22T16:04:20.565Z</time></trkpt><trkpt lat="45.6703881" lon="11.1168857"><ele>947.0</ele><time>2026-04-22T16:04:21.558Z</time></trkpt><trkpt lat="45.6703772" lon="11.1167513"><ele>947.0</ele><time>2026-04-22T16:04:23.556Z</time></trkpt><trkpt lat="45.6704933" lon="11.1167236"><ele>947.0</ele><time>2026-04-22T16:04:24.549Z</time></trkpt><trkpt lat="45.6706046" lon="11.1166898"><ele>947.0</ele><time>2026-04-22T16:04:25.567Z</time></trkpt><trkpt lat="45.6706889" lon="11.116632"><ele>944.6</ele><time>2026-04-22T16:04:26.552Z</time></trkpt><trkpt lat="45.6707754" lon="11.1164969"><ele>942.2</ele><time>2026-04-22T16:04:27.55Z</time></trkpt><trkpt lat="45.6708511" lon="11.1163813"><ele>939.8</ele><time>2026-04-22T16:04:28.555Z</time></trkpt><trkpt lat="45.6709097" lon="11.1162745"><ele>937.4</ele><time>2026-04-22T16:04:29.557Z</time></trkpt><trkpt lat="45.6709765" lon="11.1161943"><ele>935.0</ele><time>2026-04-22T16:04:30.557Z</time></trkpt><trkpt lat="45.6710498" lon="11.1161242"><ele>936.4</ele><time>2026-04-22T16:04:31.556Z</time></trkpt><trkpt lat="45.6711466" lon="11.1161473"><ele>937.8</ele><time>2026-04-22T16:04:32.546Z</time></trkpt><trkpt lat="45.6712471" lon="11.1161566"><ele>939.2</ele><time>2026-04-22T16:04:33.551Z</time></trkpt><trkpt lat="45.6713501" lon="11.1161507"><ele>940.6</ele><time>2026-04-22T16:04:34.553Z</time></trkpt><trkpt lat="45.6714556" lon="11.116155"><ele>942.0</ele><time>2026-04-22T16:04:35.562Z</time></trkpt><trkpt lat="45.671546" lon="11.1161411"><ele>942.0</ele><time>2026-04-22T16:04:36.545Z</time></trkpt><trkpt lat="45.6716126" lon="11.1160887"><ele>942.0</ele><time>2026-04-22T16:04:37.549Z</time></trkpt><trkpt lat="45.6716411" lon="11.1160065"><ele>942.0</ele><time>2026-04-22T16:04:38.555Z</time></trkpt><trkpt lat="45.6716209" lon="11.1158706"><ele>942.0</ele><time>2026-04-22T16:04:40.547Z</time></trkpt><trkpt lat="45.6714964" lon="11.1159126"><ele>942.0</ele><time>2026-04-22T16:04:41.552Z</time></trkpt><trkpt lat="45.6713966" lon="11.1159245"><ele>942.0</ele><time>2026-04-22T16:04:42.554Z</time></trkpt><trkpt lat="45.6712934" lon="11.1159388"><ele>942.0</ele><time>2026-04-22T16:04:43.551Z</time></trkpt><trkpt lat="45.671189" lon="11.1159518"><ele>942.0</ele><time>2026-04-22T16:04:44.544Z</time></trkpt><trkpt lat="45.6710964" lon="11.1159336"><ele>942.0</ele><time>2026-04-22T16:04:45.547Z</time></trkpt><trkpt lat="45.6710099" lon="11.1159119"><ele>942.0</ele><time>2026-04-22T16:04:46.559Z</time></trkpt><trkpt lat="45.6709288" lon="11.1159377"><ele>940.6</ele><time>2026-04-22T16:04:47.556Z</time></trkpt><trkpt lat="45.670867" lon="11.1160329"><ele>939.2</ele><time>2026-04-22T16:04:48.545Z</time></trkpt><trkpt lat="45.6707896" lon="11.1161187"><ele>937.8</ele><time>2026-04-22T16:04:49.559Z</time></trkpt><trkpt lat="45.6707014" lon="11.1161971"><ele>936.4</ele><time>2026-04-22T16:04:50.553Z</time></trkpt><trkpt lat="45.6705979" lon="11.1162568"><ele>935.0</ele><time>2026-04-22T16:04:51.558Z</time></trkpt><trkpt lat="45.6704902" lon="11.1162863"><ele>935.0</ele><time>2026-04-22T16:04:52.558Z</time></trkpt><trkpt lat="45.6703734" lon="11.1162885"><ele>935.0</ele><time>2026-04-22T16:04:53.548Z</time></trkpt><trkpt lat="45.6702466" lon="11.1162768"><ele>935.0</ele><time>2026-04-22T16:04:54.547Z</time></trkpt><trkpt lat="45.6701151" lon="11.1162557"><ele>935.0</ele><time>2026-04-22T16:04:55.549Z</time></trkpt><trkpt lat="45.6699824" lon="11.116231"><ele>930.75</ele><time>2026-04-22T16:04:56.558Z</time></trkpt><trkpt lat="45.6698477" lon="11.1162038"><ele>926.5</ele><time>2026-04-22T16:04:57.553Z</time></trkpt><trkpt lat="45.6697071" lon="11.1161783"><ele>922.25</ele><time>2026-04-22T16:04:58.549Z</time></trkpt><trkpt lat="45.669577" lon="11.116147"><ele>918.0</ele><time>2026-04-22T16:04:59.546Z</time></trkpt><trkpt lat="45.6694479" lon="11.1161193"><ele>915.0</ele><time>2026-04-22T16:05:00.548Z</time></trkpt><trkpt lat="45.6693205" lon="11.1160947"><ele>912.0</ele><time>2026-04-22T16:05:01.551Z</time></trkpt><trkpt lat="45.669192" lon="11.1161086"><ele>909.0</ele><time>2026-04-22T16:05:02.554Z</time></trkpt><trkpt lat="45.6690691" lon="11.1161276"><ele>906.0</ele><time>2026-04-22T16:05:03.554Z</time></trkpt><trkpt lat="45.6689538" lon="11.1161511"><ele>906.0</ele><time>2026-04-22T16:05:04.55Z</time></trkpt><trkpt lat="45.668828" lon="11.1161815"><ele>906.0</ele><time>2026-04-22T16:05:05.549Z</time></trkpt><trkpt lat="45.6686957" lon="11.116223"><ele>906.0</ele><time>2026-04-22T16:05:06.547Z</time></trkpt><trkpt lat="45.6685634" lon="11.116254"><ele>906.0</ele><time>2026-04-22T16:05:07.551Z</time></trkpt><trkpt lat="45.6684316" lon="11.1162687"><ele>904.5</ele><time>2026-04-22T16:05:08.554Z</time></trkpt><trkpt lat="45.6682947" lon="11.1162653"><ele>903.0</ele><time>2026-04-22T16:05:09.548Z</time></trkpt><trkpt lat="45.6681611" lon="11.1162445"><ele>901.5</ele><time>2026-04-22T16:05:10.549Z</time></trkpt><trkpt lat="45.668026" lon="11.1162183"><ele>900.0</ele><time>2026-04-22T16:05:11.546Z</time></trkpt><trkpt lat="45.6678903" lon="11.1161876"><ele>896.5</ele><time>2026-04-22T16:05:12.557Z</time></trkpt><trkpt lat="45.6677577" lon="11.1161574"><ele>893.0</ele><time>2026-04-22T16:05:13.552Z</time></trkpt><trkpt lat="45.6676247" lon="11.1161217"><ele>889.5</ele><time>2026-04-22T16:05:14.545Z</time></trkpt><trkpt lat="45.6674926" lon="11.116084"><ele>886.0</ele><time>2026-04-22T16:05:15.552Z</time></trkpt><trkpt lat="45.6673613" lon="11.1160497"><ele>886.0</ele><time>2026-04-22T16:05:16.55Z</time></trkpt><trkpt lat="45.6672305" lon="11.1160165"><ele>886.0</ele><time>2026-04-22T16:05:17.576Z</time></trkpt><trkpt lat="45.6671008" lon="11.1159832"><ele>886.0</ele><time>2026-04-22T16:05:18.55Z</time></trkpt><trkpt lat="45.6669713" lon="11.1159547"><ele>886.0</ele><time>2026-04-22T16:05:19.551Z</time></trkpt><trkpt lat="45.6668437" lon="11.1159431"><ele>884.25</ele><time>2026-04-22T16:05:20.547Z</time></trkpt><trkpt lat="45.6667143" lon="11.1159476"><ele>882.5</ele><time>2026-04-22T16:05:21.548Z</time></trkpt><trkpt lat="45.6665834" lon="11.1159541"><ele>880.75</ele><time>2026-04-22T16:05:22.555Z</time></trkpt><trkpt lat="45.6664468" lon="11.1159596"><ele>879.0</ele><time>2026-04-22T16:05:23.549Z</time></trkpt><trkpt lat="45.6663091" lon="11.1159584"><ele>879.0</ele><time>2026-04-22T16:05:24.548Z</time></trkpt><trkpt lat="45.6661803" lon="11.1159402"><ele>879.0</ele><time>2026-04-22T16:05:25.548Z</time></trkpt><trkpt lat="45.6660475" lon="11.1159212"><ele>879.0</ele><time>2026-04-22T16:05:26.547Z</time></trkpt><trkpt lat="45.6659143" lon="11.1159047"><ele>879.0</ele><time>2026-04-22T16:05:27.547Z</time></trkpt><trkpt lat="45.6657765" lon="11.1158856"><ele>878.5</ele><time>2026-04-22T16:05:28.556Z</time></trkpt><trkpt lat="45.6656402" lon="11.1158571"><ele>878.0</ele><time>2026-04-22T16:05:29.554Z</time></trkpt><trkpt lat="45.6655064" lon="11.1158197"><ele>877.5</ele><time>2026-04-22T16:05:30.55Z</time></trkpt><trkpt lat="45.6653709" lon="11.1157933"><ele>877.0</ele><time>2026-04-22T16:05:31.557Z</time></trkpt><trkpt lat="45.6652395" lon="11.1157872"><ele>875.5</ele><time>2026-04-22T16:05:32.563Z</time></trkpt><trkpt lat="45.6651089" lon="11.1157971"><ele>874.0</ele><time>2026-04-22T16:05:33.553Z</time></trkpt><trkpt lat="45.6649803" lon="11.1158086"><ele>872.5</ele><time>2026-04-22T16:05:34.55Z</time></trkpt><trkpt lat="45.6648511" lon="11.1158208"><ele>871.0</ele><time>2026-04-22T16:05:35.548Z</time></trkpt><trkpt lat="45.6647218" lon="11.1158249"><ele>871.0</ele><time>2026-04-22T16:05:36.557Z</time></trkpt><trkpt lat="45.66459" lon="11.1158146"><ele>871.0</ele><time>2026-04-22T16:05:37.552Z</time></trkpt><trkpt lat="45.6644567" lon="11.1157927"><ele>871.0</ele><time>2026-04-22T16:05:38.56Z</time></trkpt><trkpt lat="45.664322" lon="11.1157687"><ele>871.0</ele><time>2026-04-22T16:05:39.554Z</time></trkpt><trkpt lat="45.6641883" lon="11.1157447"><ele>872.25</ele><time>2026-04-22T16:05:40.549Z</time></trkpt><trkpt lat="45.6640527" lon="11.1157241"><ele>873.5</ele><time>2026-04-22T16:05:41.556Z</time></trkpt><trkpt lat="45.663919" lon="11.1157123"><ele>874.75</ele><time>2026-04-22T16:05:42.554Z</time></trkpt><trkpt lat="45.6637908" lon="11.1157112"><ele>876.0</ele><time>2026-04-22T16:05:43.558Z</time></trkpt><trkpt lat="45.6636625" lon="11.1157148"><ele>872.0</ele><time>2026-04-22T16:05:44.552Z</time></trkpt><trkpt lat="45.6635346" lon="11.1157342"><ele>868.0</ele><time>2026-04-22T16:05:45.547Z</time></trkpt><trkpt lat="45.6634119" lon="11.1157892"><ele>864.0</ele><time>2026-04-22T16:05:46.56Z</time></trkpt><trkpt lat="45.6632879" lon="11.1158635"><ele>860.0</ele><time>2026-04-22T16:05:47.555Z</time></trkpt><trkpt lat="45.663165" lon="11.1159391"><ele>858.75</ele><time>2026-04-22T16:05:48.56Z</time></trkpt><trkpt lat="45.6630374" lon="11.1159958"><ele>857.5</ele><time>2026-04-22T16:05:49.556Z</time></trkpt><trkpt lat="45.6629088" lon="11.1160402"><ele>856.25</ele><time>2026-04-22T16:05:50.546Z</time></trkpt><trkpt lat="45.6627795" lon="11.1160759"><ele>855.0</ele><time>2026-04-22T16:05:51.552Z</time></trkpt><trkpt lat="45.6626514" lon="11.1161097"><ele>852.25</ele><time>2026-04-22T16:05:52.554Z</time></trkpt><trkpt lat="45.662526" lon="11.1161524"><ele>849.5</ele><time>2026-04-22T16:05:53.548Z</time></trkpt><trkpt lat="45.6624033" lon="11.116206"><ele>846.75</ele><time>2026-04-22T16:05:54.551Z</time></trkpt><trkpt lat="45.6622802" lon="11.1162587"><ele>844.0</ele><time>2026-04-22T16:05:55.552Z</time></trkpt><trkpt lat="45.6621572" lon="11.1162963"><ele>844.0</ele><time>2026-04-22T16:05:56.549Z</time></trkpt><trkpt lat="45.662033" lon="11.1163131"><ele>844.0</ele><time>2026-04-22T16:05:57.55Z</time></trkpt><trkpt lat="45.6619071" lon="11.116325"><ele>844.0</ele><time>2026-04-22T16:05:58.548Z</time></trkpt><trkpt lat="45.6617856" lon="11.1163362"><ele>844.0</ele><time>2026-04-22T16:05:59.559Z</time></trkpt><trkpt lat="45.6616674" lon="11.1163373"><ele>842.2</ele><time>2026-04-22T16:06:00.547Z</time></trkpt><trkpt lat="45.6615548" lon="11.1163257"><ele>840.4000000000001</ele><time>2026-04-22T16:06:01.555Z</time></trkpt><trkpt lat="45.6614492" lon="11.116313"><ele>838.6</ele><time>2026-04-22T16:06:02.551Z</time></trkpt><trkpt lat="45.6613491" lon="11.1163256"><ele>836.8</ele><time>2026-04-22T16:06:03.552Z</time></trkpt><trkpt lat="45.66125" lon="11.1163835"><ele>835.0</ele><time>2026-04-22T16:06:04.551Z</time></trkpt><trkpt lat="45.6611528" lon="11.1164709"><ele>837.0</ele><time>2026-04-22T16:06:05.55Z</time></trkpt><trkpt lat="45.6610517" lon="11.1165607"><ele>839.0</ele><time>2026-04-22T16:06:06.551Z</time></trkpt><trkpt lat="45.6609391" lon="11.116634"><ele>841.0</ele><time>2026-04-22T16:06:07.551Z</time></trkpt><trkpt lat="45.6608185" lon="11.1166794"><ele>843.0</ele><time>2026-04-22T16:06:08.552Z</time></trkpt><trkpt lat="45.6606952" lon="11.1167183"><ele>843.0</ele><time>2026-04-22T16:06:09.556Z</time></trkpt><trkpt lat="45.6605749" lon="11.1167538"><ele>843.0</ele><time>2026-04-22T16:06:10.551Z</time></trkpt><trkpt lat="45.6604626" lon="11.1167967"><ele>843.0</ele><time>2026-04-22T16:06:11.556Z</time></trkpt><trkpt lat="45.6603579" lon="11.1168847"><ele>843.0</ele><time>2026-04-22T16:06:12.558Z</time></trkpt><trkpt lat="45.6602612" lon="11.117003"><ele>836.5</ele><time>2026-04-22T16:06:13.552Z</time></trkpt><trkpt lat="45.6601546" lon="11.1171048"><ele>830.0</ele><time>2026-04-22T16:06:14.557Z</time></trkpt><trkpt lat="45.6600419" lon="11.1171841"><ele>823.5</ele><time>2026-04-22T16:06:15.556Z</time></trkpt><trkpt lat="45.6599271" lon="11.117261"><ele>817.0</ele><time>2026-04-22T16:06:16.549Z</time></trkpt><trkpt lat="45.6597841" lon="11.1172752"><ele>817.0</ele><time>2026-04-22T16:06:17.553Z</time></trkpt><trkpt lat="45.6596578" lon="11.1173248"><ele>817.0</ele><time>2026-04-22T16:06:18.563Z</time></trkpt><trkpt lat="45.6595312" lon="11.1173811"><ele>817.0</ele><time>2026-04-22T16:06:19.56Z</time></trkpt><trkpt lat="45.6594047" lon="11.1174384"><ele>817.0</ele><time>2026-04-22T16:06:20.551Z</time></trkpt><trkpt lat="45.6592795" lon="11.1174973"><ele>821.0</ele><time>2026-04-22T16:06:21.551Z</time></trkpt><trkpt lat="45.6591594" lon="11.1175649"><ele>825.0</ele><time>2026-04-22T16:06:22.555Z</time></trkpt><trkpt lat="45.6590421" lon="11.11764"><ele>829.0</ele><time>2026-04-22T16:06:23.552Z</time></trkpt><trkpt lat="45.6589258" lon="11.1177265"><ele>833.0</ele><time>2026-04-22T16:06:24.557Z</time></trkpt><trkpt lat="45.6588143" lon="11.1178197"><ele>833.0</ele><time>2026-04-22T16:06:25.557Z</time></trkpt><trkpt lat="45.6587052" lon="11.1179198"><ele>833.0</ele><time>2026-04-22T16:06:26.559Z</time></trkpt><trkpt lat="45.6585966" lon="11.1180167"><ele>833.0</ele><time>2026-04-22T16:06:27.558Z</time></trkpt><trkpt lat="45.6584835" lon="11.1181137"><ele>833.0</ele><time>2026-04-22T16:06:28.551Z</time></trkpt><trkpt lat="45.6583738" lon="11.1182132"><ele>832.0</ele><time>2026-04-22T16:06:29.558Z</time></trkpt><trkpt lat="45.6582881" lon="11.1183473"><ele>831.0</ele><time>2026-04-22T16:06:30.549Z</time></trkpt><trkpt lat="45.6582051" lon="11.1184807"><ele>830.0</ele><time>2026-04-22T16:06:31.548Z</time></trkpt><trkpt lat="45.6581093" lon="11.1185817"><ele>829.0</ele><time>2026-04-22T16:06:32.547Z</time></trkpt><trkpt lat="45.6580041" lon="11.1186358"><ele>829.0</ele><time>2026-04-22T16:06:33.554Z</time></trkpt><trkpt lat="45.6578888" lon="11.1186507"><ele>829.0</ele><time>2026-04-22T16:06:34.55Z</time></trkpt><trkpt lat="45.6577701" lon="11.1186402"><ele>829.0</ele><time>2026-04-22T16:06:35.552Z</time></trkpt><trkpt lat="45.6576448" lon="11.1186504"><ele>829.0</ele><time>2026-04-22T16:06:36.548Z</time></trkpt><trkpt lat="45.6575182" lon="11.1186931"><ele>822.25</ele><time>2026-04-22T16:06:37.547Z</time></trkpt><trkpt lat="45.6573931" lon="11.1187603"><ele>815.5</ele><time>2026-04-22T16:06:38.554Z</time></trkpt><trkpt lat="45.6572739" lon="11.1188388"><ele>808.75</ele><time>2026-04-22T16:06:39.552Z</time></trkpt><trkpt lat="45.6571664" lon="11.1189382"><ele>802.0</ele><time>2026-04-22T16:06:40.549Z</time></trkpt><trkpt lat="45.6570682" lon="11.1190609"><ele>804.0</ele><time>2026-04-22T16:06:41.545Z</time></trkpt><trkpt lat="45.656974" lon="11.1192063"><ele>806.0</ele><time>2026-04-22T16:06:42.553Z</time></trkpt><trkpt lat="45.6568712" lon="11.1193349"><ele>808.0</ele><time>2026-04-22T16:06:43.548Z</time></trkpt><trkpt lat="45.6567601" lon="11.1194503"><ele>810.0</ele><time>2026-04-22T16:06:44.548Z</time></trkpt><trkpt lat="45.6566425" lon="11.1195583"><ele>810.0</ele><time>2026-04-22T16:06:45.56Z</time></trkpt><trkpt lat="45.6565296" lon="11.1196659"><ele>810.0</ele><time>2026-04-22T16:06:46.549Z</time></trkpt><trkpt lat="45.6564157" lon="11.1197727"><ele>810.0</ele><time>2026-04-22T16:06:47.549Z</time></trkpt><trkpt lat="45.6562937" lon="11.1198822"><ele>810.0</ele><time>2026-04-22T16:06:48.545Z</time></trkpt><trkpt lat="45.6561741" lon="11.1199791"><ele>807.75</ele><time>2026-04-22T16:06:49.549Z</time></trkpt><trkpt lat="45.6560556" lon="11.1200675"><ele>805.5</ele><time>2026-04-22T16:06:50.553Z</time></trkpt><trkpt lat="45.6559422" lon="11.1201546"><ele>803.25</ele><time>2026-04-22T16:06:51.554Z</time></trkpt><trkpt lat="45.6558398" lon="11.1202517"><ele>801.0</ele><time>2026-04-22T16:06:52.56Z</time></trkpt><trkpt lat="45.6557447" lon="11.1203778"><ele>801.0</ele><time>2026-04-22T16:06:53.567Z</time></trkpt><trkpt lat="45.6556607" lon="11.1205241"><ele>801.0</ele><time>2026-04-22T16:06:54.555Z</time></trkpt><trkpt lat="45.655579" lon="11.1206833"><ele>801.0</ele><time>2026-04-22T16:06:55.552Z</time></trkpt><trkpt lat="45.6555005" lon="11.120844"><ele>801.0</ele><time>2026-04-22T16:06:56.552Z</time></trkpt><trkpt lat="45.6554273" lon="11.1209974"><ele>798.75</ele><time>2026-04-22T16:06:57.561Z</time></trkpt><trkpt lat="45.6553487" lon="11.1211518"><ele>796.5</ele><time>2026-04-22T16:06:58.551Z</time></trkpt><trkpt lat="45.655279" lon="11.121314"><ele>794.25</ele><time>2026-04-22T16:06:59.552Z</time></trkpt><trkpt lat="45.6552175" lon="11.1214857"><ele>792.0</ele><time>2026-04-22T16:07:00.554Z</time></trkpt><trkpt lat="45.6551548" lon="11.1216466"><ele>792.0</ele><time>2026-04-22T16:07:01.55Z</time></trkpt><trkpt lat="45.65507" lon="11.1217887"><ele>792.0</ele><time>2026-04-22T16:07:02.553Z</time></trkpt><trkpt lat="45.6549727" lon="11.121916"><ele>792.0</ele><time>2026-04-22T16:07:03.562Z</time></trkpt><trkpt lat="45.6548775" lon="11.1220449"><ele>792.0</ele><time>2026-04-22T16:07:04.552Z</time></trkpt><trkpt lat="45.6547884" lon="11.1221686"><ele>792.0</ele><time>2026-04-22T16:07:05.558Z</time></trkpt><trkpt lat="45.6547079" lon="11.1222954"><ele>792.0</ele><time>2026-04-22T16:07:06.556Z</time></trkpt><trkpt lat="45.6546363" lon="11.122435"><ele>792.0</ele><time>2026-04-22T16:07:07.556Z</time></trkpt><trkpt lat="45.6545823" lon="11.1225937"><ele>792.0</ele><time>2026-04-22T16:07:08.545Z</time></trkpt><trkpt lat="45.6545406" lon="11.1227624"><ele>796.75</ele><time>2026-04-22T16:07:09.558Z</time></trkpt><trkpt lat="45.6545077" lon="11.1229193"><ele>801.5</ele><time>2026-04-22T16:07:10.56Z</time></trkpt><trkpt lat="45.6544882" lon="11.1230777"><ele>806.25</ele><time>2026-04-22T16:07:11.554Z</time></trkpt><trkpt lat="45.6544873" lon="11.1232459"><ele>811.0</ele><time>2026-04-22T16:07:12.552Z</time></trkpt><trkpt lat="45.6545001" lon="11.1234191"><ele>812.75</ele><time>2026-04-22T16:07:13.563Z</time></trkpt><trkpt lat="45.65451" lon="11.1235948"><ele>814.5</ele><time>2026-04-22T16:07:14.55Z</time></trkpt><trkpt lat="45.6545157" lon="11.1237714"><ele>816.25</ele><time>2026-04-22T16:07:15.556Z</time></trkpt><trkpt lat="45.6545218" lon="11.1239514"><ele>818.0</ele><time>2026-04-22T16:07:16.557Z</time></trkpt><trkpt lat="45.6545229" lon="11.1241323"><ele>818.0</ele><time>2026-04-22T16:07:17.552Z</time></trkpt><trkpt lat="45.6545256" lon="11.1243101"><ele>818.0</ele><time>2026-04-22T16:07:18.555Z</time></trkpt><trkpt lat="45.6545321" lon="11.1244854"><ele>818.0</ele><time>2026-04-22T16:07:19.553Z</time></trkpt><trkpt lat="45.6545369" lon="11.1246609"><ele>818.0</ele><time>2026-04-22T16:07:20.545Z</time></trkpt><trkpt lat="45.6545435" lon="11.1248394"><ele>816.25</ele><time>2026-04-22T16:07:21.553Z</time></trkpt><trkpt lat="45.6545467" lon="11.1250206"><ele>814.5</ele><time>2026-04-22T16:07:22.557Z</time></trkpt><trkpt lat="45.6545502" lon="11.1251965"><ele>812.75</ele><time>2026-04-22T16:07:23.557Z</time></trkpt><trkpt lat="45.6545524" lon="11.1253609"><ele>811.0</ele><time>2026-04-22T16:07:24.549Z</time></trkpt><trkpt lat="45.6545541" lon="11.1255141"><ele>811.0</ele><time>2026-04-22T16:07:25.548Z</time></trkpt><trkpt lat="45.6545734" lon="11.125648"><ele>811.0</ele><time>2026-04-22T16:07:26.556Z</time></trkpt><trkpt lat="45.6546273" lon="11.1257616"><ele>811.0</ele><time>2026-04-22T16:07:27.548Z</time></trkpt><trkpt lat="45.654705" lon="11.1258511"><ele>811.0</ele><time>2026-04-22T16:07:28.548Z</time></trkpt><trkpt lat="45.654781" lon="11.1259465"><ele>811.0</ele><time>2026-04-22T16:07:29.549Z</time></trkpt><trkpt lat="45.654857" lon="11.1260191"><ele>809.8</ele><time>2026-04-22T16:07:30.546Z</time></trkpt><trkpt lat="45.6549336" lon="11.1260659"><ele>808.5999999999999</ele><time>2026-04-22T16:07:31.551Z</time></trkpt><trkpt lat="45.6550033" lon="11.1261656"><ele>807.4</ele><time>2026-04-22T16:07:33.558Z</time></trkpt><trkpt lat="45.6549372" lon="11.1262148"><ele>806.2</ele><time>2026-04-22T16:07:35.544Z</time></trkpt><trkpt lat="45.6548312" lon="11.1261086"><ele>805.0</ele><time>2026-04-22T16:07:37.547Z</time></trkpt><trkpt lat="45.6547584" lon="11.1260324"><ele>805.0</ele><time>2026-04-22T16:07:38.545Z</time></trkpt><trkpt lat="45.6546749" lon="11.125955"><ele>805.0</ele><time>2026-04-22T16:07:39.545Z</time></trkpt><trkpt lat="45.6545865" lon="11.1258729"><ele>805.0</ele><time>2026-04-22T16:07:40.546Z</time></trkpt><trkpt lat="45.654508" lon="11.1257859"><ele>805.0</ele><time>2026-04-22T16:07:41.548Z</time></trkpt><trkpt lat="45.6544202" lon="11.1257175"><ele>805.0</ele><time>2026-04-22T16:07:42.547Z</time></trkpt><trkpt lat="45.6543257" lon="11.1256909"><ele>800.6</ele><time>2026-04-22T16:07:43.545Z</time></trkpt><trkpt lat="45.6542377" lon="11.125639"><ele>796.2</ele><time>2026-04-22T16:07:44.548Z</time></trkpt><trkpt lat="45.654182" lon="11.1255367"><ele>791.8</ele><time>2026-04-22T16:07:45.55Z</time></trkpt><trkpt lat="45.654115" lon="11.1254173"><ele>787.4</ele><time>2026-04-22T16:07:46.567Z</time></trkpt><trkpt lat="45.6540575" lon="11.1252559"><ele>783.0</ele><time>2026-04-22T16:07:47.56Z</time></trkpt><trkpt lat="45.6539895" lon="11.1250928"><ele>783.0</ele><time>2026-04-22T16:07:48.547Z</time></trkpt><trkpt lat="45.653924" lon="11.1249179"><ele>783.0</ele><time>2026-04-22T16:07:49.551Z</time></trkpt><trkpt lat="45.6538672" lon="11.124733"><ele>783.0</ele><time>2026-04-22T16:07:50.549Z</time></trkpt><trkpt lat="45.6538196" lon="11.1245458"><ele>783.0</ele><time>2026-04-22T16:07:51.548Z</time></trkpt><trkpt lat="45.6537794" lon="11.1243597"><ele>782.25</ele><time>2026-04-22T16:07:52.549Z</time></trkpt><trkpt lat="45.653744" lon="11.1241739"><ele>781.5</ele><time>2026-04-22T16:07:53.558Z</time></trkpt><trkpt lat="45.6537103" lon="11.1240009"><ele>780.75</ele><time>2026-04-22T16:07:54.546Z</time></trkpt><trkpt lat="45.6536813" lon="11.1238484"><ele>780.0</ele><time>2026-04-22T16:07:55.552Z</time></trkpt><trkpt lat="45.6536297" lon="11.1237204"><ele>777.5</ele><time>2026-04-22T16:07:56.55Z</time></trkpt><trkpt lat="45.6535481" lon="11.1236179"><ele>775.0</ele><time>2026-04-22T16:07:57.548Z</time></trkpt><trkpt lat="45.6534436" lon="11.1235473"><ele>772.5</ele><time>2026-04-22T16:07:58.554Z</time></trkpt><trkpt lat="45.653327" lon="11.1235024"><ele>770.0</ele><time>2026-04-22T16:07:59.551Z</time></trkpt><trkpt lat="45.6532105" lon="11.1234626"><ele>770.0</ele><time>2026-04-22T16:08:00.553Z</time></trkpt><trkpt lat="45.6530977" lon="11.1234138"><ele>770.0</ele><time>2026-04-22T16:08:01.556Z</time></trkpt><trkpt lat="45.6529815" lon="11.1233858"><ele>770.0</ele><time>2026-04-22T16:08:02.547Z</time></trkpt><trkpt lat="45.652869" lon="11.1233516"><ele>770.0</ele><time>2026-04-22T16:08:03.554Z</time></trkpt><trkpt lat="45.6527484" lon="11.1233421"><ele>769.25</ele><time>2026-04-22T16:08:04.565Z</time></trkpt><trkpt lat="45.6526269" lon="11.123348"><ele>768.5</ele><time>2026-04-22T16:08:05.548Z</time></trkpt><trkpt lat="45.6525024" lon="11.1233575"><ele>767.75</ele><time>2026-04-22T16:08:06.555Z</time></trkpt><trkpt lat="45.6523767" lon="11.1233705"><ele>767.0</ele><time>2026-04-22T16:08:07.546Z</time></trkpt><trkpt lat="45.6522469" lon="11.1233819"><ele>767.0</ele><time>2026-04-22T16:08:08.552Z</time></trkpt><trkpt lat="45.6521169" lon="11.1233974"><ele>767.0</ele><time>2026-04-22T16:08:09.562Z</time></trkpt><trkpt lat="45.6519874" lon="11.1234226"><ele>767.0</ele><time>2026-04-22T16:08:10.543Z</time></trkpt><trkpt lat="45.6518555" lon="11.1234518"><ele>767.0</ele><time>2026-04-22T16:08:11.552Z</time></trkpt><trkpt lat="45.651723" lon="11.1234852"><ele>767.5</ele><time>2026-04-22T16:08:12.546Z</time></trkpt><trkpt lat="45.6515939" lon="11.1235277"><ele>768.0</ele><time>2026-04-22T16:08:13.548Z</time></trkpt><trkpt lat="45.651467" lon="11.1235873"><ele>768.5</ele><time>2026-04-22T16:08:14.553Z</time></trkpt><trkpt lat="45.6513402" lon="11.123657"><ele>769.0</ele><time>2026-04-22T16:08:15.551Z</time></trkpt><trkpt lat="45.6512125" lon="11.1237259"><ele>766.0</ele><time>2026-04-22T16:08:16.55Z</time></trkpt><trkpt lat="45.6510845" lon="11.123786"><ele>763.0</ele><time>2026-04-22T16:08:17.551Z</time></trkpt><trkpt lat="45.6509545" lon="11.1238346"><ele>760.0</ele><time>2026-04-22T16:08:18.556Z</time></trkpt><trkpt lat="45.6508209" lon="11.12387"><ele>757.0</ele><time>2026-04-22T16:08:19.554Z</time></trkpt><trkpt lat="45.6506851" lon="11.1239094"><ele>757.0</ele><time>2026-04-22T16:08:20.549Z</time></trkpt><trkpt lat="45.6505492" lon="11.1239411"><ele>757.0</ele><time>2026-04-22T16:08:21.555Z</time></trkpt><trkpt lat="45.6504131" lon="11.1239463"><ele>757.0</ele><time>2026-04-22T16:08:22.561Z</time></trkpt><trkpt lat="45.650275" lon="11.1239323"><ele>757.0</ele><time>2026-04-22T16:08:23.55Z</time></trkpt><trkpt lat="45.6501355" lon="11.1239298"><ele>755.0</ele><time>2026-04-22T16:08:24.547Z</time></trkpt><trkpt lat="45.6499969" lon="11.1239697"><ele>753.0</ele><time>2026-04-22T16:08:25.547Z</time></trkpt><trkpt lat="45.6498646" lon="11.1240297"><ele>751.0</ele><time>2026-04-22T16:08:26.553Z</time></trkpt><trkpt lat="45.6497348" lon="11.1240757"><ele>749.0</ele><time>2026-04-22T16:08:27.552Z</time></trkpt><trkpt lat="45.6495999" lon="11.124092"><ele>750.0</ele><time>2026-04-22T16:08:28.551Z</time></trkpt><trkpt lat="45.6494658" lon="11.1240869"><ele>751.0</ele><time>2026-04-22T16:08:29.552Z</time></trkpt><trkpt lat="45.6493288" lon="11.1240746"><ele>752.0</ele><time>2026-04-22T16:08:30.55Z</time></trkpt><trkpt lat="45.6491909" lon="11.1240617"><ele>753.0</ele><time>2026-04-22T16:08:31.558Z</time></trkpt><trkpt lat="45.6490455" lon="11.1240576"><ele>753.0</ele><time>2026-04-22T16:08:32.552Z</time></trkpt><trkpt lat="45.6488985" lon="11.1240474"><ele>753.0</ele><time>2026-04-22T16:08:33.548Z</time></trkpt><trkpt lat="45.6487496" lon="11.1240302"><ele>753.0</ele><time>2026-04-22T16:08:34.553Z</time></trkpt><trkpt lat="45.6485994" lon="11.1240088"><ele>753.0</ele><time>2026-04-22T16:08:35.549Z</time></trkpt><trkpt lat="45.6484484" lon="11.1239908"><ele>756.0</ele><time>2026-04-22T16:08:36.558Z</time></trkpt><trkpt lat="45.6482965" lon="11.1239744"><ele>759.0</ele><time>2026-04-22T16:08:37.549Z</time></trkpt><trkpt lat="45.648146" lon="11.1239461"><ele>762.0</ele><time>2026-04-22T16:08:38.548Z</time></trkpt><trkpt lat="45.6479975" lon="11.1239011"><ele>762.0</ele><time>2026-04-22T16:08:39.568Z</time></trkpt><trkpt lat="45.6478516" lon="11.1238407"><ele>762.0</ele><time>2026-04-22T16:08:40.554Z</time></trkpt><trkpt lat="45.6477052" lon="11.123791"><ele>762.0</ele><time>2026-04-22T16:08:41.557Z</time></trkpt><trkpt lat="45.6475601" lon="11.1237364"><ele>762.0</ele><time>2026-04-22T16:08:42.556Z</time></trkpt><trkpt lat="45.647416" lon="11.1236822"><ele>762.0</ele><time>2026-04-22T16:08:43.554Z</time></trkpt><trkpt lat="45.6472723" lon="11.1236269"><ele>762.0</ele><time>2026-04-22T16:08:44.556Z</time></trkpt><trkpt lat="45.6471395" lon="11.1235747"><ele>762.0</ele><time>2026-04-22T16:08:45.55Z</time></trkpt><trkpt lat="45.6470188" lon="11.1235272"><ele>763.5</ele><time>2026-04-22T16:08:46.548Z</time></trkpt><trkpt lat="45.6469" lon="11.1234978"><ele>765.0</ele><time>2026-04-22T16:08:47.548Z</time></trkpt><trkpt lat="45.6467796" lon="11.1235288"><ele>766.5</ele><time>2026-04-22T16:08:48.552Z</time></trkpt><trkpt lat="45.6466596" lon="11.1235889"><ele>768.0</ele><time>2026-04-22T16:08:49.557Z</time></trkpt><trkpt lat="45.646542" lon="11.1236831"><ele>768.0</ele><time>2026-04-22T16:08:50.547Z</time></trkpt><trkpt lat="45.6464171" lon="11.1237747"><ele>768.0</ele><time>2026-04-22T16:08:51.557Z</time></trkpt><trkpt lat="45.6462811" lon="11.1238343"><ele>768.0</ele><time>2026-04-22T16:08:52.547Z</time></trkpt><trkpt lat="45.6461263" lon="11.1238743"><ele>768.0</ele><time>2026-04-22T16:08:53.546Z</time></trkpt><trkpt lat="45.6459723" lon="11.1239289"><ele>762.6666666666666</ele><time>2026-04-22T16:08:54.555Z</time></trkpt><trkpt lat="45.6458138" lon="11.1239822"><ele>757.3333333333333</ele><time>2026-04-22T16:08:55.552Z</time></trkpt><trkpt lat="45.6456538" lon="11.1240344"><ele>752.0</ele><time>2026-04-22T16:08:56.559Z</time></trkpt><trkpt lat="45.6454969" lon="11.1240926"><ele>757.75</ele><time>2026-04-22T16:08:57.555Z</time></trkpt><trkpt lat="45.6453438" lon="11.1241517"><ele>763.5</ele><time>2026-04-22T16:08:58.55Z</time></trkpt><trkpt lat="45.6452014" lon="11.1242048"><ele>769.25</ele><time>2026-04-22T16:08:59.557Z</time></trkpt><trkpt lat="45.6450675" lon="11.1242538"><ele>775.0</ele><time>2026-04-22T16:09:00.548Z</time></trkpt><trkpt lat="45.6449533" lon="11.1243406"><ele>775.0</ele><time>2026-04-22T16:09:01.558Z</time></trkpt><trkpt lat="45.6448395" lon="11.1244384"><ele>775.0</ele><time>2026-04-22T16:09:02.557Z</time></trkpt><trkpt lat="45.6447224" lon="11.1244968"><ele>775.0</ele><time>2026-04-22T16:09:03.556Z</time></trkpt><trkpt lat="45.644592" lon="11.124523"><ele>775.0</ele><time>2026-04-22T16:09:04.547Z</time></trkpt><trkpt lat="45.6444626" lon="11.124508"><ele>774.25</ele><time>2026-04-22T16:09:05.549Z</time></trkpt><trkpt lat="45.6443348" lon="11.1244545"><ele>773.5</ele><time>2026-04-22T16:09:06.555Z</time></trkpt><trkpt lat="45.6442126" lon="11.1243768"><ele>772.75</ele><time>2026-04-22T16:09:07.556Z</time></trkpt><trkpt lat="45.6440853" lon="11.1243023"><ele>772.0</ele><time>2026-04-22T16:09:08.555Z</time></trkpt><trkpt lat="45.6439434" lon="11.1242533"><ele>772.0</ele><time>2026-04-22T16:09:09.558Z</time></trkpt><trkpt lat="45.643804" lon="11.1242024"><ele>772.0</ele><time>2026-04-22T16:09:10.559Z</time></trkpt><trkpt lat="45.6436656" lon="11.124154"><ele>772.0</ele><time>2026-04-22T16:09:11.545Z</time></trkpt><trkpt lat="45.6435229" lon="11.1241176"><ele>772.0</ele><time>2026-04-22T16:09:12.548Z</time></trkpt><trkpt lat="45.6433778" lon="11.1240935"><ele>772.5</ele><time>2026-04-22T16:09:13.55Z</time></trkpt><trkpt lat="45.6432332" lon="11.124077"><ele>773.0</ele><time>2026-04-22T16:09:14.555Z</time></trkpt><trkpt lat="45.6430955" lon="11.1240651"><ele>773.5</ele><time>2026-04-22T16:09:15.548Z</time></trkpt><trkpt lat="45.6429596" lon="11.1240691"><ele>774.0</ele><time>2026-04-22T16:09:16.547Z</time></trkpt><trkpt lat="45.6428254" lon="11.1241025"><ele>772.25</ele><time>2026-04-22T16:09:17.546Z</time></trkpt><trkpt lat="45.6426917" lon="11.1241666"><ele>770.5</ele><time>2026-04-22T16:09:18.548Z</time></trkpt><trkpt lat="45.6425682" lon="11.1242563"><ele>768.75</ele><time>2026-04-22T16:09:19.553Z</time></trkpt><trkpt lat="45.6424581" lon="11.1243787"><ele>767.0</ele><time>2026-04-22T16:09:20.551Z</time></trkpt><trkpt lat="45.6423673" lon="11.1245398"><ele>767.0</ele><time>2026-04-22T16:09:21.554Z</time></trkpt><trkpt lat="45.6422876" lon="11.1247087"><ele>767.0</ele><time>2026-04-22T16:09:22.555Z</time></trkpt><trkpt lat="45.6422144" lon="11.1248625"><ele>767.0</ele><time>2026-04-22T16:09:23.549Z</time></trkpt><trkpt lat="45.6421299" lon="11.1249919"><ele>767.0</ele><time>2026-04-22T16:09:24.555Z</time></trkpt><trkpt lat="45.6420274" lon="11.1250854"><ele>764.75</ele><time>2026-04-22T16:09:25.562Z</time></trkpt><trkpt lat="45.6419116" lon="11.1251451"><ele>762.5</ele><time>2026-04-22T16:09:26.551Z</time></trkpt><trkpt lat="45.6417819" lon="11.1251762"><ele>760.25</ele><time>2026-04-22T16:09:27.558Z</time></trkpt><trkpt lat="45.6416442" lon="11.125196"><ele>758.0</ele><time>2026-04-22T16:09:28.55Z</time></trkpt><trkpt lat="45.6415005" lon="11.1252163"><ele>758.0</ele><time>2026-04-22T16:09:29.562Z</time></trkpt><trkpt lat="45.641353" lon="11.1252387"><ele>758.0</ele><time>2026-04-22T16:09:30.551Z</time></trkpt><trkpt lat="45.6412038" lon="11.1252663"><ele>758.0</ele><time>2026-04-22T16:09:31.553Z</time></trkpt><trkpt lat="45.6410538" lon="11.1252959"><ele>753.0</ele><time>2026-04-22T16:09:32.552Z</time></trkpt><trkpt lat="45.6409046" lon="11.1253162"><ele>748.0</ele><time>2026-04-22T16:09:33.553Z</time></trkpt><trkpt lat="45.640762" lon="11.1253318"><ele>743.0</ele><time>2026-04-22T16:09:34.559Z</time></trkpt><trkpt lat="45.6406246" lon="11.1253651"><ele>738.0</ele><time>2026-04-22T16:09:35.55Z</time></trkpt><trkpt lat="45.6404888" lon="11.1254189"><ele>738.0</ele><time>2026-04-22T16:09:36.553Z</time></trkpt><trkpt lat="45.6403533" lon="11.1254942"><ele>738.0</ele><time>2026-04-22T16:09:37.553Z</time></trkpt><trkpt lat="45.6402166" lon="11.1255785"><ele>738.0</ele><time>2026-04-22T16:09:38.549Z</time></trkpt><trkpt lat="45.6400764" lon="11.1256618"><ele>738.0</ele><time>2026-04-22T16:09:39.552Z</time></trkpt><trkpt lat="45.639935" lon="11.125747"><ele>745.6666666666666</ele><time>2026-04-22T16:09:40.553Z</time></trkpt><trkpt lat="45.6397909" lon="11.1258303"><ele>753.3333333333333</ele><time>2026-04-22T16:09:41.554Z</time></trkpt><trkpt lat="45.6396492" lon="11.1259082"><ele>761.0</ele><time>2026-04-22T16:09:42.554Z</time></trkpt><trkpt lat="45.6395071" lon="11.1259968"><ele>749.0</ele><time>2026-04-22T16:09:43.553Z</time></trkpt><trkpt lat="45.6393684" lon="11.1260788"><ele>737.0</ele><time>2026-04-22T16:09:44.553Z</time></trkpt><trkpt lat="45.6392297" lon="11.1261649"><ele>725.0</ele><time>2026-04-22T16:09:45.557Z</time></trkpt><trkpt lat="45.6390925" lon="11.1262513"><ele>725.0</ele><time>2026-04-22T16:09:46.55Z</time></trkpt><trkpt lat="45.6389545" lon="11.1263371"><ele>725.0</ele><time>2026-04-22T16:09:47.552Z</time></trkpt><trkpt lat="45.6388222" lon="11.1264287"><ele>725.0</ele><time>2026-04-22T16:09:48.548Z</time></trkpt><trkpt lat="45.638694" lon="11.1265364"><ele>725.0</ele><time>2026-04-22T16:09:49.553Z</time></trkpt><trkpt lat="45.6385707" lon="11.1266524"><ele>727.0</ele><time>2026-04-22T16:09:50.557Z</time></trkpt><trkpt lat="45.6384485" lon="11.1267744"><ele>729.0</ele><time>2026-04-22T16:09:51.556Z</time></trkpt><trkpt lat="45.6383256" lon="11.1268974"><ele>731.0</ele><time>2026-04-22T16:09:52.555Z</time></trkpt><trkpt lat="45.6381993" lon="11.1270163"><ele>731.0</ele><time>2026-04-22T16:09:53.549Z</time></trkpt><trkpt lat="45.6380687" lon="11.1271284"><ele>731.0</ele><time>2026-04-22T16:09:54.551Z</time></trkpt><trkpt lat="45.6379347" lon="11.1272369"><ele>731.0</ele><time>2026-04-22T16:09:55.549Z</time></trkpt><trkpt lat="45.6377937" lon="11.1273295"><ele>728.6666666666666</ele><time>2026-04-22T16:09:56.551Z</time></trkpt><trkpt lat="45.6376468" lon="11.127407"><ele>726.3333333333334</ele><time>2026-04-22T16:09:57.556Z</time></trkpt><trkpt lat="45.6374971" lon="11.1274739"><ele>724.0</ele><time>2026-04-22T16:09:58.547Z</time></trkpt><trkpt lat="45.6373484" lon="11.1275379"><ele>724.0</ele><time>2026-04-22T16:09:59.56Z</time></trkpt><trkpt lat="45.6371989" lon="11.1276091"><ele>724.0</ele><time>2026-04-22T16:10:00.55Z</time></trkpt><trkpt lat="45.6370583" lon="11.1277031"><ele>724.0</ele><time>2026-04-22T16:10:01.561Z</time></trkpt><trkpt lat="45.6369314" lon="11.1278211"><ele>715.6666666666667</ele><time>2026-04-22T16:10:02.549Z</time></trkpt><trkpt lat="45.6368111" lon="11.1279504"><ele>707.3333333333334</ele><time>2026-04-22T16:10:03.546Z</time></trkpt><trkpt lat="45.6366838" lon="11.1280689"><ele>699.0</ele><time>2026-04-22T16:10:04.559Z</time></trkpt><trkpt lat="45.6365496" lon="11.1281612"><ele>699.25</ele><time>2026-04-22T16:10:05.56Z</time></trkpt><trkpt lat="45.6364139" lon="11.1282521"><ele>699.5</ele><time>2026-04-22T16:10:06.551Z</time></trkpt><trkpt lat="45.6362829" lon="11.1283507"><ele>699.75</ele><time>2026-04-22T16:10:07.56Z</time></trkpt><trkpt lat="45.6361572" lon="11.1284697"><ele>700.0</ele><time>2026-04-22T16:10:08.55Z</time></trkpt><trkpt lat="45.6360311" lon="11.1285881"><ele>700.0</ele><time>2026-04-22T16:10:09.552Z</time></trkpt><trkpt lat="45.6359032" lon="11.1287136"><ele>700.0</ele><time>2026-04-22T16:10:10.55Z</time></trkpt><trkpt lat="45.6357796" lon="11.1288342"><ele>700.0</ele><time>2026-04-22T16:10:11.549Z</time></trkpt><trkpt lat="45.6356538" lon="11.1289553"><ele>700.0</ele><time>2026-04-22T16:10:12.552Z</time></trkpt><trkpt lat="45.6355042" lon="11.1290349"><ele>700.0</ele><time>2026-04-22T16:10:13.549Z</time></trkpt><trkpt lat="45.6353591" lon="11.1290921"><ele>700.0</ele><time>2026-04-22T16:10:14.558Z</time></trkpt><trkpt lat="45.6352147" lon="11.1291149"><ele>699.0</ele><time>2026-04-22T16:10:15.556Z</time></trkpt><trkpt lat="45.6350687" lon="11.1291516"><ele>698.0</ele><time>2026-04-22T16:10:16.553Z</time></trkpt><trkpt lat="45.6349273" lon="11.1292286"><ele>697.0</ele><time>2026-04-22T16:10:17.567Z</time></trkpt><trkpt lat="45.634789" lon="11.1293157"><ele>697.0</ele><time>2026-04-22T16:10:18.552Z</time></trkpt><trkpt lat="45.634646" lon="11.1294016"><ele>697.0</ele><time>2026-04-22T16:10:19.55Z</time></trkpt><trkpt lat="45.6344972" lon="11.1294595"><ele>697.0</ele><time>2026-04-22T16:10:20.551Z</time></trkpt><trkpt lat="45.6343478" lon="11.1294636"><ele>691.5</ele><time>2026-04-22T16:10:21.56Z</time></trkpt><trkpt lat="45.6342047" lon="11.1294304"><ele>686.0</ele><time>2026-04-22T16:10:22.549Z</time></trkpt><trkpt lat="45.6340616" lon="11.1293913"><ele>680.5</ele><time>2026-04-22T16:10:23.549Z</time></trkpt><trkpt lat="45.6339155" lon="11.1293528"><ele>675.0</ele><time>2026-04-22T16:10:24.555Z</time></trkpt><trkpt lat="45.6337732" lon="11.1293009"><ele>676.5</ele><time>2026-04-22T16:10:25.55Z</time></trkpt><trkpt lat="45.6336346" lon="11.129231"><ele>678.0</ele><time>2026-04-22T16:10:26.553Z</time></trkpt><trkpt lat="45.6334935" lon="11.1291698"><ele>679.5</ele><time>2026-04-22T16:10:27.561Z</time></trkpt><trkpt lat="45.6333519" lon="11.1291235"><ele>681.0</ele><time>2026-04-22T16:10:28.558Z</time></trkpt><trkpt lat="45.6332126" lon="11.1290919"><ele>681.0</ele><time>2026-04-22T16:10:29.556Z</time></trkpt><trkpt lat="45.633076" lon="11.1290779"><ele>681.0</ele><time>2026-04-22T16:10:30.552Z</time></trkpt><trkpt lat="45.6329424" lon="11.1290716"><ele>681.0</ele><time>2026-04-22T16:10:31.547Z</time></trkpt><trkpt lat="45.6328113" lon="11.1290667"><ele>681.0</ele><time>2026-04-22T16:10:32.553Z</time></trkpt><trkpt lat="45.6326876" lon="11.1290645"><ele>680.3333333333334</ele><time>2026-04-22T16:10:33.55Z</time></trkpt><trkpt lat="45.6325769" lon="11.1290611"><ele>679.6666666666666</ele><time>2026-04-22T16:10:34.556Z</time></trkpt><trkpt lat="45.6324797" lon="11.1290546"><ele>679.0</ele><time>2026-04-22T16:10:35.552Z</time></trkpt><trkpt lat="45.6323963" lon="11.1290454"><ele>678.3333333333333</ele><time>2026-04-22T16:10:36.544Z</time></trkpt><trkpt lat="45.6323319" lon="11.1290128"><ele>677.6666666666666</ele><time>2026-04-22T16:10:37.553Z</time></trkpt><trkpt lat="45.6323037" lon="11.1289294"><ele>677.0</ele><time>2026-04-22T16:10:38.556Z</time></trkpt><trkpt lat="45.6323626" lon="11.1288057"><ele>673.1666666666666</ele><time>2026-04-22T16:10:40.551Z</time></trkpt><trkpt lat="45.6324472" lon="11.128795"><ele>669.3333333333333</ele><time>2026-04-22T16:10:41.558Z</time></trkpt><trkpt lat="45.6325517" lon="11.1288088"><ele>665.5</ele><time>2026-04-22T16:10:42.553Z</time></trkpt><trkpt lat="45.6326464" lon="11.1288185"><ele>661.6666666666666</ele><time>2026-04-22T16:10:43.548Z</time></trkpt><trkpt lat="45.6327323" lon="11.1288216"><ele>657.8333333333334</ele><time>2026-04-22T16:10:44.56Z</time></trkpt><trkpt lat="45.6327994" lon="11.1287845"><ele>654.0</ele><time>2026-04-22T16:10:45.557Z</time></trkpt><trkpt lat="45.632836" lon="11.1287074"><ele>654.0</ele><time>2026-04-22T16:10:46.568Z</time></trkpt><trkpt lat="45.6328325" lon="11.1286135"><ele>654.0</ele><time>2026-04-22T16:10:47.554Z</time></trkpt><trkpt lat="45.6327914" lon="11.1285302"><ele>654.0</ele><time>2026-04-22T16:10:48.562Z</time></trkpt><trkpt lat="45.6327126" lon="11.1284885"><ele>654.0</ele><time>2026-04-22T16:10:49.557Z</time></trkpt><trkpt lat="45.6326249" lon="11.1285033"><ele>654.0</ele><time>2026-04-22T16:10:50.554Z</time></trkpt><trkpt lat="45.6325198" lon="11.1285288"><ele>654.0</ele><time>2026-04-22T16:10:51.556Z</time></trkpt><trkpt lat="45.6324006" lon="11.1285461"><ele>654.0</ele><time>2026-04-22T16:10:52.55Z</time></trkpt><trkpt lat="45.6322682" lon="11.1285754"><ele>654.0</ele><time>2026-04-22T16:10:53.557Z</time></trkpt><trkpt lat="45.6321347" lon="11.1286254"><ele>654.0</ele><time>2026-04-22T16:10:54.556Z</time></trkpt><trkpt lat="45.6320093" lon="11.1287116"><ele>654.0</ele><time>2026-04-22T16:10:55.555Z</time></trkpt><trkpt lat="45.6318987" lon="11.1288429"><ele>653.3333333333334</ele><time>2026-04-22T16:10:56.56Z</time></trkpt><trkpt lat="45.6318036" lon="11.1290111"><ele>652.6666666666667</ele><time>2026-04-22T16:10:57.553Z</time></trkpt><trkpt lat="45.6317176" lon="11.129199"><ele>652.0</ele><time>2026-04-22T16:10:58.553Z</time></trkpt><trkpt lat="45.6316234" lon="11.1293854"><ele>654.3333333333334</ele><time>2026-04-22T16:10:59.559Z</time></trkpt><trkpt lat="45.6315208" lon="11.1295587"><ele>656.6666666666666</ele><time>2026-04-22T16:11:00.548Z</time></trkpt><trkpt lat="45.6314181" lon="11.1297252"><ele>659.0</ele><time>2026-04-22T16:11:01.552Z</time></trkpt><trkpt lat="45.6313212" lon="11.1298858"><ele>656.75</ele><time>2026-04-22T16:11:02.559Z</time></trkpt><trkpt lat="45.6312101" lon="11.1300217"><ele>654.5</ele><time>2026-04-22T16:11:03.556Z</time></trkpt><trkpt lat="45.6310758" lon="11.1301163"><ele>652.25</ele><time>2026-04-22T16:11:04.563Z</time></trkpt><trkpt lat="45.6309397" lon="11.1301965"><ele>650.0</ele><time>2026-04-22T16:11:05.55Z</time></trkpt><trkpt lat="45.6308008" lon="11.1302822"><ele>650.0</ele><time>2026-04-22T16:11:06.555Z</time></trkpt><trkpt lat="45.6306645" lon="11.130384"><ele>650.0</ele><time>2026-04-22T16:11:07.551Z</time></trkpt><trkpt lat="45.6305285" lon="11.1304889"><ele>650.0</ele><time>2026-04-22T16:11:08.561Z</time></trkpt><trkpt lat="45.6303827" lon="11.1305732"><ele>653.0</ele><time>2026-04-22T16:11:09.554Z</time></trkpt><trkpt lat="45.6302337" lon="11.1306411"><ele>656.0</ele><time>2026-04-22T16:11:10.555Z</time></trkpt><trkpt lat="45.630088" lon="11.1307128"><ele>659.0</ele><time>2026-04-22T16:11:11.555Z</time></trkpt><trkpt lat="45.6299454" lon="11.1307946"><ele>659.0</ele><time>2026-04-22T16:11:12.549Z</time></trkpt><trkpt lat="45.6298025" lon="11.130882"><ele>659.0</ele><time>2026-04-22T16:11:13.56Z</time></trkpt><trkpt lat="45.6296606" lon="11.1309657"><ele>659.0</ele><time>2026-04-22T16:11:14.556Z</time></trkpt><trkpt lat="45.6295141" lon="11.1310334"><ele>654.3333333333333</ele><time>2026-04-22T16:11:15.548Z</time></trkpt><trkpt lat="45.6293626" lon="11.1310797"><ele>649.6666666666666</ele><time>2026-04-22T16:11:16.544Z</time></trkpt><trkpt lat="45.6292062" lon="11.1311083"><ele>645.0</ele><time>2026-04-22T16:11:17.547Z</time></trkpt><trkpt lat="45.6290474" lon="11.1311136"><ele>645.0</ele><time>2026-04-22T16:11:18.562Z</time></trkpt><trkpt lat="45.6288937" lon="11.1310991"><ele>645.0</ele><time>2026-04-22T16:11:19.554Z</time></trkpt><trkpt lat="45.6287414" lon="11.1310986"><ele>645.0</ele><time>2026-04-22T16:11:20.55Z</time></trkpt><trkpt lat="45.6285918" lon="11.1311186"><ele>642.75</ele><time>2026-04-22T16:11:21.555Z</time></trkpt><trkpt lat="45.6284427" lon="11.1311505"><ele>640.5</ele><time>2026-04-22T16:11:22.553Z</time></trkpt><trkpt lat="45.6282967" lon="11.1311974"><ele>638.25</ele><time>2026-04-22T16:11:23.573Z</time></trkpt><trkpt lat="45.6281547" lon="11.1312537"><ele>636.0</ele><time>2026-04-22T16:11:24.555Z</time></trkpt><trkpt lat="45.6280099" lon="11.1313262"><ele>636.0</ele><time>2026-04-22T16:11:25.559Z</time></trkpt><trkpt lat="45.627866" lon="11.131401"><ele>636.0</ele><time>2026-04-22T16:11:26.555Z</time></trkpt><trkpt lat="45.6277282" lon="11.1314879"><ele>636.0</ele><time>2026-04-22T16:11:27.556Z</time></trkpt><trkpt lat="45.6276012" lon="11.1315963"><ele>637.25</ele><time>2026-04-22T16:11:28.552Z</time></trkpt><trkpt lat="45.6274824" lon="11.1317172"><ele>638.5</ele><time>2026-04-22T16:11:29.557Z</time></trkpt><trkpt lat="45.6273703" lon="11.1318245"><ele>639.75</ele><time>2026-04-22T16:11:30.558Z</time></trkpt><trkpt lat="45.6272608" lon="11.1319101"><ele>641.0</ele><time>2026-04-22T16:11:31.557Z</time></trkpt><trkpt lat="45.6271456" lon="11.1319454"><ele>641.0</ele><time>2026-04-22T16:11:32.551Z</time></trkpt><trkpt lat="45.6270332" lon="11.1319324"><ele>641.0</ele><time>2026-04-22T16:11:33.547Z</time></trkpt><trkpt lat="45.6269166" lon="11.1318872"><ele>641.0</ele><time>2026-04-22T16:11:34.554Z</time></trkpt><trkpt lat="45.6267944" lon="11.1318538"><ele>641.0</ele><time>2026-04-22T16:11:35.553Z</time></trkpt><trkpt lat="45.6266608" lon="11.1318519"><ele>638.0</ele><time>2026-04-22T16:11:36.555Z</time></trkpt><trkpt lat="45.6265243" lon="11.1318499"><ele>635.0</ele><time>2026-04-22T16:11:37.555Z</time></trkpt><trkpt lat="45.6263866" lon="11.1318449"><ele>632.0</ele><time>2026-04-22T16:11:38.561Z</time></trkpt><trkpt lat="45.626251" lon="11.1318443"><ele>629.0</ele><time>2026-04-22T16:11:39.553Z</time></trkpt><trkpt lat="45.6261132" lon="11.1318504"><ele>627.5</ele><time>2026-04-22T16:11:40.551Z</time></trkpt><trkpt lat="45.6259747" lon="11.1318652"><ele>626.0</ele><time>2026-04-22T16:11:41.561Z</time></trkpt><trkpt lat="45.6258326" lon="11.1318939"><ele>624.5</ele><time>2026-04-22T16:11:42.549Z</time></trkpt><trkpt lat="45.6256911" lon="11.1319322"><ele>623.0</ele><time>2026-04-22T16:11:43.561Z</time></trkpt><trkpt lat="45.6255474" lon="11.1319743"><ele>623.0</ele><time>2026-04-22T16:11:44.546Z</time></trkpt><trkpt lat="45.6254012" lon="11.1320145"><ele>623.0</ele><time>2026-04-22T16:11:45.556Z</time></trkpt><trkpt lat="45.6252532" lon="11.1320553"><ele>623.0</ele><time>2026-04-22T16:11:46.557Z</time></trkpt><trkpt lat="45.6251037" lon="11.1320939"><ele>620.6666666666666</ele><time>2026-04-22T16:11:47.548Z</time></trkpt><trkpt lat="45.6249543" lon="11.1321354"><ele>618.3333333333334</ele><time>2026-04-22T16:11:48.553Z</time></trkpt><trkpt lat="45.6248019" lon="11.1321756"><ele>616.0</ele><time>2026-04-22T16:11:49.554Z</time></trkpt><trkpt lat="45.6246498" lon="11.1322158"><ele>616.0</ele><time>2026-04-22T16:11:50.556Z</time></trkpt><trkpt lat="45.6244976" lon="11.1322597"><ele>616.0</ele><time>2026-04-22T16:11:51.556Z</time></trkpt><trkpt lat="45.6243462" lon="11.1323034"><ele>616.0</ele><time>2026-04-22T16:11:52.554Z</time></trkpt><trkpt lat="45.624197" lon="11.1323492"><ele>615.6666666666667</ele><time>2026-04-22T16:11:53.564Z</time></trkpt><trkpt lat="45.6240478" lon="11.132391"><ele>615.3333333333334</ele><time>2026-04-22T16:11:54.552Z</time></trkpt><trkpt lat="45.6239003" lon="11.1324335"><ele>615.0</ele><time>2026-04-22T16:11:55.558Z</time></trkpt><trkpt lat="45.623754" lon="11.132474"><ele>614.25</ele><time>2026-04-22T16:11:56.561Z</time></trkpt><trkpt lat="45.6236137" lon="11.1325133"><ele>613.5</ele><time>2026-04-22T16:11:57.551Z</time></trkpt><trkpt lat="45.6234811" lon="11.1325626"><ele>612.75</ele><time>2026-04-22T16:11:58.555Z</time></trkpt><trkpt lat="45.6233604" lon="11.1326329"><ele>612.0</ele><time>2026-04-22T16:11:59.553Z</time></trkpt><trkpt lat="45.623249" lon="11.1327383"><ele>612.0</ele><time>2026-04-22T16:12:00.558Z</time></trkpt><trkpt lat="45.6231462" lon="11.1328637"><ele>612.0</ele><time>2026-04-22T16:12:01.558Z</time></trkpt><trkpt lat="45.6230511" lon="11.1330109"><ele>612.0</ele><time>2026-04-22T16:12:02.546Z</time></trkpt><trkpt lat="45.6229532" lon="11.1331593"><ele>612.0</ele><time>2026-04-22T16:12:03.55Z</time></trkpt><trkpt lat="45.6228457" lon="11.1332942"><ele>610.5</ele><time>2026-04-22T16:12:04.549Z</time></trkpt><trkpt lat="45.6227261" lon="11.1334127"><ele>609.0</ele><time>2026-04-22T16:12:05.562Z</time></trkpt><trkpt lat="45.6226017" lon="11.1335181"><ele>607.5</ele><time>2026-04-22T16:12:06.552Z</time></trkpt><trkpt lat="45.6224754" lon="11.1336221"><ele>606.0</ele><time>2026-04-22T16:12:07.557Z</time></trkpt><trkpt lat="45.6223457" lon="11.1337235"><ele>606.0</ele><time>2026-04-22T16:12:08.56Z</time></trkpt><trkpt lat="45.6222135" lon="11.133812"><ele>606.0</ele><time>2026-04-22T16:12:09.559Z</time></trkpt><trkpt lat="45.6220735" lon="11.1339"><ele>606.0</ele><time>2026-04-22T16:12:10.551Z</time></trkpt><trkpt lat="45.6219338" lon="11.1339807"><ele>605.6666666666666</ele><time>2026-04-22T16:12:11.555Z</time></trkpt><trkpt lat="45.6217966" lon="11.1340635"><ele>605.3333333333333</ele><time>2026-04-22T16:12:12.549Z</time></trkpt><trkpt lat="45.6216616" lon="11.1341583"><ele>605.0</ele><time>2026-04-22T16:12:13.555Z</time></trkpt><trkpt lat="45.6215312" lon="11.1342657"><ele>605.0</ele><time>2026-04-22T16:12:14.554Z</time></trkpt><trkpt lat="45.6214017" lon="11.1343732"><ele>605.0</ele><time>2026-04-22T16:12:15.558Z</time></trkpt><trkpt lat="45.6212723" lon="11.1344833"><ele>605.0</ele><time>2026-04-22T16:12:16.55Z</time></trkpt><trkpt lat="45.6211477" lon="11.134604"><ele>603.6666666666666</ele><time>2026-04-22T16:12:17.544Z</time></trkpt><trkpt lat="45.6210222" lon="11.1347343"><ele>602.3333333333334</ele><time>2026-04-22T16:12:18.567Z</time></trkpt><trkpt lat="45.6209002" lon="11.1348749"><ele>601.0</ele><time>2026-04-22T16:12:19.547Z</time></trkpt><trkpt lat="45.6207852" lon="11.1350289"><ele>600.3333333333334</ele><time>2026-04-22T16:12:20.554Z</time></trkpt><trkpt lat="45.62067" lon="11.1351876"><ele>599.6666666666666</ele><time>2026-04-22T16:12:21.555Z</time></trkpt><trkpt lat="45.6205546" lon="11.1353454"><ele>599.0</ele><time>2026-04-22T16:12:22.556Z</time></trkpt><trkpt lat="45.6204395" lon="11.1355004"><ele>599.0</ele><time>2026-04-22T16:12:23.558Z</time></trkpt><trkpt lat="45.6203272" lon="11.1356557"><ele>599.0</ele><time>2026-04-22T16:12:24.555Z</time></trkpt><trkpt lat="45.6202172" lon="11.1358056"><ele>599.0</ele><time>2026-04-22T16:12:25.552Z</time></trkpt><trkpt lat="45.6201057" lon="11.1359578"><ele>598.0</ele><time>2026-04-22T16:12:26.549Z</time></trkpt><trkpt lat="45.6199919" lon="11.1361088"><ele>597.0</ele><time>2026-04-22T16:12:27.555Z</time></trkpt><trkpt lat="45.6198746" lon="11.1362565"><ele>596.0</ele><time>2026-04-22T16:12:28.558Z</time></trkpt><trkpt lat="45.6197499" lon="11.1363882"><ele>596.0</ele><time>2026-04-22T16:12:29.559Z</time></trkpt><trkpt lat="45.6196182" lon="11.1365023"><ele>596.0</ele><time>2026-04-22T16:12:30.56Z</time></trkpt><trkpt lat="45.6194794" lon="11.1365906"><ele>596.0</ele><time>2026-04-22T16:12:31.561Z</time></trkpt><trkpt lat="45.6193327" lon="11.1366524"><ele>598.3333333333333</ele><time>2026-04-22T16:12:32.55Z</time></trkpt><trkpt lat="45.6191855" lon="11.1366997"><ele>600.6666666666666</ele><time>2026-04-22T16:12:33.55Z</time></trkpt><trkpt lat="45.6190359" lon="11.1367534"><ele>603.0</ele><time>2026-04-22T16:12:34.559Z</time></trkpt><trkpt lat="45.6188852" lon="11.1368147"><ele>603.0</ele><time>2026-04-22T16:12:35.548Z</time></trkpt><trkpt lat="45.6187374" lon="11.1368795"><ele>603.0</ele><time>2026-04-22T16:12:36.552Z</time></trkpt><trkpt lat="45.6185882" lon="11.136935"><ele>603.0</ele><time>2026-04-22T16:12:37.553Z</time></trkpt><trkpt lat="45.6184356" lon="11.1369842"><ele>598.3333333333334</ele><time>2026-04-22T16:12:38.551Z</time></trkpt><trkpt lat="45.6182856" lon="11.1370355"><ele>593.6666666666667</ele><time>2026-04-22T16:12:39.55Z</time></trkpt><trkpt lat="45.6181387" lon="11.1370832"><ele>589.0</ele><time>2026-04-22T16:12:40.558Z</time></trkpt><trkpt lat="45.6179911" lon="11.1371223"><ele>589.0</ele><time>2026-04-22T16:12:41.551Z</time></trkpt><trkpt lat="45.6178435" lon="11.1371596"><ele>589.0</ele><time>2026-04-22T16:12:42.547Z</time></trkpt><trkpt lat="45.6176972" lon="11.1371964"><ele>589.0</ele><time>2026-04-22T16:12:43.557Z</time></trkpt><trkpt lat="45.617553" lon="11.1372486"><ele>589.0</ele><time>2026-04-22T16:12:44.552Z</time></trkpt><trkpt lat="45.617412" lon="11.1373058"><ele>589.0</ele><time>2026-04-22T16:12:45.556Z</time></trkpt><trkpt lat="45.6172708" lon="11.1373607"><ele>589.0</ele><time>2026-04-22T16:12:46.556Z</time></trkpt><trkpt lat="45.6171279" lon="11.1373905"><ele>589.0</ele><time>2026-04-22T16:12:47.55Z</time></trkpt><trkpt lat="45.6169838" lon="11.1374193"><ele>589.0</ele><time>2026-04-22T16:12:48.551Z</time></trkpt><trkpt lat="45.6168394" lon="11.1374521"><ele>589.0</ele><time>2026-04-22T16:12:49.559Z</time></trkpt><trkpt lat="45.6166934" lon="11.1374781"><ele>589.0</ele><time>2026-04-22T16:12:50.551Z</time></trkpt><trkpt lat="45.6165463" lon="11.1375036"><ele>589.0</ele><time>2026-04-22T16:12:51.553Z</time></trkpt><trkpt lat="45.6163982" lon="11.1375347"><ele>589.0</ele><time>2026-04-22T16:12:52.557Z</time></trkpt><trkpt lat="45.6162482" lon="11.1375602"><ele>588.3333333333334</ele><time>2026-04-22T16:12:53.554Z</time></trkpt><trkpt lat="45.6160947" lon="11.137585"><ele>587.6666666666666</ele><time>2026-04-22T16:12:54.55Z</time></trkpt><trkpt lat="45.6159396" lon="11.1376055"><ele>587.0</ele><time>2026-04-22T16:12:55.553Z</time></trkpt><trkpt lat="45.6157864" lon="11.1376259"><ele>587.0</ele><time>2026-04-22T16:12:56.553Z</time></trkpt><trkpt lat="45.6156415" lon="11.137655"><ele>587.0</ele><time>2026-04-22T16:12:57.566Z</time></trkpt><trkpt lat="45.6154965" lon="11.1376993"><ele>587.0</ele><time>2026-04-22T16:12:58.56Z</time></trkpt><trkpt lat="45.6153562" lon="11.1377661"><ele>587.0</ele><time>2026-04-22T16:12:59.558Z</time></trkpt><trkpt lat="45.6152194" lon="11.1378586"><ele>584.6666666666666</ele><time>2026-04-22T16:13:00.555Z</time></trkpt><trkpt lat="45.6150838" lon="11.1379666"><ele>582.3333333333334</ele><time>2026-04-22T16:13:01.549Z</time></trkpt><trkpt lat="45.6149451" lon="11.1380765"><ele>580.0</ele><time>2026-04-22T16:13:02.553Z</time></trkpt><trkpt lat="45.614803" lon="11.1381775"><ele>582.3333333333334</ele><time>2026-04-22T16:13:03.55Z</time></trkpt><trkpt lat="45.6146568" lon="11.1382621"><ele>584.6666666666666</ele><time>2026-04-22T16:13:04.557Z</time></trkpt><trkpt lat="45.6145069" lon="11.1383232"><ele>587.0</ele><time>2026-04-22T16:13:05.55Z</time></trkpt><trkpt lat="45.6143558" lon="11.1383604"><ele>587.0</ele><time>2026-04-22T16:13:06.558Z</time></trkpt><trkpt lat="45.6142024" lon="11.1383677"><ele>587.0</ele><time>2026-04-22T16:13:07.546Z</time></trkpt><trkpt lat="45.6140492" lon="11.1383435"><ele>587.0</ele><time>2026-04-22T16:13:08.551Z</time></trkpt><trkpt lat="45.6139006" lon="11.1382919"><ele>587.0</ele><time>2026-04-22T16:13:09.559Z</time></trkpt><trkpt lat="45.6137556" lon="11.1382208"><ele>587.0</ele><time>2026-04-22T16:13:10.556Z</time></trkpt><trkpt lat="45.613613" lon="11.1381433"><ele>587.0</ele><time>2026-04-22T16:13:11.549Z</time></trkpt><trkpt lat="45.6134693" lon="11.1380921"><ele>583.75</ele><time>2026-04-22T16:13:12.56Z</time></trkpt><trkpt lat="45.6133234" lon="11.1380725"><ele>580.5</ele><time>2026-04-22T16:13:13.558Z</time></trkpt><trkpt lat="45.6131842" lon="11.1380699"><ele>577.25</ele><time>2026-04-22T16:13:14.566Z</time></trkpt><trkpt lat="45.6130505" lon="11.1380724"><ele>574.0</ele><time>2026-04-22T16:13:15.558Z</time></trkpt><trkpt lat="45.6129232" lon="11.1380829"><ele>573.4</ele><time>2026-04-22T16:13:16.559Z</time></trkpt><trkpt lat="45.6128021" lon="11.1380884"><ele>572.8</ele><time>2026-04-22T16:13:17.55Z</time></trkpt><trkpt lat="45.6126862" lon="11.1380871"><ele>572.2</ele><time>2026-04-22T16:13:18.549Z</time></trkpt><trkpt lat="45.6125774" lon="11.1380888"><ele>571.6</ele><time>2026-04-22T16:13:19.556Z</time></trkpt><trkpt lat="45.612476" lon="11.1380886"><ele>571.0</ele><time>2026-04-22T16:13:20.558Z</time></trkpt><trkpt lat="45.6123797" lon="11.1380894"><ele>571.0</ele><time>2026-04-22T16:13:21.563Z</time></trkpt><trkpt lat="45.6122911" lon="11.1381014"><ele>571.0</ele><time>2026-04-22T16:13:22.55Z</time></trkpt><trkpt lat="45.612207" lon="11.1381547"><ele>571.0</ele><time>2026-04-22T16:13:23.556Z</time></trkpt><trkpt lat="45.6121237" lon="11.1382276"><ele>571.0</ele><time>2026-04-22T16:13:24.548Z</time></trkpt><trkpt lat="45.6120387" lon="11.1382998"><ele>571.0</ele><time>2026-04-22T16:13:25.56Z</time></trkpt><trkpt lat="45.6119494" lon="11.1383727"><ele>570.8</ele><time>2026-04-22T16:13:26.55Z</time></trkpt><trkpt lat="45.6118591" lon="11.1384508"><ele>570.6</ele><time>2026-04-22T16:13:27.557Z</time></trkpt><trkpt lat="45.6117682" lon="11.1385286"><ele>570.4</ele><time>2026-04-22T16:13:28.554Z</time></trkpt><trkpt lat="45.6116832" lon="11.1386013"><ele>570.2</ele><time>2026-04-22T16:13:29.57Z</time></trkpt><trkpt lat="45.6116077" lon="11.1386711"><ele>570.0</ele><time>2026-04-22T16:13:30.553Z</time></trkpt><trkpt lat="45.6115361" lon="11.1387335"><ele>570.0</ele><time>2026-04-22T16:13:31.555Z</time></trkpt><trkpt lat="45.6114699" lon="11.1387897"><ele>570.0</ele><time>2026-04-22T16:13:32.564Z</time></trkpt><trkpt lat="45.6114082" lon="11.1388435"><ele>570.0</ele><time>2026-04-22T16:13:33.56Z</time></trkpt><trkpt lat="45.611347" lon="11.1389009"><ele>570.0</ele><time>2026-04-22T16:13:34.555Z</time></trkpt><trkpt lat="45.6112889" lon="11.1389665"><ele>570.0</ele><time>2026-04-22T16:13:35.55Z</time></trkpt><trkpt lat="45.6112246" lon="11.1390203"><ele>570.0</ele><time>2026-04-22T16:13:36.555Z</time></trkpt><trkpt lat="45.6111438" lon="11.1390534"><ele>569.6</ele><time>2026-04-22T16:13:37.547Z</time></trkpt><trkpt lat="45.6110521" lon="11.1390847"><ele>569.2</ele><time>2026-04-22T16:13:38.554Z</time></trkpt><trkpt lat="45.6109491" lon="11.1391329"><ele>568.8</ele><time>2026-04-22T16:13:39.551Z</time></trkpt><trkpt lat="45.6108381" lon="11.1391885"><ele>568.4</ele><time>2026-04-22T16:13:40.549Z</time></trkpt><trkpt lat="45.6107232" lon="11.1392581"><ele>568.0</ele><time>2026-04-22T16:13:41.558Z</time></trkpt><trkpt lat="45.6106039" lon="11.1393374"><ele>568.0</ele><time>2026-04-22T16:13:42.549Z</time></trkpt><trkpt lat="45.6104799" lon="11.1394202"><ele>568.0</ele><time>2026-04-22T16:13:43.556Z</time></trkpt><trkpt lat="45.6103534" lon="11.1394973"><ele>568.0</ele><time>2026-04-22T16:13:44.55Z</time></trkpt><trkpt lat="45.6102214" lon="11.1395777"><ele>568.0</ele><time>2026-04-22T16:13:45.555Z</time></trkpt><trkpt lat="45.6100923" lon="11.1396664"><ele>567.75</ele><time>2026-04-22T16:13:46.556Z</time></trkpt><trkpt lat="45.6099638" lon="11.1397602"><ele>567.5</ele><time>2026-04-22T16:13:47.546Z</time></trkpt><trkpt lat="45.6098319" lon="11.1398593"><ele>567.25</ele><time>2026-04-22T16:13:48.557Z</time></trkpt><trkpt lat="45.6097008" lon="11.1399641"><ele>567.0</ele><time>2026-04-22T16:13:49.557Z</time></trkpt><trkpt lat="45.6095724" lon="11.1400737"><ele>565.25</ele><time>2026-04-22T16:13:50.553Z</time></trkpt><trkpt lat="45.609442" lon="11.1401799"><ele>563.5</ele><time>2026-04-22T16:13:51.563Z</time></trkpt><trkpt lat="45.6093131" lon="11.1402902"><ele>561.75</ele><time>2026-04-22T16:13:52.551Z</time></trkpt><trkpt lat="45.6091877" lon="11.1404012"><ele>560.0</ele><time>2026-04-22T16:13:53.559Z</time></trkpt><trkpt lat="45.6090643" lon="11.1405106"><ele>560.0</ele><time>2026-04-22T16:13:54.553Z</time></trkpt><trkpt lat="45.6089444" lon="11.1406178"><ele>560.0</ele><time>2026-04-22T16:13:55.554Z</time></trkpt><trkpt lat="45.6088301" lon="11.1407229"><ele>560.0</ele><time>2026-04-22T16:13:56.548Z</time></trkpt><trkpt lat="45.6087227" lon="11.1408138"><ele>560.0</ele><time>2026-04-22T16:13:57.549Z</time></trkpt><trkpt lat="45.6086212" lon="11.140874"><ele>559.8</ele><time>2026-04-22T16:13:58.559Z</time></trkpt><trkpt lat="45.60852" lon="11.1408937"><ele>559.6</ele><time>2026-04-22T16:13:59.552Z</time></trkpt><trkpt lat="45.6084218" lon="11.1408638"><ele>559.4</ele><time>2026-04-22T16:14:00.551Z</time></trkpt><trkpt lat="45.6083308" lon="11.1407883"><ele>559.2</ele><time>2026-04-22T16:14:01.552Z</time></trkpt><trkpt lat="45.6082436" lon="11.1406877"><ele>559.0</ele><time>2026-04-22T16:14:02.553Z</time></trkpt><trkpt lat="45.6081574" lon="11.1405672"><ele>559.0</ele><time>2026-04-22T16:14:03.564Z</time></trkpt><trkpt lat="45.6080613" lon="11.1404643"><ele>559.0</ele><time>2026-04-22T16:14:04.547Z</time></trkpt><trkpt lat="45.6079578" lon="11.1403779"><ele>559.0</ele><time>2026-04-22T16:14:05.553Z</time></trkpt><trkpt lat="45.6078391" lon="11.1403173"><ele>559.0</ele><time>2026-04-22T16:14:06.552Z</time></trkpt><trkpt lat="45.6077135" lon="11.1402979"><ele>563.75</ele><time>2026-04-22T16:14:07.55Z</time></trkpt><trkpt lat="45.607581" lon="11.1403231"><ele>568.5</ele><time>2026-04-22T16:14:08.556Z</time></trkpt><trkpt lat="45.6074487" lon="11.140387"><ele>573.25</ele><time>2026-04-22T16:14:09.553Z</time></trkpt><trkpt lat="45.6073194" lon="11.1404843"><ele>578.0</ele><time>2026-04-22T16:14:10.556Z</time></trkpt><trkpt lat="45.6071926" lon="11.1405991"><ele>578.0</ele><time>2026-04-22T16:14:11.562Z</time></trkpt><trkpt lat="45.6070617" lon="11.1407155"><ele>578.0</ele><time>2026-04-22T16:14:12.559Z</time></trkpt><trkpt lat="45.6069315" lon="11.1408317"><ele>578.0</ele><time>2026-04-22T16:14:13.555Z</time></trkpt><trkpt lat="45.6067991" lon="11.1409462"><ele>575.3333333333333</ele><time>2026-04-22T16:14:14.552Z</time></trkpt><trkpt lat="45.6066626" lon="11.1410524"><ele>572.6666666666666</ele><time>2026-04-22T16:14:15.549Z</time></trkpt><trkpt lat="45.6065203" lon="11.1411526"><ele>570.0</ele><time>2026-04-22T16:14:16.55Z</time></trkpt><trkpt lat="45.6063773" lon="11.1412471"><ele>570.0</ele><time>2026-04-22T16:14:17.554Z</time></trkpt><trkpt lat="45.6062296" lon="11.1413421"><ele>570.0</ele><time>2026-04-22T16:14:18.555Z</time></trkpt><trkpt lat="45.6060804" lon="11.1414356"><ele>570.0</ele><time>2026-04-22T16:14:19.552Z</time></trkpt><trkpt lat="45.6059382" lon="11.1415371"><ele>568.0</ele><time>2026-04-22T16:14:20.553Z</time></trkpt><trkpt lat="45.6058081" lon="11.1416611"><ele>566.0</ele><time>2026-04-22T16:14:21.553Z</time></trkpt><trkpt lat="45.6056971" lon="11.1418078"><ele>564.0</ele><time>2026-04-22T16:14:22.549Z</time></trkpt><trkpt lat="45.6055944" lon="11.1419681"><ele>564.0</ele><time>2026-04-22T16:14:23.553Z</time></trkpt><trkpt lat="45.6055015" lon="11.1421229"><ele>564.0</ele><time>2026-04-22T16:14:24.561Z</time></trkpt><trkpt lat="45.6054071" lon="11.1422637"><ele>564.0</ele><time>2026-04-22T16:14:25.547Z</time></trkpt><trkpt lat="45.6052946" lon="11.1423745"><ele>564.0</ele><time>2026-04-22T16:14:26.556Z</time></trkpt><trkpt lat="45.605166" lon="11.1424445"><ele>561.25</ele><time>2026-04-22T16:14:27.557Z</time></trkpt><trkpt lat="45.6050306" lon="11.1425111"><ele>558.5</ele><time>2026-04-22T16:14:28.548Z</time></trkpt><trkpt lat="45.6048938" lon="11.1425849"><ele>555.75</ele><time>2026-04-22T16:14:29.549Z</time></trkpt><trkpt lat="45.6047607" lon="11.1426595"><ele>553.0</ele><time>2026-04-22T16:14:30.548Z</time></trkpt><trkpt lat="45.6046236" lon="11.1427314"><ele>560.3333333333334</ele><time>2026-04-22T16:14:31.563Z</time></trkpt><trkpt lat="45.6044827" lon="11.142808"><ele>567.6666666666666</ele><time>2026-04-22T16:14:32.554Z</time></trkpt><trkpt lat="45.6043387" lon="11.1428856"><ele>575.0</ele><time>2026-04-22T16:14:33.559Z</time></trkpt><trkpt lat="45.6041887" lon="11.1429667"><ele>575.0</ele><time>2026-04-22T16:14:34.554Z</time></trkpt><trkpt lat="45.6040362" lon="11.1430492"><ele>575.0</ele><time>2026-04-22T16:14:35.555Z</time></trkpt><trkpt lat="45.6038768" lon="11.1431259"><ele>575.0</ele><time>2026-04-22T16:14:36.55Z</time></trkpt><trkpt lat="45.6037112" lon="11.1431924"><ele>567.6666666666666</ele><time>2026-04-22T16:14:37.554Z</time></trkpt><trkpt lat="45.6035405" lon="11.1432465"><ele>560.3333333333334</ele><time>2026-04-22T16:14:38.553Z</time></trkpt><trkpt lat="45.6033688" lon="11.1432951"><ele>553.0</ele><time>2026-04-22T16:14:39.554Z</time></trkpt><trkpt lat="45.6032026" lon="11.1433472"><ele>553.0</ele><time>2026-04-22T16:14:40.554Z</time></trkpt><trkpt lat="45.6030409" lon="11.1434077"><ele>553.0</ele><time>2026-04-22T16:14:41.554Z</time></trkpt><trkpt lat="45.6028845" lon="11.1434865"><ele>553.0</ele><time>2026-04-22T16:14:42.551Z</time></trkpt><trkpt lat="45.602732" lon="11.143583"><ele>555.3333333333334</ele><time>2026-04-22T16:14:43.556Z</time></trkpt><trkpt lat="45.6025825" lon="11.1436894"><ele>557.6666666666666</ele><time>2026-04-22T16:14:44.555Z</time></trkpt><trkpt lat="45.6024317" lon="11.143801"><ele>560.0</ele><time>2026-04-22T16:14:45.549Z</time></trkpt><trkpt lat="45.602275" lon="11.143909"><ele>560.0</ele><time>2026-04-22T16:14:46.559Z</time></trkpt><trkpt lat="45.602121" lon="11.1440218"><ele>560.0</ele><time>2026-04-22T16:14:47.559Z</time></trkpt><trkpt lat="45.6019618" lon="11.1441282"><ele>560.0</ele><time>2026-04-22T16:14:48.558Z</time></trkpt><trkpt lat="45.6018023" lon="11.1442331"><ele>554.6666666666666</ele><time>2026-04-22T16:14:49.548Z</time></trkpt><trkpt lat="45.6016405" lon="11.1443382"><ele>549.3333333333334</ele><time>2026-04-22T16:14:50.548Z</time></trkpt><trkpt lat="45.6014821" lon="11.1444474"><ele>544.0</ele><time>2026-04-22T16:14:51.559Z</time></trkpt><trkpt lat="45.6013256" lon="11.144556"><ele>544.0</ele><time>2026-04-22T16:14:52.552Z</time></trkpt><trkpt lat="45.6011702" lon="11.1446808"><ele>544.0</ele><time>2026-04-22T16:14:53.545Z</time></trkpt><trkpt lat="45.6010181" lon="11.1448194"><ele>544.0</ele><time>2026-04-22T16:14:54.552Z</time></trkpt><trkpt lat="45.6008732" lon="11.144973"><ele>542.3333333333334</ele><time>2026-04-22T16:14:55.545Z</time></trkpt><trkpt lat="45.6007266" lon="11.1451281"><ele>540.6666666666666</ele><time>2026-04-22T16:14:56.557Z</time></trkpt><trkpt lat="45.6005828" lon="11.1452816"><ele>539.0</ele><time>2026-04-22T16:14:57.556Z</time></trkpt><trkpt lat="45.6004403" lon="11.1454341"><ele>537.3333333333333</ele><time>2026-04-22T16:14:58.551Z</time></trkpt><trkpt lat="45.6002976" lon="11.1455896"><ele>535.6666666666666</ele><time>2026-04-22T16:14:59.55Z</time></trkpt><trkpt lat="45.6001522" lon="11.1457458"><ele>534.0</ele><time>2026-04-22T16:15:00.554Z</time></trkpt><trkpt lat="45.6000076" lon="11.1458922"><ele>534.0</ele><time>2026-04-22T16:15:01.556Z</time></trkpt><trkpt lat="45.599862" lon="11.1460269"><ele>534.0</ele><time>2026-04-22T16:15:02.548Z</time></trkpt><trkpt lat="45.5997116" lon="11.146159"><ele>534.0</ele><time>2026-04-22T16:15:03.549Z</time></trkpt><trkpt lat="45.5995608" lon="11.1462873"><ele>535.3333333333334</ele><time>2026-04-22T16:15:04.559Z</time></trkpt><trkpt lat="45.5994094" lon="11.1464107"><ele>536.6666666666667</ele><time>2026-04-22T16:15:05.554Z</time></trkpt><trkpt lat="45.5992579" lon="11.1465303"><ele>538.0</ele><time>2026-04-22T16:15:06.552Z</time></trkpt><trkpt lat="45.5991063" lon="11.1466479"><ele>537.0</ele><time>2026-04-22T16:15:07.559Z</time></trkpt><trkpt lat="45.5989565" lon="11.1467605"><ele>536.0</ele><time>2026-04-22T16:15:08.553Z</time></trkpt><trkpt lat="45.5988079" lon="11.1468761"><ele>535.0</ele><time>2026-04-22T16:15:09.548Z</time></trkpt><trkpt lat="45.598659" lon="11.1469978"><ele>535.0</ele><time>2026-04-22T16:15:10.556Z</time></trkpt><trkpt lat="45.5985169" lon="11.1471329"><ele>535.0</ele><time>2026-04-22T16:15:11.549Z</time></trkpt><trkpt lat="45.5983785" lon="11.1472805"><ele>535.0</ele><time>2026-04-22T16:15:12.556Z</time></trkpt><trkpt lat="45.5982522" lon="11.1474433"><ele>531.6666666666667</ele><time>2026-04-22T16:15:13.554Z</time></trkpt><trkpt lat="45.5981388" lon="11.1476126"><ele>528.3333333333334</ele><time>2026-04-22T16:15:14.556Z</time></trkpt><trkpt lat="45.5980384" lon="11.1477763"><ele>525.0</ele><time>2026-04-22T16:15:15.552Z</time></trkpt><trkpt lat="45.5979469" lon="11.1479277"><ele>525.0</ele><time>2026-04-22T16:15:16.548Z</time></trkpt><trkpt lat="45.5978572" lon="11.1480627"><ele>525.0</ele><time>2026-04-22T16:15:17.56Z</time></trkpt><trkpt lat="45.5977601" lon="11.1481865"><ele>525.0</ele><time>2026-04-22T16:15:18.564Z</time></trkpt><trkpt lat="45.5976526" lon="11.1482957"><ele>525.0</ele><time>2026-04-22T16:15:19.552Z</time></trkpt><trkpt lat="45.5975411" lon="11.1483857"><ele>525.75</ele><time>2026-04-22T16:15:20.552Z</time></trkpt><trkpt lat="45.5974269" lon="11.148469"><ele>526.5</ele><time>2026-04-22T16:15:21.566Z</time></trkpt><trkpt lat="45.5973076" lon="11.1485537"><ele>527.25</ele><time>2026-04-22T16:15:22.559Z</time></trkpt><trkpt lat="45.5971858" lon="11.1486226"><ele>528.0</ele><time>2026-04-22T16:15:23.555Z</time></trkpt><trkpt lat="45.5970592" lon="11.1486806"><ele>528.0</ele><time>2026-04-22T16:15:24.551Z</time></trkpt><trkpt lat="45.596931" lon="11.1487287"><ele>528.0</ele><time>2026-04-22T16:15:25.558Z</time></trkpt><trkpt lat="45.5968066" lon="11.1487722"><ele>528.0</ele><time>2026-04-22T16:15:26.552Z</time></trkpt><trkpt lat="45.5966799" lon="11.1488187"><ele>528.0</ele><time>2026-04-22T16:15:27.553Z</time></trkpt><trkpt lat="45.5965558" lon="11.1488646"><ele>528.0</ele><time>2026-04-22T16:15:28.549Z</time></trkpt><trkpt lat="45.5964318" lon="11.1489239"><ele>528.0</ele><time>2026-04-22T16:15:29.551Z</time></trkpt><trkpt lat="45.5963086" lon="11.1490023"><ele>528.0</ele><time>2026-04-22T16:15:30.552Z</time></trkpt><trkpt lat="45.5961848" lon="11.1490862"><ele>528.0</ele><time>2026-04-22T16:15:31.554Z</time></trkpt><trkpt lat="45.5960625" lon="11.1491797"><ele>527.25</ele><time>2026-04-22T16:15:32.551Z</time></trkpt><trkpt lat="45.5959389" lon="11.1492727"><ele>526.5</ele><time>2026-04-22T16:15:33.552Z</time></trkpt><trkpt lat="45.5958185" lon="11.1493717"><ele>525.75</ele><time>2026-04-22T16:15:34.553Z</time></trkpt><trkpt lat="45.5957133" lon="11.1495044"><ele>525.0</ele><time>2026-04-22T16:15:35.546Z</time></trkpt><trkpt lat="45.5956288" lon="11.1496707"><ele>525.0</ele><time>2026-04-22T16:15:36.56Z</time></trkpt><trkpt lat="45.595554" lon="11.149851"><ele>525.0</ele><time>2026-04-22T16:15:37.552Z</time></trkpt><trkpt lat="45.5954943" lon="11.1500229"><ele>525.0</ele><time>2026-04-22T16:15:38.557Z</time></trkpt><trkpt lat="45.5954417" lon="11.1501755"><ele>525.0</ele><time>2026-04-22T16:15:39.555Z</time></trkpt><trkpt lat="45.5953824" lon="11.1503027"><ele>523.75</ele><time>2026-04-22T16:15:40.554Z</time></trkpt><trkpt lat="45.5953061" lon="11.1503924"><ele>522.5</ele><time>2026-04-22T16:15:41.553Z</time></trkpt><trkpt lat="45.5952077" lon="11.1504548"><ele>521.25</ele><time>2026-04-22T16:15:42.561Z</time></trkpt><trkpt lat="45.5950921" lon="11.1504958"><ele>520.0</ele><time>2026-04-22T16:15:43.561Z</time></trkpt><trkpt lat="45.5949631" lon="11.1505273"><ele>520.0</ele><time>2026-04-22T16:15:44.554Z</time></trkpt><trkpt lat="45.5948291" lon="11.1505503"><ele>520.0</ele><time>2026-04-22T16:15:45.551Z</time></trkpt><trkpt lat="45.5946917" lon="11.1505748"><ele>520.0</ele><time>2026-04-22T16:15:46.559Z</time></trkpt><trkpt lat="45.5945588" lon="11.1506021"><ele>520.0</ele><time>2026-04-22T16:15:47.559Z</time></trkpt><trkpt lat="45.594434" lon="11.1506251"><ele>519.75</ele><time>2026-04-22T16:15:48.553Z</time></trkpt><trkpt lat="45.5943139" lon="11.1506633"><ele>519.5</ele><time>2026-04-22T16:15:49.561Z</time></trkpt><trkpt lat="45.5941948" lon="11.1507408"><ele>519.25</ele><time>2026-04-22T16:15:50.565Z</time></trkpt><trkpt lat="45.5940841" lon="11.1508451"><ele>519.0</ele><time>2026-04-22T16:15:51.548Z</time></trkpt><trkpt lat="45.5939738" lon="11.1509574"><ele>517.5</ele><time>2026-04-22T16:15:52.555Z</time></trkpt><trkpt lat="45.593869" lon="11.1510648"><ele>516.0</ele><time>2026-04-22T16:15:53.55Z</time></trkpt><trkpt lat="45.5937763" lon="11.1511744"><ele>514.5</ele><time>2026-04-22T16:15:54.559Z</time></trkpt><trkpt lat="45.5937136" lon="11.151309"><ele>513.0</ele><time>2026-04-22T16:15:55.555Z</time></trkpt><trkpt lat="45.593681" lon="11.1514672"><ele>511.59999999999997</ele><time>2026-04-22T16:15:56.549Z</time></trkpt><trkpt lat="45.5936613" lon="11.1516188"><ele>510.19999999999993</ele><time>2026-04-22T16:15:57.551Z</time></trkpt><trkpt lat="45.5936401" lon="11.1517566"><ele>508.8</ele><time>2026-04-22T16:15:58.552Z</time></trkpt><trkpt lat="45.5936056" lon="11.1518838"><ele>507.4</ele><time>2026-04-22T16:15:59.555Z</time></trkpt><trkpt lat="45.5935432" lon="11.1519993"><ele>506.0</ele><time>2026-04-22T16:16:00.554Z</time></trkpt><trkpt lat="45.5934544" lon="11.1520913"><ele>506.0</ele><time>2026-04-22T16:16:01.557Z</time></trkpt><trkpt lat="45.5933454" lon="11.1521746"><ele>506.0</ele><time>2026-04-22T16:16:02.553Z</time></trkpt><trkpt lat="45.5932301" lon="11.1522652"><ele>506.0</ele><time>2026-04-22T16:16:03.548Z</time></trkpt><trkpt lat="45.5931062" lon="11.152356"><ele>506.0</ele><time>2026-04-22T16:16:04.554Z</time></trkpt><trkpt lat="45.5929726" lon="11.152443"><ele>506.66666666666663</ele><time>2026-04-22T16:16:05.548Z</time></trkpt><trkpt lat="45.5928315" lon="11.1525329"><ele>507.33333333333337</ele><time>2026-04-22T16:16:06.546Z</time></trkpt><trkpt lat="45.5926838" lon="11.1526287"><ele>508.0</ele><time>2026-04-22T16:16:07.554Z</time></trkpt><trkpt lat="45.5925247" lon="11.1527046"><ele>508.0</ele><time>2026-04-22T16:16:08.553Z</time></trkpt><trkpt lat="45.5923604" lon="11.1527761"><ele>508.0</ele><time>2026-04-22T16:16:09.549Z</time></trkpt><trkpt lat="45.5921936" lon="11.1528501"><ele>508.0</ele><time>2026-04-22T16:16:10.552Z</time></trkpt><trkpt lat="45.5920257" lon="11.1529235"><ele>506.6666666666667</ele><time>2026-04-22T16:16:11.552Z</time></trkpt><trkpt lat="45.5918554" lon="11.1529935"><ele>505.33333333333337</ele><time>2026-04-22T16:16:12.557Z</time></trkpt><trkpt lat="45.5916854" lon="11.1530611"><ele>504.0</ele><time>2026-04-22T16:16:13.555Z</time></trkpt><trkpt lat="45.5915175" lon="11.153121"><ele>504.0</ele><time>2026-04-22T16:16:14.553Z</time></trkpt><trkpt lat="45.5913525" lon="11.1531746"><ele>504.0</ele><time>2026-04-22T16:16:15.555Z</time></trkpt><trkpt lat="45.5911894" lon="11.1532268"><ele>504.0</ele><time>2026-04-22T16:16:16.552Z</time></trkpt><trkpt lat="45.59103" lon="11.1532771"><ele>503.33333333333337</ele><time>2026-04-22T16:16:17.557Z</time></trkpt><trkpt lat="45.5908739" lon="11.1533271"><ele>502.6666666666667</ele><time>2026-04-22T16:16:18.551Z</time></trkpt><trkpt lat="45.5907181" lon="11.1533856"><ele>502.0</ele><time>2026-04-22T16:16:19.56Z</time></trkpt><trkpt lat="45.5905667" lon="11.1534609"><ele>502.0</ele><time>2026-04-22T16:16:20.562Z</time></trkpt><trkpt lat="45.5904202" lon="11.1535576"><ele>502.0</ele><time>2026-04-22T16:16:21.549Z</time></trkpt><trkpt lat="45.5902789" lon="11.1536687"><ele>502.0</ele><time>2026-04-22T16:16:22.556Z</time></trkpt><trkpt lat="45.5901378" lon="11.1537856"><ele>500.6666666666667</ele><time>2026-04-22T16:16:23.557Z</time></trkpt><trkpt lat="45.5899927" lon="11.1538915"><ele>499.33333333333337</ele><time>2026-04-22T16:16:24.55Z</time></trkpt><trkpt lat="45.5898335" lon="11.1539671"><ele>498.0</ele><time>2026-04-22T16:16:25.552Z</time></trkpt><trkpt lat="45.5896697" lon="11.1540053"><ele>498.0</ele><time>2026-04-22T16:16:26.55Z</time></trkpt><trkpt lat="45.5895036" lon="11.1540134"><ele>498.0</ele><time>2026-04-22T16:16:27.555Z</time></trkpt><trkpt lat="45.589337" lon="11.1540037"><ele>498.0</ele><time>2026-04-22T16:16:28.565Z</time></trkpt><trkpt lat="45.5891676" lon="11.1539828"><ele>498.0</ele><time>2026-04-22T16:16:29.55Z</time></trkpt><trkpt lat="45.5889962" lon="11.1539573"><ele>498.0</ele><time>2026-04-22T16:16:30.552Z</time></trkpt><trkpt lat="45.5888249" lon="11.1539355"><ele>498.0</ele><time>2026-04-22T16:16:31.555Z</time></trkpt><trkpt lat="45.5886544" lon="11.1539234"><ele>497.66666666666663</ele><time>2026-04-22T16:16:32.563Z</time></trkpt><trkpt lat="45.5884826" lon="11.1539226"><ele>497.3333333333333</ele><time>2026-04-22T16:16:33.554Z</time></trkpt><trkpt lat="45.5883129" lon="11.1539368"><ele>497.0</ele><time>2026-04-22T16:16:34.548Z</time></trkpt><trkpt lat="45.5881454" lon="11.15396"><ele>497.0</ele><time>2026-04-22T16:16:35.552Z</time></trkpt><trkpt lat="45.5879787" lon="11.1539818"><ele>497.0</ele><time>2026-04-22T16:16:36.553Z</time></trkpt><trkpt lat="45.5878156" lon="11.1540216"><ele>497.0</ele><time>2026-04-22T16:16:37.551Z</time></trkpt><trkpt lat="45.5876568" lon="11.1540574"><ele>498.3333333333333</ele><time>2026-04-22T16:16:38.548Z</time></trkpt><trkpt lat="45.5874947" lon="11.1540707"><ele>499.66666666666663</ele><time>2026-04-22T16:16:39.549Z</time></trkpt><trkpt lat="45.5873346" lon="11.1540513"><ele>501.0</ele><time>2026-04-22T16:16:40.57Z</time></trkpt><trkpt lat="45.5871754" lon="11.1539916"><ele>498.33333333333337</ele><time>2026-04-22T16:16:41.556Z</time></trkpt><trkpt lat="45.5870163" lon="11.1539142"><ele>495.6666666666667</ele><time>2026-04-22T16:16:42.558Z</time></trkpt><trkpt lat="45.5868537" lon="11.1538375"><ele>493.0</ele><time>2026-04-22T16:16:43.552Z</time></trkpt><trkpt lat="45.5866895" lon="11.1537623"><ele>493.0</ele><time>2026-04-22T16:16:44.559Z</time></trkpt><trkpt lat="45.5865253" lon="11.1536864"><ele>493.0</ele><time>2026-04-22T16:16:45.55Z</time></trkpt><trkpt lat="45.5863645" lon="11.1536142"><ele>493.0</ele><time>2026-04-22T16:16:46.574Z</time></trkpt><trkpt lat="45.5862016" lon="11.1535427"><ele>493.0</ele><time>2026-04-22T16:16:47.552Z</time></trkpt><trkpt lat="45.5860405" lon="11.1534727"><ele>493.0</ele><time>2026-04-22T16:16:48.556Z</time></trkpt><trkpt lat="45.5858859" lon="11.1534194"><ele>493.0</ele><time>2026-04-22T16:16:49.552Z</time></trkpt><trkpt lat="45.5857307" lon="11.1533769"><ele>493.0</ele><time>2026-04-22T16:16:50.553Z</time></trkpt><trkpt lat="45.5855744" lon="11.1533506"><ele>493.0</ele><time>2026-04-22T16:16:51.549Z</time></trkpt><trkpt lat="45.5854121" lon="11.1533261"><ele>493.0</ele><time>2026-04-22T16:16:52.554Z</time></trkpt><trkpt lat="45.58525" lon="11.1533096"><ele>493.25</ele><time>2026-04-22T16:16:53.552Z</time></trkpt><trkpt lat="45.5850975" lon="11.153289"><ele>493.5</ele><time>2026-04-22T16:16:54.551Z</time></trkpt><trkpt lat="45.5849554" lon="11.1532579"><ele>493.75</ele><time>2026-04-22T16:16:55.558Z</time></trkpt><trkpt lat="45.5848285" lon="11.1532152"><ele>494.0</ele><time>2026-04-22T16:16:56.553Z</time></trkpt><trkpt lat="45.5847132" lon="11.1531282"><ele>493.25</ele><time>2026-04-22T16:16:57.552Z</time></trkpt><trkpt lat="45.5846079" lon="11.1530105"><ele>492.5</ele><time>2026-04-22T16:16:58.555Z</time></trkpt><trkpt lat="45.5845131" lon="11.1528664"><ele>491.75</ele><time>2026-04-22T16:16:59.55Z</time></trkpt><trkpt lat="45.5844267" lon="11.1527021"><ele>491.0</ele><time>2026-04-22T16:17:00.556Z</time></trkpt><trkpt lat="45.5843279" lon="11.152539"><ele>490.3333333333333</ele><time>2026-04-22T16:17:01.552Z</time></trkpt><trkpt lat="45.5842048" lon="11.1523959"><ele>489.66666666666663</ele><time>2026-04-22T16:17:02.564Z</time></trkpt><trkpt lat="45.5840697" lon="11.1522728"><ele>489.0</ele><time>2026-04-22T16:17:03.554Z</time></trkpt><trkpt lat="45.5839226" lon="11.1521777"><ele>488.33333333333337</ele><time>2026-04-22T16:17:04.548Z</time></trkpt><trkpt lat="45.5837602" lon="11.1521122"><ele>487.6666666666667</ele><time>2026-04-22T16:17:05.561Z</time></trkpt><trkpt lat="45.5835893" lon="11.1520713"><ele>487.0</ele><time>2026-04-22T16:17:06.555Z</time></trkpt><trkpt lat="45.5834149" lon="11.1520264"><ele>485.6666666666667</ele><time>2026-04-22T16:17:07.552Z</time></trkpt><trkpt lat="45.5832428" lon="11.1519916"><ele>484.33333333333337</ele><time>2026-04-22T16:17:08.551Z</time></trkpt><trkpt lat="45.5830693" lon="11.1519719"><ele>483.0</ele><time>2026-04-22T16:17:09.559Z</time></trkpt><trkpt lat="45.5828981" lon="11.1519267"><ele>483.0</ele><time>2026-04-22T16:17:10.553Z</time></trkpt><trkpt lat="45.582728" lon="11.1518763"><ele>483.0</ele><time>2026-04-22T16:17:11.555Z</time></trkpt><trkpt lat="45.582561" lon="11.1518239"><ele>483.0</ele><time>2026-04-22T16:17:12.547Z</time></trkpt><trkpt lat="45.582393" lon="11.1517619"><ele>483.0</ele><time>2026-04-22T16:17:13.559Z</time></trkpt><trkpt lat="45.5822269" lon="11.1516877"><ele>483.0</ele><time>2026-04-22T16:17:14.554Z</time></trkpt><trkpt lat="45.5820609" lon="11.1516066"><ele>483.0</ele><time>2026-04-22T16:17:15.558Z</time></trkpt><trkpt lat="45.581897" lon="11.1515218"><ele>481.66666666666663</ele><time>2026-04-22T16:17:16.564Z</time></trkpt><trkpt lat="45.581734" lon="11.1514368"><ele>480.3333333333333</ele><time>2026-04-22T16:17:17.553Z</time></trkpt><trkpt lat="45.5815737" lon="11.1513513"><ele>479.0</ele><time>2026-04-22T16:17:18.566Z</time></trkpt><trkpt lat="45.5814156" lon="11.1512793"><ele>479.0</ele><time>2026-04-22T16:17:19.548Z</time></trkpt><trkpt lat="45.5812514" lon="11.1512249"><ele>479.0</ele><time>2026-04-22T16:17:20.55Z</time></trkpt><trkpt lat="45.5810873" lon="11.1511877"><ele>479.0</ele><time>2026-04-22T16:17:21.551Z</time></trkpt><trkpt lat="45.5809216" lon="11.1511705"><ele>479.0</ele><time>2026-04-22T16:17:22.558Z</time></trkpt><trkpt lat="45.5807531" lon="11.1511756"><ele>479.0</ele><time>2026-04-22T16:17:23.553Z</time></trkpt><trkpt lat="45.5805819" lon="11.1511977"><ele>479.0</ele><time>2026-04-22T16:17:24.553Z</time></trkpt><trkpt lat="45.5804098" lon="11.1512243"><ele>478.66666666666663</ele><time>2026-04-22T16:17:25.547Z</time></trkpt><trkpt lat="45.580234" lon="11.1512489"><ele>478.33333333333337</ele><time>2026-04-22T16:17:26.556Z</time></trkpt><trkpt lat="45.5800584" lon="11.1512724"><ele>478.0</ele><time>2026-04-22T16:17:27.56Z</time></trkpt><trkpt lat="45.5798804" lon="11.1512962"><ele>478.0</ele><time>2026-04-22T16:17:28.562Z</time></trkpt><trkpt lat="45.5797035" lon="11.1513139"><ele>478.0</ele><time>2026-04-22T16:17:29.548Z</time></trkpt><trkpt lat="45.5795301" lon="11.1513108"><ele>478.0</ele><time>2026-04-22T16:17:30.556Z</time></trkpt><trkpt lat="45.5793548" lon="11.1512804"><ele>476.6666666666667</ele><time>2026-04-22T16:17:31.548Z</time></trkpt><trkpt lat="45.5791785" lon="11.1512343"><ele>475.33333333333337</ele><time>2026-04-22T16:17:32.552Z</time></trkpt><trkpt lat="45.5790027" lon="11.1511811"><ele>474.0</ele><time>2026-04-22T16:17:33.553Z</time></trkpt><trkpt lat="45.5788242" lon="11.15113"><ele>473.66666666666663</ele><time>2026-04-22T16:17:34.552Z</time></trkpt><trkpt lat="45.578646" lon="11.1510872"><ele>473.3333333333333</ele><time>2026-04-22T16:17:35.548Z</time></trkpt><trkpt lat="45.578464" lon="11.151056"><ele>473.0</ele><time>2026-04-22T16:17:36.555Z</time></trkpt><trkpt lat="45.5782816" lon="11.1510416"><ele>473.0</ele><time>2026-04-22T16:17:37.554Z</time></trkpt><trkpt lat="45.5780976" lon="11.1510553"><ele>473.0</ele><time>2026-04-22T16:17:38.55Z</time></trkpt><trkpt lat="45.5779149" lon="11.1510753"><ele>473.0</ele><time>2026-04-22T16:17:39.549Z</time></trkpt><trkpt lat="45.577736" lon="11.1510984"><ele>473.0</ele><time>2026-04-22T16:17:40.552Z</time></trkpt><trkpt lat="45.5775569" lon="11.1511209"><ele>473.0</ele><time>2026-04-22T16:17:41.547Z</time></trkpt><trkpt lat="45.5773807" lon="11.1511402"><ele>473.0</ele><time>2026-04-22T16:17:42.552Z</time></trkpt><trkpt lat="45.5772031" lon="11.1511605"><ele>473.0</ele><time>2026-04-22T16:17:43.55Z</time></trkpt><trkpt lat="45.5770234" lon="11.1511819"><ele>473.0</ele><time>2026-04-22T16:17:44.553Z</time></trkpt><trkpt lat="45.5768452" lon="11.1511995"><ele>473.0</ele><time>2026-04-22T16:17:45.557Z</time></trkpt><trkpt lat="45.5766654" lon="11.1512185"><ele>472.66666666666663</ele><time>2026-04-22T16:17:46.556Z</time></trkpt><trkpt lat="45.5764874" lon="11.1512425"><ele>472.33333333333337</ele><time>2026-04-22T16:17:47.553Z</time></trkpt><trkpt lat="45.5763122" lon="11.1512649"><ele>472.0</ele><time>2026-04-22T16:17:48.549Z</time></trkpt><trkpt lat="45.5761358" lon="11.1512833"><ele>470.6666666666667</ele><time>2026-04-22T16:17:49.546Z</time></trkpt><trkpt lat="45.5759597" lon="11.1513015"><ele>469.33333333333337</ele><time>2026-04-22T16:17:50.549Z</time></trkpt><trkpt lat="45.5757844" lon="11.1513268"><ele>468.0</ele><time>2026-04-22T16:17:51.557Z</time></trkpt><trkpt lat="45.5756103" lon="11.1513747"><ele>468.0</ele><time>2026-04-22T16:17:52.554Z</time></trkpt><trkpt lat="45.5754373" lon="11.1514421"><ele>468.0</ele><time>2026-04-22T16:17:53.553Z</time></trkpt><trkpt lat="45.5752687" lon="11.1515199"><ele>468.0</ele><time>2026-04-22T16:17:54.555Z</time></trkpt><trkpt lat="45.5750989" lon="11.1516028"><ele>468.33333333333337</ele><time>2026-04-22T16:17:55.567Z</time></trkpt><trkpt lat="45.5749338" lon="11.1516864"><ele>468.6666666666667</ele><time>2026-04-22T16:17:56.548Z</time></trkpt><trkpt lat="45.5747756" lon="11.1517625"><ele>469.0</ele><time>2026-04-22T16:17:57.544Z</time></trkpt><trkpt lat="45.5746231" lon="11.1518346"><ele>467.6666666666667</ele><time>2026-04-22T16:17:58.55Z</time></trkpt><trkpt lat="45.5744736" lon="11.1519087"><ele>466.33333333333337</ele><time>2026-04-22T16:17:59.544Z</time></trkpt><trkpt lat="45.5743256" lon="11.1519722"><ele>465.0</ele><time>2026-04-22T16:18:00.55Z</time></trkpt><trkpt lat="45.5741752" lon="11.1520295"><ele>465.0</ele><time>2026-04-22T16:18:01.548Z</time></trkpt><trkpt lat="45.5740201" lon="11.1520812"><ele>465.0</ele><time>2026-04-22T16:18:02.551Z</time></trkpt><trkpt lat="45.5738665" lon="11.1521256"><ele>465.0</ele><time>2026-04-22T16:18:03.544Z</time></trkpt><trkpt lat="45.5737099" lon="11.1521633"><ele>463.66666666666663</ele><time>2026-04-22T16:18:04.554Z</time></trkpt><trkpt lat="45.5735565" lon="11.1521951"><ele>462.3333333333333</ele><time>2026-04-22T16:18:05.557Z</time></trkpt><trkpt lat="45.5733957" lon="11.1521969"><ele>461.0</ele><time>2026-04-22T16:18:06.55Z</time></trkpt><trkpt lat="45.5732338" lon="11.1521861"><ele>461.0</ele><time>2026-04-22T16:18:07.549Z</time></trkpt><trkpt lat="45.5730652" lon="11.1521818"><ele>461.0</ele><time>2026-04-22T16:18:08.546Z</time></trkpt><trkpt lat="45.5728954" lon="11.1522079"><ele>461.0</ele><time>2026-04-22T16:18:09.556Z</time></trkpt><trkpt lat="45.5727249" lon="11.1522572"><ele>460.0</ele><time>2026-04-22T16:18:10.547Z</time></trkpt><trkpt lat="45.5725528" lon="11.1523182"><ele>459.0</ele><time>2026-04-22T16:18:11.559Z</time></trkpt><trkpt lat="45.5723821" lon="11.1523722"><ele>458.0</ele><time>2026-04-22T16:18:12.549Z</time></trkpt><trkpt lat="45.5722104" lon="11.1524264"><ele>458.3333333333333</ele><time>2026-04-22T16:18:13.548Z</time></trkpt><trkpt lat="45.5720402" lon="11.1524834"><ele>458.66666666666663</ele><time>2026-04-22T16:18:14.545Z</time></trkpt><trkpt lat="45.5718747" lon="11.1525539"><ele>459.0</ele><time>2026-04-22T16:18:15.552Z</time></trkpt><trkpt lat="45.5717117" lon="11.1526326"><ele>459.0</ele><time>2026-04-22T16:18:16.556Z</time></trkpt><trkpt lat="45.5715509" lon="11.1527224"><ele>459.0</ele><time>2026-04-22T16:18:17.55Z</time></trkpt><trkpt lat="45.5713939" lon="11.1528135"><ele>459.0</ele><time>2026-04-22T16:18:18.553Z</time></trkpt><trkpt lat="45.5712407" lon="11.1529086"><ele>460.0</ele><time>2026-04-22T16:18:19.556Z</time></trkpt><trkpt lat="45.5710901" lon="11.1530098"><ele>461.0</ele><time>2026-04-22T16:18:20.547Z</time></trkpt><trkpt lat="45.5709416" lon="11.153111"><ele>462.0</ele><time>2026-04-22T16:18:21.546Z</time></trkpt><trkpt lat="45.5707917" lon="11.1532121"><ele>462.0</ele><time>2026-04-22T16:18:22.549Z</time></trkpt><trkpt lat="45.5706378" lon="11.1533059"><ele>462.0</ele><time>2026-04-22T16:18:23.551Z</time></trkpt><trkpt lat="45.5704826" lon="11.1533832"><ele>462.0</ele><time>2026-04-22T16:18:24.549Z</time></trkpt><trkpt lat="45.5703214" lon="11.1534368"><ele>459.33333333333337</ele><time>2026-04-22T16:18:25.553Z</time></trkpt><trkpt lat="45.5701554" lon="11.1534765"><ele>456.6666666666667</ele><time>2026-04-22T16:18:26.553Z</time></trkpt><trkpt lat="45.5699883" lon="11.1534998"><ele>454.0</ele><time>2026-04-22T16:18:27.553Z</time></trkpt><trkpt lat="45.5698187" lon="11.1535101"><ele>454.0</ele><time>2026-04-22T16:18:28.548Z</time></trkpt><trkpt lat="45.5696499" lon="11.1535132"><ele>454.0</ele><time>2026-04-22T16:18:29.56Z</time></trkpt><trkpt lat="45.5694852" lon="11.1535058"><ele>454.0</ele><time>2026-04-22T16:18:30.557Z</time></trkpt><trkpt lat="45.5693242" lon="11.1534883"><ele>453.0</ele><time>2026-04-22T16:18:31.557Z</time></trkpt><trkpt lat="45.5691754" lon="11.1534476"><ele>452.0</ele><time>2026-04-22T16:18:32.548Z</time></trkpt><trkpt lat="45.5690319" lon="11.1533725"><ele>451.0</ele><time>2026-04-22T16:18:33.561Z</time></trkpt><trkpt lat="45.5688925" lon="11.153264"><ele>450.6666666666667</ele><time>2026-04-22T16:18:34.545Z</time></trkpt><trkpt lat="45.5687452" lon="11.1531698"><ele>450.33333333333337</ele><time>2026-04-22T16:18:35.55Z</time></trkpt><trkpt lat="45.5685768" lon="11.1531187"><ele>450.0</ele><time>2026-04-22T16:18:36.545Z</time></trkpt><trkpt lat="45.5684152" lon="11.153101"><ele>450.0</ele><time>2026-04-22T16:18:37.552Z</time></trkpt><trkpt lat="45.5682619" lon="11.1531141"><ele>450.0</ele><time>2026-04-22T16:18:38.546Z</time></trkpt><trkpt lat="45.5681209" lon="11.1531428"><ele>450.0</ele><time>2026-04-22T16:18:39.551Z</time></trkpt><trkpt lat="45.5679923" lon="11.1531764"><ele>450.0</ele><time>2026-04-22T16:18:40.548Z</time></trkpt><trkpt lat="45.5678751" lon="11.1532149"><ele>449.6</ele><time>2026-04-22T16:18:41.555Z</time></trkpt><trkpt lat="45.5677655" lon="11.1532502"><ele>449.2</ele><time>2026-04-22T16:18:42.552Z</time></trkpt><trkpt lat="45.5676696" lon="11.1532827"><ele>448.79999999999995</ele><time>2026-04-22T16:18:43.546Z</time></trkpt><trkpt lat="45.567578" lon="11.1533095"><ele>448.4</ele><time>2026-04-22T16:18:44.552Z</time></trkpt><trkpt lat="45.5674843" lon="11.1533362"><ele>448.0</ele><time>2026-04-22T16:18:45.553Z</time></trkpt><trkpt lat="45.5673929" lon="11.1533601"><ele>448.0</ele><time>2026-04-22T16:18:46.551Z</time></trkpt><trkpt lat="45.567302" lon="11.15338"><ele>447.99999999999994</ele><time>2026-04-22T16:18:47.546Z</time></trkpt><trkpt lat="45.5671975" lon="11.1534106"><ele>447.99999999999994</ele><time>2026-04-22T16:18:48.548Z</time></trkpt><trkpt lat="45.5670801" lon="11.1534413"><ele>448.0</ele><time>2026-04-22T16:18:49.551Z</time></trkpt><trkpt lat="45.5669549" lon="11.1534547"><ele>448.0</ele><time>2026-04-22T16:18:50.551Z</time></trkpt><trkpt lat="45.5668396" lon="11.1534644"><ele>447.83333333333337</ele><time>2026-04-22T16:18:51.565Z</time></trkpt><trkpt lat="45.5667355" lon="11.1534763"><ele>447.6666666666667</ele><time>2026-04-22T16:18:52.548Z</time></trkpt><trkpt lat="45.5666415" lon="11.1534887"><ele>447.5</ele><time>2026-04-22T16:18:53.552Z</time></trkpt><trkpt lat="45.5665616" lon="11.1535004"><ele>447.33333333333337</ele><time>2026-04-22T16:18:54.549Z</time></trkpt><trkpt lat="45.5664946" lon="11.1535136"><ele>447.1666666666667</ele><time>2026-04-22T16:18:55.556Z</time></trkpt><trkpt lat="45.5664256" lon="11.153525"><ele>447.0</ele><time>2026-04-22T16:18:56.546Z</time></trkpt><trkpt lat="45.5663144" lon="11.1535464"><ele>447.0</ele><time>2026-04-22T16:18:58.552Z</time></trkpt><trkpt lat="45.5662273" lon="11.1535612"><ele>447.00000000000006</ele><time>2026-04-22T16:19:00.552Z</time></trkpt><trkpt lat="45.5661133" lon="11.1535741"><ele>447.00000000000006</ele><time>2026-04-22T16:19:02.551Z</time></trkpt><trkpt lat="45.5660162" lon="11.1535721"><ele>447.0</ele><time>2026-04-22T16:19:03.553Z</time></trkpt><trkpt lat="45.5658894" lon="11.1535885"><ele>447.0</ele><time>2026-04-22T16:19:04.555Z</time></trkpt><trkpt lat="45.5657421" lon="11.1536185"><ele>446.66666666666663</ele><time>2026-04-22T16:19:05.55Z</time></trkpt><trkpt lat="45.5655748" lon="11.1536469"><ele>446.3333333333333</ele><time>2026-04-22T16:19:06.553Z</time></trkpt><trkpt lat="45.5653999" lon="11.1536773"><ele>446.0</ele><time>2026-04-22T16:19:07.557Z</time></trkpt><trkpt lat="45.5652235" lon="11.1536987"><ele>445.0</ele><time>2026-04-22T16:19:08.545Z</time></trkpt><trkpt lat="45.5650464" lon="11.1537176"><ele>444.0</ele><time>2026-04-22T16:19:09.553Z</time></trkpt><trkpt lat="45.5648715" lon="11.1537413"><ele>443.0</ele><time>2026-04-22T16:19:10.551Z</time></trkpt><trkpt lat="45.5647008" lon="11.1537826"><ele>443.0</ele><time>2026-04-22T16:19:11.553Z</time></trkpt><trkpt lat="45.5645303" lon="11.1538309"><ele>443.0</ele><time>2026-04-22T16:19:12.547Z</time></trkpt><trkpt lat="45.5643553" lon="11.1538774"><ele>443.0</ele><time>2026-04-22T16:19:13.556Z</time></trkpt><trkpt lat="45.5641845" lon="11.1539265"><ele>443.0</ele><time>2026-04-22T16:19:14.553Z</time></trkpt><trkpt lat="45.564014" lon="11.1539774"><ele>443.0</ele><time>2026-04-22T16:19:15.555Z</time></trkpt><trkpt lat="45.5638504" lon="11.1540261"><ele>443.0</ele><time>2026-04-22T16:19:16.554Z</time></trkpt><trkpt lat="45.5637001" lon="11.1540807"><ele>442.3333333333333</ele><time>2026-04-22T16:19:17.559Z</time></trkpt><trkpt lat="45.5635497" lon="11.1541452"><ele>441.66666666666663</ele><time>2026-04-22T16:19:18.548Z</time></trkpt><trkpt lat="45.5633981" lon="11.154223"><ele>441.0</ele><time>2026-04-22T16:19:19.56Z</time></trkpt><trkpt lat="45.5632503" lon="11.1543139"><ele>441.0</ele><time>2026-04-22T16:19:20.55Z</time></trkpt><trkpt lat="45.5631115" lon="11.1544094"><ele>441.0</ele><time>2026-04-22T16:19:21.556Z</time></trkpt><trkpt lat="45.5629826" lon="11.1545023"><ele>441.0</ele><time>2026-04-22T16:19:22.55Z</time></trkpt><trkpt lat="45.5628683" lon="11.1545916"><ele>441.0</ele><time>2026-04-22T16:19:23.552Z</time></trkpt><trkpt lat="45.5627583" lon="11.1546696"><ele>440.5</ele><time>2026-04-22T16:19:24.554Z</time></trkpt><trkpt lat="45.562652" lon="11.1547307"><ele>440.0</ele><time>2026-04-22T16:19:25.546Z</time></trkpt><trkpt lat="45.5625466" lon="11.1547627"><ele>439.5</ele><time>2026-04-22T16:19:26.552Z</time></trkpt><trkpt lat="45.5624311" lon="11.1547669"><ele>439.0</ele><time>2026-04-22T16:19:27.551Z</time></trkpt><trkpt lat="45.562314" lon="11.154748"><ele>439.0</ele><time>2026-04-22T16:19:28.553Z</time></trkpt><trkpt lat="45.5621861" lon="11.1547542"><ele>439.0</ele><time>2026-04-22T16:19:29.551Z</time></trkpt><trkpt lat="45.5620477" lon="11.1547852"><ele>439.0</ele><time>2026-04-22T16:19:30.552Z</time></trkpt><trkpt lat="45.5618974" lon="11.1548115"><ele>439.0</ele><time>2026-04-22T16:19:31.552Z</time></trkpt><trkpt lat="45.5617383" lon="11.1548408"><ele>438.33333333333337</ele><time>2026-04-22T16:19:32.552Z</time></trkpt><trkpt lat="45.5615719" lon="11.1548759"><ele>437.66666666666663</ele><time>2026-04-22T16:19:33.56Z</time></trkpt><trkpt lat="45.5613996" lon="11.154914"><ele>437.0</ele><time>2026-04-22T16:19:34.548Z</time></trkpt><trkpt lat="45.5612266" lon="11.1549494"><ele>436.3333333333333</ele><time>2026-04-22T16:19:35.551Z</time></trkpt><trkpt lat="45.5610547" lon="11.1549837"><ele>435.66666666666663</ele><time>2026-04-22T16:19:36.553Z</time></trkpt><trkpt lat="45.5608821" lon="11.155022"><ele>435.0</ele><time>2026-04-22T16:19:37.548Z</time></trkpt><trkpt lat="45.5607113" lon="11.1550559"><ele>435.0</ele><time>2026-04-22T16:19:38.555Z</time></trkpt><trkpt lat="45.5605386" lon="11.1550838"><ele>435.0</ele><time>2026-04-22T16:19:39.556Z</time></trkpt><trkpt lat="45.5603591" lon="11.1551019"><ele>435.0</ele><time>2026-04-22T16:19:40.558Z</time></trkpt><trkpt lat="45.5601798" lon="11.1551164"><ele>434.66666666666663</ele><time>2026-04-22T16:19:41.557Z</time></trkpt><trkpt lat="45.56" lon="11.1551293"><ele>434.3333333333333</ele><time>2026-04-22T16:19:42.557Z</time></trkpt><trkpt lat="45.5598201" lon="11.1551315"><ele>434.0</ele><time>2026-04-22T16:19:43.549Z</time></trkpt><trkpt lat="45.5596413" lon="11.1551297"><ele>433.0</ele><time>2026-04-22T16:19:44.556Z</time></trkpt><trkpt lat="45.559464" lon="11.1551314"><ele>432.0</ele><time>2026-04-22T16:19:45.557Z</time></trkpt><trkpt lat="45.5592901" lon="11.1551357"><ele>431.0</ele><time>2026-04-22T16:19:46.552Z</time></trkpt><trkpt lat="45.559118" lon="11.1551394"><ele>431.0</ele><time>2026-04-22T16:19:47.554Z</time></trkpt><trkpt lat="45.5589468" lon="11.1551409"><ele>431.0</ele><time>2026-04-22T16:19:48.554Z</time></trkpt><trkpt lat="45.5587735" lon="11.1551424"><ele>431.0</ele><time>2026-04-22T16:19:49.55Z</time></trkpt><trkpt lat="45.5586013" lon="11.1551439"><ele>430.0</ele><time>2026-04-22T16:19:50.564Z</time></trkpt><trkpt lat="45.5584289" lon="11.1551442"><ele>429.0</ele><time>2026-04-22T16:19:51.553Z</time></trkpt><trkpt lat="45.5582575" lon="11.1551441"><ele>428.0</ele><time>2026-04-22T16:19:52.566Z</time></trkpt><trkpt lat="45.5580811" lon="11.1551434"><ele>428.0</ele><time>2026-04-22T16:19:53.549Z</time></trkpt><trkpt lat="45.5579044" lon="11.1551473"><ele>428.0</ele><time>2026-04-22T16:19:54.551Z</time></trkpt><trkpt lat="45.5577274" lon="11.1551492"><ele>428.0</ele><time>2026-04-22T16:19:55.561Z</time></trkpt><trkpt lat="45.5575483" lon="11.1551508"><ele>428.0</ele><time>2026-04-22T16:19:56.555Z</time></trkpt><trkpt lat="45.557368" lon="11.1551471"><ele>428.0</ele><time>2026-04-22T16:19:57.556Z</time></trkpt><trkpt lat="45.5571927" lon="11.1551472"><ele>428.0</ele><time>2026-04-22T16:19:58.559Z</time></trkpt><trkpt lat="45.5570206" lon="11.1551652"><ele>427.3333333333333</ele><time>2026-04-22T16:19:59.556Z</time></trkpt><trkpt lat="45.5568487" lon="11.1551944"><ele>426.66666666666663</ele><time>2026-04-22T16:20:00.558Z</time></trkpt><trkpt lat="45.5566786" lon="11.1552205"><ele>426.0</ele><time>2026-04-22T16:20:01.557Z</time></trkpt><trkpt lat="45.5565085" lon="11.1552427"><ele>426.0</ele><time>2026-04-22T16:20:02.565Z</time></trkpt><trkpt lat="45.5563336" lon="11.1552548"><ele>426.0</ele><time>2026-04-22T16:20:03.558Z</time></trkpt><trkpt lat="45.5561549" lon="11.155257"><ele>426.0</ele><time>2026-04-22T16:20:04.557Z</time></trkpt><trkpt lat="45.5559743" lon="11.155254"><ele>425.33333333333337</ele><time>2026-04-22T16:20:05.551Z</time></trkpt><trkpt lat="45.5557944" lon="11.1552498"><ele>424.6666666666667</ele><time>2026-04-22T16:20:06.55Z</time></trkpt><trkpt lat="45.5556163" lon="11.1552399"><ele>424.0</ele><time>2026-04-22T16:20:07.55Z</time></trkpt><trkpt lat="45.5554362" lon="11.1552347"><ele>423.6666666666667</ele><time>2026-04-22T16:20:08.559Z</time></trkpt><trkpt lat="45.5552561" lon="11.1552348"><ele>423.33333333333337</ele><time>2026-04-22T16:20:09.551Z</time></trkpt><trkpt lat="45.5550773" lon="11.1552396"><ele>423.0</ele><time>2026-04-22T16:20:10.562Z</time></trkpt><trkpt lat="45.5548975" lon="11.1552542"><ele>423.0</ele><time>2026-04-22T16:20:11.552Z</time></trkpt><trkpt lat="45.5547204" lon="11.1552777"><ele>423.0</ele><time>2026-04-22T16:20:12.561Z</time></trkpt><trkpt lat="45.5545427" lon="11.1553057"><ele>423.0</ele><time>2026-04-22T16:20:13.548Z</time></trkpt><trkpt lat="45.5543652" lon="11.1553349"><ele>421.66666666666663</ele><time>2026-04-22T16:20:14.552Z</time></trkpt><trkpt lat="45.554188" lon="11.1553632"><ele>420.3333333333333</ele><time>2026-04-22T16:20:15.558Z</time></trkpt><trkpt lat="45.5540126" lon="11.1553936"><ele>419.0</ele><time>2026-04-22T16:20:16.551Z</time></trkpt><trkpt lat="45.5538382" lon="11.1554251"><ele>418.0</ele><time>2026-04-22T16:20:17.556Z</time></trkpt><trkpt lat="45.5536651" lon="11.1554578"><ele>417.0</ele><time>2026-04-22T16:20:18.551Z</time></trkpt><trkpt lat="45.553492" lon="11.1554893"><ele>416.0</ele><time>2026-04-22T16:20:19.551Z</time></trkpt><trkpt lat="45.5533181" lon="11.1555163"><ele>416.0</ele><time>2026-04-22T16:20:20.55Z</time></trkpt><trkpt lat="45.5531454" lon="11.1555404"><ele>416.0</ele><time>2026-04-22T16:20:21.552Z</time></trkpt><trkpt lat="45.5529709" lon="11.1555611"><ele>416.0</ele><time>2026-04-22T16:20:22.558Z</time></trkpt><trkpt lat="45.552797" lon="11.1555731"><ele>415.66666666666663</ele><time>2026-04-22T16:20:23.552Z</time></trkpt><trkpt lat="45.5526269" lon="11.1555797"><ele>415.33333333333337</ele><time>2026-04-22T16:20:24.551Z</time></trkpt><trkpt lat="45.5524565" lon="11.155563"><ele>415.0</ele><time>2026-04-22T16:20:25.549Z</time></trkpt><trkpt lat="45.5522897" lon="11.155523"><ele>415.0</ele><time>2026-04-22T16:20:26.553Z</time></trkpt><trkpt lat="45.5521234" lon="11.1554681"><ele>415.0</ele><time>2026-04-22T16:20:27.545Z</time></trkpt><trkpt lat="45.5519581" lon="11.1554172"><ele>415.0</ele><time>2026-04-22T16:20:28.559Z</time></trkpt><trkpt lat="45.5517956" lon="11.155375"><ele>415.0</ele><time>2026-04-22T16:20:29.554Z</time></trkpt><trkpt lat="45.5516244" lon="11.1553488"><ele>415.0</ele><time>2026-04-22T16:20:30.555Z</time></trkpt><trkpt lat="45.5514501" lon="11.1553406"><ele>415.0</ele><time>2026-04-22T16:20:31.552Z</time></trkpt><trkpt lat="45.5512783" lon="11.1553486"><ele>414.6666666666667</ele><time>2026-04-22T16:20:32.557Z</time></trkpt><trkpt lat="45.5511021" lon="11.1553552"><ele>414.33333333333337</ele><time>2026-04-22T16:20:33.547Z</time></trkpt><trkpt lat="45.550925" lon="11.1553535"><ele>414.0</ele><time>2026-04-22T16:20:34.552Z</time></trkpt><trkpt lat="45.5507507" lon="11.1553421"><ele>414.0</ele><time>2026-04-22T16:20:35.561Z</time></trkpt><trkpt lat="45.5505832" lon="11.1553089"><ele>414.0</ele><time>2026-04-22T16:20:36.548Z</time></trkpt><trkpt lat="45.550422" lon="11.1552635"><ele>414.0</ele><time>2026-04-22T16:20:37.555Z</time></trkpt><trkpt lat="45.5502695" lon="11.1552163"><ele>413.33333333333337</ele><time>2026-04-22T16:20:38.559Z</time></trkpt><trkpt lat="45.5501221" lon="11.1551692"><ele>412.6666666666667</ele><time>2026-04-22T16:20:39.549Z</time></trkpt><trkpt lat="45.5499705" lon="11.1551215"><ele>412.0</ele><time>2026-04-22T16:20:40.551Z</time></trkpt><trkpt lat="45.5498195" lon="11.155072"><ele>412.0</ele><time>2026-04-22T16:20:41.556Z</time></trkpt><trkpt lat="45.5496633" lon="11.1550243"><ele>412.0</ele><time>2026-04-22T16:20:42.552Z</time></trkpt><trkpt lat="45.5495034" lon="11.1549759"><ele>412.0</ele><time>2026-04-22T16:20:43.555Z</time></trkpt><trkpt lat="45.5493398" lon="11.1549343"><ele>411.33333333333337</ele><time>2026-04-22T16:20:44.552Z</time></trkpt><trkpt lat="45.5491719" lon="11.1548966"><ele>410.66666666666663</ele><time>2026-04-22T16:20:45.554Z</time></trkpt><trkpt lat="45.5490131" lon="11.154863"><ele>410.0</ele><time>2026-04-22T16:20:46.557Z</time></trkpt><trkpt lat="45.5488552" lon="11.1548337"><ele>409.25</ele><time>2026-04-22T16:20:47.549Z</time></trkpt><trkpt lat="45.5487056" lon="11.1548067"><ele>408.5</ele><time>2026-04-22T16:20:48.558Z</time></trkpt><trkpt lat="45.5485634" lon="11.1547821"><ele>407.75</ele><time>2026-04-22T16:20:49.561Z</time></trkpt><trkpt lat="45.5484309" lon="11.1547568"><ele>407.0</ele><time>2026-04-22T16:20:50.548Z</time></trkpt><trkpt lat="45.5483064" lon="11.1547352"><ele>407.0</ele><time>2026-04-22T16:20:51.559Z</time></trkpt><trkpt lat="45.5481889" lon="11.1547111"><ele>407.0</ele><time>2026-04-22T16:20:52.553Z</time></trkpt><trkpt lat="45.5480772" lon="11.1546908"><ele>407.0</ele><time>2026-04-22T16:20:53.552Z</time></trkpt><trkpt lat="45.5479716" lon="11.1546821"><ele>407.0</ele><time>2026-04-22T16:20:54.553Z</time></trkpt><trkpt lat="45.5478678" lon="11.1546758"><ele>407.0</ele><time>2026-04-22T16:20:55.554Z</time></trkpt><trkpt lat="45.547767" lon="11.1546624"><ele>407.0</ele><time>2026-04-22T16:20:56.552Z</time></trkpt><trkpt lat="45.5476756" lon="11.1546587"><ele>407.0</ele><time>2026-04-22T16:20:57.558Z</time></trkpt><trkpt lat="45.5475845" lon="11.1546942"><ele>407.0</ele><time>2026-04-22T16:20:58.566Z</time></trkpt><trkpt lat="45.5474903" lon="11.1547512"><ele>407.0</ele><time>2026-04-22T16:20:59.563Z</time></trkpt><trkpt lat="45.5473892" lon="11.1547924"><ele>407.0</ele><time>2026-04-22T16:21:00.55Z</time></trkpt><trkpt lat="45.5472813" lon="11.1548452"><ele>407.5</ele><time>2026-04-22T16:21:01.551Z</time></trkpt><trkpt lat="45.5471657" lon="11.1549184"><ele>408.0</ele><time>2026-04-22T16:21:02.55Z</time></trkpt><trkpt lat="45.5470383" lon="11.1549838"><ele>408.5</ele><time>2026-04-22T16:21:03.55Z</time></trkpt><trkpt lat="45.5469034" lon="11.1550449"><ele>409.0</ele><time>2026-04-22T16:21:04.547Z</time></trkpt><trkpt lat="45.5467788" lon="11.1550912"><ele>409.0</ele><time>2026-04-22T16:21:05.549Z</time></trkpt><trkpt lat="45.5466643" lon="11.1551247"><ele>409.0</ele><time>2026-04-22T16:21:06.558Z</time></trkpt><trkpt lat="45.546554" lon="11.1551416"><ele>409.0</ele><time>2026-04-22T16:21:07.549Z</time></trkpt><trkpt lat="45.546455" lon="11.1551604"><ele>409.0</ele><time>2026-04-22T16:21:08.553Z</time></trkpt><trkpt lat="45.5463513" lon="11.1551735"><ele>409.0</ele><time>2026-04-22T16:21:09.56Z</time></trkpt><trkpt lat="45.5462482" lon="11.1551931"><ele>408.6666666666667</ele><time>2026-04-22T16:21:10.556Z</time></trkpt><trkpt lat="45.5461551" lon="11.1552135"><ele>408.33333333333337</ele><time>2026-04-22T16:21:11.552Z</time></trkpt><trkpt lat="45.5460647" lon="11.1552245"><ele>408.0</ele><time>2026-04-22T16:21:12.55Z</time></trkpt><trkpt lat="45.5459844" lon="11.155243"><ele>407.66666666666663</ele><time>2026-04-22T16:21:13.548Z</time></trkpt><trkpt lat="45.5459108" lon="11.1552546"><ele>407.3333333333333</ele><time>2026-04-22T16:21:14.554Z</time></trkpt><trkpt lat="45.5458479" lon="11.1552663"><ele>407.0</ele><time>2026-04-22T16:21:15.553Z</time></trkpt><trkpt lat="45.5457513" lon="11.1552867"><ele>406.99999999999994</ele><time>2026-04-22T16:21:17.554Z</time></trkpt><trkpt lat="45.5456833" lon="11.1552987"><ele>407.0</ele><time>2026-04-22T16:21:19.549Z</time></trkpt><trkpt lat="45.5456075" lon="11.1553119"><ele>407.0</ele><time>2026-04-22T16:21:22.555Z</time></trkpt><trkpt lat="45.5455281" lon="11.1553586"><ele>407.0</ele><time>2026-04-22T16:21:34.549Z</time></trkpt><trkpt lat="45.5454178" lon="11.1553935"><ele>406.99999999999994</ele><time>2026-04-22T16:21:36.557Z</time></trkpt><trkpt lat="45.5453134" lon="11.1554132"><ele>407.0</ele><time>2026-04-22T16:21:38.544Z</time></trkpt><trkpt lat="45.5452393" lon="11.1554462"><ele>406.25</ele><time>2026-04-22T16:21:39.548Z</time></trkpt><trkpt lat="45.5451447" lon="11.1554856"><ele>405.5</ele><time>2026-04-22T16:21:40.547Z</time></trkpt><trkpt lat="45.5450335" lon="11.1555111"><ele>404.75</ele><time>2026-04-22T16:21:41.547Z</time></trkpt><trkpt lat="45.5449111" lon="11.1555325"><ele>404.0</ele><time>2026-04-22T16:21:42.547Z</time></trkpt><trkpt lat="45.5447804" lon="11.1555495"><ele>404.0</ele><time>2026-04-22T16:21:43.552Z</time></trkpt><trkpt lat="45.5446398" lon="11.1555286"><ele>404.0</ele><time>2026-04-22T16:21:44.556Z</time></trkpt><trkpt lat="45.5444937" lon="11.155502"><ele>404.0</ele><time>2026-04-22T16:21:45.56Z</time></trkpt><trkpt lat="45.5443333" lon="11.1554779"><ele>403.0</ele><time>2026-04-22T16:21:46.556Z</time></trkpt><trkpt lat="45.5441634" lon="11.1554442"><ele>402.0</ele><time>2026-04-22T16:21:47.556Z</time></trkpt><trkpt lat="45.5439889" lon="11.155411"><ele>401.0</ele><time>2026-04-22T16:21:48.555Z</time></trkpt><trkpt lat="45.5438094" lon="11.1553803"><ele>399.66666666666663</ele><time>2026-04-22T16:21:49.558Z</time></trkpt><trkpt lat="45.5436305" lon="11.1553471"><ele>398.33333333333337</ele><time>2026-04-22T16:21:50.553Z</time></trkpt><trkpt lat="45.5434468" lon="11.1553158"><ele>397.0</ele><time>2026-04-22T16:21:51.554Z</time></trkpt><trkpt lat="45.5432653" lon="11.1552814"><ele>397.0</ele><time>2026-04-22T16:21:52.556Z</time></trkpt><trkpt lat="45.5430811" lon="11.1552449"><ele>397.0</ele><time>2026-04-22T16:21:53.553Z</time></trkpt><trkpt lat="45.5428938" lon="11.1552105"><ele>397.0</ele><time>2026-04-22T16:21:54.552Z</time></trkpt><trkpt lat="45.5427108" lon="11.1551805"><ele>396.33333333333337</ele><time>2026-04-22T16:21:55.554Z</time></trkpt><trkpt lat="45.5425268" lon="11.1551503"><ele>395.66666666666663</ele><time>2026-04-22T16:21:56.551Z</time></trkpt><trkpt lat="45.542343" lon="11.1551218"><ele>395.0</ele><time>2026-04-22T16:21:57.556Z</time></trkpt><trkpt lat="45.5421587" lon="11.1550933"><ele>394.66666666666663</ele><time>2026-04-22T16:21:58.55Z</time></trkpt><trkpt lat="45.5419761" lon="11.1550677"><ele>394.33333333333337</ele><time>2026-04-22T16:21:59.553Z</time></trkpt><trkpt lat="45.541794" lon="11.1550438"><ele>394.0</ele><time>2026-04-22T16:22:00.556Z</time></trkpt><trkpt lat="45.5416145" lon="11.1550257"><ele>394.0</ele><time>2026-04-22T16:22:01.551Z</time></trkpt><trkpt lat="45.5414349" lon="11.1550173"><ele>394.0</ele><time>2026-04-22T16:22:02.562Z</time></trkpt><trkpt lat="45.5412535" lon="11.1550163"><ele>394.0</ele><time>2026-04-22T16:22:03.56Z</time></trkpt><trkpt lat="45.5410752" lon="11.1550277"><ele>392.6666666666667</ele><time>2026-04-22T16:22:04.557Z</time></trkpt><trkpt lat="45.5408967" lon="11.1550515"><ele>391.33333333333337</ele><time>2026-04-22T16:22:05.551Z</time></trkpt><trkpt lat="45.5407201" lon="11.1550915"><ele>390.0</ele><time>2026-04-22T16:22:06.559Z</time></trkpt><trkpt lat="45.5405446" lon="11.1551473"><ele>389.0</ele><time>2026-04-22T16:22:07.55Z</time></trkpt><trkpt lat="45.540371" lon="11.155205"><ele>388.0</ele><time>2026-04-22T16:22:08.552Z</time></trkpt><trkpt lat="45.5401935" lon="11.1552588"><ele>387.0</ele><time>2026-04-22T16:22:09.551Z</time></trkpt><trkpt lat="45.5400155" lon="11.1553161"><ele>387.0</ele><time>2026-04-22T16:22:10.552Z</time></trkpt><trkpt lat="45.5398374" lon="11.1553762"><ele>387.0</ele><time>2026-04-22T16:22:11.55Z</time></trkpt><trkpt lat="45.5396619" lon="11.1554328"><ele>387.0</ele><time>2026-04-22T16:22:12.549Z</time></trkpt><trkpt lat="45.5394854" lon="11.1554868"><ele>386.0</ele><time>2026-04-22T16:22:13.551Z</time></trkpt><trkpt lat="45.5393119" lon="11.1555444"><ele>385.0</ele><time>2026-04-22T16:22:14.558Z</time></trkpt><trkpt lat="45.5391388" lon="11.1556034"><ele>384.0</ele><time>2026-04-22T16:22:15.546Z</time></trkpt><trkpt lat="45.5389648" lon="11.1556575"><ele>384.33333333333337</ele><time>2026-04-22T16:22:16.554Z</time></trkpt><trkpt lat="45.5387947" lon="11.1557125"><ele>384.6666666666667</ele><time>2026-04-22T16:22:17.557Z</time></trkpt><trkpt lat="45.5386235" lon="11.1557644"><ele>385.0</ele><time>2026-04-22T16:22:18.559Z</time></trkpt><trkpt lat="45.5384547" lon="11.1558153"><ele>384.33333333333337</ele><time>2026-04-22T16:22:19.548Z</time></trkpt><trkpt lat="45.5382851" lon="11.1558641"><ele>383.6666666666667</ele><time>2026-04-22T16:22:20.554Z</time></trkpt><trkpt lat="45.53812" lon="11.1559085"><ele>383.0</ele><time>2026-04-22T16:22:21.559Z</time></trkpt><trkpt lat="45.5379549" lon="11.1559579"><ele>382.6666666666667</ele><time>2026-04-22T16:22:22.558Z</time></trkpt><trkpt lat="45.5377886" lon="11.156018"><ele>382.3333333333333</ele><time>2026-04-22T16:22:23.557Z</time></trkpt><trkpt lat="45.5376262" lon="11.1560948"><ele>382.0</ele><time>2026-04-22T16:22:24.548Z</time></trkpt><trkpt lat="45.5374713" lon="11.1561941"><ele>382.0</ele><time>2026-04-22T16:22:25.559Z</time></trkpt><trkpt lat="45.5373208" lon="11.1563126"><ele>382.0</ele><time>2026-04-22T16:22:26.55Z</time></trkpt><trkpt lat="45.537173" lon="11.1564359"><ele>382.0</ele><time>2026-04-22T16:22:27.553Z</time></trkpt><trkpt lat="45.5370138" lon="11.1565475"><ele>381.0</ele><time>2026-04-22T16:22:28.563Z</time></trkpt><trkpt lat="45.5368551" lon="11.1566616"><ele>380.0</ele><time>2026-04-22T16:22:29.552Z</time></trkpt><trkpt lat="45.5366993" lon="11.1567836"><ele>379.0</ele><time>2026-04-22T16:22:30.553Z</time></trkpt><trkpt lat="45.536542" lon="11.1569052"><ele>379.0</ele><time>2026-04-22T16:22:31.554Z</time></trkpt><trkpt lat="45.5363867" lon="11.1570288"><ele>379.0</ele><time>2026-04-22T16:22:32.55Z</time></trkpt><trkpt lat="45.5362323" lon="11.1571518"><ele>379.0</ele><time>2026-04-22T16:22:33.549Z</time></trkpt><trkpt lat="45.5360779" lon="11.1572747"><ele>377.0</ele><time>2026-04-22T16:22:34.55Z</time></trkpt><trkpt lat="45.5359201" lon="11.1573999"><ele>375.0</ele><time>2026-04-22T16:22:35.55Z</time></trkpt><trkpt lat="45.5357617" lon="11.1575272"><ele>373.0</ele><time>2026-04-22T16:22:36.554Z</time></trkpt><trkpt lat="45.5356048" lon="11.1576521"><ele>373.0</ele><time>2026-04-22T16:22:37.554Z</time></trkpt><trkpt lat="45.5354489" lon="11.1577765"><ele>373.0</ele><time>2026-04-22T16:22:38.556Z</time></trkpt><trkpt lat="45.535292" lon="11.1579004"><ele>373.0</ele><time>2026-04-22T16:22:39.557Z</time></trkpt><trkpt lat="45.5351365" lon="11.1580246"><ele>372.0</ele><time>2026-04-22T16:22:40.558Z</time></trkpt><trkpt lat="45.5349825" lon="11.1581521"><ele>371.0</ele><time>2026-04-22T16:22:41.551Z</time></trkpt><trkpt lat="45.5348265" lon="11.1582758"><ele>370.0</ele><time>2026-04-22T16:22:42.557Z</time></trkpt><trkpt lat="45.5346734" lon="11.1583977"><ele>368.66666666666663</ele><time>2026-04-22T16:22:43.559Z</time></trkpt><trkpt lat="45.5345135" lon="11.1585101"><ele>367.3333333333333</ele><time>2026-04-22T16:22:44.553Z</time></trkpt><trkpt lat="45.5343466" lon="11.1586107"><ele>366.0</ele><time>2026-04-22T16:22:45.553Z</time></trkpt><trkpt lat="45.53418" lon="11.158704"><ele>366.0</ele><time>2026-04-22T16:22:46.549Z</time></trkpt><trkpt lat="45.5340093" lon="11.1587897"><ele>366.0</ele><time>2026-04-22T16:22:47.554Z</time></trkpt><trkpt lat="45.5338408" lon="11.15887"><ele>366.0</ele><time>2026-04-22T16:22:48.552Z</time></trkpt><trkpt lat="45.5336716" lon="11.1589504"><ele>366.6666666666667</ele><time>2026-04-22T16:22:49.554Z</time></trkpt><trkpt lat="45.5335001" lon="11.1590245"><ele>367.33333333333337</ele><time>2026-04-22T16:22:50.55Z</time></trkpt><trkpt lat="45.5333281" lon="11.1590951"><ele>368.0</ele><time>2026-04-22T16:22:51.556Z</time></trkpt><trkpt lat="45.5331537" lon="11.1591566"><ele>368.0</ele><time>2026-04-22T16:22:52.553Z</time></trkpt><trkpt lat="45.5329816" lon="11.1592194"><ele>368.0</ele><time>2026-04-22T16:22:53.558Z</time></trkpt><trkpt lat="45.5328108" lon="11.1592834"><ele>368.0</ele><time>2026-04-22T16:22:54.554Z</time></trkpt><trkpt lat="45.5326386" lon="11.1593472"><ele>365.6666666666667</ele><time>2026-04-22T16:22:55.564Z</time></trkpt><trkpt lat="45.5324663" lon="11.1594085"><ele>363.3333333333333</ele><time>2026-04-22T16:22:56.556Z</time></trkpt><trkpt lat="45.532294" lon="11.1594723"><ele>361.0</ele><time>2026-04-22T16:22:57.551Z</time></trkpt><trkpt lat="45.532119" lon="11.1595353"><ele>360.3333333333333</ele><time>2026-04-22T16:22:58.55Z</time></trkpt><trkpt lat="45.531946" lon="11.1595984"><ele>359.6666666666667</ele><time>2026-04-22T16:22:59.549Z</time></trkpt><trkpt lat="45.5317713" lon="11.1596606"><ele>359.0</ele><time>2026-04-22T16:23:00.553Z</time></trkpt><trkpt lat="45.5315944" lon="11.1597271"><ele>359.0</ele><time>2026-04-22T16:23:01.556Z</time></trkpt><trkpt lat="45.5314199" lon="11.1597912"><ele>359.0</ele><time>2026-04-22T16:23:02.545Z</time></trkpt><trkpt lat="45.531244" lon="11.1598558"><ele>359.0</ele><time>2026-04-22T16:23:03.546Z</time></trkpt><trkpt lat="45.531069" lon="11.1599175"><ele>358.6666666666667</ele><time>2026-04-22T16:23:04.548Z</time></trkpt><trkpt lat="45.5308943" lon="11.1599797"><ele>358.3333333333333</ele><time>2026-04-22T16:23:05.552Z</time></trkpt><trkpt lat="45.5307192" lon="11.1600444"><ele>358.0</ele><time>2026-04-22T16:23:06.549Z</time></trkpt><trkpt lat="45.5305446" lon="11.1601142"><ele>357.66666666666663</ele><time>2026-04-22T16:23:07.549Z</time></trkpt><trkpt lat="45.5303722" lon="11.1601799"><ele>357.3333333333333</ele><time>2026-04-22T16:23:08.556Z</time></trkpt><trkpt lat="45.5301998" lon="11.1602404"><ele>357.0</ele><time>2026-04-22T16:23:09.554Z</time></trkpt><trkpt lat="45.5300242" lon="11.1602992"><ele>357.0</ele><time>2026-04-22T16:23:10.554Z</time></trkpt><trkpt lat="45.5298437" lon="11.1603644"><ele>357.0</ele><time>2026-04-22T16:23:11.552Z</time></trkpt><trkpt lat="45.5296632" lon="11.1604298"><ele>357.0</ele><time>2026-04-22T16:23:12.546Z</time></trkpt><trkpt lat="45.5294807" lon="11.1604946"><ele>356.0</ele><time>2026-04-22T16:23:13.557Z</time></trkpt><trkpt lat="45.5293007" lon="11.1605581"><ele>355.0</ele><time>2026-04-22T16:23:14.547Z</time></trkpt><trkpt lat="45.5291188" lon="11.16062"><ele>354.0</ele><time>2026-04-22T16:23:15.56Z</time></trkpt><trkpt lat="45.5289405" lon="11.1606861"><ele>354.3333333333333</ele><time>2026-04-22T16:23:16.553Z</time></trkpt><trkpt lat="45.528766" lon="11.1607557"><ele>354.66666666666663</ele><time>2026-04-22T16:23:17.549Z</time></trkpt><trkpt lat="45.5285905" lon="11.1608212"><ele>355.0</ele><time>2026-04-22T16:23:18.551Z</time></trkpt><trkpt lat="45.5284119" lon="11.1608868"><ele>355.0</ele><time>2026-04-22T16:23:19.546Z</time></trkpt><trkpt lat="45.5282339" lon="11.1609498"><ele>355.0</ele><time>2026-04-22T16:23:20.556Z</time></trkpt><trkpt lat="45.5280538" lon="11.1610174"><ele>355.0</ele><time>2026-04-22T16:23:21.547Z</time></trkpt><trkpt lat="45.5278753" lon="11.1610847"><ele>354.0</ele><time>2026-04-22T16:23:22.559Z</time></trkpt><trkpt lat="45.5276961" lon="11.161153"><ele>353.0</ele><time>2026-04-22T16:23:23.546Z</time></trkpt><trkpt lat="45.5275166" lon="11.1612211"><ele>352.0</ele><time>2026-04-22T16:23:24.558Z</time></trkpt><trkpt lat="45.5273353" lon="11.1612879"><ele>352.0</ele><time>2026-04-22T16:23:25.562Z</time></trkpt><trkpt lat="45.5271593" lon="11.1613547"><ele>352.0</ele><time>2026-04-22T16:23:26.553Z</time></trkpt><trkpt lat="45.5269807" lon="11.1614201"><ele>352.0</ele><time>2026-04-22T16:23:27.557Z</time></trkpt><trkpt lat="45.5268008" lon="11.161485"><ele>350.66666666666663</ele><time>2026-04-22T16:23:28.553Z</time></trkpt><trkpt lat="45.5266216" lon="11.1615515"><ele>349.3333333333333</ele><time>2026-04-22T16:23:29.551Z</time></trkpt><trkpt lat="45.526442" lon="11.1616172"><ele>348.0</ele><time>2026-04-22T16:23:30.555Z</time></trkpt><trkpt lat="45.5262629" lon="11.1616785"><ele>347.0</ele><time>2026-04-22T16:23:31.549Z</time></trkpt><trkpt lat="45.5260893" lon="11.1617426"><ele>346.0</ele><time>2026-04-22T16:23:32.548Z</time></trkpt><trkpt lat="45.5259138" lon="11.1618071"><ele>345.0</ele><time>2026-04-22T16:23:33.552Z</time></trkpt><trkpt lat="45.5257406" lon="11.1618726"><ele>345.0</ele><time>2026-04-22T16:23:34.562Z</time></trkpt><trkpt lat="45.5255702" lon="11.1619357"><ele>345.0</ele><time>2026-04-22T16:23:35.55Z</time></trkpt><trkpt lat="45.5254009" lon="11.1619961"><ele>345.0</ele><time>2026-04-22T16:23:36.553Z</time></trkpt><trkpt lat="45.5252312" lon="11.162055"><ele>344.3333333333333</ele><time>2026-04-22T16:23:37.554Z</time></trkpt><trkpt lat="45.5250626" lon="11.1621191"><ele>343.66666666666663</ele><time>2026-04-22T16:23:38.553Z</time></trkpt><trkpt lat="45.5248921" lon="11.1621842"><ele>343.0</ele><time>2026-04-22T16:23:39.544Z</time></trkpt><trkpt lat="45.5247196" lon="11.1622511"><ele>342.3333333333333</ele><time>2026-04-22T16:23:40.546Z</time></trkpt><trkpt lat="45.5245481" lon="11.1623177"><ele>341.6666666666667</ele><time>2026-04-22T16:23:41.546Z</time></trkpt><trkpt lat="45.5243781" lon="11.1623836"><ele>341.0</ele><time>2026-04-22T16:23:42.554Z</time></trkpt><trkpt lat="45.5242083" lon="11.1624468"><ele>341.0</ele><time>2026-04-22T16:23:43.556Z</time></trkpt><trkpt lat="45.5240483" lon="11.1625032"><ele>341.0</ele><time>2026-04-22T16:23:44.549Z</time></trkpt><trkpt lat="45.5238989" lon="11.1625567"><ele>341.0</ele><time>2026-04-22T16:23:45.552Z</time></trkpt><trkpt lat="45.5237582" lon="11.1626094"><ele>340.0</ele><time>2026-04-22T16:23:46.548Z</time></trkpt><trkpt lat="45.5236217" lon="11.1626591"><ele>339.0</ele><time>2026-04-22T16:23:47.546Z</time></trkpt><trkpt lat="45.5234941" lon="11.1627093"><ele>338.0</ele><time>2026-04-22T16:23:48.556Z</time></trkpt><trkpt lat="45.5233704" lon="11.1627559"><ele>337.0</ele><time>2026-04-22T16:23:49.549Z</time></trkpt><trkpt lat="45.5232541" lon="11.1627983"><ele>337.0</ele><time>2026-04-22T16:23:50.544Z</time></trkpt><trkpt lat="45.5231406" lon="11.1628355"><ele>337.0</ele><time>2026-04-22T16:23:51.542Z</time></trkpt><trkpt lat="45.5230267" lon="11.1628667"><ele>337.0</ele><time>2026-04-22T16:23:52.55Z</time></trkpt><trkpt lat="45.522915" lon="11.1628891"><ele>337.0</ele><time>2026-04-22T16:23:53.549Z</time></trkpt><trkpt lat="45.5228086" lon="11.1628988"><ele>337.0</ele><time>2026-04-22T16:23:54.546Z</time></trkpt><trkpt lat="45.5227082" lon="11.1628912"><ele>337.0</ele><time>2026-04-22T16:23:55.546Z</time></trkpt><trkpt lat="45.5226124" lon="11.1628718"><ele>337.0</ele><time>2026-04-22T16:23:56.546Z</time></trkpt><trkpt lat="45.5225136" lon="11.1628438"><ele>337.0</ele><time>2026-04-22T16:23:57.546Z</time></trkpt><trkpt lat="45.5224228" lon="11.1628076"><ele>337.0</ele><time>2026-04-22T16:23:58.548Z</time></trkpt><trkpt lat="45.5223439" lon="11.1627653"><ele>337.0</ele><time>2026-04-22T16:23:59.544Z</time></trkpt><trkpt lat="45.5222728" lon="11.1627073"><ele>337.0</ele><time>2026-04-22T16:24:00.549Z</time></trkpt><trkpt lat="45.52221" lon="11.1626194"><ele>337.0</ele><time>2026-04-22T16:24:01.545Z</time></trkpt><trkpt lat="45.5221464" lon="11.1625026"><ele>337.0</ele><time>2026-04-22T16:24:02.552Z</time></trkpt><trkpt lat="45.5220781" lon="11.162371"><ele>337.0</ele><time>2026-04-22T16:24:03.547Z</time></trkpt><trkpt lat="45.5220204" lon="11.1622184"><ele>336.20000000000005</ele><time>2026-04-22T16:24:04.547Z</time></trkpt><trkpt lat="45.5219761" lon="11.1620691"><ele>335.4</ele><time>2026-04-22T16:24:05.544Z</time></trkpt><trkpt lat="45.5219426" lon="11.1619255"><ele>334.6</ele><time>2026-04-22T16:24:06.555Z</time></trkpt><trkpt lat="45.5219168" lon="11.1617881"><ele>333.79999999999995</ele><time>2026-04-22T16:24:07.547Z</time></trkpt><trkpt lat="45.521895" lon="11.1616659"><ele>333.0</ele><time>2026-04-22T16:24:08.55Z</time></trkpt><trkpt lat="45.5218792" lon="11.1615595"><ele>333.0</ele><time>2026-04-22T16:24:09.545Z</time></trkpt><trkpt lat="45.5218565" lon="11.1614138"><ele>333.0</ele><time>2026-04-22T16:24:11.546Z</time></trkpt><trkpt lat="45.5218521" lon="11.1612978"><ele>333.0</ele><time>2026-04-22T16:24:19.546Z</time></trkpt><trkpt lat="45.5218201" lon="11.161155"><ele>333.0</ele><time>2026-04-22T16:25:13.556Z</time></trkpt><trkpt lat="45.5217952" lon="11.1610534"><ele>333.0</ele><time>2026-04-22T16:25:14.547Z</time></trkpt><trkpt lat="45.5217714" lon="11.1609172"><ele>333.0</ele><time>2026-04-22T16:25:15.552Z</time></trkpt><trkpt lat="45.5217407" lon="11.1607526"><ele>333.0</ele><time>2026-04-22T16:25:16.554Z</time></trkpt><trkpt lat="45.5217049" lon="11.1605619"><ele>333.0</ele><time>2026-04-22T16:25:17.563Z</time></trkpt><trkpt lat="45.5216696" lon="11.1603508"><ele>333.0</ele><time>2026-04-22T16:25:18.549Z</time></trkpt><trkpt lat="45.5216298" lon="11.1601338"><ele>333.3333333333333</ele><time>2026-04-22T16:25:19.554Z</time></trkpt><trkpt lat="45.5215848" lon="11.1599115"><ele>333.66666666666663</ele><time>2026-04-22T16:25:20.552Z</time></trkpt><trkpt lat="45.521538" lon="11.1596982"><ele>334.0</ele><time>2026-04-22T16:25:21.551Z</time></trkpt><trkpt lat="45.5214795" lon="11.159502"><ele>333.5</ele><time>2026-04-22T16:25:22.557Z</time></trkpt><trkpt lat="45.5214048" lon="11.1593275"><ele>333.0</ele><time>2026-04-22T16:25:23.565Z</time></trkpt><trkpt lat="45.5213177" lon="11.1591721"><ele>332.5</ele><time>2026-04-22T16:25:24.545Z</time></trkpt><trkpt lat="45.5212084" lon="11.1590456"><ele>332.0</ele><time>2026-04-22T16:25:25.553Z</time></trkpt><trkpt lat="45.5210809" lon="11.158939"><ele>331.0</ele><time>2026-04-22T16:25:26.557Z</time></trkpt><trkpt lat="45.5209429" lon="11.1588403"><ele>330.0</ele><time>2026-04-22T16:25:27.551Z</time></trkpt><trkpt lat="45.5207844" lon="11.1588323"><ele>329.0</ele><time>2026-04-22T16:25:28.558Z</time></trkpt><trkpt lat="45.5206278" lon="11.1588454"><ele>329.0</ele><time>2026-04-22T16:25:29.547Z</time></trkpt><trkpt lat="45.5204648" lon="11.1588822"><ele>329.0</ele><time>2026-04-22T16:25:30.544Z</time></trkpt><trkpt lat="45.5202932" lon="11.1589227"><ele>329.0</ele><time>2026-04-22T16:25:31.563Z</time></trkpt><trkpt lat="45.520121" lon="11.1589675"><ele>328.6666666666667</ele><time>2026-04-22T16:25:32.553Z</time></trkpt><trkpt lat="45.5199469" lon="11.1590271"><ele>328.3333333333333</ele><time>2026-04-22T16:25:33.552Z</time></trkpt><trkpt lat="45.519775" lon="11.1590972"><ele>328.0</ele><time>2026-04-22T16:25:34.565Z</time></trkpt><trkpt lat="45.5196034" lon="11.1591781"><ele>327.0</ele><time>2026-04-22T16:25:35.547Z</time></trkpt><trkpt lat="45.5194331" lon="11.1592635"><ele>326.0</ele><time>2026-04-22T16:25:36.554Z</time></trkpt><trkpt lat="45.5192628" lon="11.1593505"><ele>325.0</ele><time>2026-04-22T16:25:37.552Z</time></trkpt><trkpt lat="45.519094" lon="11.1594363"><ele>325.0</ele><time>2026-04-22T16:25:38.547Z</time></trkpt><trkpt lat="45.5189257" lon="11.1595215"><ele>325.0</ele><time>2026-04-22T16:25:39.556Z</time></trkpt><trkpt lat="45.5187579" lon="11.1596059"><ele>325.0</ele><time>2026-04-22T16:25:40.548Z</time></trkpt><trkpt lat="45.5185891" lon="11.1596865"><ele>324.0</ele><time>2026-04-22T16:25:41.558Z</time></trkpt><trkpt lat="45.5184219" lon="11.159772"><ele>323.0</ele><time>2026-04-22T16:25:42.549Z</time></trkpt><trkpt lat="45.5182585" lon="11.1598569"><ele>322.0</ele><time>2026-04-22T16:25:43.555Z</time></trkpt><trkpt lat="45.5180947" lon="11.1599391"><ele>322.0</ele><time>2026-04-22T16:25:44.549Z</time></trkpt><trkpt lat="45.5179268" lon="11.1600231"><ele>322.0</ele><time>2026-04-22T16:25:45.555Z</time></trkpt><trkpt lat="45.5177553" lon="11.1601115"><ele>322.0</ele><time>2026-04-22T16:25:46.551Z</time></trkpt><trkpt lat="45.5175831" lon="11.1602019"><ele>321.0</ele><time>2026-04-22T16:25:47.548Z</time></trkpt><trkpt lat="45.5174077" lon="11.1602911"><ele>320.0</ele><time>2026-04-22T16:25:48.553Z</time></trkpt><trkpt lat="45.5172336" lon="11.1603743"><ele>319.0</ele><time>2026-04-22T16:25:49.557Z</time></trkpt><trkpt lat="45.5170614" lon="11.1604534"><ele>318.0</ele><time>2026-04-22T16:25:50.554Z</time></trkpt><trkpt lat="45.5168871" lon="11.160523"><ele>317.0</ele><time>2026-04-22T16:25:51.547Z</time></trkpt><trkpt lat="45.5167109" lon="11.160579"><ele>316.0</ele><time>2026-04-22T16:25:52.554Z</time></trkpt><trkpt lat="45.5165325" lon="11.1606255"><ele>316.0</ele><time>2026-04-22T16:25:53.551Z</time></trkpt><trkpt lat="45.5163532" lon="11.1606648"><ele>316.0</ele><time>2026-04-22T16:25:54.559Z</time></trkpt><trkpt lat="45.5161732" lon="11.1607022"><ele>316.0</ele><time>2026-04-22T16:25:55.547Z</time></trkpt><trkpt lat="45.515995" lon="11.1607361"><ele>315.3333333333333</ele><time>2026-04-22T16:25:56.552Z</time></trkpt><trkpt lat="45.515815" lon="11.16077"><ele>314.6666666666667</ele><time>2026-04-22T16:25:57.552Z</time></trkpt><trkpt lat="45.5156341" lon="11.1608023"><ele>314.0</ele><time>2026-04-22T16:25:58.553Z</time></trkpt><trkpt lat="45.5154519" lon="11.1608366"><ele>314.0</ele><time>2026-04-22T16:25:59.548Z</time></trkpt><trkpt lat="45.5152678" lon="11.1608731"><ele>314.0</ele><time>2026-04-22T16:26:00.543Z</time></trkpt><trkpt lat="45.5150857" lon="11.1609082"><ele>314.0</ele><time>2026-04-22T16:26:01.554Z</time></trkpt><trkpt lat="45.5149056" lon="11.1609367"><ele>314.0</ele><time>2026-04-22T16:26:02.552Z</time></trkpt><trkpt lat="45.5147244" lon="11.1609685"><ele>314.0</ele><time>2026-04-22T16:26:03.554Z</time></trkpt><trkpt lat="45.5145431" lon="11.1610042"><ele>314.0</ele><time>2026-04-22T16:26:04.553Z</time></trkpt><trkpt lat="45.5143619" lon="11.1610372"><ele>313.0</ele><time>2026-04-22T16:26:05.548Z</time></trkpt><trkpt lat="45.5141813" lon="11.1610745"><ele>312.0</ele><time>2026-04-22T16:26:06.55Z</time></trkpt><trkpt lat="45.5139995" lon="11.1611137"><ele>311.0</ele><time>2026-04-22T16:26:07.558Z</time></trkpt><trkpt lat="45.5138166" lon="11.1611546"><ele>309.6666666666667</ele><time>2026-04-22T16:26:08.553Z</time></trkpt><trkpt lat="45.5136347" lon="11.1612006"><ele>308.3333333333333</ele><time>2026-04-22T16:26:09.555Z</time></trkpt><trkpt lat="45.513455" lon="11.1612498"><ele>307.0</ele><time>2026-04-22T16:26:10.556Z</time></trkpt><trkpt lat="45.5132753" lon="11.161302"><ele>307.0</ele><time>2026-04-22T16:26:11.555Z</time></trkpt><trkpt lat="45.5130968" lon="11.1613605"><ele>307.0</ele><time>2026-04-22T16:26:12.56Z</time></trkpt><trkpt lat="45.5129167" lon="11.1614166"><ele>307.0</ele><time>2026-04-22T16:26:13.563Z</time></trkpt><trkpt lat="45.5127364" lon="11.1614773"><ele>307.0</ele><time>2026-04-22T16:26:14.556Z</time></trkpt><trkpt lat="45.5125548" lon="11.161538"><ele>307.0</ele><time>2026-04-22T16:26:15.555Z</time></trkpt><trkpt lat="45.5123741" lon="11.1615995"><ele>307.0</ele><time>2026-04-22T16:26:16.546Z</time></trkpt><trkpt lat="45.5121904" lon="11.1616582"><ele>306.0</ele><time>2026-04-22T16:26:17.547Z</time></trkpt><trkpt lat="45.5120116" lon="11.1617147"><ele>305.0</ele><time>2026-04-22T16:26:18.553Z</time></trkpt><trkpt lat="45.5118305" lon="11.161769"><ele>304.0</ele><time>2026-04-22T16:26:19.557Z</time></trkpt><trkpt lat="45.5116462" lon="11.1618236"><ele>304.0</ele><time>2026-04-22T16:26:20.562Z</time></trkpt><trkpt lat="45.5114618" lon="11.1618817"><ele>304.0</ele><time>2026-04-22T16:26:21.546Z</time></trkpt><trkpt lat="45.5112783" lon="11.1619411"><ele>304.0</ele><time>2026-04-22T16:26:22.554Z</time></trkpt><trkpt lat="45.5110927" lon="11.1620019"><ele>302.66666666666663</ele><time>2026-04-22T16:26:23.548Z</time></trkpt><trkpt lat="45.5109071" lon="11.1620628"><ele>301.3333333333333</ele><time>2026-04-22T16:26:24.553Z</time></trkpt><trkpt lat="45.5107184" lon="11.1621213"><ele>300.0</ele><time>2026-04-22T16:26:25.558Z</time></trkpt><trkpt lat="45.5105335" lon="11.1621786"><ele>299.3333333333333</ele><time>2026-04-22T16:26:26.557Z</time></trkpt><trkpt lat="45.5103486" lon="11.1622354"><ele>298.66666666666663</ele><time>2026-04-22T16:26:27.557Z</time></trkpt><trkpt lat="45.5101647" lon="11.1622872"><ele>298.0</ele><time>2026-04-22T16:26:28.55Z</time></trkpt><trkpt lat="45.5099792" lon="11.1623386"><ele>298.3333333333333</ele><time>2026-04-22T16:26:29.55Z</time></trkpt><trkpt lat="45.5097919" lon="11.1623905"><ele>298.6666666666667</ele><time>2026-04-22T16:26:30.553Z</time></trkpt><trkpt lat="45.5096056" lon="11.1624493"><ele>299.0</ele><time>2026-04-22T16:26:31.551Z</time></trkpt><trkpt lat="45.5094176" lon="11.1625087"><ele>298.33333333333337</ele><time>2026-04-22T16:26:32.559Z</time></trkpt><trkpt lat="45.5092301" lon="11.1625672"><ele>297.6666666666667</ele><time>2026-04-22T16:26:33.564Z</time></trkpt><trkpt lat="45.5090422" lon="11.1626273"><ele>297.0</ele><time>2026-04-22T16:26:34.554Z</time></trkpt><trkpt lat="45.5088532" lon="11.1626825"><ele>295.6666666666667</ele><time>2026-04-22T16:26:35.549Z</time></trkpt><trkpt lat="45.5086674" lon="11.1627388"><ele>294.33333333333337</ele><time>2026-04-22T16:26:36.559Z</time></trkpt><trkpt lat="45.5084802" lon="11.1627938"><ele>293.0</ele><time>2026-04-22T16:26:37.561Z</time></trkpt><trkpt lat="45.5082919" lon="11.1628478"><ele>293.0</ele><time>2026-04-22T16:26:38.552Z</time></trkpt><trkpt lat="45.5081067" lon="11.1629024"><ele>293.0</ele><time>2026-04-22T16:26:39.552Z</time></trkpt><trkpt lat="45.5079219" lon="11.1629618"><ele>293.0</ele><time>2026-04-22T16:26:40.553Z</time></trkpt><trkpt lat="45.5077361" lon="11.1630187"><ele>292.33333333333337</ele><time>2026-04-22T16:26:41.565Z</time></trkpt><trkpt lat="45.5075521" lon="11.1630742"><ele>291.6666666666667</ele><time>2026-04-22T16:26:42.556Z</time></trkpt><trkpt lat="45.5073687" lon="11.1631316"><ele>291.0</ele><time>2026-04-22T16:26:43.552Z</time></trkpt><trkpt lat="45.5071865" lon="11.1631886"><ele>290.6666666666667</ele><time>2026-04-22T16:26:44.553Z</time></trkpt><trkpt lat="45.5070046" lon="11.1632436"><ele>290.33333333333337</ele><time>2026-04-22T16:26:45.551Z</time></trkpt><trkpt lat="45.5068239" lon="11.1632953"><ele>290.0</ele><time>2026-04-22T16:26:46.553Z</time></trkpt><trkpt lat="45.5066422" lon="11.1633504"><ele>290.0</ele><time>2026-04-22T16:26:47.556Z</time></trkpt><trkpt lat="45.5064613" lon="11.1634036"><ele>290.0</ele><time>2026-04-22T16:26:48.557Z</time></trkpt><trkpt lat="45.50628" lon="11.1634595"><ele>290.0</ele><time>2026-04-22T16:26:49.546Z</time></trkpt><trkpt lat="45.5061032" lon="11.1635111"><ele>288.33333333333337</ele><time>2026-04-22T16:26:50.564Z</time></trkpt><trkpt lat="45.5059235" lon="11.1635621"><ele>286.6666666666667</ele><time>2026-04-22T16:26:51.549Z</time></trkpt><trkpt lat="45.5057473" lon="11.1636163"><ele>285.0</ele><time>2026-04-22T16:26:52.552Z</time></trkpt><trkpt lat="45.5055715" lon="11.1636856"><ele>285.0</ele><time>2026-04-22T16:26:53.545Z</time></trkpt><trkpt lat="45.5054075" lon="11.1637791"><ele>285.0</ele><time>2026-04-22T16:26:54.554Z</time></trkpt><trkpt lat="45.5052503" lon="11.1639005"><ele>285.0</ele><time>2026-04-22T16:26:55.553Z</time></trkpt><trkpt lat="45.5050992" lon="11.1640388"><ele>285.0</ele><time>2026-04-22T16:26:56.553Z</time></trkpt><trkpt lat="45.5049497" lon="11.1641792"><ele>285.0</ele><time>2026-04-22T16:26:57.547Z</time></trkpt><trkpt lat="45.5048081" lon="11.1643132"><ele>285.0</ele><time>2026-04-22T16:26:58.556Z</time></trkpt><trkpt lat="45.5046748" lon="11.1644472"><ele>284.0</ele><time>2026-04-22T16:26:59.553Z</time></trkpt><trkpt lat="45.5045464" lon="11.1645921"><ele>283.0</ele><time>2026-04-22T16:27:00.554Z</time></trkpt><trkpt lat="45.5044203" lon="11.1647561"><ele>282.0</ele><time>2026-04-22T16:27:01.564Z</time></trkpt><trkpt lat="45.5043054" lon="11.164936"><ele>282.0</ele><time>2026-04-22T16:27:02.551Z</time></trkpt><trkpt lat="45.5042005" lon="11.1651276"><ele>282.0</ele><time>2026-04-22T16:27:03.551Z</time></trkpt><trkpt lat="45.504099" lon="11.1653246"><ele>282.0</ele><time>2026-04-22T16:27:04.551Z</time></trkpt><trkpt lat="45.5039935" lon="11.165517"><ele>282.3333333333333</ele><time>2026-04-22T16:27:05.555Z</time></trkpt><trkpt lat="45.5038858" lon="11.1657143"><ele>282.66666666666663</ele><time>2026-04-22T16:27:06.555Z</time></trkpt><trkpt lat="45.5037752" lon="11.165919"><ele>283.0</ele><time>2026-04-22T16:27:07.56Z</time></trkpt><trkpt lat="45.5036679" lon="11.1661186"><ele>281.3333333333333</ele><time>2026-04-22T16:27:08.556Z</time></trkpt><trkpt lat="45.5035631" lon="11.1663087"><ele>279.6666666666667</ele><time>2026-04-22T16:27:09.552Z</time></trkpt><trkpt lat="45.5034591" lon="11.1664967"><ele>278.0</ele><time>2026-04-22T16:27:10.558Z</time></trkpt><trkpt lat="45.5033577" lon="11.1666844"><ele>278.0</ele><time>2026-04-22T16:27:11.552Z</time></trkpt><trkpt lat="45.5032575" lon="11.1668666"><ele>278.0</ele><time>2026-04-22T16:27:12.558Z</time></trkpt><trkpt lat="45.5031629" lon="11.1670442"><ele>278.0</ele><time>2026-04-22T16:27:13.559Z</time></trkpt><trkpt lat="45.5030706" lon="11.1672187"><ele>278.0</ele><time>2026-04-22T16:27:14.551Z</time></trkpt><trkpt lat="45.5029785" lon="11.1673864"><ele>278.0</ele><time>2026-04-22T16:27:15.547Z</time></trkpt><trkpt lat="45.5028882" lon="11.1675612"><ele>278.0</ele><time>2026-04-22T16:27:16.558Z</time></trkpt><trkpt lat="45.5027948" lon="11.1677363"><ele>277.33333333333337</ele><time>2026-04-22T16:27:17.552Z</time></trkpt><trkpt lat="45.5026994" lon="11.1679106"><ele>276.6666666666667</ele><time>2026-04-22T16:27:18.555Z</time></trkpt><trkpt lat="45.502602" lon="11.1680846"><ele>276.0</ele><time>2026-04-22T16:27:19.549Z</time></trkpt><trkpt lat="45.5025014" lon="11.1682631"><ele>275.6666666666667</ele><time>2026-04-22T16:27:20.558Z</time></trkpt><trkpt lat="45.5023976" lon="11.1684425"><ele>275.33333333333337</ele><time>2026-04-22T16:27:21.555Z</time></trkpt><trkpt lat="45.5022872" lon="11.1686169"><ele>275.0</ele><time>2026-04-22T16:27:22.556Z</time></trkpt><trkpt lat="45.502175" lon="11.1687761"><ele>274.0</ele><time>2026-04-22T16:27:23.556Z</time></trkpt><trkpt lat="45.5020599" lon="11.1689172"><ele>273.0</ele><time>2026-04-22T16:27:24.557Z</time></trkpt><trkpt lat="45.5019359" lon="11.1690488"><ele>272.0</ele><time>2026-04-22T16:27:25.555Z</time></trkpt><trkpt lat="45.501804" lon="11.1691741"><ele>272.0</ele><time>2026-04-22T16:27:26.544Z</time></trkpt><trkpt lat="45.5016703" lon="11.1692892"><ele>272.0</ele><time>2026-04-22T16:27:27.56Z</time></trkpt><trkpt lat="45.5015365" lon="11.1693999"><ele>272.0</ele><time>2026-04-22T16:27:28.541Z</time></trkpt><trkpt lat="45.5014068" lon="11.1695055"><ele>272.0</ele><time>2026-04-22T16:27:29.565Z</time></trkpt><trkpt lat="45.5012772" lon="11.169611"><ele>272.0</ele><time>2026-04-22T16:27:30.549Z</time></trkpt><trkpt lat="45.5011416" lon="11.1697178"><ele>272.0</ele><time>2026-04-22T16:27:31.546Z</time></trkpt><trkpt lat="45.5010061" lon="11.1698241"><ele>271.0</ele><time>2026-04-22T16:27:32.553Z</time></trkpt><trkpt lat="45.5008676" lon="11.1699325"><ele>270.0</ele><time>2026-04-22T16:27:33.554Z</time></trkpt><trkpt lat="45.500731" lon="11.1700402"><ele>269.0</ele><time>2026-04-22T16:27:34.554Z</time></trkpt><trkpt lat="45.5005929" lon="11.1701547"><ele>269.0</ele><time>2026-04-22T16:27:35.559Z</time></trkpt><trkpt lat="45.5004485" lon="11.1702773"><ele>269.0</ele><time>2026-04-22T16:27:36.553Z</time></trkpt><trkpt lat="45.5003052" lon="11.1703979"><ele>269.0</ele><time>2026-04-22T16:27:37.553Z</time></trkpt><trkpt lat="45.5001608" lon="11.1705172"><ele>268.33333333333337</ele><time>2026-04-22T16:27:38.55Z</time></trkpt><trkpt lat="45.5000171" lon="11.1706297"><ele>267.6666666666667</ele><time>2026-04-22T16:27:39.548Z</time></trkpt><trkpt lat="45.4998743" lon="11.1707441"><ele>267.0</ele><time>2026-04-22T16:27:40.567Z</time></trkpt><trkpt lat="45.499731" lon="11.1708534"><ele>266.6666666666667</ele><time>2026-04-22T16:27:41.551Z</time></trkpt><trkpt lat="45.4995897" lon="11.1709602"><ele>266.33333333333337</ele><time>2026-04-22T16:27:42.552Z</time></trkpt><trkpt lat="45.4994534" lon="11.1710688"><ele>266.0</ele><time>2026-04-22T16:27:43.552Z</time></trkpt><trkpt lat="45.4993192" lon="11.1711734"><ele>265.5</ele><time>2026-04-22T16:27:44.555Z</time></trkpt><trkpt lat="45.4991918" lon="11.1712732"><ele>265.0</ele><time>2026-04-22T16:27:45.546Z</time></trkpt><trkpt lat="45.4990664" lon="11.1713706"><ele>264.5</ele><time>2026-04-22T16:27:46.552Z</time></trkpt><trkpt lat="45.4989392" lon="11.1714723"><ele>264.0</ele><time>2026-04-22T16:27:47.556Z</time></trkpt><trkpt lat="45.4988121" lon="11.1715743"><ele>262.6666666666667</ele><time>2026-04-22T16:27:48.552Z</time></trkpt><trkpt lat="45.4986828" lon="11.1716758"><ele>261.33333333333337</ele><time>2026-04-22T16:27:49.552Z</time></trkpt><trkpt lat="45.4985526" lon="11.1717873"><ele>260.0</ele><time>2026-04-22T16:27:50.544Z</time></trkpt><trkpt lat="45.4984226" lon="11.1719014"><ele>260.0</ele><time>2026-04-22T16:27:51.567Z</time></trkpt><trkpt lat="45.4982865" lon="11.1720126"><ele>260.0</ele><time>2026-04-22T16:27:52.546Z</time></trkpt><trkpt lat="45.4981475" lon="11.1721233"><ele>260.0</ele><time>2026-04-22T16:27:53.557Z</time></trkpt><trkpt lat="45.4980043" lon="11.172235"><ele>259.33333333333337</ele><time>2026-04-22T16:27:54.555Z</time></trkpt><trkpt lat="45.4978591" lon="11.1723431"><ele>258.6666666666667</ele><time>2026-04-22T16:27:55.566Z</time></trkpt><trkpt lat="45.4977215" lon="11.1724527"><ele>258.0</ele><time>2026-04-22T16:27:56.55Z</time></trkpt><trkpt lat="45.49759" lon="11.1725571"><ele>258.0</ele><time>2026-04-22T16:27:57.556Z</time></trkpt><trkpt lat="45.497466" lon="11.1726555"><ele>258.0</ele><time>2026-04-22T16:27:58.553Z</time></trkpt><trkpt lat="45.4973317" lon="11.172757"><ele>258.0</ele><time>2026-04-22T16:27:59.551Z</time></trkpt><trkpt lat="45.4971981" lon="11.1728585"><ele>258.0</ele><time>2026-04-22T16:28:00.546Z</time></trkpt><trkpt lat="45.4970653" lon="11.1729634"><ele>257.0</ele><time>2026-04-22T16:28:01.581Z</time></trkpt><trkpt lat="45.4969309" lon="11.1730671"><ele>256.0</ele><time>2026-04-22T16:28:02.552Z</time></trkpt><trkpt lat="45.496798" lon="11.1731685"><ele>255.0</ele><time>2026-04-22T16:28:03.548Z</time></trkpt><trkpt lat="45.4966689" lon="11.1732692"><ele>255.0</ele><time>2026-04-22T16:28:04.546Z</time></trkpt><trkpt lat="45.4965446" lon="11.173373"><ele>255.0</ele><time>2026-04-22T16:28:05.555Z</time></trkpt><trkpt lat="45.4964181" lon="11.1734757"><ele>255.0</ele><time>2026-04-22T16:28:06.553Z</time></trkpt><trkpt lat="45.4962935" lon="11.1735787"><ele>255.0</ele><time>2026-04-22T16:28:07.558Z</time></trkpt><trkpt lat="45.4961643" lon="11.1736814"><ele>254.5</ele><time>2026-04-22T16:28:08.553Z</time></trkpt><trkpt lat="45.496034" lon="11.1737869"><ele>254.0</ele><time>2026-04-22T16:28:09.548Z</time></trkpt><trkpt lat="45.4959076" lon="11.1738973"><ele>253.5</ele><time>2026-04-22T16:28:10.562Z</time></trkpt><trkpt lat="45.49578" lon="11.174002"><ele>253.0</ele><time>2026-04-22T16:28:11.564Z</time></trkpt><trkpt lat="45.4956517" lon="11.1741021"><ele>252.75</ele><time>2026-04-22T16:28:12.558Z</time></trkpt><trkpt lat="45.4955205" lon="11.174203"><ele>252.5</ele><time>2026-04-22T16:28:13.553Z</time></trkpt><trkpt lat="45.4953881" lon="11.1743042"><ele>252.25</ele><time>2026-04-22T16:28:14.559Z</time></trkpt><trkpt lat="45.4952555" lon="11.1744026"><ele>252.0</ele><time>2026-04-22T16:28:15.561Z</time></trkpt><trkpt lat="45.4951214" lon="11.1744992"><ele>250.66666666666669</ele><time>2026-04-22T16:28:16.549Z</time></trkpt><trkpt lat="45.4949862" lon="11.1745928"><ele>249.33333333333334</ele><time>2026-04-22T16:28:17.562Z</time></trkpt><trkpt lat="45.4948482" lon="11.1746798"><ele>248.0</ele><time>2026-04-22T16:28:18.555Z</time></trkpt><trkpt lat="45.4947071" lon="11.1747541"><ele>248.0</ele><time>2026-04-22T16:28:19.569Z</time></trkpt><trkpt lat="45.494567" lon="11.1748247"><ele>248.0</ele><time>2026-04-22T16:28:20.556Z</time></trkpt><trkpt lat="45.4944076" lon="11.1749005"><ele>248.0</ele><time>2026-04-22T16:28:21.56Z</time></trkpt><trkpt lat="45.4942333" lon="11.1749676"><ele>247.0</ele><time>2026-04-22T16:28:22.552Z</time></trkpt><trkpt lat="45.4940591" lon="11.1750291"><ele>246.0</ele><time>2026-04-22T16:28:23.547Z</time></trkpt><trkpt lat="45.4938848" lon="11.175081"><ele>245.0</ele><time>2026-04-22T16:28:24.546Z</time></trkpt><trkpt lat="45.4936993" lon="11.1751357"><ele>244.66666666666669</ele><time>2026-04-22T16:28:25.557Z</time></trkpt><trkpt lat="45.4934983" lon="11.1751977"><ele>244.33333333333331</ele><time>2026-04-22T16:28:26.551Z</time></trkpt><trkpt lat="45.4933081" lon="11.1752449"><ele>244.0</ele><time>2026-04-22T16:28:27.546Z</time></trkpt><trkpt lat="45.4931293" lon="11.1752809"><ele>244.0</ele><time>2026-04-22T16:28:28.544Z</time></trkpt><trkpt lat="45.4929519" lon="11.1753229"><ele>244.0</ele><time>2026-04-22T16:28:29.546Z</time></trkpt><trkpt lat="45.4927815" lon="11.1753629"><ele>244.0</ele><time>2026-04-22T16:28:30.548Z</time></trkpt><trkpt lat="45.4926171" lon="11.1754015"><ele>243.66666666666666</ele><time>2026-04-22T16:28:31.541Z</time></trkpt><trkpt lat="45.4924465" lon="11.1754279"><ele>243.33333333333331</ele><time>2026-04-22T16:28:32.548Z</time></trkpt><trkpt lat="45.4922838" lon="11.17544"><ele>243.0</ele><time>2026-04-22T16:28:33.545Z</time></trkpt><trkpt lat="45.4921204" lon="11.1754363"><ele>242.0</ele><time>2026-04-22T16:28:34.551Z</time></trkpt><trkpt lat="45.4919523" lon="11.1754175"><ele>241.0</ele><time>2026-04-22T16:28:35.549Z</time></trkpt><trkpt lat="45.4917889" lon="11.1753765"><ele>240.0</ele><time>2026-04-22T16:28:36.546Z</time></trkpt><trkpt lat="45.4916279" lon="11.1753222"><ele>240.0</ele><time>2026-04-22T16:28:37.55Z</time></trkpt><trkpt lat="45.4914727" lon="11.175273"><ele>240.0</ele><time>2026-04-22T16:28:38.554Z</time></trkpt><trkpt lat="45.4913173" lon="11.1752254"><ele>240.0</ele><time>2026-04-22T16:28:39.556Z</time></trkpt><trkpt lat="45.4911674" lon="11.1751836"><ele>239.25</ele><time>2026-04-22T16:28:40.56Z</time></trkpt><trkpt lat="45.491022" lon="11.1751525"><ele>238.5</ele><time>2026-04-22T16:28:41.547Z</time></trkpt><trkpt lat="45.4908782" lon="11.1751379"><ele>237.75</ele><time>2026-04-22T16:28:42.555Z</time></trkpt><trkpt lat="45.4907317" lon="11.1751459"><ele>237.0</ele><time>2026-04-22T16:28:43.547Z</time></trkpt><trkpt lat="45.4905819" lon="11.1751744"><ele>237.0</ele><time>2026-04-22T16:28:44.558Z</time></trkpt><trkpt lat="45.4904296" lon="11.1752278"><ele>237.0</ele><time>2026-04-22T16:28:45.558Z</time></trkpt><trkpt lat="45.4902797" lon="11.1752879"><ele>237.0</ele><time>2026-04-22T16:28:46.555Z</time></trkpt><trkpt lat="45.4901294" lon="11.1753469"><ele>236.33333333333331</ele><time>2026-04-22T16:28:47.565Z</time></trkpt><trkpt lat="45.4899792" lon="11.1754093"><ele>235.66666666666666</ele><time>2026-04-22T16:28:48.55Z</time></trkpt><trkpt lat="45.4898299" lon="11.1754726"><ele>235.0</ele><time>2026-04-22T16:28:49.555Z</time></trkpt><trkpt lat="45.4896802" lon="11.1755358"><ele>234.5</ele><time>2026-04-22T16:28:50.552Z</time></trkpt><trkpt lat="45.4895358" lon="11.1755985"><ele>234.0</ele><time>2026-04-22T16:28:51.553Z</time></trkpt><trkpt lat="45.4893949" lon="11.1756587"><ele>233.5</ele><time>2026-04-22T16:28:52.55Z</time></trkpt><trkpt lat="45.4892536" lon="11.1757143"><ele>233.0</ele><time>2026-04-22T16:28:53.546Z</time></trkpt><trkpt lat="45.4891208" lon="11.1757716"><ele>233.0</ele><time>2026-04-22T16:28:54.548Z</time></trkpt><trkpt lat="45.4889782" lon="11.1758297"><ele>233.0</ele><time>2026-04-22T16:28:55.558Z</time></trkpt><trkpt lat="45.4888259" lon="11.1758934"><ele>233.0</ele><time>2026-04-22T16:28:56.551Z</time></trkpt><trkpt lat="45.4886713" lon="11.1759598"><ele>232.0</ele><time>2026-04-22T16:28:57.56Z</time></trkpt><trkpt lat="45.4885175" lon="11.1760311"><ele>231.0</ele><time>2026-04-22T16:28:58.552Z</time></trkpt><trkpt lat="45.4883643" lon="11.1760972"><ele>230.0</ele><time>2026-04-22T16:28:59.547Z</time></trkpt><trkpt lat="45.4882093" lon="11.1761646"><ele>230.0</ele><time>2026-04-22T16:29:00.554Z</time></trkpt><trkpt lat="45.4880551" lon="11.1762329"><ele>230.0</ele><time>2026-04-22T16:29:01.554Z</time></trkpt><trkpt lat="45.4879004" lon="11.1762993"><ele>230.0</ele><time>2026-04-22T16:29:02.545Z</time></trkpt><trkpt lat="45.4877469" lon="11.1763595"><ele>229.33333333333334</ele><time>2026-04-22T16:29:03.551Z</time></trkpt><trkpt lat="45.4875963" lon="11.1764187"><ele>228.66666666666669</ele><time>2026-04-22T16:29:04.55Z</time></trkpt><trkpt lat="45.4874456" lon="11.1764785"><ele>228.0</ele><time>2026-04-22T16:29:05.549Z</time></trkpt><trkpt lat="45.4872976" lon="11.1765412"><ele>227.66666666666669</ele><time>2026-04-22T16:29:06.547Z</time></trkpt><trkpt lat="45.4871506" lon="11.1766075"><ele>227.33333333333334</ele><time>2026-04-22T16:29:07.547Z</time></trkpt><trkpt lat="45.4870025" lon="11.1766676"><ele>227.0</ele><time>2026-04-22T16:29:08.555Z</time></trkpt><trkpt lat="45.4868538" lon="11.1767244"><ele>226.0</ele><time>2026-04-22T16:29:09.558Z</time></trkpt><trkpt lat="45.4867046" lon="11.1767754"><ele>225.0</ele><time>2026-04-22T16:29:10.558Z</time></trkpt><trkpt lat="45.4865538" lon="11.1768196"><ele>224.0</ele><time>2026-04-22T16:29:11.547Z</time></trkpt><trkpt lat="45.4864023" lon="11.1768536"><ele>223.0</ele><time>2026-04-22T16:29:12.552Z</time></trkpt><trkpt lat="45.4862493" lon="11.1768828"><ele>222.0</ele><time>2026-04-22T16:29:13.559Z</time></trkpt><trkpt lat="45.4860956" lon="11.1769131"><ele>221.0</ele><time>2026-04-22T16:29:14.566Z</time></trkpt><trkpt lat="45.4859413" lon="11.1769493"><ele>221.0</ele><time>2026-04-22T16:29:15.555Z</time></trkpt><trkpt lat="45.4857854" lon="11.1769815"><ele>221.0</ele><time>2026-04-22T16:29:16.555Z</time></trkpt><trkpt lat="45.4856324" lon="11.1770139"><ele>221.0</ele><time>2026-04-22T16:29:17.557Z</time></trkpt><trkpt lat="45.4854802" lon="11.1770469"><ele>220.66666666666669</ele><time>2026-04-22T16:29:18.558Z</time></trkpt><trkpt lat="45.4853299" lon="11.1770784"><ele>220.33333333333331</ele><time>2026-04-22T16:29:19.572Z</time></trkpt><trkpt lat="45.4851814" lon="11.1771081"><ele>220.0</ele><time>2026-04-22T16:29:20.555Z</time></trkpt><trkpt lat="45.4850296" lon="11.1771376"><ele>220.0</ele><time>2026-04-22T16:29:21.566Z</time></trkpt><trkpt lat="45.4848785" lon="11.1771735"><ele>220.0</ele><time>2026-04-22T16:29:22.566Z</time></trkpt><trkpt lat="45.4847314" lon="11.1772067"><ele>220.0</ele><time>2026-04-22T16:29:23.55Z</time></trkpt><trkpt lat="45.4845878" lon="11.1772398"><ele>220.0</ele><time>2026-04-22T16:29:24.563Z</time></trkpt><trkpt lat="45.4844448" lon="11.1772744"><ele>219.25</ele><time>2026-04-22T16:29:25.557Z</time></trkpt><trkpt lat="45.484304" lon="11.1773131"><ele>218.5</ele><time>2026-04-22T16:29:26.556Z</time></trkpt><trkpt lat="45.4841637" lon="11.1773544"><ele>217.75</ele><time>2026-04-22T16:29:27.55Z</time></trkpt><trkpt lat="45.484025" lon="11.1774006"><ele>217.0</ele><time>2026-04-22T16:29:28.553Z</time></trkpt><trkpt lat="45.4838918" lon="11.177444"><ele>216.5</ele><time>2026-04-22T16:29:29.562Z</time></trkpt><trkpt lat="45.4837587" lon="11.1774877"><ele>216.0</ele><time>2026-04-22T16:29:30.551Z</time></trkpt><trkpt lat="45.483624" lon="11.1775267"><ele>215.5</ele><time>2026-04-22T16:29:31.546Z</time></trkpt><trkpt lat="45.483487" lon="11.1775649"><ele>215.0</ele><time>2026-04-22T16:29:32.549Z</time></trkpt><trkpt lat="45.483353" lon="11.1775983"><ele>215.0</ele><time>2026-04-22T16:29:33.554Z</time></trkpt><trkpt lat="45.4832208" lon="11.1776192"><ele>215.0</ele><time>2026-04-22T16:29:34.556Z</time></trkpt><trkpt lat="45.4830928" lon="11.1776392"><ele>215.0</ele><time>2026-04-22T16:29:35.547Z</time></trkpt><trkpt lat="45.4829579" lon="11.1776678"><ele>215.0</ele><time>2026-04-22T16:29:36.548Z</time></trkpt><trkpt lat="45.482823" lon="11.1777005"><ele>214.25</ele><time>2026-04-22T16:29:37.548Z</time></trkpt><trkpt lat="45.4826877" lon="11.1777342"><ele>213.5</ele><time>2026-04-22T16:29:38.553Z</time></trkpt><trkpt lat="45.4825493" lon="11.1777574"><ele>212.75</ele><time>2026-04-22T16:29:39.556Z</time></trkpt><trkpt lat="45.482415" lon="11.177781"><ele>212.0</ele><time>2026-04-22T16:29:40.553Z</time></trkpt><trkpt lat="45.4822645" lon="11.1778134"><ele>211.33333333333334</ele><time>2026-04-22T16:29:41.559Z</time></trkpt><trkpt lat="45.482096" lon="11.1778482"><ele>210.66666666666669</ele><time>2026-04-22T16:29:42.55Z</time></trkpt><trkpt lat="45.481912" lon="11.1778594"><ele>210.0</ele><time>2026-04-22T16:29:43.551Z</time></trkpt><trkpt lat="45.4817264" lon="11.1778665"><ele>210.0</ele><time>2026-04-22T16:29:44.545Z</time></trkpt><trkpt lat="45.4815466" lon="11.1778813"><ele>210.0</ele><time>2026-04-22T16:29:45.546Z</time></trkpt><trkpt lat="45.4813675" lon="11.1778952"><ele>210.0</ele><time>2026-04-22T16:29:46.551Z</time></trkpt><trkpt lat="45.481194" lon="11.1779175"><ele>209.33333333333331</ele><time>2026-04-22T16:29:47.562Z</time></trkpt><trkpt lat="45.4810173" lon="11.1779485"><ele>208.66666666666666</ele><time>2026-04-22T16:29:48.565Z</time></trkpt><trkpt lat="45.4808414" lon="11.1779998"><ele>208.0</ele><time>2026-04-22T16:29:49.554Z</time></trkpt><trkpt lat="45.4806677" lon="11.1780729"><ele>208.0</ele><time>2026-04-22T16:29:50.547Z</time></trkpt><trkpt lat="45.4805012" lon="11.1781689"><ele>208.0</ele><time>2026-04-22T16:29:51.548Z</time></trkpt><trkpt lat="45.4803423" lon="11.1782952"><ele>208.0</ele><time>2026-04-22T16:29:52.547Z</time></trkpt><trkpt lat="45.4801895" lon="11.1784404"><ele>206.0</ele><time>2026-04-22T16:29:53.558Z</time></trkpt><trkpt lat="45.4800343" lon="11.1785834"><ele>204.0</ele><time>2026-04-22T16:29:54.552Z</time></trkpt><trkpt lat="45.4798798" lon="11.178725"><ele>202.0</ele><time>2026-04-22T16:29:55.555Z</time></trkpt><trkpt lat="45.4797276" lon="11.1788716"><ele>201.33333333333331</ele><time>2026-04-22T16:29:56.554Z</time></trkpt><trkpt lat="45.4795757" lon="11.1790118"><ele>200.66666666666669</ele><time>2026-04-22T16:29:57.556Z</time></trkpt><trkpt lat="45.4794247" lon="11.1791497"><ele>200.0</ele><time>2026-04-22T16:29:58.547Z</time></trkpt><trkpt lat="45.4792753" lon="11.1792862"><ele>200.0</ele><time>2026-04-22T16:29:59.553Z</time></trkpt><trkpt lat="45.4791253" lon="11.1794227"><ele>200.0</ele><time>2026-04-22T16:30:00.551Z</time></trkpt><trkpt lat="45.4789778" lon="11.1795584"><ele>200.0</ele><time>2026-04-22T16:30:01.549Z</time></trkpt><trkpt lat="45.4788275" lon="11.1796933"><ele>199.0</ele><time>2026-04-22T16:30:02.547Z</time></trkpt><trkpt lat="45.4786765" lon="11.1798259"><ele>198.0</ele><time>2026-04-22T16:30:03.552Z</time></trkpt><trkpt lat="45.4785247" lon="11.1799536"><ele>197.0</ele><time>2026-04-22T16:30:04.559Z</time></trkpt><trkpt lat="45.4783713" lon="11.1800821"><ele>197.0</ele><time>2026-04-22T16:30:05.552Z</time></trkpt><trkpt lat="45.4782148" lon="11.1802111"><ele>197.0</ele><time>2026-04-22T16:30:06.555Z</time></trkpt><trkpt lat="45.4780621" lon="11.1803398"><ele>197.0</ele><time>2026-04-22T16:30:07.554Z</time></trkpt><trkpt lat="45.4779092" lon="11.1804615"><ele>196.33333333333334</ele><time>2026-04-22T16:30:08.549Z</time></trkpt><trkpt lat="45.4777538" lon="11.1805757"><ele>195.66666666666669</ele><time>2026-04-22T16:30:09.549Z</time></trkpt><trkpt lat="45.4775905" lon="11.1806685"><ele>195.0</ele><time>2026-04-22T16:30:10.553Z</time></trkpt><trkpt lat="45.4774178" lon="11.1807352"><ele>195.0</ele><time>2026-04-22T16:30:11.552Z</time></trkpt><trkpt lat="45.4772416" lon="11.1807817"><ele>195.0</ele><time>2026-04-22T16:30:12.554Z</time></trkpt><trkpt lat="45.4770627" lon="11.1808151"><ele>195.0</ele><time>2026-04-22T16:30:13.553Z</time></trkpt><trkpt lat="45.4768817" lon="11.1808466"><ele>193.66666666666666</ele><time>2026-04-22T16:30:14.548Z</time></trkpt><trkpt lat="45.4767018" lon="11.1808818"><ele>192.33333333333331</ele><time>2026-04-22T16:30:15.547Z</time></trkpt><trkpt lat="45.4765236" lon="11.1809159"><ele>191.0</ele><time>2026-04-22T16:30:16.551Z</time></trkpt><trkpt lat="45.476345" lon="11.180943"><ele>190.33333333333331</ele><time>2026-04-22T16:30:17.546Z</time></trkpt><trkpt lat="45.4761653" lon="11.1809609"><ele>189.66666666666666</ele><time>2026-04-22T16:30:18.556Z</time></trkpt><trkpt lat="45.4759824" lon="11.1809706"><ele>189.0</ele><time>2026-04-22T16:30:19.546Z</time></trkpt><trkpt lat="45.475801" lon="11.1809676"><ele>189.0</ele><time>2026-04-22T16:30:20.543Z</time></trkpt><trkpt lat="45.4756193" lon="11.1809624"><ele>189.0</ele><time>2026-04-22T16:30:21.558Z</time></trkpt><trkpt lat="45.4754392" lon="11.1809612"><ele>189.0</ele><time>2026-04-22T16:30:22.558Z</time></trkpt><trkpt lat="45.4752561" lon="11.1809554"><ele>188.0</ele><time>2026-04-22T16:30:23.549Z</time></trkpt><trkpt lat="45.4750769" lon="11.1809474"><ele>187.0</ele><time>2026-04-22T16:30:24.567Z</time></trkpt><trkpt lat="45.4748988" lon="11.1809422"><ele>186.0</ele><time>2026-04-22T16:30:25.555Z</time></trkpt><trkpt lat="45.4747208" lon="11.1809356"><ele>185.66666666666666</ele><time>2026-04-22T16:30:26.561Z</time></trkpt><trkpt lat="45.4745473" lon="11.1809295"><ele>185.33333333333331</ele><time>2026-04-22T16:30:27.555Z</time></trkpt><trkpt lat="45.4743837" lon="11.1809225"><ele>185.0</ele><time>2026-04-22T16:30:28.559Z</time></trkpt><trkpt lat="45.4742203" lon="11.1809132"><ele>185.0</ele><time>2026-04-22T16:30:29.559Z</time></trkpt><trkpt lat="45.4740566" lon="11.1809068"><ele>185.0</ele><time>2026-04-22T16:30:30.556Z</time></trkpt><trkpt lat="45.4738916" lon="11.1809014"><ele>185.0</ele><time>2026-04-22T16:30:31.556Z</time></trkpt><trkpt lat="45.4737266" lon="11.1808968"><ele>184.33333333333331</ele><time>2026-04-22T16:30:32.556Z</time></trkpt><trkpt lat="45.4735601" lon="11.1808984"><ele>183.66666666666666</ele><time>2026-04-22T16:30:33.555Z</time></trkpt><trkpt lat="45.473398" lon="11.1809041"><ele>183.0</ele><time>2026-04-22T16:30:34.554Z</time></trkpt><trkpt lat="45.4732349" lon="11.1809173"><ele>183.0</ele><time>2026-04-22T16:30:35.558Z</time></trkpt><trkpt lat="45.4730743" lon="11.1809256"><ele>183.0</ele><time>2026-04-22T16:30:36.557Z</time></trkpt><trkpt lat="45.4729161" lon="11.180936"><ele>183.0</ele><time>2026-04-22T16:30:37.559Z</time></trkpt><trkpt lat="45.4727582" lon="11.180941"><ele>182.0</ele><time>2026-04-22T16:30:38.555Z</time></trkpt><trkpt lat="45.4725932" lon="11.18093"><ele>181.0</ele><time>2026-04-22T16:30:39.564Z</time></trkpt><trkpt lat="45.4724257" lon="11.1808969"><ele>180.0</ele><time>2026-04-22T16:30:40.555Z</time></trkpt><trkpt lat="45.4722573" lon="11.1808455"><ele>179.33333333333334</ele><time>2026-04-22T16:30:41.559Z</time></trkpt><trkpt lat="45.4720906" lon="11.1807949"><ele>178.66666666666669</ele><time>2026-04-22T16:30:42.554Z</time></trkpt><trkpt lat="45.471923" lon="11.1807425"><ele>178.0</ele><time>2026-04-22T16:30:43.553Z</time></trkpt><trkpt lat="45.4717515" lon="11.1806859"><ele>178.0</ele><time>2026-04-22T16:30:44.548Z</time></trkpt><trkpt lat="45.4715801" lon="11.1806315"><ele>178.0</ele><time>2026-04-22T16:30:45.559Z</time></trkpt><trkpt lat="45.471412" lon="11.1805784"><ele>178.0</ele><time>2026-04-22T16:30:46.554Z</time></trkpt><trkpt lat="45.4712412" lon="11.1805232"><ele>177.66666666666669</ele><time>2026-04-22T16:30:47.555Z</time></trkpt><trkpt lat="45.471072" lon="11.1804751"><ele>177.33333333333334</ele><time>2026-04-22T16:30:48.555Z</time></trkpt><trkpt lat="45.470903" lon="11.1804209"><ele>177.0</ele><time>2026-04-22T16:30:49.547Z</time></trkpt><trkpt lat="45.4707368" lon="11.1803688"><ele>177.0</ele><time>2026-04-22T16:30:50.544Z</time></trkpt><trkpt lat="45.4705745" lon="11.1803158"><ele>177.0</ele><time>2026-04-22T16:30:51.549Z</time></trkpt><trkpt lat="45.4704102" lon="11.1802638"><ele>177.0</ele><time>2026-04-22T16:30:52.556Z</time></trkpt><trkpt lat="45.4702472" lon="11.1802163"><ele>176.33333333333334</ele><time>2026-04-22T16:30:53.55Z</time></trkpt><trkpt lat="45.4700772" lon="11.1801691"><ele>175.66666666666669</ele><time>2026-04-22T16:30:54.553Z</time></trkpt><trkpt lat="45.4699116" lon="11.1801134"><ele>175.0</ele><time>2026-04-22T16:30:55.55Z</time></trkpt><trkpt lat="45.4697481" lon="11.180064"><ele>174.33333333333334</ele><time>2026-04-22T16:30:56.544Z</time></trkpt><trkpt lat="45.469583" lon="11.1800302"><ele>173.66666666666666</ele><time>2026-04-22T16:30:57.55Z</time></trkpt><trkpt lat="45.4694183" lon="11.1800021"><ele>173.0</ele><time>2026-04-22T16:30:58.547Z</time></trkpt><trkpt lat="45.4692481" lon="11.1799904"><ele>173.0</ele><time>2026-04-22T16:30:59.553Z</time></trkpt><trkpt lat="45.4690732" lon="11.1799978"><ele>173.0</ele><time>2026-04-22T16:31:00.554Z</time></trkpt><trkpt lat="45.4688978" lon="11.1800162"><ele>173.0</ele><time>2026-04-22T16:31:01.553Z</time></trkpt><trkpt lat="45.4687303" lon="11.1800396"><ele>172.0</ele><time>2026-04-22T16:31:02.551Z</time></trkpt><trkpt lat="45.4685693" lon="11.1800654"><ele>171.0</ele><time>2026-04-22T16:31:03.551Z</time></trkpt><trkpt lat="45.4684092" lon="11.1800939"><ele>170.0</ele><time>2026-04-22T16:31:04.55Z</time></trkpt><trkpt lat="45.4682525" lon="11.1801197"><ele>170.0</ele><time>2026-04-22T16:31:05.547Z</time></trkpt><trkpt lat="45.4681039" lon="11.1801449"><ele>170.0</ele><time>2026-04-22T16:31:06.55Z</time></trkpt><trkpt lat="45.467957" lon="11.1801603"><ele>170.0</ele><time>2026-04-22T16:31:07.55Z</time></trkpt><trkpt lat="45.4678072" lon="11.1801554"><ele>170.0</ele><time>2026-04-22T16:31:08.559Z</time></trkpt><trkpt lat="45.4676487" lon="11.1801267"><ele>169.0</ele><time>2026-04-22T16:31:09.554Z</time></trkpt><trkpt lat="45.4674941" lon="11.1800905"><ele>168.0</ele><time>2026-04-22T16:31:10.557Z</time></trkpt><trkpt lat="45.4673426" lon="11.1800485"><ele>167.0</ele><time>2026-04-22T16:31:11.558Z</time></trkpt><trkpt lat="45.4671908" lon="11.1799887"><ele>166.33333333333331</ele><time>2026-04-22T16:31:12.558Z</time></trkpt><trkpt lat="45.4670415" lon="11.1799248"><ele>165.66666666666666</ele><time>2026-04-22T16:31:13.558Z</time></trkpt><trkpt lat="45.4668899" lon="11.1798672"><ele>165.0</ele><time>2026-04-22T16:31:14.556Z</time></trkpt><trkpt lat="45.4667442" lon="11.1798075"><ele>164.66666666666666</ele><time>2026-04-22T16:31:15.554Z</time></trkpt><trkpt lat="45.4665871" lon="11.1797678"><ele>164.33333333333331</ele><time>2026-04-22T16:31:16.557Z</time></trkpt><trkpt lat="45.4664262" lon="11.1797264"><ele>164.0</ele><time>2026-04-22T16:31:17.567Z</time></trkpt><trkpt lat="45.4662602" lon="11.1796793"><ele>163.0</ele><time>2026-04-22T16:31:18.555Z</time></trkpt><trkpt lat="45.4660959" lon="11.1796183"><ele>162.0</ele><time>2026-04-22T16:31:19.558Z</time></trkpt><trkpt lat="45.4659281" lon="11.1795681"><ele>161.0</ele><time>2026-04-22T16:31:20.554Z</time></trkpt><trkpt lat="45.465763" lon="11.1795286"><ele>161.0</ele><time>2026-04-22T16:31:21.564Z</time></trkpt><trkpt lat="45.4656039" lon="11.1794834"><ele>161.0</ele><time>2026-04-22T16:31:22.553Z</time></trkpt><trkpt lat="45.4654429" lon="11.1794403"><ele>161.0</ele><time>2026-04-22T16:31:23.559Z</time></trkpt><trkpt lat="45.4652814" lon="11.1794013"><ele>160.0</ele><time>2026-04-22T16:31:24.551Z</time></trkpt><trkpt lat="45.4651133" lon="11.1793591"><ele>159.0</ele><time>2026-04-22T16:31:25.56Z</time></trkpt><trkpt lat="45.4649488" lon="11.1793019"><ele>158.0</ele><time>2026-04-22T16:31:26.547Z</time></trkpt><trkpt lat="45.4647904" lon="11.1792361"><ele>158.0</ele><time>2026-04-22T16:31:27.56Z</time></trkpt><trkpt lat="45.4646427" lon="11.1791779"><ele>158.0</ele><time>2026-04-22T16:31:28.56Z</time></trkpt><trkpt lat="45.4645132" lon="11.1791224"><ele>158.0</ele><time>2026-04-22T16:31:29.559Z</time></trkpt><trkpt lat="45.464398" lon="11.1790647"><ele>158.0</ele><time>2026-04-22T16:31:30.557Z</time></trkpt><trkpt lat="45.4642942" lon="11.1790104"><ele>157.4</ele><time>2026-04-22T16:31:31.549Z</time></trkpt><trkpt lat="45.4642018" lon="11.1789441"><ele>156.8</ele><time>2026-04-22T16:31:32.55Z</time></trkpt><trkpt lat="45.4641199" lon="11.1788686"><ele>156.2</ele><time>2026-04-22T16:31:33.557Z</time></trkpt><trkpt lat="45.4640397" lon="11.178802"><ele>155.6</ele><time>2026-04-22T16:31:34.55Z</time></trkpt><trkpt lat="45.4639637" lon="11.1787409"><ele>155.0</ele><time>2026-04-22T16:31:35.554Z</time></trkpt><trkpt lat="45.46389" lon="11.1786861"><ele>155.0</ele><time>2026-04-22T16:31:36.556Z</time></trkpt><trkpt lat="45.4638198" lon="11.178634"><ele>155.0</ele><time>2026-04-22T16:31:37.556Z</time></trkpt><trkpt lat="45.463752" lon="11.1785861"><ele>155.0</ele><time>2026-04-22T16:31:38.549Z</time></trkpt><trkpt lat="45.4636862" lon="11.1785412"><ele>155.0</ele><time>2026-04-22T16:31:39.554Z</time></trkpt><trkpt lat="45.4635871" lon="11.1784749"><ele>155.0</ele><time>2026-04-22T16:31:41.555Z</time></trkpt><trkpt lat="45.4635225" lon="11.1784359"><ele>155.0</ele><time>2026-04-22T16:31:44.559Z</time></trkpt><trkpt lat="45.4634512" lon="11.1783929"><ele>154.5</ele><time>2026-04-22T16:31:46.564Z</time></trkpt><trkpt lat="45.4633425" lon="11.178319"><ele>154.0</ele><time>2026-04-22T16:31:48.557Z</time></trkpt><trkpt lat="45.4632788" lon="11.1782775"><ele>153.5</ele><time>2026-04-22T16:31:49.552Z</time></trkpt><trkpt lat="45.4632088" lon="11.1782268"><ele>153.0</ele><time>2026-04-22T16:31:50.552Z</time></trkpt><trkpt lat="45.4631294" lon="11.1781756"><ele>152.5</ele><time>2026-04-22T16:31:51.552Z</time></trkpt><trkpt lat="45.4630465" lon="11.1781166"><ele>152.0</ele><time>2026-04-22T16:31:52.56Z</time></trkpt><trkpt lat="45.4629621" lon="11.1780567"><ele>151.4</ele><time>2026-04-22T16:31:53.552Z</time></trkpt><trkpt lat="45.4628765" lon="11.1779929"><ele>150.79999999999998</ele><time>2026-04-22T16:31:54.554Z</time></trkpt><trkpt lat="45.462786" lon="11.1779243"><ele>150.2</ele><time>2026-04-22T16:31:55.545Z</time></trkpt><trkpt lat="45.462689" lon="11.1778522"><ele>149.6</ele><time>2026-04-22T16:31:56.551Z</time></trkpt><trkpt lat="45.4625901" lon="11.1777798"><ele>149.0</ele><time>2026-04-22T16:31:57.553Z</time></trkpt><trkpt lat="45.462485" lon="11.1777043"><ele>149.0</ele><time>2026-04-22T16:31:58.558Z</time></trkpt><trkpt lat="45.4623807" lon="11.1776265"><ele>149.0</ele><time>2026-04-22T16:31:59.557Z</time></trkpt><trkpt lat="45.4622836" lon="11.1775481"><ele>149.0</ele><time>2026-04-22T16:32:00.552Z</time></trkpt><trkpt lat="45.4621874" lon="11.1774729"><ele>149.0</ele><time>2026-04-22T16:32:01.55Z</time></trkpt><trkpt lat="45.4620873" lon="11.1773965"><ele>148.25</ele><time>2026-04-22T16:32:02.556Z</time></trkpt><trkpt lat="45.4619807" lon="11.1773233"><ele>147.5</ele><time>2026-04-22T16:32:03.556Z</time></trkpt><trkpt lat="45.4618583" lon="11.1772536"><ele>146.75</ele><time>2026-04-22T16:32:04.559Z</time></trkpt><trkpt lat="45.4617284" lon="11.1771938"><ele>146.0</ele><time>2026-04-22T16:32:05.551Z</time></trkpt><trkpt lat="45.4615917" lon="11.1771506"><ele>146.0</ele><time>2026-04-22T16:32:06.553Z</time></trkpt><trkpt lat="45.4614445" lon="11.1771321"><ele>146.0</ele><time>2026-04-22T16:32:07.554Z</time></trkpt><trkpt lat="45.4612821" lon="11.1771244"><ele>146.0</ele><time>2026-04-22T16:32:08.552Z</time></trkpt><trkpt lat="45.4611165" lon="11.1771263"><ele>145.33333333333331</ele><time>2026-04-22T16:32:09.562Z</time></trkpt><trkpt lat="45.4609466" lon="11.1771248"><ele>144.66666666666666</ele><time>2026-04-22T16:32:10.555Z</time></trkpt><trkpt lat="45.4607776" lon="11.17713"><ele>144.0</ele><time>2026-04-22T16:32:11.558Z</time></trkpt><trkpt lat="45.4606099" lon="11.1771306"><ele>143.66666666666666</ele><time>2026-04-22T16:32:12.549Z</time></trkpt><trkpt lat="45.4604385" lon="11.1771285"><ele>143.33333333333331</ele><time>2026-04-22T16:32:13.553Z</time></trkpt><trkpt lat="45.4602682" lon="11.1771257"><ele>143.0</ele><time>2026-04-22T16:32:14.553Z</time></trkpt><trkpt lat="45.4600992" lon="11.1771268"><ele>143.0</ele><time>2026-04-22T16:32:15.557Z</time></trkpt><trkpt lat="45.4599314" lon="11.1771244"><ele>143.0</ele><time>2026-04-22T16:32:16.546Z</time></trkpt><trkpt lat="45.4597572" lon="11.1771227"><ele>143.0</ele><time>2026-04-22T16:32:17.55Z</time></trkpt><trkpt lat="45.4595868" lon="11.177127"><ele>141.66666666666666</ele><time>2026-04-22T16:32:18.548Z</time></trkpt><trkpt lat="45.4594135" lon="11.1771278"><ele>140.33333333333334</ele><time>2026-04-22T16:32:19.556Z</time></trkpt><trkpt lat="45.4592384" lon="11.1771314"><ele>139.0</ele><time>2026-04-22T16:32:20.554Z</time></trkpt><trkpt lat="45.4590597" lon="11.1771337"><ele>139.0</ele><time>2026-04-22T16:32:21.549Z</time></trkpt><trkpt lat="45.4588821" lon="11.1771375"><ele>139.0</ele><time>2026-04-22T16:32:22.558Z</time></trkpt><trkpt lat="45.4587053" lon="11.1771395"><ele>139.0</ele><time>2026-04-22T16:32:23.553Z</time></trkpt><trkpt lat="45.4585259" lon="11.1771437"><ele>137.66666666666669</ele><time>2026-04-22T16:32:24.551Z</time></trkpt><trkpt lat="45.4583506" lon="11.1771472"><ele>136.33333333333334</ele><time>2026-04-22T16:32:25.545Z</time></trkpt><trkpt lat="45.4581774" lon="11.1771454"><ele>135.0</ele><time>2026-04-22T16:32:26.548Z</time></trkpt><trkpt lat="45.4580062" lon="11.177146"><ele>135.0</ele><time>2026-04-22T16:32:27.552Z</time></trkpt><trkpt lat="45.4578323" lon="11.1771481"><ele>135.0</ele><time>2026-04-22T16:32:28.561Z</time></trkpt><trkpt lat="45.4576596" lon="11.1771506"><ele>135.0</ele><time>2026-04-22T16:32:29.56Z</time></trkpt><trkpt lat="45.457488" lon="11.1771533"><ele>135.0</ele><time>2026-04-22T16:32:30.555Z</time></trkpt><trkpt lat="45.4573148" lon="11.1771548"><ele>135.0</ele><time>2026-04-22T16:32:31.545Z</time></trkpt><trkpt lat="45.4571402" lon="11.1771568"><ele>135.0</ele><time>2026-04-22T16:32:32.55Z</time></trkpt><trkpt lat="45.4569648" lon="11.1771576"><ele>134.33333333333334</ele><time>2026-04-22T16:32:33.556Z</time></trkpt><trkpt lat="45.45679" lon="11.1771578"><ele>133.66666666666669</ele><time>2026-04-22T16:32:34.551Z</time></trkpt><trkpt lat="45.4566125" lon="11.1771477"><ele>133.0</ele><time>2026-04-22T16:32:35.558Z</time></trkpt><trkpt lat="45.4564379" lon="11.1771357"><ele>132.0</ele><time>2026-04-22T16:32:36.558Z</time></trkpt><trkpt lat="45.4562602" lon="11.1771137"><ele>131.0</ele><time>2026-04-22T16:32:37.547Z</time></trkpt><trkpt lat="45.4560826" lon="11.1770876"><ele>130.0</ele><time>2026-04-22T16:32:38.557Z</time></trkpt><trkpt lat="45.4559037" lon="11.177055"><ele>130.0</ele><time>2026-04-22T16:32:39.554Z</time></trkpt><trkpt lat="45.4557228" lon="11.1770256"><ele>130.0</ele><time>2026-04-22T16:32:40.553Z</time></trkpt><trkpt lat="45.4555413" lon="11.1769967"><ele>130.0</ele><time>2026-04-22T16:32:41.556Z</time></trkpt><trkpt lat="45.4553651" lon="11.1769639"><ele>129.0</ele><time>2026-04-22T16:32:42.553Z</time></trkpt><trkpt lat="45.4551885" lon="11.1769316"><ele>128.0</ele><time>2026-04-22T16:32:43.552Z</time></trkpt><trkpt lat="45.4550146" lon="11.1769021"><ele>127.0</ele><time>2026-04-22T16:32:44.551Z</time></trkpt><trkpt lat="45.4548424" lon="11.1768742"><ele>127.0</ele><time>2026-04-22T16:32:45.552Z</time></trkpt><trkpt lat="45.4546671" lon="11.1768514"><ele>127.0</ele><time>2026-04-22T16:32:46.553Z</time></trkpt><trkpt lat="45.4544908" lon="11.1768301"><ele>127.0</ele><time>2026-04-22T16:32:47.55Z</time></trkpt><trkpt lat="45.4543115" lon="11.176821"><ele>126.33333333333334</ele><time>2026-04-22T16:32:48.554Z</time></trkpt><trkpt lat="45.4541331" lon="11.1768213"><ele>125.66666666666666</ele><time>2026-04-22T16:32:49.556Z</time></trkpt><trkpt lat="45.4539601" lon="11.1768278"><ele>125.0</ele><time>2026-04-22T16:32:50.55Z</time></trkpt><trkpt lat="45.4537858" lon="11.1768427"><ele>124.33333333333333</ele><time>2026-04-22T16:32:51.552Z</time></trkpt><trkpt lat="45.4536121" lon="11.1768563"><ele>123.66666666666666</ele><time>2026-04-22T16:32:52.549Z</time></trkpt><trkpt lat="45.4534376" lon="11.1768679"><ele>123.0</ele><time>2026-04-22T16:32:53.565Z</time></trkpt><trkpt lat="45.4532657" lon="11.1768806"><ele>123.0</ele><time>2026-04-22T16:32:54.546Z</time></trkpt><trkpt lat="45.4530982" lon="11.1768883"><ele>123.0</ele><time>2026-04-22T16:32:55.549Z</time></trkpt><trkpt lat="45.452931" lon="11.1769009"><ele>123.0</ele><time>2026-04-22T16:32:56.553Z</time></trkpt><trkpt lat="45.4527615" lon="11.176922"><ele>122.33333333333334</ele><time>2026-04-22T16:32:57.556Z</time></trkpt><trkpt lat="45.4525926" lon="11.1769555"><ele>121.66666666666667</ele><time>2026-04-22T16:32:58.55Z</time></trkpt><trkpt lat="45.4524224" lon="11.1770018"><ele>121.0</ele><time>2026-04-22T16:32:59.559Z</time></trkpt><trkpt lat="45.4522503" lon="11.1770512"><ele>120.33333333333334</ele><time>2026-04-22T16:33:00.556Z</time></trkpt><trkpt lat="45.4520789" lon="11.1771"><ele>119.66666666666666</ele><time>2026-04-22T16:33:01.556Z</time></trkpt><trkpt lat="45.4519074" lon="11.1771478"><ele>119.0</ele><time>2026-04-22T16:33:02.552Z</time></trkpt><trkpt lat="45.4517381" lon="11.1771965"><ele>119.0</ele><time>2026-04-22T16:33:03.556Z</time></trkpt><trkpt lat="45.4515704" lon="11.1772433"><ele>119.0</ele><time>2026-04-22T16:33:04.555Z</time></trkpt><trkpt lat="45.4514013" lon="11.1772922"><ele>119.0</ele><time>2026-04-22T16:33:05.548Z</time></trkpt><trkpt lat="45.4512279" lon="11.1773437"><ele>118.33333333333333</ele><time>2026-04-22T16:33:06.553Z</time></trkpt><trkpt lat="45.4510556" lon="11.1773949"><ele>117.66666666666666</ele><time>2026-04-22T16:33:07.551Z</time></trkpt><trkpt lat="45.4508825" lon="11.1774531"><ele>117.0</ele><time>2026-04-22T16:33:08.557Z</time></trkpt><trkpt lat="45.4507109" lon="11.1775044"><ele>117.0</ele><time>2026-04-22T16:33:09.551Z</time></trkpt><trkpt lat="45.4505391" lon="11.1775529"><ele>117.0</ele><time>2026-04-22T16:33:10.557Z</time></trkpt><trkpt lat="45.4503645" lon="11.177607"><ele>117.0</ele><time>2026-04-22T16:33:11.565Z</time></trkpt><trkpt lat="45.4501894" lon="11.1776575"><ele>116.0</ele><time>2026-04-22T16:33:12.559Z</time></trkpt><trkpt lat="45.4500117" lon="11.1777043"><ele>115.0</ele><time>2026-04-22T16:33:13.554Z</time></trkpt><trkpt lat="45.4498339" lon="11.1777414"><ele>114.0</ele><time>2026-04-22T16:33:14.553Z</time></trkpt><trkpt lat="45.4496563" lon="11.1777646"><ele>113.33333333333334</ele><time>2026-04-22T16:33:15.558Z</time></trkpt><trkpt lat="45.4494787" lon="11.177792"><ele>112.66666666666667</ele><time>2026-04-22T16:33:16.553Z</time></trkpt><trkpt lat="45.4493018" lon="11.1778135"><ele>112.0</ele><time>2026-04-22T16:33:17.559Z</time></trkpt><trkpt lat="45.4491247" lon="11.1778338"><ele>112.0</ele><time>2026-04-22T16:33:18.548Z</time></trkpt><trkpt lat="45.4489462" lon="11.1778562"><ele>112.0</ele><time>2026-04-22T16:33:19.556Z</time></trkpt><trkpt lat="45.4487649" lon="11.1778797"><ele>112.0</ele><time>2026-04-22T16:33:20.561Z</time></trkpt><trkpt lat="45.4485893" lon="11.1779068"><ele>111.66666666666667</ele><time>2026-04-22T16:33:21.556Z</time></trkpt><trkpt lat="45.4484105" lon="11.1779307"><ele>111.33333333333334</ele><time>2026-04-22T16:33:22.558Z</time></trkpt><trkpt lat="45.4482343" lon="11.1779609"><ele>111.0</ele><time>2026-04-22T16:33:23.553Z</time></trkpt><trkpt lat="45.4480571" lon="11.1779885"><ele>110.33333333333334</ele><time>2026-04-22T16:33:24.566Z</time></trkpt><trkpt lat="45.4478792" lon="11.1780123"><ele>109.66666666666667</ele><time>2026-04-22T16:33:25.553Z</time></trkpt><trkpt lat="45.4477004" lon="11.1780347"><ele>109.0</ele><time>2026-04-22T16:33:26.557Z</time></trkpt><trkpt lat="45.4475242" lon="11.17806"><ele>109.0</ele><time>2026-04-22T16:33:27.555Z</time></trkpt><trkpt lat="45.4473458" lon="11.1780872"><ele>109.0</ele><time>2026-04-22T16:33:28.552Z</time></trkpt><trkpt lat="45.4471714" lon="11.1781155"><ele>109.0</ele><time>2026-04-22T16:33:29.551Z</time></trkpt><trkpt lat="45.4469992" lon="11.1781388"><ele>108.0</ele><time>2026-04-22T16:33:30.553Z</time></trkpt><trkpt lat="45.4468263" lon="11.1781551"><ele>107.0</ele><time>2026-04-22T16:33:31.554Z</time></trkpt><trkpt lat="45.4466596" lon="11.1781668"><ele>106.0</ele><time>2026-04-22T16:33:32.557Z</time></trkpt><trkpt lat="45.4464895" lon="11.178171"><ele>106.0</ele><time>2026-04-22T16:33:33.559Z</time></trkpt><trkpt lat="45.4463173" lon="11.1781618"><ele>106.0</ele><time>2026-04-22T16:33:34.569Z</time></trkpt><trkpt lat="45.4461521" lon="11.178152"><ele>106.0</ele><time>2026-04-22T16:33:35.551Z</time></trkpt><trkpt lat="45.4459922" lon="11.1781433"><ele>105.66666666666667</ele><time>2026-04-22T16:33:36.555Z</time></trkpt><trkpt lat="45.44584" lon="11.1781458"><ele>105.33333333333334</ele><time>2026-04-22T16:33:37.552Z</time></trkpt><trkpt lat="45.4456921" lon="11.1781598"><ele>105.0</ele><time>2026-04-22T16:33:38.552Z</time></trkpt><trkpt lat="45.4455376" lon="11.1781988"><ele>104.66666666666666</ele><time>2026-04-22T16:33:39.551Z</time></trkpt><trkpt lat="45.4453833" lon="11.1782598"><ele>104.33333333333333</ele><time>2026-04-22T16:33:40.555Z</time></trkpt><trkpt lat="45.4452249" lon="11.1783393"><ele>104.0</ele><time>2026-04-22T16:33:41.546Z</time></trkpt><trkpt lat="45.44507" lon="11.1784164"><ele>104.0</ele><time>2026-04-22T16:33:42.549Z</time></trkpt><trkpt lat="45.4449158" lon="11.1784875"><ele>104.0</ele><time>2026-04-22T16:33:43.545Z</time></trkpt><trkpt lat="45.4447722" lon="11.1785536"><ele>104.0</ele><time>2026-04-22T16:33:44.555Z</time></trkpt><trkpt lat="45.4446329" lon="11.178617"><ele>103.75</ele><time>2026-04-22T16:33:45.545Z</time></trkpt><trkpt lat="45.4444997" lon="11.1786755"><ele>103.5</ele><time>2026-04-22T16:33:46.546Z</time></trkpt><trkpt lat="45.4443613" lon="11.1787318"><ele>103.25</ele><time>2026-04-22T16:33:47.547Z</time></trkpt><trkpt lat="45.4442178" lon="11.1787738"><ele>103.0</ele><time>2026-04-22T16:33:48.549Z</time></trkpt><trkpt lat="45.4440711" lon="11.1787956"><ele>103.0</ele><time>2026-04-22T16:33:49.55Z</time></trkpt><trkpt lat="45.4439192" lon="11.1787931"><ele>103.0</ele><time>2026-04-22T16:33:50.546Z</time></trkpt><trkpt lat="45.4437626" lon="11.1787828"><ele>103.0</ele><time>2026-04-22T16:33:51.548Z</time></trkpt><trkpt lat="45.4436024" lon="11.1787703"><ele>102.0</ele><time>2026-04-22T16:33:52.549Z</time></trkpt><trkpt lat="45.4434481" lon="11.1787586"><ele>101.0</ele><time>2026-04-22T16:33:53.551Z</time></trkpt><trkpt lat="45.4433006" lon="11.1787527"><ele>100.0</ele><time>2026-04-22T16:33:54.545Z</time></trkpt><trkpt lat="45.4431557" lon="11.1787545"><ele>99.0</ele><time>2026-04-22T16:33:55.55Z</time></trkpt><trkpt lat="45.4430098" lon="11.1787636"><ele>98.25</ele><time>2026-04-22T16:33:56.553Z</time></trkpt><trkpt lat="45.4428646" lon="11.1787731"><ele>97.5</ele><time>2026-04-22T16:33:57.558Z</time></trkpt><trkpt lat="45.4427245" lon="11.1787858"><ele>96.75</ele><time>2026-04-22T16:33:58.55Z</time></trkpt><trkpt lat="45.4425907" lon="11.1787982"><ele>96.0</ele><time>2026-04-22T16:33:59.557Z</time></trkpt><trkpt lat="45.4424621" lon="11.1788094"><ele>96.0</ele><time>2026-04-22T16:34:00.549Z</time></trkpt><trkpt lat="45.4423364" lon="11.178819"><ele>96.0</ele><time>2026-04-22T16:34:01.553Z</time></trkpt><trkpt lat="45.4422196" lon="11.1788288"><ele>96.0</ele><time>2026-04-22T16:34:02.555Z</time></trkpt><trkpt lat="45.4421063" lon="11.1788366"><ele>96.0</ele><time>2026-04-22T16:34:03.555Z</time></trkpt><trkpt lat="45.4419993" lon="11.1788453"><ele>95.6</ele><time>2026-04-22T16:34:04.555Z</time></trkpt><trkpt lat="45.4418955" lon="11.1788543"><ele>95.19999999999999</ele><time>2026-04-22T16:34:05.553Z</time></trkpt><trkpt lat="45.4417987" lon="11.1788597"><ele>94.80000000000001</ele><time>2026-04-22T16:34:06.549Z</time></trkpt><trkpt lat="45.44171" lon="11.1788611"><ele>94.4</ele><time>2026-04-22T16:34:07.557Z</time></trkpt><trkpt lat="45.441625" lon="11.1788545"><ele>94.0</ele><time>2026-04-22T16:34:08.552Z</time></trkpt><trkpt lat="45.4415487" lon="11.1788445"><ele>94.0</ele><time>2026-04-22T16:34:09.552Z</time></trkpt><trkpt lat="45.4414831" lon="11.1788312"><ele>94.0</ele><time>2026-04-22T16:34:10.547Z</time></trkpt><trkpt lat="45.4413735" lon="11.1788082"><ele>94.0</ele><time>2026-04-22T16:34:12.548Z</time></trkpt><trkpt lat="45.441281" lon="11.1788032"><ele>94.0</ele><time>2026-04-22T16:34:14.551Z</time></trkpt><trkpt lat="45.4411792" lon="11.1787725"><ele>94.0</ele><time>2026-04-22T16:34:16.557Z</time></trkpt><trkpt lat="45.4410775" lon="11.1787371"><ele>93.80000000000001</ele><time>2026-04-22T16:34:18.552Z</time></trkpt><trkpt lat="45.4409543" lon="11.1786895"><ele>93.60000000000001</ele><time>2026-04-22T16:34:20.545Z</time></trkpt><trkpt lat="45.4408755" lon="11.1786572"><ele>93.4</ele><time>2026-04-22T16:34:21.554Z</time></trkpt><trkpt lat="45.4407724" lon="11.1786288"><ele>93.2</ele><time>2026-04-22T16:34:22.548Z</time></trkpt><trkpt lat="45.4406507" lon="11.1786015"><ele>93.0</ele><time>2026-04-22T16:34:23.554Z</time></trkpt><trkpt lat="45.4405123" lon="11.178569"><ele>92.75</ele><time>2026-04-22T16:34:24.55Z</time></trkpt><trkpt lat="45.4403746" lon="11.178533"><ele>92.5</ele><time>2026-04-22T16:34:25.545Z</time></trkpt><trkpt lat="45.4402438" lon="11.178495"><ele>92.25</ele><time>2026-04-22T16:34:26.554Z</time></trkpt><trkpt lat="45.4401061" lon="11.1784521"><ele>92.0</ele><time>2026-04-22T16:34:27.55Z</time></trkpt><trkpt lat="45.439969" lon="11.1784072"><ele>92.0</ele><time>2026-04-22T16:34:28.554Z</time></trkpt><trkpt lat="45.4398364" lon="11.1783672"><ele>92.0</ele><time>2026-04-22T16:34:29.546Z</time></trkpt><trkpt lat="45.4397111" lon="11.1783338"><ele>92.0</ele><time>2026-04-22T16:34:30.553Z</time></trkpt><trkpt lat="45.439589" lon="11.1783031"><ele>92.0</ele><time>2026-04-22T16:34:31.565Z</time></trkpt><trkpt lat="45.4394665" lon="11.1782762"><ele>91.0</ele><time>2026-04-22T16:34:32.554Z</time></trkpt><trkpt lat="45.4393466" lon="11.1782495"><ele>90.0</ele><time>2026-04-22T16:34:33.551Z</time></trkpt><trkpt lat="45.4392252" lon="11.1782258"><ele>89.0</ele><time>2026-04-22T16:34:34.548Z</time></trkpt><trkpt lat="45.4390996" lon="11.1782192"><ele>88.0</ele><time>2026-04-22T16:34:35.547Z</time></trkpt><trkpt lat="45.4389661" lon="11.1782124"><ele>88.0</ele><time>2026-04-22T16:34:36.556Z</time></trkpt><trkpt lat="45.4388318" lon="11.1782054"><ele>88.0</ele><time>2026-04-22T16:34:37.553Z</time></trkpt><trkpt lat="45.4387017" lon="11.1782018"><ele>88.0</ele><time>2026-04-22T16:34:38.55Z</time></trkpt><trkpt lat="45.438573" lon="11.1781994"><ele>88.0</ele><time>2026-04-22T16:34:39.546Z</time></trkpt><trkpt lat="45.4384471" lon="11.1782019"><ele>87.75</ele><time>2026-04-22T16:34:40.551Z</time></trkpt><trkpt lat="45.4383166" lon="11.1782009"><ele>87.5</ele><time>2026-04-22T16:34:41.559Z</time></trkpt><trkpt lat="45.4381828" lon="11.1781932"><ele>87.25</ele><time>2026-04-22T16:34:42.549Z</time></trkpt><trkpt lat="45.4380455" lon="11.1781851"><ele>87.0</ele><time>2026-04-22T16:34:43.552Z</time></trkpt><trkpt lat="45.4379028" lon="11.1781747"><ele>86.0</ele><time>2026-04-22T16:34:44.552Z</time></trkpt><trkpt lat="45.4377529" lon="11.1781652"><ele>85.0</ele><time>2026-04-22T16:34:45.559Z</time></trkpt><trkpt lat="45.4375967" lon="11.1781592"><ele>84.0</ele><time>2026-04-22T16:34:46.549Z</time></trkpt><trkpt lat="45.437438" lon="11.1781567"><ele>84.0</ele><time>2026-04-22T16:34:47.562Z</time></trkpt><trkpt lat="45.4372833" lon="11.1781466"><ele>84.0</ele><time>2026-04-22T16:34:48.551Z</time></trkpt><trkpt lat="45.437138" lon="11.1781418"><ele>84.0</ele><time>2026-04-22T16:34:49.557Z</time></trkpt><trkpt lat="45.4369945" lon="11.1781336"><ele>84.0</ele><time>2026-04-22T16:34:50.552Z</time></trkpt><trkpt lat="45.4368531" lon="11.1781267"><ele>84.0</ele><time>2026-04-22T16:34:51.546Z</time></trkpt><trkpt lat="45.4367113" lon="11.1781186"><ele>84.0</ele><time>2026-04-22T16:34:52.549Z</time></trkpt><trkpt lat="45.4365715" lon="11.1781138"><ele>84.0</ele><time>2026-04-22T16:34:53.559Z</time></trkpt><trkpt lat="45.4364283" lon="11.1781034"><ele>84.0</ele><time>2026-04-22T16:34:54.56Z</time></trkpt><trkpt lat="45.4362845" lon="11.1780882"><ele>83.25</ele><time>2026-04-22T16:34:55.549Z</time></trkpt><trkpt lat="45.4361472" lon="11.1780661"><ele>82.5</ele><time>2026-04-22T16:34:56.557Z</time></trkpt><trkpt lat="45.4360035" lon="11.178045"><ele>81.75</ele><time>2026-04-22T16:34:57.552Z</time></trkpt><trkpt lat="45.4358541" lon="11.1780224"><ele>81.0</ele><time>2026-04-22T16:34:58.555Z</time></trkpt><trkpt lat="45.4356959" lon="11.1780011"><ele>81.0</ele><time>2026-04-22T16:34:59.552Z</time></trkpt><trkpt lat="45.4355345" lon="11.177976"><ele>81.0</ele><time>2026-04-22T16:35:00.552Z</time></trkpt><trkpt lat="45.4353714" lon="11.1779561"><ele>81.0</ele><time>2026-04-22T16:35:01.561Z</time></trkpt><trkpt lat="45.4352073" lon="11.1779313"><ele>80.33333333333333</ele><time>2026-04-22T16:35:02.557Z</time></trkpt><trkpt lat="45.43505" lon="11.177908"><ele>79.66666666666666</ele><time>2026-04-22T16:35:03.548Z</time></trkpt><trkpt lat="45.4348943" lon="11.1778796"><ele>79.0</ele><time>2026-04-22T16:35:04.553Z</time></trkpt><trkpt lat="45.4347357" lon="11.1778551"><ele>78.0</ele><time>2026-04-22T16:35:05.556Z</time></trkpt><trkpt lat="45.4345813" lon="11.1778314"><ele>77.0</ele><time>2026-04-22T16:35:06.556Z</time></trkpt><trkpt lat="45.4344254" lon="11.1778073"><ele>76.0</ele><time>2026-04-22T16:35:07.557Z</time></trkpt><trkpt lat="45.4342705" lon="11.1777821"><ele>76.0</ele><time>2026-04-22T16:35:08.557Z</time></trkpt><trkpt lat="45.4341183" lon="11.177758"><ele>76.0</ele><time>2026-04-22T16:35:09.552Z</time></trkpt><trkpt lat="45.4339714" lon="11.1777382"><ele>76.0</ele><time>2026-04-22T16:35:10.551Z</time></trkpt><trkpt lat="45.4338193" lon="11.1777134"><ele>75.33333333333333</ele><time>2026-04-22T16:35:11.553Z</time></trkpt><trkpt lat="45.4336684" lon="11.1776915"><ele>74.66666666666667</ele><time>2026-04-22T16:35:12.56Z</time></trkpt><trkpt lat="45.4335167" lon="11.177666"><ele>74.0</ele><time>2026-04-22T16:35:13.552Z</time></trkpt><trkpt lat="45.4333686" lon="11.1776421"><ele>74.0</ele><time>2026-04-22T16:35:14.545Z</time></trkpt><trkpt lat="45.4332269" lon="11.1776209"><ele>74.0</ele><time>2026-04-22T16:35:15.56Z</time></trkpt><trkpt lat="45.4330944" lon="11.1776045"><ele>74.0</ele><time>2026-04-22T16:35:16.559Z</time></trkpt><trkpt lat="45.432968" lon="11.1775877"><ele>74.0</ele><time>2026-04-22T16:35:17.555Z</time></trkpt><trkpt lat="45.4328462" lon="11.1775712"><ele>73.75</ele><time>2026-04-22T16:35:18.559Z</time></trkpt><trkpt lat="45.4327254" lon="11.1775558"><ele>73.5</ele><time>2026-04-22T16:35:19.546Z</time></trkpt><trkpt lat="45.432606" lon="11.1775449"><ele>73.25</ele><time>2026-04-22T16:35:20.555Z</time></trkpt><trkpt lat="45.4324865" lon="11.1775358"><ele>73.0</ele><time>2026-04-22T16:35:21.558Z</time></trkpt><trkpt lat="45.4323684" lon="11.1775239"><ele>73.0</ele><time>2026-04-22T16:35:22.546Z</time></trkpt><trkpt lat="45.432252" lon="11.1775225"><ele>73.0</ele><time>2026-04-22T16:35:23.557Z</time></trkpt><trkpt lat="45.4321278" lon="11.1775172"><ele>73.0</ele><time>2026-04-22T16:35:24.547Z</time></trkpt><trkpt lat="45.4320038" lon="11.1775123"><ele>73.0</ele><time>2026-04-22T16:35:25.554Z</time></trkpt><trkpt lat="45.4318729" lon="11.1775028"><ele>72.75</ele><time>2026-04-22T16:35:26.549Z</time></trkpt><trkpt lat="45.431746" lon="11.1774939"><ele>72.5</ele><time>2026-04-22T16:35:27.557Z</time></trkpt><trkpt lat="45.4316216" lon="11.1774868"><ele>72.25</ele><time>2026-04-22T16:35:28.554Z</time></trkpt><trkpt lat="45.4314984" lon="11.1774798"><ele>72.0</ele><time>2026-04-22T16:35:29.553Z</time></trkpt><trkpt lat="45.4313692" lon="11.1774713"><ele>72.0</ele><time>2026-04-22T16:35:30.563Z</time></trkpt><trkpt lat="45.4312393" lon="11.1774517"><ele>72.0</ele><time>2026-04-22T16:35:31.55Z</time></trkpt><trkpt lat="45.4311085" lon="11.1774273"><ele>72.0</ele><time>2026-04-22T16:35:32.544Z</time></trkpt><trkpt lat="45.4309785" lon="11.1773953"><ele>72.0</ele><time>2026-04-22T16:35:33.546Z</time></trkpt><trkpt lat="45.4308473" lon="11.1773611"><ele>71.75</ele><time>2026-04-22T16:35:34.548Z</time></trkpt><trkpt lat="45.4307089" lon="11.1773254"><ele>71.5</ele><time>2026-04-22T16:35:35.543Z</time></trkpt><trkpt lat="45.4305648" lon="11.1772865"><ele>71.25</ele><time>2026-04-22T16:35:36.554Z</time></trkpt><trkpt lat="45.4304225" lon="11.1772513"><ele>71.0</ele><time>2026-04-22T16:35:37.548Z</time></trkpt><trkpt lat="45.4302814" lon="11.1772165"><ele>70.5</ele><time>2026-04-22T16:35:38.549Z</time></trkpt><trkpt lat="45.430146" lon="11.1771857"><ele>70.0</ele><time>2026-04-22T16:35:39.548Z</time></trkpt><trkpt lat="45.4300063" lon="11.1771544"><ele>69.5</ele><time>2026-04-22T16:35:40.556Z</time></trkpt><trkpt lat="45.429861" lon="11.1771207"><ele>69.0</ele><time>2026-04-22T16:35:41.564Z</time></trkpt><trkpt lat="45.4297092" lon="11.1770866"><ele>68.33333333333333</ele><time>2026-04-22T16:35:42.554Z</time></trkpt><trkpt lat="45.4295515" lon="11.1770521"><ele>67.66666666666666</ele><time>2026-04-22T16:35:43.553Z</time></trkpt><trkpt lat="45.4293845" lon="11.1770141"><ele>67.0</ele><time>2026-04-22T16:35:44.545Z</time></trkpt><trkpt lat="45.4292149" lon="11.1769783"><ele>67.0</ele><time>2026-04-22T16:35:45.553Z</time></trkpt><trkpt lat="45.4290483" lon="11.1769477"><ele>67.0</ele><time>2026-04-22T16:35:46.562Z</time></trkpt><trkpt lat="45.4288831" lon="11.1769149"><ele>67.0</ele><time>2026-04-22T16:35:47.556Z</time></trkpt><trkpt lat="45.4287181" lon="11.1768882"><ele>65.66666666666666</ele><time>2026-04-22T16:35:48.55Z</time></trkpt><trkpt lat="45.4285548" lon="11.1768604"><ele>64.33333333333333</ele><time>2026-04-22T16:35:49.553Z</time></trkpt><trkpt lat="45.428393" lon="11.1768322"><ele>63.0</ele><time>2026-04-22T16:35:50.553Z</time></trkpt><trkpt lat="45.4282334" lon="11.1768068"><ele>63.0</ele><time>2026-04-22T16:35:51.562Z</time></trkpt><trkpt lat="45.4280748" lon="11.1767852"><ele>63.0</ele><time>2026-04-22T16:35:52.554Z</time></trkpt><trkpt lat="45.4279167" lon="11.1767701"><ele>63.0</ele><time>2026-04-22T16:35:53.554Z</time></trkpt><trkpt lat="45.4277566" lon="11.1767596"><ele>62.66666666666667</ele><time>2026-04-22T16:35:54.546Z</time></trkpt><trkpt lat="45.4276004" lon="11.176748"><ele>62.333333333333336</ele><time>2026-04-22T16:35:55.55Z</time></trkpt><trkpt lat="45.4274438" lon="11.1767378"><ele>62.0</ele><time>2026-04-22T16:35:56.55Z</time></trkpt><trkpt lat="45.4272903" lon="11.1767266"><ele>62.0</ele><time>2026-04-22T16:35:57.55Z</time></trkpt><trkpt lat="45.4271422" lon="11.1767194"><ele>62.0</ele><time>2026-04-22T16:35:58.553Z</time></trkpt><trkpt lat="45.4269932" lon="11.1767113"><ele>62.0</ele><time>2026-04-22T16:35:59.554Z</time></trkpt><trkpt lat="45.42685" lon="11.1767016"><ele>62.0</ele><time>2026-04-22T16:36:00.552Z</time></trkpt><trkpt lat="45.4267135" lon="11.1766921"><ele>62.0</ele><time>2026-04-22T16:36:01.542Z</time></trkpt><trkpt lat="45.4265815" lon="11.176678"><ele>62.0</ele><time>2026-04-22T16:36:02.556Z</time></trkpt><trkpt lat="45.426449" lon="11.1766746"><ele>62.0</ele><time>2026-04-22T16:36:03.548Z</time></trkpt><trkpt lat="45.426312" lon="11.1766649"><ele>62.0</ele><time>2026-04-22T16:36:04.567Z</time></trkpt><trkpt lat="45.426167" lon="11.1766473"><ele>62.0</ele><time>2026-04-22T16:36:05.558Z</time></trkpt><trkpt lat="45.4260197" lon="11.1766272"><ele>62.0</ele><time>2026-04-22T16:36:06.556Z</time></trkpt><trkpt lat="45.4258702" lon="11.1766067"><ele>62.0</ele><time>2026-04-22T16:36:07.563Z</time></trkpt><trkpt lat="45.4257225" lon="11.1765875"><ele>62.0</ele><time>2026-04-22T16:36:08.553Z</time></trkpt><trkpt lat="45.4255735" lon="11.1765687"><ele>61.333333333333336</ele><time>2026-04-22T16:36:09.552Z</time></trkpt><trkpt lat="45.4254237" lon="11.1765492"><ele>60.66666666666667</ele><time>2026-04-22T16:36:10.552Z</time></trkpt><trkpt lat="45.4252705" lon="11.1765298"><ele>60.0</ele><time>2026-04-22T16:36:11.548Z</time></trkpt><trkpt lat="45.425114" lon="11.1765103"><ele>59.66666666666667</ele><time>2026-04-22T16:36:12.552Z</time></trkpt><trkpt lat="45.4249606" lon="11.1764897"><ele>59.333333333333336</ele><time>2026-04-22T16:36:13.551Z</time></trkpt><trkpt lat="45.4248026" lon="11.176472"><ele>59.0</ele><time>2026-04-22T16:36:14.552Z</time></trkpt><trkpt lat="45.4246401" lon="11.1764509"><ele>58.0</ele><time>2026-04-22T16:36:15.552Z</time></trkpt><trkpt lat="45.4244843" lon="11.1764313"><ele>57.0</ele><time>2026-04-22T16:36:16.549Z</time></trkpt><trkpt lat="45.4243295" lon="11.1764079"><ele>56.0</ele><time>2026-04-22T16:36:17.546Z</time></trkpt><trkpt lat="45.424173" lon="11.176387"><ele>56.0</ele><time>2026-04-22T16:36:18.544Z</time></trkpt><trkpt lat="45.4240172" lon="11.1763688"><ele>56.0</ele><time>2026-04-22T16:36:19.551Z</time></trkpt><trkpt lat="45.4238612" lon="11.1763497"><ele>56.0</ele><time>2026-04-22T16:36:20.553Z</time></trkpt><trkpt lat="45.4237038" lon="11.1763331"><ele>56.333333333333336</ele><time>2026-04-22T16:36:21.556Z</time></trkpt><trkpt lat="45.4235427" lon="11.1763178"><ele>56.66666666666667</ele><time>2026-04-22T16:36:22.545Z</time></trkpt><trkpt lat="45.4233705" lon="11.1763137"><ele>57.0</ele><time>2026-04-22T16:36:23.551Z</time></trkpt><trkpt lat="45.423178" lon="11.1763165"><ele>56.66666666666667</ele><time>2026-04-22T16:36:24.563Z</time></trkpt><trkpt lat="45.4229686" lon="11.1763011"><ele>56.333333333333336</ele><time>2026-04-22T16:36:25.551Z</time></trkpt><trkpt lat="45.422742" lon="11.1762913"><ele>56.0</ele><time>2026-04-22T16:36:26.559Z</time></trkpt><trkpt lat="45.4224991" lon="11.1762763"><ele>56.0</ele><time>2026-04-22T16:36:27.55Z</time></trkpt><trkpt lat="45.4222398" lon="11.1762402"><ele>56.0</ele><time>2026-04-22T16:36:28.554Z</time></trkpt><trkpt lat="45.4219968" lon="11.1762041"><ele>55.0</ele><time>2026-04-22T16:36:29.548Z</time></trkpt><trkpt lat="45.4217612" lon="11.1761831"><ele>54.0</ele><time>2026-04-22T16:36:30.548Z</time></trkpt><trkpt lat="45.4215346" lon="11.176164"><ele>54.0</ele><time>2026-04-22T16:36:31.548Z</time></trkpt><trkpt lat="45.4213117" lon="11.176129"><ele>54.0</ele><time>2026-04-22T16:36:32.555Z</time></trkpt><trkpt lat="45.4210952" lon="11.1760818"><ele>54.0</ele><time>2026-04-22T16:36:33.551Z</time></trkpt><trkpt lat="45.420884" lon="11.1760359"><ele>54.0</ele><time>2026-04-22T16:36:34.556Z</time></trkpt><trkpt lat="45.4206743" lon="11.1759834"><ele>54.0</ele><time>2026-04-22T16:36:35.558Z</time></trkpt><trkpt lat="45.4204693" lon="11.1759197"><ele>54.0</ele><time>2026-04-22T16:36:36.545Z</time></trkpt><trkpt lat="45.4202716" lon="11.1758453"><ele>54.33333333333333</ele><time>2026-04-22T16:36:37.552Z</time></trkpt><trkpt lat="45.4200744" lon="11.1757615"><ele>54.666666666666664</ele><time>2026-04-22T16:36:38.551Z</time></trkpt><trkpt lat="45.4198838" lon="11.1756802"><ele>55.0</ele><time>2026-04-22T16:36:39.547Z</time></trkpt><trkpt lat="45.4196924" lon="11.1755972"><ele>53.666666666666664</ele><time>2026-04-22T16:36:40.549Z</time></trkpt><trkpt lat="45.4195027" lon="11.1755155"><ele>52.33333333333333</ele><time>2026-04-22T16:36:41.549Z</time></trkpt><trkpt lat="45.4193153" lon="11.1754399"><ele>51.0</ele><time>2026-04-22T16:36:42.559Z</time></trkpt><trkpt lat="45.4191376" lon="11.1753666"><ele>51.0</ele><time>2026-04-22T16:36:43.558Z</time></trkpt><trkpt lat="45.4189633" lon="11.1752919"><ele>51.0</ele><time>2026-04-22T16:36:44.555Z</time></trkpt><trkpt lat="45.4188205" lon="11.1752387"><ele>51.0</ele><time>2026-04-22T16:36:45.553Z</time></trkpt><trkpt lat="45.4186695" lon="11.1751578"><ele>51.5</ele><time>2026-04-22T16:36:46.551Z</time></trkpt><trkpt lat="45.4185292" lon="11.1750905"><ele>52.0</ele><time>2026-04-22T16:36:47.55Z</time></trkpt><trkpt lat="45.4183885" lon="11.1750257"><ele>52.5</ele><time>2026-04-22T16:36:48.55Z</time></trkpt><trkpt lat="45.41825" lon="11.1749635"><ele>53.0</ele><time>2026-04-22T16:36:49.555Z</time></trkpt><trkpt lat="45.4181212" lon="11.1749091"><ele>53.0</ele><time>2026-04-22T16:36:50.549Z</time></trkpt><trkpt lat="45.4180045" lon="11.1748659"><ele>53.0</ele><time>2026-04-22T16:36:51.557Z</time></trkpt><trkpt lat="45.4178942" lon="11.174828"><ele>53.0</ele><time>2026-04-22T16:36:52.561Z</time></trkpt><trkpt lat="45.4177907" lon="11.1747882"><ele>53.0</ele><time>2026-04-22T16:36:53.552Z</time></trkpt><trkpt lat="45.4176834" lon="11.1747501"><ele>52.25</ele><time>2026-04-22T16:36:54.55Z</time></trkpt><trkpt lat="45.4175725" lon="11.1747101"><ele>51.5</ele><time>2026-04-22T16:36:55.549Z</time></trkpt><trkpt lat="45.4174635" lon="11.1746737"><ele>50.75</ele><time>2026-04-22T16:36:56.55Z</time></trkpt><trkpt lat="45.4173397" lon="11.1746196"><ele>50.0</ele><time>2026-04-22T16:36:57.556Z</time></trkpt><trkpt lat="45.4171966" lon="11.1745335"><ele>49.333333333333336</ele><time>2026-04-22T16:36:58.558Z</time></trkpt><trkpt lat="45.4170496" lon="11.1744173"><ele>48.66666666666667</ele><time>2026-04-22T16:36:59.558Z</time></trkpt><trkpt lat="45.4169158" lon="11.1742804"><ele>48.0</ele><time>2026-04-22T16:37:00.552Z</time></trkpt><trkpt lat="45.4167994" lon="11.1741265"><ele>48.25</ele><time>2026-04-22T16:37:01.551Z</time></trkpt><trkpt lat="45.4167058" lon="11.1739609"><ele>48.5</ele><time>2026-04-22T16:37:02.554Z</time></trkpt><trkpt lat="45.4166308" lon="11.1737745"><ele>48.75</ele><time>2026-04-22T16:37:03.55Z</time></trkpt><trkpt lat="45.416571" lon="11.1735966"><ele>49.0</ele><time>2026-04-22T16:37:04.551Z</time></trkpt><trkpt lat="45.4165249" lon="11.173411"><ele>49.0</ele><time>2026-04-22T16:37:05.552Z</time></trkpt><trkpt lat="45.4164963" lon="11.1732244"><ele>49.0</ele><time>2026-04-22T16:37:06.553Z</time></trkpt><trkpt lat="45.4164848" lon="11.1730282"><ele>49.0</ele><time>2026-04-22T16:37:07.556Z</time></trkpt><trkpt lat="45.4164771" lon="11.1727989"><ele>49.0</ele><time>2026-04-22T16:37:08.545Z</time></trkpt><trkpt lat="45.4164805" lon="11.1725357"><ele>48.666666666666664</ele><time>2026-04-22T16:37:09.555Z</time></trkpt><trkpt lat="45.4165104" lon="11.1722533"><ele>48.33333333333333</ele><time>2026-04-22T16:37:10.55Z</time></trkpt><trkpt lat="45.4165621" lon="11.1719468"><ele>48.0</ele><time>2026-04-22T16:37:11.547Z</time></trkpt><trkpt lat="45.4166172" lon="11.1716417"><ele>48.0</ele><time>2026-04-22T16:37:12.555Z</time></trkpt><trkpt lat="45.4166621" lon="11.1713556"><ele>48.0</ele><time>2026-04-22T16:37:13.549Z</time></trkpt><trkpt lat="45.4167047" lon="11.171067"><ele>48.0</ele><time>2026-04-22T16:37:14.553Z</time></trkpt><trkpt lat="45.4167425" lon="11.1707927"><ele>47.666666666666664</ele><time>2026-04-22T16:37:15.548Z</time></trkpt><trkpt lat="45.416772" lon="11.1705232"><ele>47.33333333333333</ele><time>2026-04-22T16:37:16.553Z</time></trkpt><trkpt lat="45.4167982" lon="11.170257"><ele>47.0</ele><time>2026-04-22T16:37:17.551Z</time></trkpt><trkpt lat="45.4168235" lon="11.1699902"><ele>46.666666666666664</ele><time>2026-04-22T16:37:18.551Z</time></trkpt><trkpt lat="45.4168432" lon="11.1697319"><ele>46.333333333333336</ele><time>2026-04-22T16:37:19.541Z</time></trkpt><trkpt lat="45.4168594" lon="11.1694703"><ele>46.0</ele><time>2026-04-22T16:37:20.556Z</time></trkpt><trkpt lat="45.4168793" lon="11.1692105"><ele>45.66666666666667</ele><time>2026-04-22T16:37:21.563Z</time></trkpt><trkpt lat="45.4168982" lon="11.168949"><ele>45.333333333333336</ele><time>2026-04-22T16:37:22.55Z</time></trkpt><trkpt lat="45.4169181" lon="11.1686856"><ele>45.0</ele><time>2026-04-22T16:37:23.55Z</time></trkpt><trkpt lat="45.4169398" lon="11.1684204"><ele>45.0</ele><time>2026-04-22T16:37:24.552Z</time></trkpt><trkpt lat="45.4169578" lon="11.1681556"><ele>45.0</ele><time>2026-04-22T16:37:25.546Z</time></trkpt><trkpt lat="45.4169757" lon="11.1678887"><ele>45.0</ele><time>2026-04-22T16:37:26.551Z</time></trkpt><trkpt lat="45.4169969" lon="11.1676171"><ele>45.333333333333336</ele><time>2026-04-22T16:37:27.549Z</time></trkpt><trkpt lat="45.4170185" lon="11.1673474"><ele>45.66666666666667</ele><time>2026-04-22T16:37:28.553Z</time></trkpt><trkpt lat="45.4170413" lon="11.1670787"><ele>46.0</ele><time>2026-04-22T16:37:29.557Z</time></trkpt><trkpt lat="45.4170635" lon="11.166812"><ele>46.0</ele><time>2026-04-22T16:37:30.558Z</time></trkpt><trkpt lat="45.4170865" lon="11.1665442"><ele>46.0</ele><time>2026-04-22T16:37:31.549Z</time></trkpt><trkpt lat="45.4171095" lon="11.1662788"><ele>46.0</ele><time>2026-04-22T16:37:32.552Z</time></trkpt><trkpt lat="45.4171325" lon="11.1660175"><ele>47.0</ele><time>2026-04-22T16:37:33.547Z</time></trkpt><trkpt lat="45.4171531" lon="11.1657613"><ele>48.0</ele><time>2026-04-22T16:37:34.552Z</time></trkpt><trkpt lat="45.4171695" lon="11.1655077"><ele>49.0</ele><time>2026-04-22T16:37:35.548Z</time></trkpt><trkpt lat="45.4171882" lon="11.1652534"><ele>49.0</ele><time>2026-04-22T16:37:36.551Z</time></trkpt><trkpt lat="45.4172122" lon="11.1650013"><ele>49.0</ele><time>2026-04-22T16:37:37.546Z</time></trkpt><trkpt lat="45.4172346" lon="11.1647552"><ele>49.0</ele><time>2026-04-22T16:37:38.563Z</time></trkpt><trkpt lat="45.4172539" lon="11.1645121"><ele>48.666666666666664</ele><time>2026-04-22T16:37:39.55Z</time></trkpt><trkpt lat="45.4172712" lon="11.1642666"><ele>48.33333333333333</ele><time>2026-04-22T16:37:40.552Z</time></trkpt><trkpt lat="45.4172881" lon="11.1640181"><ele>48.0</ele><time>2026-04-22T16:37:41.568Z</time></trkpt><trkpt lat="45.4173017" lon="11.1637679"><ele>48.0</ele><time>2026-04-22T16:37:42.543Z</time></trkpt><trkpt lat="45.417313" lon="11.1635185"><ele>48.0</ele><time>2026-04-22T16:37:43.552Z</time></trkpt><trkpt lat="45.4173305" lon="11.1632743"><ele>48.0</ele><time>2026-04-22T16:37:44.557Z</time></trkpt><trkpt lat="45.4173473" lon="11.16304"><ele>48.33333333333333</ele><time>2026-04-22T16:37:45.55Z</time></trkpt><trkpt lat="45.4173676" lon="11.1628044"><ele>48.666666666666664</ele><time>2026-04-22T16:37:46.55Z</time></trkpt><trkpt lat="45.4173847" lon="11.1625685"><ele>49.0</ele><time>2026-04-22T16:37:47.551Z</time></trkpt><trkpt lat="45.4174033" lon="11.1623358"><ele>49.33333333333333</ele><time>2026-04-22T16:37:48.552Z</time></trkpt><trkpt lat="45.4174205" lon="11.1621084"><ele>49.66666666666667</ele><time>2026-04-22T16:37:49.552Z</time></trkpt><trkpt lat="45.4174364" lon="11.1618843"><ele>50.0</ele><time>2026-04-22T16:37:50.556Z</time></trkpt><trkpt lat="45.4174562" lon="11.1616607"><ele>49.66666666666667</ele><time>2026-04-22T16:37:51.55Z</time></trkpt><trkpt lat="45.4174718" lon="11.1614403"><ele>49.33333333333333</ele><time>2026-04-22T16:37:52.551Z</time></trkpt><trkpt lat="45.417485" lon="11.1612196"><ele>49.0</ele><time>2026-04-22T16:37:53.556Z</time></trkpt><trkpt lat="45.417499" lon="11.1609957"><ele>49.0</ele><time>2026-04-22T16:37:54.555Z</time></trkpt><trkpt lat="45.4175139" lon="11.1607661"><ele>49.0</ele><time>2026-04-22T16:37:55.551Z</time></trkpt><trkpt lat="45.4175296" lon="11.1605408"><ele>49.0</ele><time>2026-04-22T16:37:56.55Z</time></trkpt><trkpt lat="45.4175506" lon="11.1603208"><ele>48.33333333333333</ele><time>2026-04-22T16:37:57.547Z</time></trkpt><trkpt lat="45.417569" lon="11.1600986"><ele>47.666666666666664</ele><time>2026-04-22T16:37:58.546Z</time></trkpt><trkpt lat="45.417584" lon="11.1598763"><ele>47.0</ele><time>2026-04-22T16:37:59.545Z</time></trkpt><trkpt lat="45.4176009" lon="11.1596518"><ele>47.0</ele><time>2026-04-22T16:38:00.557Z</time></trkpt><trkpt lat="45.417614" lon="11.1594266"><ele>47.0</ele><time>2026-04-22T16:38:01.553Z</time></trkpt><trkpt lat="45.4176274" lon="11.1591987"><ele>47.0</ele><time>2026-04-22T16:38:02.567Z</time></trkpt><trkpt lat="45.4176391" lon="11.1589629"><ele>47.0</ele><time>2026-04-22T16:38:03.543Z</time></trkpt><trkpt lat="45.417655" lon="11.1587271"><ele>47.0</ele><time>2026-04-22T16:38:04.562Z</time></trkpt><trkpt lat="45.4176778" lon="11.1584906"><ele>47.0</ele><time>2026-04-22T16:38:05.554Z</time></trkpt><trkpt lat="45.4176992" lon="11.1582565"><ele>47.0</ele><time>2026-04-22T16:38:06.556Z</time></trkpt><trkpt lat="45.4177197" lon="11.1580158"><ele>47.0</ele><time>2026-04-22T16:38:07.544Z</time></trkpt><trkpt lat="45.4177381" lon="11.1577727"><ele>47.0</ele><time>2026-04-22T16:38:08.548Z</time></trkpt><trkpt lat="45.4177545" lon="11.1575302"><ele>47.0</ele><time>2026-04-22T16:38:09.558Z</time></trkpt><trkpt lat="45.4177713" lon="11.1572896"><ele>47.0</ele><time>2026-04-22T16:38:10.554Z</time></trkpt><trkpt lat="45.4177876" lon="11.1570518"><ele>47.0</ele><time>2026-04-22T16:38:11.546Z</time></trkpt><trkpt lat="45.417803" lon="11.1568216"><ele>47.0</ele><time>2026-04-22T16:38:12.55Z</time></trkpt><trkpt lat="45.4178194" lon="11.156595"><ele>47.0</ele><time>2026-04-22T16:38:13.545Z</time></trkpt><trkpt lat="45.4178363" lon="11.1563694"><ele>47.0</ele><time>2026-04-22T16:38:14.55Z</time></trkpt><trkpt lat="45.4178554" lon="11.1561449"><ele>46.666666666666664</ele><time>2026-04-22T16:38:15.547Z</time></trkpt><trkpt lat="45.417871" lon="11.1559163"><ele>46.333333333333336</ele><time>2026-04-22T16:38:16.549Z</time></trkpt><trkpt lat="45.4178874" lon="11.1556879"><ele>46.0</ele><time>2026-04-22T16:38:17.558Z</time></trkpt><trkpt lat="45.4179036" lon="11.1554549"><ele>45.66666666666667</ele><time>2026-04-22T16:38:18.554Z</time></trkpt><trkpt lat="45.4179184" lon="11.1552194"><ele>45.333333333333336</ele><time>2026-04-22T16:38:19.55Z</time></trkpt><trkpt lat="45.4179306" lon="11.1549846"><ele>45.0</ele><time>2026-04-22T16:38:20.55Z</time></trkpt><trkpt lat="45.4179436" lon="11.1547503"><ele>45.0</ele><time>2026-04-22T16:38:21.547Z</time></trkpt><trkpt lat="45.417959" lon="11.1545101"><ele>45.0</ele><time>2026-04-22T16:38:22.556Z</time></trkpt><trkpt lat="45.4179753" lon="11.1542716"><ele>45.0</ele><time>2026-04-22T16:38:23.553Z</time></trkpt><trkpt lat="45.4179941" lon="11.1540339"><ele>46.0</ele><time>2026-04-22T16:38:24.559Z</time></trkpt><trkpt lat="45.4180142" lon="11.1537976"><ele>47.0</ele><time>2026-04-22T16:38:25.549Z</time></trkpt><trkpt lat="45.418032" lon="11.1535644"><ele>48.0</ele><time>2026-04-22T16:38:26.552Z</time></trkpt><trkpt lat="45.4180493" lon="11.1533343"><ele>48.0</ele><time>2026-04-22T16:38:27.554Z</time></trkpt><trkpt lat="45.4180706" lon="11.1531114"><ele>48.0</ele><time>2026-04-22T16:38:28.558Z</time></trkpt><trkpt lat="45.4180888" lon="11.152892"><ele>48.0</ele><time>2026-04-22T16:38:29.554Z</time></trkpt><trkpt lat="45.4181059" lon="11.152684"><ele>48.0</ele><time>2026-04-22T16:38:30.554Z</time></trkpt><trkpt lat="45.4181192" lon="11.1524861"><ele>48.0</ele><time>2026-04-22T16:38:31.542Z</time></trkpt><trkpt lat="45.418133" lon="11.1522962"><ele>48.0</ele><time>2026-04-22T16:38:32.55Z</time></trkpt><trkpt lat="45.4181461" lon="11.15211"><ele>48.0</ele><time>2026-04-22T16:38:33.545Z</time></trkpt><trkpt lat="45.4181568" lon="11.1519274"><ele>47.5</ele><time>2026-04-22T16:38:34.552Z</time></trkpt><trkpt lat="45.4181694" lon="11.151745"><ele>47.0</ele><time>2026-04-22T16:38:35.551Z</time></trkpt><trkpt lat="45.418185" lon="11.1515567"><ele>46.5</ele><time>2026-04-22T16:38:36.556Z</time></trkpt><trkpt lat="45.4181921" lon="11.1513635"><ele>46.0</ele><time>2026-04-22T16:38:37.541Z</time></trkpt><trkpt lat="45.4181995" lon="11.1511862"><ele>45.8</ele><time>2026-04-22T16:38:38.55Z</time></trkpt><trkpt lat="45.4182095" lon="11.1510252"><ele>45.599999999999994</ele><time>2026-04-22T16:38:39.546Z</time></trkpt><trkpt lat="45.418218" lon="11.1508811"><ele>45.4</ele><time>2026-04-22T16:38:40.548Z</time></trkpt><trkpt lat="45.4182294" lon="11.150757"><ele>45.2</ele><time>2026-04-22T16:38:41.548Z</time></trkpt><trkpt lat="45.418237" lon="11.1506416"><ele>45.0</ele><time>2026-04-22T16:38:42.553Z</time></trkpt><trkpt lat="45.4182579" lon="11.1505232"><ele>45.5</ele><time>2026-04-22T16:38:43.558Z</time></trkpt><trkpt lat="45.4182996" lon="11.1503985"><ele>46.0</ele><time>2026-04-22T16:38:44.562Z</time></trkpt><trkpt lat="45.4183495" lon="11.1502634"><ele>46.5</ele><time>2026-04-22T16:38:45.544Z</time></trkpt><trkpt lat="45.418371" lon="11.1500884"><ele>47.0</ele><time>2026-04-22T16:38:46.554Z</time></trkpt><trkpt lat="45.4183607" lon="11.1499127"><ele>47.0</ele><time>2026-04-22T16:38:47.555Z</time></trkpt><trkpt lat="45.4183349" lon="11.1497566"><ele>47.0</ele><time>2026-04-22T16:38:48.57Z</time></trkpt><trkpt lat="45.4183181" lon="11.1496082"><ele>47.0</ele><time>2026-04-22T16:38:49.557Z</time></trkpt><trkpt lat="45.4183166" lon="11.1494654"><ele>47.0</ele><time>2026-04-22T16:38:50.548Z</time></trkpt><trkpt lat="45.4183236" lon="11.1493149"><ele>47.0</ele><time>2026-04-22T16:38:51.555Z</time></trkpt><trkpt lat="45.4183341" lon="11.1491623"><ele>46.8</ele><time>2026-04-22T16:38:52.55Z</time></trkpt><trkpt lat="45.4183468" lon="11.1490081"><ele>46.6</ele><time>2026-04-22T16:38:53.547Z</time></trkpt><trkpt lat="45.4183585" lon="11.1488557"><ele>46.4</ele><time>2026-04-22T16:38:54.557Z</time></trkpt><trkpt lat="45.4183688" lon="11.1487039"><ele>46.199999999999996</ele><time>2026-04-22T16:38:55.548Z</time></trkpt><trkpt lat="45.4183805" lon="11.1485523"><ele>46.0</ele><time>2026-04-22T16:38:56.556Z</time></trkpt><trkpt lat="45.4183922" lon="11.1483995"><ele>46.0</ele><time>2026-04-22T16:38:57.544Z</time></trkpt><trkpt lat="45.4184028" lon="11.1482439"><ele>46.0</ele><time>2026-04-22T16:38:58.547Z</time></trkpt><trkpt lat="45.418416" lon="11.148089"><ele>46.0</ele><time>2026-04-22T16:38:59.546Z</time></trkpt><trkpt lat="45.4184284" lon="11.1479298"><ele>46.0</ele><time>2026-04-22T16:39:00.553Z</time></trkpt><trkpt lat="45.41844" lon="11.1477724"><ele>46.0</ele><time>2026-04-22T16:39:01.552Z</time></trkpt><trkpt lat="45.4184527" lon="11.1476129"><ele>45.8</ele><time>2026-04-22T16:39:02.547Z</time></trkpt><trkpt lat="45.4184698" lon="11.1474543"><ele>45.599999999999994</ele><time>2026-04-22T16:39:03.557Z</time></trkpt><trkpt lat="45.4184848" lon="11.1472978"><ele>45.4</ele><time>2026-04-22T16:39:04.551Z</time></trkpt><trkpt lat="45.4184977" lon="11.1471494"><ele>45.2</ele><time>2026-04-22T16:39:05.552Z</time></trkpt><trkpt lat="45.4185072" lon="11.1470082"><ele>45.0</ele><time>2026-04-22T16:39:06.549Z</time></trkpt><trkpt lat="45.4185194" lon="11.1468674"><ele>44.833333333333336</ele><time>2026-04-22T16:39:07.557Z</time></trkpt><trkpt lat="45.4185343" lon="11.1467329"><ele>44.666666666666664</ele><time>2026-04-22T16:39:08.558Z</time></trkpt><trkpt lat="45.4185468" lon="11.1466091"><ele>44.5</ele><time>2026-04-22T16:39:09.551Z</time></trkpt><trkpt lat="45.4185538" lon="11.1464953"><ele>44.33333333333333</ele><time>2026-04-22T16:39:10.557Z</time></trkpt><trkpt lat="45.4185629" lon="11.1463814"><ele>44.166666666666664</ele><time>2026-04-22T16:39:11.556Z</time></trkpt><trkpt lat="45.418571" lon="11.146271"><ele>44.0</ele><time>2026-04-22T16:39:12.557Z</time></trkpt><trkpt lat="45.4185781" lon="11.1461652"><ele>43.83333333333333</ele><time>2026-04-22T16:39:13.549Z</time></trkpt><trkpt lat="45.4185864" lon="11.1460675"><ele>43.666666666666664</ele><time>2026-04-22T16:39:14.551Z</time></trkpt><trkpt lat="45.4185945" lon="11.1459769"><ele>43.5</ele><time>2026-04-22T16:39:15.553Z</time></trkpt><trkpt lat="45.4186196" lon="11.1458372"><ele>43.333333333333336</ele><time>2026-04-22T16:39:17.556Z</time></trkpt><trkpt lat="45.41868" lon="11.1457283"><ele>43.16666666666667</ele><time>2026-04-22T16:39:19.567Z</time></trkpt><trkpt lat="45.4187353" lon="11.1456577"><ele>43.0</ele><time>2026-04-22T16:39:20.553Z</time></trkpt><trkpt lat="45.4187855" lon="11.1455687"><ele>43.0</ele><time>2026-04-22T16:39:21.544Z</time></trkpt><trkpt lat="45.4188147" lon="11.1454513"><ele>43.0</ele><time>2026-04-22T16:39:22.555Z</time></trkpt><trkpt lat="45.4188156" lon="11.1453241"><ele>43.0</ele><time>2026-04-22T16:39:23.549Z</time></trkpt><trkpt lat="45.418786" lon="11.1451962"><ele>43.0</ele><time>2026-04-22T16:39:24.547Z</time></trkpt><trkpt lat="45.4187411" lon="11.1450769"><ele>43.0</ele><time>2026-04-22T16:39:25.548Z</time></trkpt><trkpt lat="45.4187075" lon="11.1449596"><ele>43.4</ele><time>2026-04-22T16:39:26.556Z</time></trkpt><trkpt lat="45.418693" lon="11.1448517"><ele>43.8</ele><time>2026-04-22T16:39:27.543Z</time></trkpt><trkpt lat="45.4186919" lon="11.1447539"><ele>44.2</ele><time>2026-04-22T16:39:28.552Z</time></trkpt><trkpt lat="45.4186999" lon="11.1445798"><ele>44.6</ele><time>2026-04-22T16:39:30.553Z</time></trkpt><trkpt lat="45.4187122" lon="11.1444069"><ele>45.0</ele><time>2026-04-22T16:39:32.555Z</time></trkpt><trkpt lat="45.4187254" lon="11.1442979"><ele>45.0</ele><time>2026-04-22T16:39:33.555Z</time></trkpt><trkpt lat="45.4187307" lon="11.1441752"><ele>45.0</ele><time>2026-04-22T16:39:34.542Z</time></trkpt><trkpt lat="45.4187359" lon="11.1440387"><ele>45.0</ele><time>2026-04-22T16:39:35.546Z</time></trkpt><trkpt lat="45.4187461" lon="11.1438905"><ele>45.0</ele><time>2026-04-22T16:39:36.552Z</time></trkpt><trkpt lat="45.4187567" lon="11.1437326"><ele>45.0</ele><time>2026-04-22T16:39:37.555Z</time></trkpt><trkpt lat="45.4187676" lon="11.1435647"><ele>45.0</ele><time>2026-04-22T16:39:38.578Z</time></trkpt><trkpt lat="45.4187797" lon="11.143392"><ele>45.0</ele><time>2026-04-22T16:39:39.553Z</time></trkpt><trkpt lat="45.4187899" lon="11.1432205"><ele>45.0</ele><time>2026-04-22T16:39:40.558Z</time></trkpt><trkpt lat="45.4187996" lon="11.1430525"><ele>45.0</ele><time>2026-04-22T16:39:41.553Z</time></trkpt><trkpt lat="45.4188109" lon="11.1428865"><ele>44.75</ele><time>2026-04-22T16:39:42.549Z</time></trkpt><trkpt lat="45.418822" lon="11.1427205"><ele>44.5</ele><time>2026-04-22T16:39:43.553Z</time></trkpt><trkpt lat="45.4188367" lon="11.1425558"><ele>44.25</ele><time>2026-04-22T16:39:44.552Z</time></trkpt><trkpt lat="45.4188491" lon="11.1423936"><ele>44.0</ele><time>2026-04-22T16:39:45.551Z</time></trkpt><trkpt lat="45.4188612" lon="11.142232"><ele>44.0</ele><time>2026-04-22T16:39:46.557Z</time></trkpt><trkpt lat="45.4188717" lon="11.1420784"><ele>44.0</ele><time>2026-04-22T16:39:47.548Z</time></trkpt><trkpt lat="45.4188811" lon="11.1419288"><ele>44.0</ele><time>2026-04-22T16:39:48.547Z</time></trkpt><trkpt lat="45.4188894" lon="11.1417892"><ele>44.0</ele><time>2026-04-22T16:39:49.552Z</time></trkpt><trkpt lat="45.4188949" lon="11.1416525"><ele>44.0</ele><time>2026-04-22T16:39:50.548Z</time></trkpt><trkpt lat="45.4189001" lon="11.1415094"><ele>44.400000000000006</ele><time>2026-04-22T16:39:51.553Z</time></trkpt><trkpt lat="45.4189071" lon="11.1413664"><ele>44.8</ele><time>2026-04-22T16:39:52.557Z</time></trkpt><trkpt lat="45.4189154" lon="11.1412241"><ele>45.2</ele><time>2026-04-22T16:39:53.549Z</time></trkpt><trkpt lat="45.4189242" lon="11.1410846"><ele>45.599999999999994</ele><time>2026-04-22T16:39:54.558Z</time></trkpt><trkpt lat="45.4189356" lon="11.1409517"><ele>46.0</ele><time>2026-04-22T16:39:55.554Z</time></trkpt><trkpt lat="45.4189451" lon="11.1408261"><ele>45.833333333333336</ele><time>2026-04-22T16:39:56.55Z</time></trkpt><trkpt lat="45.418954" lon="11.1407066"><ele>45.66666666666667</ele><time>2026-04-22T16:39:57.557Z</time></trkpt><trkpt lat="45.4189628" lon="11.1405911"><ele>45.5</ele><time>2026-04-22T16:39:58.55Z</time></trkpt><trkpt lat="45.4189711" lon="11.1404772"><ele>45.333333333333336</ele><time>2026-04-22T16:39:59.553Z</time></trkpt><trkpt lat="45.4189794" lon="11.1403667"><ele>45.166666666666664</ele><time>2026-04-22T16:40:00.553Z</time></trkpt><trkpt lat="45.4189875" lon="11.1402557"><ele>45.0</ele><time>2026-04-22T16:40:01.557Z</time></trkpt><trkpt lat="45.4189947" lon="11.1401464"><ele>45.0</ele><time>2026-04-22T16:40:02.559Z</time></trkpt><trkpt lat="45.4190028" lon="11.1400387"><ele>45.0</ele><time>2026-04-22T16:40:03.56Z</time></trkpt><trkpt lat="45.4190099" lon="11.1399417"><ele>45.0</ele><time>2026-04-22T16:40:04.545Z</time></trkpt><trkpt lat="45.4190227" lon="11.1397785"><ele>45.0</ele><time>2026-04-22T16:40:06.553Z</time></trkpt><trkpt lat="45.419038" lon="11.1396478"><ele>45.0</ele><time>2026-04-22T16:40:08.554Z</time></trkpt><trkpt lat="45.419044" lon="11.1395386"><ele>45.0</ele><time>2026-04-22T16:40:10.556Z</time></trkpt><trkpt lat="45.4190418" lon="11.1393754"><ele>45.166666666666664</ele><time>2026-04-22T16:40:12.553Z</time></trkpt><trkpt lat="45.4190492" lon="11.1392784"><ele>45.333333333333336</ele><time>2026-04-22T16:40:13.55Z</time></trkpt><trkpt lat="45.4190582" lon="11.1391812"><ele>45.5</ele><time>2026-04-22T16:40:14.553Z</time></trkpt><trkpt lat="45.4190669" lon="11.1390702"><ele>45.66666666666667</ele><time>2026-04-22T16:40:15.544Z</time></trkpt><trkpt lat="45.4190761" lon="11.1389464"><ele>45.833333333333336</ele><time>2026-04-22T16:40:16.554Z</time></trkpt><trkpt lat="45.419087" lon="11.1388173"><ele>46.0</ele><time>2026-04-22T16:40:17.556Z</time></trkpt><trkpt lat="45.4190982" lon="11.1386801"><ele>46.199999999999996</ele><time>2026-04-22T16:40:18.548Z</time></trkpt><trkpt lat="45.4191127" lon="11.138537"><ele>46.4</ele><time>2026-04-22T16:40:19.556Z</time></trkpt><trkpt lat="45.4191351" lon="11.1383994"><ele>46.6</ele><time>2026-04-22T16:40:20.566Z</time></trkpt><trkpt lat="45.4191532" lon="11.1382562"><ele>46.8</ele><time>2026-04-22T16:40:21.55Z</time></trkpt><trkpt lat="45.4191659" lon="11.1381045"><ele>47.0</ele><time>2026-04-22T16:40:22.552Z</time></trkpt><trkpt lat="45.4191791" lon="11.1379521"><ele>47.0</ele><time>2026-04-22T16:40:23.55Z</time></trkpt><trkpt lat="45.4191911" lon="11.1378003"><ele>47.0</ele><time>2026-04-22T16:40:24.554Z</time></trkpt><trkpt lat="45.4191989" lon="11.1376677"><ele>47.0</ele><time>2026-04-22T16:40:25.546Z</time></trkpt><trkpt lat="45.4192072" lon="11.1375566"><ele>47.0</ele><time>2026-04-22T16:40:26.551Z</time></trkpt><trkpt lat="45.4192119" lon="11.1374587"><ele>47.0</ele><time>2026-04-22T16:40:27.546Z</time></trkpt><trkpt lat="45.4192221" lon="11.1372991"><ele>46.666666666666664</ele><time>2026-04-22T16:40:29.547Z</time></trkpt><trkpt lat="45.4192303" lon="11.1371685"><ele>46.33333333333333</ele><time>2026-04-22T16:40:31.546Z</time></trkpt><trkpt lat="45.4192373" lon="11.1370555"><ele>46.0</ele><time>2026-04-22T16:40:33.558Z</time></trkpt><trkpt lat="45.4192502" lon="11.1369331"><ele>45.666666666666664</ele><time>2026-04-22T16:40:36.557Z</time></trkpt><trkpt lat="45.4192538" lon="11.1368381"><ele>45.333333333333336</ele><time>2026-04-22T16:40:39.546Z</time></trkpt><trkpt lat="45.419254" lon="11.1367044"><ele>45.0</ele><time>2026-04-22T16:40:41.547Z</time></trkpt><trkpt lat="45.4192694" lon="11.1365443"><ele>44.8</ele><time>2026-04-22T16:40:43.548Z</time></trkpt><trkpt lat="45.4192797" lon="11.1363961"><ele>44.6</ele><time>2026-04-22T16:40:45.557Z</time></trkpt><trkpt lat="45.4192863" lon="11.1362545"><ele>44.400000000000006</ele><time>2026-04-22T16:40:47.551Z</time></trkpt><trkpt lat="45.4192981" lon="11.136117"><ele>44.2</ele><time>2026-04-22T16:40:49.561Z</time></trkpt><trkpt lat="45.4193118" lon="11.1359748"><ele>44.0</ele><time>2026-04-22T16:40:51.555Z</time></trkpt><trkpt lat="45.4193172" lon="11.1358605"><ele>44.0</ele><time>2026-04-22T16:40:53.56Z</time></trkpt><trkpt lat="45.4193227" lon="11.1357654"><ele>44.0</ele><time>2026-04-22T16:40:56.552Z</time></trkpt><trkpt lat="45.419344" lon="11.1356039"><ele>44.0</ele><time>2026-04-22T16:40:58.557Z</time></trkpt><trkpt lat="45.4193557" lon="11.13548"><ele>44.0</ele><time>2026-04-22T16:40:59.545Z</time></trkpt><trkpt lat="45.4193653" lon="11.1353375"><ele>44.0</ele><time>2026-04-22T16:41:00.549Z</time></trkpt><trkpt lat="45.419373" lon="11.135194"><ele>44.0</ele><time>2026-04-22T16:41:01.547Z</time></trkpt><trkpt lat="45.4193829" lon="11.135048"><ele>44.0</ele><time>2026-04-22T16:41:02.552Z</time></trkpt><trkpt lat="45.4193918" lon="11.1349047"><ele>44.0</ele><time>2026-04-22T16:41:03.548Z</time></trkpt><trkpt lat="45.4194035" lon="11.1347619"><ele>44.0</ele><time>2026-04-22T16:41:04.559Z</time></trkpt><trkpt lat="45.4194167" lon="11.1346172"><ele>44.0</ele><time>2026-04-22T16:41:05.546Z</time></trkpt><trkpt lat="45.4194313" lon="11.1344642"><ele>43.800000000000004</ele><time>2026-04-22T16:41:06.554Z</time></trkpt><trkpt lat="45.4194427" lon="11.1343049"><ele>43.6</ele><time>2026-04-22T16:41:07.548Z</time></trkpt><trkpt lat="45.4194523" lon="11.1341455"><ele>43.4</ele><time>2026-04-22T16:41:08.551Z</time></trkpt><trkpt lat="45.4194613" lon="11.1339993"><ele>43.2</ele><time>2026-04-22T16:41:09.546Z</time></trkpt><trkpt lat="45.4194737" lon="11.1338605"><ele>43.0</ele><time>2026-04-22T16:41:10.568Z</time></trkpt><trkpt lat="45.4194886" lon="11.1337156"><ele>43.0</ele><time>2026-04-22T16:41:11.548Z</time></trkpt><trkpt lat="45.4195019" lon="11.1335622"><ele>43.0</ele><time>2026-04-22T16:41:12.553Z</time></trkpt><trkpt lat="45.4195163" lon="11.1334053"><ele>43.0</ele><time>2026-04-22T16:41:13.553Z</time></trkpt><trkpt lat="45.419528" lon="11.1332498"><ele>43.0</ele><time>2026-04-22T16:41:14.551Z</time></trkpt><trkpt lat="45.419541" lon="11.133102"><ele>43.0</ele><time>2026-04-22T16:41:15.558Z</time></trkpt><trkpt lat="45.4195553" lon="11.1329618"><ele>43.0</ele><time>2026-04-22T16:41:16.555Z</time></trkpt><trkpt lat="45.4195675" lon="11.1328147"><ele>43.0</ele><time>2026-04-22T16:41:17.552Z</time></trkpt><trkpt lat="45.4195782" lon="11.132665"><ele>43.0</ele><time>2026-04-22T16:41:18.552Z</time></trkpt><trkpt lat="45.419588" lon="11.1325138"><ele>43.0</ele><time>2026-04-22T16:41:19.555Z</time></trkpt><trkpt lat="45.4196017" lon="11.1323656"><ele>43.0</ele><time>2026-04-22T16:41:20.558Z</time></trkpt><trkpt lat="45.419616" lon="11.1322064"><ele>43.0</ele><time>2026-04-22T16:41:21.552Z</time></trkpt><trkpt lat="45.4196251" lon="11.1320487"><ele>43.0</ele><time>2026-04-22T16:41:22.558Z</time></trkpt><trkpt lat="45.4196351" lon="11.1318881"><ele>43.0</ele><time>2026-04-22T16:41:23.55Z</time></trkpt><trkpt lat="45.4196447" lon="11.1317178"><ele>43.0</ele><time>2026-04-22T16:41:24.559Z</time></trkpt><trkpt lat="45.419655" lon="11.1315439"><ele>43.0</ele><time>2026-04-22T16:41:25.554Z</time></trkpt><trkpt lat="45.4196689" lon="11.1313698"><ele>43.0</ele><time>2026-04-22T16:41:26.554Z</time></trkpt><trkpt lat="45.4196787" lon="11.1311893"><ele>43.0</ele><time>2026-04-22T16:41:27.551Z</time></trkpt><trkpt lat="45.4196916" lon="11.1310118"><ele>43.0</ele><time>2026-04-22T16:41:28.548Z</time></trkpt><trkpt lat="45.4197051" lon="11.1308383"><ele>43.0</ele><time>2026-04-22T16:41:29.545Z</time></trkpt><trkpt lat="45.4197206" lon="11.1306685"><ele>43.0</ele><time>2026-04-22T16:41:30.556Z</time></trkpt><trkpt lat="45.4197362" lon="11.1305049"><ele>43.0</ele><time>2026-04-22T16:41:31.572Z</time></trkpt><trkpt lat="45.419753" lon="11.1303457"><ele>43.0</ele><time>2026-04-22T16:41:32.555Z</time></trkpt><trkpt lat="45.4197685" lon="11.1301925"><ele>43.0</ele><time>2026-04-22T16:41:33.547Z</time></trkpt><trkpt lat="45.4197806" lon="11.130046"><ele>43.0</ele><time>2026-04-22T16:41:34.548Z</time></trkpt><trkpt lat="45.419794" lon="11.1298963"><ele>43.0</ele><time>2026-04-22T16:41:35.548Z</time></trkpt><trkpt lat="45.4198075" lon="11.1297411"><ele>43.0</ele><time>2026-04-22T16:41:36.554Z</time></trkpt><trkpt lat="45.4198192" lon="11.1295829"><ele>43.0</ele><time>2026-04-22T16:41:37.558Z</time></trkpt><trkpt lat="45.4198224" lon="11.1294173"><ele>42.75</ele><time>2026-04-22T16:41:38.55Z</time></trkpt><trkpt lat="45.4198282" lon="11.1292378"><ele>42.5</ele><time>2026-04-22T16:41:39.55Z</time></trkpt><trkpt lat="45.4198398" lon="11.1290519"><ele>42.25</ele><time>2026-04-22T16:41:40.552Z</time></trkpt><trkpt lat="45.4198555" lon="11.1288645"><ele>42.0</ele><time>2026-04-22T16:41:41.553Z</time></trkpt><trkpt lat="45.4198702" lon="11.128677"><ele>42.0</ele><time>2026-04-22T16:41:42.551Z</time></trkpt><trkpt lat="45.4198859" lon="11.128497"><ele>42.0</ele><time>2026-04-22T16:41:43.554Z</time></trkpt><trkpt lat="45.4199046" lon="11.1283215"><ele>42.0</ele><time>2026-04-22T16:41:44.548Z</time></trkpt><trkpt lat="45.4199219" lon="11.1281574"><ele>42.0</ele><time>2026-04-22T16:41:45.554Z</time></trkpt><trkpt lat="45.4199349" lon="11.1280146"><ele>42.0</ele><time>2026-04-22T16:41:46.558Z</time></trkpt><trkpt lat="45.4199454" lon="11.1278885"><ele>42.0</ele><time>2026-04-22T16:41:47.549Z</time></trkpt><trkpt lat="45.4199526" lon="11.1277764"><ele>42.0</ele><time>2026-04-22T16:41:48.564Z</time></trkpt><trkpt lat="45.4199592" lon="11.127672"><ele>42.0</ele><time>2026-04-22T16:41:49.555Z</time></trkpt><trkpt lat="45.4199637" lon="11.1275668"><ele>42.0</ele><time>2026-04-22T16:41:50.549Z</time></trkpt><trkpt lat="45.4199696" lon="11.1274411"><ele>42.0</ele><time>2026-04-22T16:41:51.559Z</time></trkpt><trkpt lat="45.4199797" lon="11.1272949"><ele>41.8</ele><time>2026-04-22T16:41:52.549Z</time></trkpt><trkpt lat="45.4199949" lon="11.1271414"><ele>41.6</ele><time>2026-04-22T16:41:53.552Z</time></trkpt><trkpt lat="45.4200102" lon="11.1270001"><ele>41.4</ele><time>2026-04-22T16:41:54.544Z</time></trkpt><trkpt lat="45.4200227" lon="11.1268717"><ele>41.199999999999996</ele><time>2026-04-22T16:41:55.553Z</time></trkpt><trkpt lat="45.4200277" lon="11.1267333"><ele>41.0</ele><time>2026-04-22T16:41:56.557Z</time></trkpt><trkpt lat="45.4200307" lon="11.1265809"><ele>41.0</ele><time>2026-04-22T16:41:57.544Z</time></trkpt><trkpt lat="45.4200432" lon="11.1264084"><ele>41.0</ele><time>2026-04-22T16:41:58.547Z</time></trkpt><trkpt lat="45.4200573" lon="11.1262275"><ele>41.0</ele><time>2026-04-22T16:41:59.545Z</time></trkpt><trkpt lat="45.4200687" lon="11.1260415"><ele>41.0</ele><time>2026-04-22T16:42:00.553Z</time></trkpt><trkpt lat="45.4200834" lon="11.1258531"><ele>41.0</ele><time>2026-04-22T16:42:01.552Z</time></trkpt><trkpt lat="45.4200968" lon="11.1256673"><ele>41.0</ele><time>2026-04-22T16:42:02.556Z</time></trkpt><trkpt lat="45.4201113" lon="11.1254855"><ele>41.0</ele><time>2026-04-22T16:42:03.568Z</time></trkpt><trkpt lat="45.4201261" lon="11.1252895"><ele>41.0</ele><time>2026-04-22T16:42:04.552Z</time></trkpt><trkpt lat="45.4201471" lon="11.1250957"><ele>41.0</ele><time>2026-04-22T16:42:05.551Z</time></trkpt><trkpt lat="45.4201652" lon="11.1249167"><ele>41.0</ele><time>2026-04-22T16:42:06.545Z</time></trkpt><trkpt lat="45.4201778" lon="11.1247518"><ele>41.0</ele><time>2026-04-22T16:42:07.565Z</time></trkpt><trkpt lat="45.4201901" lon="11.1245979"><ele>41.0</ele><time>2026-04-22T16:42:08.55Z</time></trkpt><trkpt lat="45.4202039" lon="11.1244431"><ele>41.199999999999996</ele><time>2026-04-22T16:42:09.558Z</time></trkpt><trkpt lat="45.4202178" lon="11.1242832"><ele>41.4</ele><time>2026-04-22T16:42:10.548Z</time></trkpt><trkpt lat="45.420229" lon="11.1241258"><ele>41.6</ele><time>2026-04-22T16:42:11.555Z</time></trkpt><trkpt lat="45.4202407" lon="11.123973"><ele>41.8</ele><time>2026-04-22T16:42:12.551Z</time></trkpt><trkpt lat="45.4202534" lon="11.1238159"><ele>42.0</ele><time>2026-04-22T16:42:13.566Z</time></trkpt><trkpt lat="45.4202686" lon="11.1236566"><ele>42.0</ele><time>2026-04-22T16:42:14.545Z</time></trkpt><trkpt lat="45.4202853" lon="11.1234984"><ele>42.0</ele><time>2026-04-22T16:42:15.558Z</time></trkpt><trkpt lat="45.4203011" lon="11.123342"><ele>42.0</ele><time>2026-04-22T16:42:16.556Z</time></trkpt><trkpt lat="45.4203157" lon="11.123183"><ele>42.0</ele><time>2026-04-22T16:42:17.551Z</time></trkpt><trkpt lat="45.4203276" lon="11.1230239"><ele>42.0</ele><time>2026-04-22T16:42:18.554Z</time></trkpt><trkpt lat="45.4203386" lon="11.122865"><ele>41.75</ele><time>2026-04-22T16:42:19.559Z</time></trkpt><trkpt lat="45.420347" lon="11.1227044"><ele>41.5</ele><time>2026-04-22T16:42:20.552Z</time></trkpt><trkpt lat="45.4203563" lon="11.1225337"><ele>41.25</ele><time>2026-04-22T16:42:21.552Z</time></trkpt><trkpt lat="45.4203685" lon="11.1223639"><ele>41.0</ele><time>2026-04-22T16:42:22.549Z</time></trkpt><trkpt lat="45.4203855" lon="11.122198"><ele>41.0</ele><time>2026-04-22T16:42:23.559Z</time></trkpt><trkpt lat="45.4204051" lon="11.1220235"><ele>41.0</ele><time>2026-04-22T16:42:24.562Z</time></trkpt><trkpt lat="45.4204257" lon="11.1218434"><ele>41.0</ele><time>2026-04-22T16:42:25.551Z</time></trkpt><trkpt lat="45.4204533" lon="11.1216516"><ele>41.0</ele><time>2026-04-22T16:42:26.558Z</time></trkpt><trkpt lat="45.4204716" lon="11.1214639"><ele>41.0</ele><time>2026-04-22T16:42:27.553Z</time></trkpt><trkpt lat="45.4204614" lon="11.1213369"><ele>41.0</ele><time>2026-04-22T16:42:28.556Z</time></trkpt><trkpt lat="45.4204673" lon="11.1211925"><ele>41.0</ele><time>2026-04-22T16:42:29.549Z</time></trkpt><trkpt lat="45.4204721" lon="11.1210437"><ele>41.0</ele><time>2026-04-22T16:42:30.548Z</time></trkpt><trkpt lat="45.4204811" lon="11.1208889"><ele>41.0</ele><time>2026-04-22T16:42:31.552Z</time></trkpt><trkpt lat="45.4204954" lon="11.1207291"><ele>41.4</ele><time>2026-04-22T16:42:32.56Z</time></trkpt><trkpt lat="45.4205115" lon="11.120569"><ele>41.8</ele><time>2026-04-22T16:42:33.552Z</time></trkpt><trkpt lat="45.4205275" lon="11.1204121"><ele>42.199999999999996</ele><time>2026-04-22T16:42:34.552Z</time></trkpt><trkpt lat="45.4205404" lon="11.120254"><ele>42.599999999999994</ele><time>2026-04-22T16:42:35.557Z</time></trkpt><trkpt lat="45.4205513" lon="11.1200973"><ele>43.0</ele><time>2026-04-22T16:42:36.556Z</time></trkpt><trkpt lat="45.4205604" lon="11.11994"><ele>43.2</ele><time>2026-04-22T16:42:37.554Z</time></trkpt><trkpt lat="45.420575" lon="11.1197799"><ele>43.4</ele><time>2026-04-22T16:42:38.55Z</time></trkpt><trkpt lat="45.4205902" lon="11.1196222"><ele>43.6</ele><time>2026-04-22T16:42:39.549Z</time></trkpt><trkpt lat="45.4206059" lon="11.119466"><ele>43.800000000000004</ele><time>2026-04-22T16:42:40.546Z</time></trkpt><trkpt lat="45.4206165" lon="11.119306"><ele>44.0</ele><time>2026-04-22T16:42:41.547Z</time></trkpt><trkpt lat="45.4206275" lon="11.1191426"><ele>43.75</ele><time>2026-04-22T16:42:42.552Z</time></trkpt><trkpt lat="45.420637" lon="11.118988"><ele>43.5</ele><time>2026-04-22T16:42:43.555Z</time></trkpt><trkpt lat="45.4206476" lon="11.1188352"><ele>43.25</ele><time>2026-04-22T16:42:44.546Z</time></trkpt><trkpt lat="45.4206529" lon="11.1186757"><ele>43.0</ele><time>2026-04-22T16:42:45.551Z</time></trkpt><trkpt lat="45.4206621" lon="11.1184986"><ele>43.0</ele><time>2026-04-22T16:42:46.553Z</time></trkpt><trkpt lat="45.4206751" lon="11.1183033"><ele>43.0</ele><time>2026-04-22T16:42:47.549Z</time></trkpt><trkpt lat="45.4206891" lon="11.1181035"><ele>43.0</ele><time>2026-04-22T16:42:48.552Z</time></trkpt><trkpt lat="45.4207049" lon="11.1179102"><ele>43.0</ele><time>2026-04-22T16:42:49.552Z</time></trkpt><trkpt lat="45.4207224" lon="11.1177279"><ele>43.2</ele><time>2026-04-22T16:42:50.552Z</time></trkpt><trkpt lat="45.4207376" lon="11.1175658"><ele>43.4</ele><time>2026-04-22T16:42:51.547Z</time></trkpt><trkpt lat="45.4207535" lon="11.1174133"><ele>43.6</ele><time>2026-04-22T16:42:52.547Z</time></trkpt><trkpt lat="45.4207634" lon="11.1172759"><ele>43.800000000000004</ele><time>2026-04-22T16:42:53.548Z</time></trkpt><trkpt lat="45.4207735" lon="11.1171477"><ele>44.0</ele><time>2026-04-22T16:42:54.55Z</time></trkpt><trkpt lat="45.4207815" lon="11.1170389"><ele>44.166666666666664</ele><time>2026-04-22T16:42:55.559Z</time></trkpt><trkpt lat="45.4207889" lon="11.1169306"><ele>44.33333333333333</ele><time>2026-04-22T16:42:56.554Z</time></trkpt><trkpt lat="45.4207882" lon="11.1168212"><ele>44.5</ele><time>2026-04-22T16:42:57.549Z</time></trkpt><trkpt lat="45.4207809" lon="11.1167148"><ele>44.666666666666664</ele><time>2026-04-22T16:42:58.559Z</time></trkpt><trkpt lat="45.4207695" lon="11.1166081"><ele>44.833333333333336</ele><time>2026-04-22T16:42:59.552Z</time></trkpt><trkpt lat="45.4207726" lon="11.1165045"><ele>45.0</ele><time>2026-04-22T16:43:00.562Z</time></trkpt><trkpt lat="45.4207983" lon="11.1164004"><ele>45.0</ele><time>2026-04-22T16:43:01.556Z</time></trkpt><trkpt lat="45.420822" lon="11.1162942"><ele>45.0</ele><time>2026-04-22T16:43:02.551Z</time></trkpt><trkpt lat="45.4208267" lon="11.1161938"><ele>45.0</ele><time>2026-04-22T16:43:03.557Z</time></trkpt><trkpt lat="45.4208186" lon="11.1160714"><ele>45.0</ele><time>2026-04-22T16:43:04.541Z</time></trkpt><trkpt lat="45.4208199" lon="11.1159341"><ele>45.0</ele><time>2026-04-22T16:43:05.555Z</time></trkpt><trkpt lat="45.4208519" lon="11.1157787"><ele>45.0</ele><time>2026-04-22T16:43:06.546Z</time></trkpt><trkpt lat="45.4208669" lon="11.1156359"><ele>44.333333333333336</ele><time>2026-04-22T16:43:07.552Z</time></trkpt><trkpt lat="45.4209148" lon="11.1154674"><ele>43.66666666666667</ele><time>2026-04-22T16:43:08.552Z</time></trkpt><trkpt lat="45.420925" lon="11.1152157"><ele>43.0</ele><time>2026-04-22T16:43:09.553Z</time></trkpt><trkpt lat="45.4209443" lon="11.1150048"><ele>43.333333333333336</ele><time>2026-04-22T16:43:10.555Z</time></trkpt><trkpt lat="45.420961" lon="11.1147811"><ele>43.666666666666664</ele><time>2026-04-22T16:43:11.547Z</time></trkpt><trkpt lat="45.4209841" lon="11.1145514"><ele>44.0</ele><time>2026-04-22T16:43:12.549Z</time></trkpt><trkpt lat="45.4210131" lon="11.1143201"><ele>44.0</ele><time>2026-04-22T16:43:13.554Z</time></trkpt><trkpt lat="45.421042" lon="11.1140877"><ele>44.0</ele><time>2026-04-22T16:43:14.546Z</time></trkpt><trkpt lat="45.4210601" lon="11.1138561"><ele>44.0</ele><time>2026-04-22T16:43:15.551Z</time></trkpt><trkpt lat="45.4210768" lon="11.1136368"><ele>44.0</ele><time>2026-04-22T16:43:16.546Z</time></trkpt><trkpt lat="45.4210936" lon="11.1134254"><ele>44.0</ele><time>2026-04-22T16:43:17.558Z</time></trkpt><trkpt lat="45.4211116" lon="11.1132206"><ele>44.0</ele><time>2026-04-22T16:43:18.546Z</time></trkpt><trkpt lat="45.4211302" lon="11.1130274"><ele>44.0</ele><time>2026-04-22T16:43:19.553Z</time></trkpt><trkpt lat="45.421147" lon="11.1128464"><ele>44.0</ele><time>2026-04-22T16:43:20.55Z</time></trkpt><trkpt lat="45.42116" lon="11.112683"><ele>44.0</ele><time>2026-04-22T16:43:21.549Z</time></trkpt><trkpt lat="45.4211697" lon="11.1125317"><ele>44.0</ele><time>2026-04-22T16:43:22.544Z</time></trkpt><trkpt lat="45.4211801" lon="11.1123936"><ele>44.0</ele><time>2026-04-22T16:43:23.55Z</time></trkpt><trkpt lat="45.421197" lon="11.1122675"><ele>44.0</ele><time>2026-04-22T16:43:24.554Z</time></trkpt><trkpt lat="45.4212281" lon="11.1121604"><ele>44.0</ele><time>2026-04-22T16:43:25.552Z</time></trkpt><trkpt lat="45.4212715" lon="11.1120865"><ele>44.0</ele><time>2026-04-22T16:43:26.55Z</time></trkpt><trkpt lat="45.4213238" lon="11.1120365"><ele>44.0</ele><time>2026-04-22T16:43:27.548Z</time></trkpt><trkpt lat="45.4213826" lon="11.112004"><ele>44.0</ele><time>2026-04-22T16:43:28.554Z</time></trkpt><trkpt lat="45.4214463" lon="11.1119656"><ele>44.0</ele><time>2026-04-22T16:43:29.551Z</time></trkpt><trkpt lat="45.4215014" lon="11.1118859"><ele>44.0</ele><time>2026-04-22T16:43:30.55Z</time></trkpt><trkpt lat="45.4215288" lon="11.111776"><ele>44.0</ele><time>2026-04-22T16:43:31.558Z</time></trkpt><trkpt lat="45.4215204" lon="11.1116518"><ele>44.2</ele><time>2026-04-22T16:43:32.553Z</time></trkpt><trkpt lat="45.4214737" lon="11.1115294"><ele>44.400000000000006</ele><time>2026-04-22T16:43:33.555Z</time></trkpt><trkpt lat="45.4213972" lon="11.1114216"><ele>44.6</ele><time>2026-04-22T16:43:34.538Z</time></trkpt><trkpt lat="45.421335" lon="11.1113025"><ele>44.8</ele><time>2026-04-22T16:43:35.55Z</time></trkpt><trkpt lat="45.4212961" lon="11.111158"><ele>45.0</ele><time>2026-04-22T16:43:36.551Z</time></trkpt><trkpt lat="45.4212779" lon="11.1109838"><ele>45.0</ele><time>2026-04-22T16:43:37.551Z</time></trkpt><trkpt lat="45.4212776" lon="11.11079"><ele>45.0</ele><time>2026-04-22T16:43:38.55Z</time></trkpt><trkpt lat="45.4212938" lon="11.1105729"><ele>45.0</ele><time>2026-04-22T16:43:39.559Z</time></trkpt><trkpt lat="45.4213172" lon="11.1103479"><ele>45.0</ele><time>2026-04-22T16:43:40.545Z</time></trkpt><trkpt lat="45.4213367" lon="11.1101085"><ele>44.666666666666664</ele><time>2026-04-22T16:43:41.549Z</time></trkpt><trkpt lat="45.4213544" lon="11.1098585"><ele>44.33333333333333</ele><time>2026-04-22T16:43:42.558Z</time></trkpt><trkpt lat="45.4213753" lon="11.1096088"><ele>44.0</ele><time>2026-04-22T16:43:43.545Z</time></trkpt><trkpt lat="45.4213944" lon="11.109363"><ele>44.0</ele><time>2026-04-22T16:43:44.553Z</time></trkpt><trkpt lat="45.4214137" lon="11.1091206"><ele>44.0</ele><time>2026-04-22T16:43:45.551Z</time></trkpt><trkpt lat="45.4214325" lon="11.1088803"><ele>44.0</ele><time>2026-04-22T16:43:46.544Z</time></trkpt><trkpt lat="45.4214485" lon="11.1086568"><ele>43.5</ele><time>2026-04-22T16:43:47.552Z</time></trkpt><trkpt lat="45.4214622" lon="11.1084494"><ele>43.0</ele><time>2026-04-22T16:43:48.549Z</time></trkpt><trkpt lat="45.4214729" lon="11.1082594"><ele>42.5</ele><time>2026-04-22T16:43:49.547Z</time></trkpt><trkpt lat="45.4214894" lon="11.1080845"><ele>42.0</ele><time>2026-04-22T16:43:50.544Z</time></trkpt><trkpt lat="45.4215216" lon="11.1079288"><ele>42.0</ele><time>2026-04-22T16:43:51.546Z</time></trkpt><trkpt lat="45.4215678" lon="11.1077917"><ele>42.0</ele><time>2026-04-22T16:43:52.553Z</time></trkpt><trkpt lat="45.421629" lon="11.1076663"><ele>42.0</ele><time>2026-04-22T16:43:53.552Z</time></trkpt><trkpt lat="45.4217087" lon="11.1075697"><ele>42.0</ele><time>2026-04-22T16:43:54.551Z</time></trkpt><trkpt lat="45.4217939" lon="11.1074913"><ele>42.0</ele><time>2026-04-22T16:43:55.557Z</time></trkpt><trkpt lat="45.4218557" lon="11.1073931"><ele>42.0</ele><time>2026-04-22T16:43:56.55Z</time></trkpt><trkpt lat="45.4218889" lon="11.1072769"><ele>42.0</ele><time>2026-04-22T16:43:57.564Z</time></trkpt><trkpt lat="45.4218911" lon="11.1071597"><ele>42.0</ele><time>2026-04-22T16:43:58.552Z</time></trkpt><trkpt lat="45.4218614" lon="11.1070465"><ele>42.0</ele><time>2026-04-22T16:43:59.548Z</time></trkpt><trkpt lat="45.4218085" lon="11.1069379"><ele>42.0</ele><time>2026-04-22T16:44:00.552Z</time></trkpt><trkpt lat="45.4217557" lon="11.1068135"><ele>42.0</ele><time>2026-04-22T16:44:01.559Z</time></trkpt><trkpt lat="45.4217184" lon="11.1066607"><ele>42.0</ele><time>2026-04-22T16:44:02.551Z</time></trkpt><trkpt lat="45.4216954" lon="11.1064914"><ele>42.0</ele><time>2026-04-22T16:44:03.555Z</time></trkpt><trkpt lat="45.4216878" lon="11.1063084"><ele>42.0</ele><time>2026-04-22T16:44:04.551Z</time></trkpt><trkpt lat="45.4216925" lon="11.1061148"><ele>41.75</ele><time>2026-04-22T16:44:05.564Z</time></trkpt><trkpt lat="45.4216968" lon="11.10592"><ele>41.5</ele><time>2026-04-22T16:44:06.544Z</time></trkpt><trkpt lat="45.4216956" lon="11.1057199"><ele>41.25</ele><time>2026-04-22T16:44:07.551Z</time></trkpt><trkpt lat="45.4217101" lon="11.105512"><ele>41.0</ele><time>2026-04-22T16:44:08.555Z</time></trkpt><trkpt lat="45.4217268" lon="11.1053096"><ele>41.75</ele><time>2026-04-22T16:44:09.547Z</time></trkpt><trkpt lat="45.4217379" lon="11.1051149"><ele>42.5</ele><time>2026-04-22T16:44:10.551Z</time></trkpt><trkpt lat="45.4217499" lon="11.1049281"><ele>43.25</ele><time>2026-04-22T16:44:11.552Z</time></trkpt><trkpt lat="45.4217612" lon="11.1047479"><ele>44.0</ele><time>2026-04-22T16:44:12.549Z</time></trkpt><trkpt lat="45.4217657" lon="11.1045766"><ele>44.33333333333333</ele><time>2026-04-22T16:44:13.556Z</time></trkpt><trkpt lat="45.4217555" lon="11.1044231"><ele>44.666666666666664</ele><time>2026-04-22T16:44:14.551Z</time></trkpt><trkpt lat="45.4217406" lon="11.1042951"><ele>45.0</ele><time>2026-04-22T16:44:15.547Z</time></trkpt><trkpt lat="45.4217308" lon="11.1041831"><ele>45.333333333333336</ele><time>2026-04-22T16:44:16.547Z</time></trkpt><trkpt lat="45.4217312" lon="11.1040816"><ele>45.66666666666667</ele><time>2026-04-22T16:44:17.55Z</time></trkpt><trkpt lat="45.4217431" lon="11.1039914"><ele>46.0</ele><time>2026-04-22T16:44:18.549Z</time></trkpt><trkpt lat="45.4217628" lon="11.1039005"><ele>46.0</ele><time>2026-04-22T16:44:19.549Z</time></trkpt><trkpt lat="45.4217829" lon="11.1038105"><ele>46.0</ele><time>2026-04-22T16:44:20.558Z</time></trkpt><trkpt lat="45.421799" lon="11.1037173"><ele>46.0</ele><time>2026-04-22T16:44:21.553Z</time></trkpt><trkpt lat="45.4217904" lon="11.1036212"><ele>46.0</ele><time>2026-04-22T16:44:22.553Z</time></trkpt><trkpt lat="45.4217576" lon="11.103534"><ele>46.0</ele><time>2026-04-22T16:44:23.549Z</time></trkpt><trkpt lat="45.4217029" lon="11.1034693"><ele>46.0</ele><time>2026-04-22T16:44:24.551Z</time></trkpt><trkpt lat="45.4216358" lon="11.1034322"><ele>46.0</ele><time>2026-04-22T16:44:25.547Z</time></trkpt><trkpt lat="45.4215707" lon="11.1034118"><ele>46.0</ele><time>2026-04-22T16:44:26.552Z</time></trkpt><trkpt lat="45.421462" lon="11.1033693"><ele>46.0</ele><time>2026-04-22T16:44:28.545Z</time></trkpt><trkpt lat="45.4214008" lon="11.1033179"><ele>46.0</ele><time>2026-04-22T16:44:29.552Z</time></trkpt><trkpt lat="45.421339" lon="11.1032366"><ele>46.0</ele><time>2026-04-22T16:44:30.549Z</time></trkpt><trkpt lat="45.4212844" lon="11.1031236"><ele>46.0</ele><time>2026-04-22T16:44:31.551Z</time></trkpt><trkpt lat="45.4212324" lon="11.1029871"><ele>46.25</ele><time>2026-04-22T16:44:32.55Z</time></trkpt><trkpt lat="45.4211762" lon="11.1028345"><ele>46.5</ele><time>2026-04-22T16:44:33.552Z</time></trkpt><trkpt lat="45.4211161" lon="11.1026682"><ele>46.75</ele><time>2026-04-22T16:44:34.547Z</time></trkpt><trkpt lat="45.4210566" lon="11.1024968"><ele>47.0</ele><time>2026-04-22T16:44:35.552Z</time></trkpt><trkpt lat="45.4209968" lon="11.1023267"><ele>47.0</ele><time>2026-04-22T16:44:36.55Z</time></trkpt><trkpt lat="45.4209388" lon="11.1021545"><ele>47.0</ele><time>2026-04-22T16:44:37.556Z</time></trkpt><trkpt lat="45.4208793" lon="11.101973"><ele>47.0</ele><time>2026-04-22T16:44:38.557Z</time></trkpt><trkpt lat="45.4208185" lon="11.1017886"><ele>47.0</ele><time>2026-04-22T16:44:39.551Z</time></trkpt><trkpt lat="45.4207545" lon="11.1016"><ele>46.25</ele><time>2026-04-22T16:44:40.548Z</time></trkpt><trkpt lat="45.4206893" lon="11.101415"><ele>45.5</ele><time>2026-04-22T16:44:41.554Z</time></trkpt><trkpt lat="45.4206216" lon="11.1012255"><ele>44.75</ele><time>2026-04-22T16:44:42.56Z</time></trkpt><trkpt lat="45.4205531" lon="11.101032"><ele>44.0</ele><time>2026-04-22T16:44:43.56Z</time></trkpt><trkpt lat="45.4204829" lon="11.1008328"><ele>44.666666666666664</ele><time>2026-04-22T16:44:44.554Z</time></trkpt><trkpt lat="45.4204113" lon="11.1006252"><ele>45.333333333333336</ele><time>2026-04-22T16:44:45.549Z</time></trkpt><trkpt lat="45.4203354" lon="11.1004073"><ele>46.0</ele><time>2026-04-22T16:44:46.549Z</time></trkpt><trkpt lat="45.4202608" lon="11.1001953"><ele>46.0</ele><time>2026-04-22T16:44:47.549Z</time></trkpt><trkpt lat="45.4201858" lon="11.0999782"><ele>46.0</ele><time>2026-04-22T16:44:48.549Z</time></trkpt><trkpt lat="45.420113" lon="11.0997671"><ele>46.0</ele><time>2026-04-22T16:44:49.556Z</time></trkpt><trkpt lat="45.4200401" lon="11.0995592"><ele>46.0</ele><time>2026-04-22T16:44:50.558Z</time></trkpt><trkpt lat="45.4199659" lon="11.0993466"><ele>46.0</ele><time>2026-04-22T16:44:51.551Z</time></trkpt><trkpt lat="45.4198923" lon="11.0991254"><ele>46.0</ele><time>2026-04-22T16:44:52.545Z</time></trkpt><trkpt lat="45.4198185" lon="11.098911"><ele>46.0</ele><time>2026-04-22T16:44:53.551Z</time></trkpt><trkpt lat="45.4197467" lon="11.0987052"><ele>46.0</ele><time>2026-04-22T16:44:54.547Z</time></trkpt><trkpt lat="45.419672" lon="11.0984983"><ele>46.0</ele><time>2026-04-22T16:44:55.555Z</time></trkpt><trkpt lat="45.4195898" lon="11.0983004"><ele>45.75</ele><time>2026-04-22T16:44:56.545Z</time></trkpt><trkpt lat="45.4194971" lon="11.0981227"><ele>45.5</ele><time>2026-04-22T16:44:57.559Z</time></trkpt><trkpt lat="45.4193926" lon="11.0979751"><ele>45.25</ele><time>2026-04-22T16:44:58.556Z</time></trkpt><trkpt lat="45.4192811" lon="11.0978442"><ele>45.0</ele><time>2026-04-22T16:44:59.553Z</time></trkpt><trkpt lat="45.4191673" lon="11.0977238"><ele>45.0</ele><time>2026-04-22T16:45:00.55Z</time></trkpt><trkpt lat="45.4190504" lon="11.0976181"><ele>45.0</ele><time>2026-04-22T16:45:01.545Z</time></trkpt><trkpt lat="45.4189326" lon="11.0975111"><ele>45.0</ele><time>2026-04-22T16:45:02.559Z</time></trkpt><trkpt lat="45.4188185" lon="11.0974072"><ele>45.0</ele><time>2026-04-22T16:45:03.556Z</time></trkpt><trkpt lat="45.4187068" lon="11.0973018"><ele>45.25</ele><time>2026-04-22T16:45:04.55Z</time></trkpt><trkpt lat="45.4185965" lon="11.0972038"><ele>45.5</ele><time>2026-04-22T16:45:05.553Z</time></trkpt><trkpt lat="45.418497" lon="11.0971105"><ele>45.75</ele><time>2026-04-22T16:45:06.558Z</time></trkpt><trkpt lat="45.4183981" lon="11.0970181"><ele>46.0</ele><time>2026-04-22T16:45:07.553Z</time></trkpt><trkpt lat="45.4183056" lon="11.0969338"><ele>46.0</ele><time>2026-04-22T16:45:08.553Z</time></trkpt><trkpt lat="45.4182149" lon="11.0968501"><ele>46.0</ele><time>2026-04-22T16:45:09.548Z</time></trkpt><trkpt lat="45.4181367" lon="11.0967777"><ele>46.0</ele><time>2026-04-22T16:45:10.552Z</time></trkpt><trkpt lat="45.4180661" lon="11.0967079"><ele>46.0</ele><time>2026-04-22T16:45:11.555Z</time></trkpt><trkpt lat="45.4180077" lon="11.0966462"><ele>46.0</ele><time>2026-04-22T16:45:12.552Z</time></trkpt><trkpt lat="45.4179583" lon="11.0965882"><ele>46.0</ele><time>2026-04-22T16:45:13.557Z</time></trkpt><trkpt lat="45.4178784" lon="11.0964599"><ele>45.8</ele><time>2026-04-22T16:45:15.555Z</time></trkpt><trkpt lat="45.4178126" lon="11.0963975"><ele>45.599999999999994</ele><time>2026-04-22T16:45:16.55Z</time></trkpt><trkpt lat="45.4177315" lon="11.0963501"><ele>45.4</ele><time>2026-04-22T16:45:17.55Z</time></trkpt><trkpt lat="45.417637" lon="11.0962812"><ele>45.2</ele><time>2026-04-22T16:45:18.553Z</time></trkpt><trkpt lat="45.417537" lon="11.0961908"><ele>45.0</ele><time>2026-04-22T16:45:19.553Z</time></trkpt><trkpt lat="45.4174235" lon="11.096087"><ele>45.0</ele><time>2026-04-22T16:45:20.557Z</time></trkpt><trkpt lat="45.4173016" lon="11.0959833"><ele>45.0</ele><time>2026-04-22T16:45:21.554Z</time></trkpt><trkpt lat="45.4171741" lon="11.0958712"><ele>45.0</ele><time>2026-04-22T16:45:22.562Z</time></trkpt><trkpt lat="45.4170472" lon="11.0957553"><ele>45.0</ele><time>2026-04-22T16:45:23.56Z</time></trkpt><trkpt lat="45.4169207" lon="11.0956423"><ele>45.666666666666664</ele><time>2026-04-22T16:45:24.549Z</time></trkpt><trkpt lat="45.4167926" lon="11.0955259"><ele>46.33333333333333</ele><time>2026-04-22T16:45:25.548Z</time></trkpt><trkpt lat="45.4166648" lon="11.0954089"><ele>47.0</ele><time>2026-04-22T16:45:26.554Z</time></trkpt><trkpt lat="45.4165388" lon="11.0952912"><ele>47.0</ele><time>2026-04-22T16:45:27.554Z</time></trkpt><trkpt lat="45.4164126" lon="11.095174"><ele>47.0</ele><time>2026-04-22T16:45:28.554Z</time></trkpt><trkpt lat="45.4162908" lon="11.095054"><ele>47.0</ele><time>2026-04-22T16:45:29.554Z</time></trkpt><trkpt lat="45.4161719" lon="11.0949287"><ele>47.0</ele><time>2026-04-22T16:45:30.541Z</time></trkpt><trkpt lat="45.4160539" lon="11.0948015"><ele>46.5</ele><time>2026-04-22T16:45:31.552Z</time></trkpt><trkpt lat="45.4159377" lon="11.0946718"><ele>46.0</ele><time>2026-04-22T16:45:32.553Z</time></trkpt><trkpt lat="45.4158194" lon="11.0945407"><ele>45.5</ele><time>2026-04-22T16:45:33.557Z</time></trkpt><trkpt lat="45.4157054" lon="11.094405"><ele>45.0</ele><time>2026-04-22T16:45:34.558Z</time></trkpt><trkpt lat="45.4155926" lon="11.0942693"><ele>45.5</ele><time>2026-04-22T16:45:35.542Z</time></trkpt><trkpt lat="45.4154797" lon="11.0941367"><ele>46.0</ele><time>2026-04-22T16:45:36.545Z</time></trkpt><trkpt lat="45.4153734" lon="11.0940114"><ele>46.5</ele><time>2026-04-22T16:45:37.554Z</time></trkpt><trkpt lat="45.4152779" lon="11.0938945"><ele>47.0</ele><time>2026-04-22T16:45:38.545Z</time></trkpt><trkpt lat="45.4151861" lon="11.0937814"><ele>47.0</ele><time>2026-04-22T16:45:39.55Z</time></trkpt><trkpt lat="45.4151029" lon="11.0936753"><ele>47.0</ele><time>2026-04-22T16:45:40.553Z</time></trkpt><trkpt lat="45.4150258" lon="11.0935809"><ele>47.0</ele><time>2026-04-22T16:45:41.555Z</time></trkpt><trkpt lat="45.414951" lon="11.0934903"><ele>47.0</ele><time>2026-04-22T16:45:42.544Z</time></trkpt><trkpt lat="45.4148735" lon="11.0933837"><ele>47.0</ele><time>2026-04-22T16:45:43.549Z</time></trkpt><trkpt lat="45.4147979" lon="11.0932702"><ele>47.0</ele><time>2026-04-22T16:45:44.554Z</time></trkpt><trkpt lat="45.4147079" lon="11.0931651"><ele>47.0</ele><time>2026-04-22T16:45:45.554Z</time></trkpt><trkpt lat="45.4146134" lon="11.0930578"><ele>47.0</ele><time>2026-04-22T16:45:46.552Z</time></trkpt><trkpt lat="45.4145238" lon="11.092932"><ele>47.0</ele><time>2026-04-22T16:45:47.558Z</time></trkpt><trkpt lat="45.4144433" lon="11.0928049"><ele>46.75</ele><time>2026-04-22T16:45:48.546Z</time></trkpt><trkpt lat="45.4143724" lon="11.0926577"><ele>46.5</ele><time>2026-04-22T16:45:49.551Z</time></trkpt><trkpt lat="45.4143188" lon="11.0924941"><ele>46.25</ele><time>2026-04-22T16:45:50.551Z</time></trkpt><trkpt lat="45.4142884" lon="11.0923193"><ele>46.0</ele><time>2026-04-22T16:45:51.552Z</time></trkpt><trkpt lat="45.4142767" lon="11.0921366"><ele>45.75</ele><time>2026-04-22T16:45:52.554Z</time></trkpt><trkpt lat="45.4142771" lon="11.0919527"><ele>45.5</ele><time>2026-04-22T16:45:53.554Z</time></trkpt><trkpt lat="45.4142874" lon="11.091768"><ele>45.25</ele><time>2026-04-22T16:45:54.556Z</time></trkpt><trkpt lat="45.4143074" lon="11.0915891"><ele>45.0</ele><time>2026-04-22T16:45:55.543Z</time></trkpt><trkpt lat="45.4143342" lon="11.0914275"><ele>45.0</ele><time>2026-04-22T16:45:56.542Z</time></trkpt><trkpt lat="45.4143574" lon="11.0912767"><ele>45.0</ele><time>2026-04-22T16:45:57.543Z</time></trkpt><trkpt lat="45.414371" lon="11.0911314"><ele>45.0</ele><time>2026-04-22T16:45:58.545Z</time></trkpt><trkpt lat="45.4143734" lon="11.0910109"><ele>45.0</ele><time>2026-04-22T16:45:59.544Z</time></trkpt><trkpt lat="45.4143722" lon="11.0909177"><ele>45.0</ele><time>2026-04-22T16:46:00.541Z</time></trkpt><trkpt lat="45.4143835" lon="11.0907833"><ele>45.0</ele><time>2026-04-22T16:46:02.549Z</time></trkpt><trkpt lat="45.414426" lon="11.0906548"><ele>45.0</ele><time>2026-04-22T16:46:04.552Z</time></trkpt><trkpt lat="45.4144416" lon="11.0905548"><ele>45.0</ele><time>2026-04-22T16:46:05.556Z</time></trkpt><trkpt lat="45.4144442" lon="11.0904341"><ele>45.0</ele><time>2026-04-22T16:46:06.549Z</time></trkpt><trkpt lat="45.4144488" lon="11.0902861"><ele>45.0</ele><time>2026-04-22T16:46:07.554Z</time></trkpt><trkpt lat="45.4144772" lon="11.0901245"><ele>45.0</ele><time>2026-04-22T16:46:08.551Z</time></trkpt><trkpt lat="45.4145167" lon="11.0899624"><ele>45.0</ele><time>2026-04-22T16:46:09.548Z</time></trkpt><trkpt lat="45.4145528" lon="11.0898003"><ele>45.0</ele><time>2026-04-22T16:46:10.552Z</time></trkpt><trkpt lat="45.4145868" lon="11.0896481"><ele>45.0</ele><time>2026-04-22T16:46:11.549Z</time></trkpt><trkpt lat="45.4146173" lon="11.0895045"><ele>44.8</ele><time>2026-04-22T16:46:12.549Z</time></trkpt><trkpt lat="45.4146462" lon="11.089369"><ele>44.6</ele><time>2026-04-22T16:46:13.549Z</time></trkpt><trkpt lat="45.41467" lon="11.0892351"><ele>44.400000000000006</ele><time>2026-04-22T16:46:14.553Z</time></trkpt><trkpt lat="45.4146944" lon="11.0891066"><ele>44.2</ele><time>2026-04-22T16:46:15.555Z</time></trkpt><trkpt lat="45.4147149" lon="11.0889776"><ele>44.0</ele><time>2026-04-22T16:46:16.55Z</time></trkpt><trkpt lat="45.4147378" lon="11.0888513"><ele>44.33333333333333</ele><time>2026-04-22T16:46:17.558Z</time></trkpt><trkpt lat="45.4147619" lon="11.0887257"><ele>44.666666666666664</ele><time>2026-04-22T16:46:18.558Z</time></trkpt><trkpt lat="45.4147868" lon="11.0886038"><ele>45.0</ele><time>2026-04-22T16:46:19.559Z</time></trkpt><trkpt lat="45.4148141" lon="11.0884832"><ele>45.333333333333336</ele><time>2026-04-22T16:46:20.549Z</time></trkpt><trkpt lat="45.4148466" lon="11.0883655"><ele>45.66666666666667</ele><time>2026-04-22T16:46:21.554Z</time></trkpt><trkpt lat="45.4148823" lon="11.0882566"><ele>46.0</ele><time>2026-04-22T16:46:22.553Z</time></trkpt><trkpt lat="45.4149208" lon="11.0881542"><ele>46.0</ele><time>2026-04-22T16:46:23.549Z</time></trkpt><trkpt lat="45.4149628" lon="11.0880591"><ele>46.0</ele><time>2026-04-22T16:46:24.546Z</time></trkpt><trkpt lat="45.4150058" lon="11.0879679"><ele>46.0</ele><time>2026-04-22T16:46:25.56Z</time></trkpt><trkpt lat="45.4150476" lon="11.0878846"><ele>46.0</ele><time>2026-04-22T16:46:26.547Z</time></trkpt><trkpt lat="45.4150843" lon="11.0878082"><ele>46.0</ele><time>2026-04-22T16:46:27.548Z</time></trkpt><trkpt lat="45.415122" lon="11.0877308"><ele>46.0</ele><time>2026-04-22T16:46:28.558Z</time></trkpt><trkpt lat="45.4151609" lon="11.0876561"><ele>46.0</ele><time>2026-04-22T16:46:29.557Z</time></trkpt><trkpt lat="45.415225" lon="11.0875471"><ele>46.0</ele><time>2026-04-22T16:46:31.559Z</time></trkpt><trkpt lat="45.4152711" lon="11.0874801"><ele>46.0</ele><time>2026-04-22T16:46:36.554Z</time></trkpt><trkpt lat="45.4153344" lon="11.0874174"><ele>46.0</ele><time>2026-04-22T16:46:56.547Z</time></trkpt><trkpt lat="45.4153952" lon="11.087371"><ele>46.0</ele><time>2026-04-22T16:47:06.546Z</time></trkpt><trkpt lat="45.4154508" lon="11.0872796"><ele>46.0</ele><time>2026-04-22T16:47:08.552Z</time></trkpt><trkpt lat="45.4154573" lon="11.0871713"><ele>46.0</ele><time>2026-04-22T16:47:10.552Z</time></trkpt><trkpt lat="45.4154094" lon="11.0870393"><ele>46.199999999999996</ele><time>2026-04-22T16:47:12.555Z</time></trkpt><trkpt lat="45.4152958" lon="11.0869862"><ele>46.4</ele><time>2026-04-22T16:47:14.546Z</time></trkpt><trkpt lat="45.4151638" lon="11.0870205"><ele>46.6</ele><time>2026-04-22T16:47:16.549Z</time></trkpt><trkpt lat="45.4150817" lon="11.0870308"><ele>46.8</ele><time>2026-04-22T16:47:17.551Z</time></trkpt><trkpt lat="45.4149989" lon="11.0870176"><ele>47.0</ele><time>2026-04-22T16:47:18.548Z</time></trkpt><trkpt lat="45.4149194" lon="11.0869863"><ele>47.0</ele><time>2026-04-22T16:47:19.547Z</time></trkpt><trkpt lat="45.41484" lon="11.0869419"><ele>47.0</ele><time>2026-04-22T16:47:20.543Z</time></trkpt><trkpt lat="45.4147603" lon="11.0868877"><ele>47.0</ele><time>2026-04-22T16:47:21.554Z</time></trkpt><trkpt lat="45.4146845" lon="11.0868272"><ele>47.0</ele><time>2026-04-22T16:47:22.545Z</time></trkpt><trkpt lat="45.4146075" lon="11.0867657"><ele>47.0</ele><time>2026-04-22T16:47:23.558Z</time></trkpt><trkpt lat="45.4145347" lon="11.0866988"><ele>47.0</ele><time>2026-04-22T16:47:24.565Z</time></trkpt><trkpt lat="45.414462" lon="11.0866329"><ele>46.8</ele><time>2026-04-22T16:47:25.558Z</time></trkpt><trkpt lat="45.4143822" lon="11.0865565"><ele>46.6</ele><time>2026-04-22T16:47:26.546Z</time></trkpt><trkpt lat="45.4142977" lon="11.086477"><ele>46.4</ele><time>2026-04-22T16:47:27.55Z</time></trkpt><trkpt lat="45.4142046" lon="11.0863982"><ele>46.199999999999996</ele><time>2026-04-22T16:47:28.554Z</time></trkpt><trkpt lat="45.4141148" lon="11.0863172"><ele>46.0</ele><time>2026-04-22T16:47:29.557Z</time></trkpt><trkpt lat="45.4140323" lon="11.0862414"><ele>46.0</ele><time>2026-04-22T16:47:30.545Z</time></trkpt><trkpt lat="45.4139595" lon="11.0861601"><ele>46.0</ele><time>2026-04-22T16:47:31.555Z</time></trkpt><trkpt lat="45.4138832" lon="11.0860785"><ele>46.0</ele><time>2026-04-22T16:47:32.552Z</time></trkpt><trkpt lat="45.4138061" lon="11.0859991"><ele>46.0</ele><time>2026-04-22T16:47:33.55Z</time></trkpt><trkpt lat="45.4137293" lon="11.0859228"><ele>46.0</ele><time>2026-04-22T16:47:34.553Z</time></trkpt><trkpt lat="45.4136536" lon="11.0858494"><ele>46.0</ele><time>2026-04-22T16:47:35.55Z</time></trkpt><trkpt lat="45.4135724" lon="11.0857763"><ele>46.0</ele><time>2026-04-22T16:47:36.552Z</time></trkpt><trkpt lat="45.4134907" lon="11.0857082"><ele>46.0</ele><time>2026-04-22T16:47:37.553Z</time></trkpt><trkpt lat="45.4134073" lon="11.0856406"><ele>46.0</ele><time>2026-04-22T16:47:38.554Z</time></trkpt><trkpt lat="45.4133203" lon="11.085578"><ele>46.0</ele><time>2026-04-22T16:47:39.55Z</time></trkpt><trkpt lat="45.4132305" lon="11.0855177"><ele>46.0</ele><time>2026-04-22T16:47:40.547Z</time></trkpt><trkpt lat="45.4131383" lon="11.0854624"><ele>46.0</ele><time>2026-04-22T16:47:41.551Z</time></trkpt><trkpt lat="45.4130502" lon="11.0854052"><ele>46.0</ele><time>2026-04-22T16:47:42.551Z</time></trkpt><trkpt lat="45.4129661" lon="11.0853498"><ele>46.0</ele><time>2026-04-22T16:47:43.55Z</time></trkpt><trkpt lat="45.4128807" lon="11.0852952"><ele>46.0</ele><time>2026-04-22T16:47:44.552Z</time></trkpt><trkpt lat="45.412793" lon="11.0852447"><ele>46.16666666666667</ele><time>2026-04-22T16:47:45.548Z</time></trkpt><trkpt lat="45.4127138" lon="11.0851987"><ele>46.333333333333336</ele><time>2026-04-22T16:47:46.553Z</time></trkpt><trkpt lat="45.4126353" lon="11.085155"><ele>46.5</ele><time>2026-04-22T16:47:47.553Z</time></trkpt><trkpt lat="45.4125658" lon="11.0851121"><ele>46.666666666666664</ele><time>2026-04-22T16:47:48.555Z</time></trkpt><trkpt lat="45.4125015" lon="11.0850681"><ele>46.83333333333333</ele><time>2026-04-22T16:47:49.553Z</time></trkpt><trkpt lat="45.4124347" lon="11.0850199"><ele>47.0</ele><time>2026-04-22T16:47:50.553Z</time></trkpt><trkpt lat="45.4123603" lon="11.0849657"><ele>47.0</ele><time>2026-04-22T16:47:51.553Z</time></trkpt><trkpt lat="45.4122832" lon="11.0849066"><ele>47.0</ele><time>2026-04-22T16:47:52.541Z</time></trkpt><trkpt lat="45.4122123" lon="11.0848431"><ele>47.0</ele><time>2026-04-22T16:47:53.548Z</time></trkpt><trkpt lat="45.4121442" lon="11.0847666"><ele>47.0</ele><time>2026-04-22T16:47:54.546Z</time></trkpt><trkpt lat="45.4120877" lon="11.0846752"><ele>47.0</ele><time>2026-04-22T16:47:55.544Z</time></trkpt><trkpt lat="45.4120351" lon="11.0845703"><ele>47.0</ele><time>2026-04-22T16:47:56.548Z</time></trkpt><trkpt lat="45.4119933" lon="11.0844563"><ele>46.6</ele><time>2026-04-22T16:47:57.547Z</time></trkpt><trkpt lat="45.4119599" lon="11.084335"><ele>46.2</ele><time>2026-04-22T16:47:58.544Z</time></trkpt><trkpt lat="45.4119302" lon="11.0841974"><ele>45.8</ele><time>2026-04-22T16:47:59.546Z</time></trkpt><trkpt lat="45.411901" lon="11.0840539"><ele>45.4</ele><time>2026-04-22T16:48:00.544Z</time></trkpt><trkpt lat="45.4118706" lon="11.0839105"><ele>45.0</ele><time>2026-04-22T16:48:01.55Z</time></trkpt><trkpt lat="45.4118409" lon="11.0837662"><ele>45.0</ele><time>2026-04-22T16:48:02.551Z</time></trkpt><trkpt lat="45.411815" lon="11.0836231"><ele>45.0</ele><time>2026-04-22T16:48:03.55Z</time></trkpt><trkpt lat="45.4117903" lon="11.0834841"><ele>45.0</ele><time>2026-04-22T16:48:04.555Z</time></trkpt><trkpt lat="45.4117684" lon="11.0833427"><ele>45.0</ele><time>2026-04-22T16:48:05.55Z</time></trkpt><trkpt lat="45.4117451" lon="11.0831954"><ele>45.0</ele><time>2026-04-22T16:48:06.557Z</time></trkpt><trkpt lat="45.4117213" lon="11.0830379"><ele>45.0</ele><time>2026-04-22T16:48:07.548Z</time></trkpt><trkpt lat="45.4116972" lon="11.0828927"><ele>45.0</ele><time>2026-04-22T16:48:08.554Z</time></trkpt><trkpt lat="45.4116743" lon="11.0827353"><ele>45.0</ele><time>2026-04-22T16:48:09.553Z</time></trkpt><trkpt lat="45.4116522" lon="11.0825834"><ele>45.0</ele><time>2026-04-22T16:48:10.544Z</time></trkpt><trkpt lat="45.4116294" lon="11.0824319"><ele>45.0</ele><time>2026-04-22T16:48:11.552Z</time></trkpt><trkpt lat="45.4116074" lon="11.0822809"><ele>45.0</ele><time>2026-04-22T16:48:12.552Z</time></trkpt><trkpt lat="45.4115859" lon="11.0821359"><ele>45.0</ele><time>2026-04-22T16:48:13.565Z</time></trkpt><trkpt lat="45.4115677" lon="11.0820047"><ele>45.0</ele><time>2026-04-22T16:48:14.557Z</time></trkpt><trkpt lat="45.4115487" lon="11.0818853"><ele>45.0</ele><time>2026-04-22T16:48:15.551Z</time></trkpt><trkpt lat="45.4115307" lon="11.0817812"><ele>45.0</ele><time>2026-04-22T16:48:16.554Z</time></trkpt><trkpt lat="45.4115132" lon="11.0816893"><ele>45.0</ele><time>2026-04-22T16:48:17.554Z</time></trkpt><trkpt lat="45.4115392" lon="11.0815136"><ele>44.8</ele><time>2026-04-22T16:48:19.55Z</time></trkpt><trkpt lat="45.4115842" lon="11.08142"><ele>44.6</ele><time>2026-04-22T16:48:20.554Z</time></trkpt><trkpt lat="45.4116553" lon="11.0813606"><ele>44.400000000000006</ele><time>2026-04-22T16:48:21.554Z</time></trkpt><trkpt lat="45.4117544" lon="11.0813381"><ele>44.2</ele><time>2026-04-22T16:48:22.542Z</time></trkpt><trkpt lat="45.411882" lon="11.0813302"><ele>44.0</ele><time>2026-04-22T16:48:23.552Z</time></trkpt><trkpt lat="45.412" lon="11.0813312"><ele>44.0</ele><time>2026-04-22T16:48:24.553Z</time></trkpt><trkpt lat="45.4121098" lon="11.0813284"><ele>44.0</ele><time>2026-04-22T16:48:25.549Z</time></trkpt><trkpt lat="45.4122096" lon="11.0813281"><ele>44.0</ele><time>2026-04-22T16:48:26.556Z</time></trkpt><trkpt lat="45.4123084" lon="11.0813296"><ele>44.0</ele><time>2026-04-22T16:48:27.552Z</time></trkpt><trkpt lat="45.4124068" lon="11.0813299"><ele>44.0</ele><time>2026-04-22T16:48:28.544Z</time></trkpt><trkpt lat="45.4124898" lon="11.0813327"><ele>43.2</ele><time>2026-04-22T16:48:29.552Z</time></trkpt><trkpt lat="45.4125546" lon="11.0813289"><ele>42.400000000000006</ele><time>2026-04-22T16:48:30.548Z</time></trkpt><trkpt lat="45.41262" lon="11.0812281"><ele>41.6</ele><time>2026-04-22T16:48:32.554Z</time></trkpt><trkpt lat="45.4125345" lon="11.0811219"><ele>40.8</ele><time>2026-04-22T16:48:34.554Z</time></trkpt><trkpt lat="45.4124537" lon="11.0810747"><ele>40.0</ele><time>2026-04-22T16:48:35.55Z</time></trkpt><trkpt lat="45.4123521" lon="11.0810161"><ele>40.0</ele><time>2026-04-22T16:48:36.558Z</time></trkpt><trkpt lat="45.4122331" lon="11.0809479"><ele>40.0</ele><time>2026-04-22T16:48:37.554Z</time></trkpt><trkpt lat="45.4120949" lon="11.0808719"><ele>40.0</ele><time>2026-04-22T16:48:38.554Z</time></trkpt><trkpt lat="45.411948" lon="11.080788"><ele>40.0</ele><time>2026-04-22T16:48:39.554Z</time></trkpt><trkpt lat="45.4117994" lon="11.0806934"><ele>39.66666666666667</ele><time>2026-04-22T16:48:40.556Z</time></trkpt><trkpt lat="45.4116494" lon="11.0805931"><ele>39.333333333333336</ele><time>2026-04-22T16:48:41.554Z</time></trkpt><trkpt lat="45.4114981" lon="11.080474"><ele>39.0</ele><time>2026-04-22T16:48:42.551Z</time></trkpt><trkpt lat="45.4113541" lon="11.0803414"><ele>41.0</ele><time>2026-04-22T16:48:43.546Z</time></trkpt><trkpt lat="45.4112105" lon="11.080219"><ele>43.0</ele><time>2026-04-22T16:48:44.55Z</time></trkpt><trkpt lat="45.4110669" lon="11.0801174"><ele>45.0</ele><time>2026-04-22T16:48:45.55Z</time></trkpt><trkpt lat="45.4109299" lon="11.0800232"><ele>42.333333333333336</ele><time>2026-04-22T16:48:46.552Z</time></trkpt><trkpt lat="45.410787" lon="11.0799282"><ele>39.66666666666667</ele><time>2026-04-22T16:48:47.553Z</time></trkpt><trkpt lat="45.4106419" lon="11.0798322"><ele>37.0</ele><time>2026-04-22T16:48:48.549Z</time></trkpt><trkpt lat="45.4105054" lon="11.0797446"><ele>38.25</ele><time>2026-04-22T16:48:49.557Z</time></trkpt><trkpt lat="45.4103767" lon="11.0796541"><ele>39.5</ele><time>2026-04-22T16:48:50.548Z</time></trkpt><trkpt lat="45.4102541" lon="11.0795541"><ele>40.75</ele><time>2026-04-22T16:48:51.549Z</time></trkpt><trkpt lat="45.4101342" lon="11.0794175"><ele>42.0</ele><time>2026-04-22T16:48:52.551Z</time></trkpt><trkpt lat="45.410016" lon="11.0792693"><ele>42.0</ele><time>2026-04-22T16:48:53.552Z</time></trkpt><trkpt lat="45.4099016" lon="11.0791232"><ele>42.0</ele><time>2026-04-22T16:48:54.554Z</time></trkpt><trkpt lat="45.4097856" lon="11.078986"><ele>42.0</ele><time>2026-04-22T16:48:55.558Z</time></trkpt><trkpt lat="45.4096671" lon="11.0788583"><ele>41.75</ele><time>2026-04-22T16:48:56.552Z</time></trkpt><trkpt lat="45.4095517" lon="11.0787344"><ele>41.5</ele><time>2026-04-22T16:48:57.555Z</time></trkpt><trkpt lat="45.4094365" lon="11.0786083"><ele>41.25</ele><time>2026-04-22T16:48:58.56Z</time></trkpt><trkpt lat="45.4093294" lon="11.0784839"><ele>41.0</ele><time>2026-04-22T16:48:59.553Z</time></trkpt><trkpt lat="45.4092342" lon="11.0783726"><ele>40.599999999999994</ele><time>2026-04-22T16:49:00.546Z</time></trkpt><trkpt lat="45.4091477" lon="11.0782648"><ele>40.199999999999996</ele><time>2026-04-22T16:49:01.546Z</time></trkpt><trkpt lat="45.4090637" lon="11.0781646"><ele>39.8</ele><time>2026-04-22T16:49:02.541Z</time></trkpt><trkpt lat="45.4089841" lon="11.0780604"><ele>39.4</ele><time>2026-04-22T16:49:03.549Z</time></trkpt><trkpt lat="45.408912" lon="11.0779558"><ele>39.0</ele><time>2026-04-22T16:49:04.557Z</time></trkpt><trkpt lat="45.4088412" lon="11.0778414"><ele>39.0</ele><time>2026-04-22T16:49:05.55Z</time></trkpt><trkpt lat="45.4087642" lon="11.0777022"><ele>39.0</ele><time>2026-04-22T16:49:06.55Z</time></trkpt><trkpt lat="45.4086938" lon="11.077534"><ele>39.0</ele><time>2026-04-22T16:49:07.555Z</time></trkpt><trkpt lat="45.4086241" lon="11.077356"><ele>39.0</ele><time>2026-04-22T16:49:08.557Z</time></trkpt><trkpt lat="45.4085557" lon="11.0771608"><ele>39.0</ele><time>2026-04-22T16:49:09.547Z</time></trkpt><trkpt lat="45.408484" lon="11.0769619"><ele>39.0</ele><time>2026-04-22T16:49:10.544Z</time></trkpt><trkpt lat="45.4084098" lon="11.0767602"><ele>39.0</ele><time>2026-04-22T16:49:11.552Z</time></trkpt><trkpt lat="45.408337" lon="11.0765611"><ele>38.333333333333336</ele><time>2026-04-22T16:49:12.555Z</time></trkpt><trkpt lat="45.4082581" lon="11.0763689"><ele>37.66666666666667</ele><time>2026-04-22T16:49:13.547Z</time></trkpt><trkpt lat="45.40818" lon="11.0761838"><ele>37.0</ele><time>2026-04-22T16:49:14.551Z</time></trkpt><trkpt lat="45.4080966" lon="11.0760102"><ele>37.0</ele><time>2026-04-22T16:49:15.552Z</time></trkpt><trkpt lat="45.4080128" lon="11.0758549"><ele>37.0</ele><time>2026-04-22T16:49:16.543Z</time></trkpt><trkpt lat="45.4079315" lon="11.0756934"><ele>37.0</ele><time>2026-04-22T16:49:17.547Z</time></trkpt><trkpt lat="45.4078602" lon="11.0755198"><ele>37.0</ele><time>2026-04-22T16:49:18.554Z</time></trkpt><trkpt lat="45.4077995" lon="11.0753314"><ele>37.66666666666667</ele><time>2026-04-22T16:49:19.557Z</time></trkpt><trkpt lat="45.4077423" lon="11.0751275"><ele>38.333333333333336</ele><time>2026-04-22T16:49:20.547Z</time></trkpt><trkpt lat="45.4076822" lon="11.0749121"><ele>39.0</ele><time>2026-04-22T16:49:21.544Z</time></trkpt><trkpt lat="45.4076105" lon="11.0746798"><ele>39.0</ele><time>2026-04-22T16:49:22.551Z</time></trkpt><trkpt lat="45.4075554" lon="11.0744287"><ele>39.0</ele><time>2026-04-22T16:49:23.555Z</time></trkpt><trkpt lat="45.4074917" lon="11.0741769"><ele>39.0</ele><time>2026-04-22T16:49:24.557Z</time></trkpt><trkpt lat="45.4074286" lon="11.0739278"><ele>39.0</ele><time>2026-04-22T16:49:25.544Z</time></trkpt><trkpt lat="45.4073668" lon="11.073679"><ele>39.0</ele><time>2026-04-22T16:49:26.558Z</time></trkpt><trkpt lat="45.407307" lon="11.0734322"><ele>39.0</ele><time>2026-04-22T16:49:27.546Z</time></trkpt><trkpt lat="45.4072459" lon="11.0731892"><ele>38.666666666666664</ele><time>2026-04-22T16:49:28.545Z</time></trkpt><trkpt lat="45.4071834" lon="11.0729456"><ele>38.33333333333333</ele><time>2026-04-22T16:49:29.55Z</time></trkpt><trkpt lat="45.4071215" lon="11.0727084"><ele>38.0</ele><time>2026-04-22T16:49:30.551Z</time></trkpt><trkpt lat="45.4070564" lon="11.0724709"><ele>38.666666666666664</ele><time>2026-04-22T16:49:31.555Z</time></trkpt><trkpt lat="45.4069921" lon="11.0722306"><ele>39.333333333333336</ele><time>2026-04-22T16:49:32.561Z</time></trkpt><trkpt lat="45.406931" lon="11.0719918"><ele>40.0</ele><time>2026-04-22T16:49:33.549Z</time></trkpt><trkpt lat="45.4068704" lon="11.0717624"><ele>40.0</ele><time>2026-04-22T16:49:34.549Z</time></trkpt><trkpt lat="45.4068042" lon="11.0715329"><ele>40.0</ele><time>2026-04-22T16:49:35.553Z</time></trkpt><trkpt lat="45.4067379" lon="11.0712995"><ele>40.0</ele><time>2026-04-22T16:49:36.546Z</time></trkpt><trkpt lat="45.4066607" lon="11.071075"><ele>40.0</ele><time>2026-04-22T16:49:37.553Z</time></trkpt><trkpt lat="45.4065731" lon="11.0708541"><ele>40.0</ele><time>2026-04-22T16:49:38.547Z</time></trkpt><trkpt lat="45.4064804" lon="11.0706358"><ele>40.0</ele><time>2026-04-22T16:49:39.553Z</time></trkpt><trkpt lat="45.4063861" lon="11.070416"><ele>40.0</ele><time>2026-04-22T16:49:40.552Z</time></trkpt><trkpt lat="45.4062901" lon="11.0701953"><ele>40.0</ele><time>2026-04-22T16:49:41.559Z</time></trkpt><trkpt lat="45.4061942" lon="11.0699743"><ele>40.0</ele><time>2026-04-22T16:49:42.557Z</time></trkpt><trkpt lat="45.4060977" lon="11.0697558"><ele>39.66666666666667</ele><time>2026-04-22T16:49:43.551Z</time></trkpt><trkpt lat="45.406003" lon="11.0695352"><ele>39.333333333333336</ele><time>2026-04-22T16:49:44.549Z</time></trkpt><trkpt lat="45.4059096" lon="11.0693153"><ele>39.0</ele><time>2026-04-22T16:49:45.551Z</time></trkpt><trkpt lat="45.405826" lon="11.0690934"><ele>38.0</ele><time>2026-04-22T16:49:46.55Z</time></trkpt><trkpt lat="45.4057647" lon="11.0688574"><ele>37.0</ele><time>2026-04-22T16:49:47.541Z</time></trkpt><trkpt lat="45.4057293" lon="11.0686104"><ele>36.0</ele><time>2026-04-22T16:49:48.546Z</time></trkpt><trkpt lat="45.4057094" lon="11.0683622"><ele>35.666666666666664</ele><time>2026-04-22T16:49:49.553Z</time></trkpt><trkpt lat="45.4056863" lon="11.0681115"><ele>35.33333333333333</ele><time>2026-04-22T16:49:50.555Z</time></trkpt><trkpt lat="45.405668" lon="11.0678596"><ele>35.0</ele><time>2026-04-22T16:49:51.547Z</time></trkpt><trkpt lat="45.4056485" lon="11.0676077"><ele>35.33333333333333</ele><time>2026-04-22T16:49:52.551Z</time></trkpt><trkpt lat="45.4056246" lon="11.0673576"><ele>35.666666666666664</ele><time>2026-04-22T16:49:53.552Z</time></trkpt><trkpt lat="45.4056045" lon="11.067111"><ele>36.0</ele><time>2026-04-22T16:49:54.555Z</time></trkpt><trkpt lat="45.4055839" lon="11.066857"><ele>36.333333333333336</ele><time>2026-04-22T16:49:55.557Z</time></trkpt><trkpt lat="45.405565" lon="11.0666016"><ele>36.66666666666667</ele><time>2026-04-22T16:49:56.554Z</time></trkpt><trkpt lat="45.4055629" lon="11.0663501"><ele>37.0</ele><time>2026-04-22T16:49:57.553Z</time></trkpt><trkpt lat="45.4055913" lon="11.0660984"><ele>37.0</ele><time>2026-04-22T16:49:58.552Z</time></trkpt><trkpt lat="45.4056345" lon="11.0658492"><ele>37.0</ele><time>2026-04-22T16:49:59.555Z</time></trkpt><trkpt lat="45.405676" lon="11.0655948"><ele>37.0</ele><time>2026-04-22T16:50:00.55Z</time></trkpt><trkpt lat="45.4057176" lon="11.0653388"><ele>37.0</ele><time>2026-04-22T16:50:01.553Z</time></trkpt><trkpt lat="45.4057614" lon="11.0650852"><ele>37.0</ele><time>2026-04-22T16:50:02.554Z</time></trkpt><trkpt lat="45.405804" lon="11.0648316"><ele>37.0</ele><time>2026-04-22T16:50:03.556Z</time></trkpt><trkpt lat="45.4058401" lon="11.0645812"><ele>37.0</ele><time>2026-04-22T16:50:04.552Z</time></trkpt><trkpt lat="45.4058836" lon="11.064337"><ele>37.0</ele><time>2026-04-22T16:50:05.555Z</time></trkpt><trkpt lat="45.4059308" lon="11.0640902"><ele>37.0</ele><time>2026-04-22T16:50:06.555Z</time></trkpt><trkpt lat="45.4059722" lon="11.0638449"><ele>37.0</ele><time>2026-04-22T16:50:07.548Z</time></trkpt><trkpt lat="45.4060123" lon="11.0636113"><ele>37.0</ele><time>2026-04-22T16:50:08.557Z</time></trkpt><trkpt lat="45.4060506" lon="11.0633915"><ele>37.0</ele><time>2026-04-22T16:50:09.543Z</time></trkpt><trkpt lat="45.4060863" lon="11.0631746"><ele>37.0</ele><time>2026-04-22T16:50:10.552Z</time></trkpt><trkpt lat="45.4061154" lon="11.0629763"><ele>37.0</ele><time>2026-04-22T16:50:11.55Z</time></trkpt><trkpt lat="45.4061242" lon="11.0627801"><ele>37.0</ele><time>2026-04-22T16:50:12.554Z</time></trkpt><trkpt lat="45.4060998" lon="11.0625788"><ele>37.0</ele><time>2026-04-22T16:50:13.544Z</time></trkpt><trkpt lat="45.4060512" lon="11.0623911"><ele>36.75</ele><time>2026-04-22T16:50:14.546Z</time></trkpt><trkpt lat="45.405991" lon="11.0622155"><ele>36.5</ele><time>2026-04-22T16:50:15.554Z</time></trkpt><trkpt lat="45.4059371" lon="11.062042"><ele>36.25</ele><time>2026-04-22T16:50:16.549Z</time></trkpt><trkpt lat="45.4059075" lon="11.0618614"><ele>36.0</ele><time>2026-04-22T16:50:17.566Z</time></trkpt><trkpt lat="45.4059129" lon="11.061681"><ele>35.666666666666664</ele><time>2026-04-22T16:50:18.552Z</time></trkpt><trkpt lat="45.4059488" lon="11.0614909"><ele>35.33333333333333</ele><time>2026-04-22T16:50:19.556Z</time></trkpt><trkpt lat="45.4060102" lon="11.0612838"><ele>35.0</ele><time>2026-04-22T16:50:20.55Z</time></trkpt><trkpt lat="45.4060896" lon="11.0610701"><ele>35.0</ele><time>2026-04-22T16:50:21.545Z</time></trkpt><trkpt lat="45.406177" lon="11.0608414"><ele>35.0</ele><time>2026-04-22T16:50:22.553Z</time></trkpt><trkpt lat="45.4062668" lon="11.0606095"><ele>35.0</ele><time>2026-04-22T16:50:23.551Z</time></trkpt><trkpt lat="45.4063535" lon="11.0603965"><ele>35.33333333333333</ele><time>2026-04-22T16:50:24.551Z</time></trkpt><trkpt lat="45.4064352" lon="11.0601823"><ele>35.666666666666664</ele><time>2026-04-22T16:50:25.55Z</time></trkpt><trkpt lat="45.406511" lon="11.0599826"><ele>36.0</ele><time>2026-04-22T16:50:26.554Z</time></trkpt><trkpt lat="45.4065965" lon="11.0598009"><ele>36.333333333333336</ele><time>2026-04-22T16:50:27.551Z</time></trkpt><trkpt lat="45.4066981" lon="11.0596251"><ele>36.66666666666667</ele><time>2026-04-22T16:50:28.547Z</time></trkpt><trkpt lat="45.4068188" lon="11.0594689"><ele>37.0</ele><time>2026-04-22T16:50:29.546Z</time></trkpt><trkpt lat="45.4069605" lon="11.0593385"><ele>37.0</ele><time>2026-04-22T16:50:30.543Z</time></trkpt><trkpt lat="45.4071029" lon="11.0592372"><ele>37.0</ele><time>2026-04-22T16:50:31.559Z</time></trkpt><trkpt lat="45.4072466" lon="11.0591701"><ele>37.0</ele><time>2026-04-22T16:50:32.551Z</time></trkpt><trkpt lat="45.4073852" lon="11.0591301"><ele>37.25</ele><time>2026-04-22T16:50:33.558Z</time></trkpt><trkpt lat="45.4075139" lon="11.0591018"><ele>37.5</ele><time>2026-04-22T16:50:34.553Z</time></trkpt><trkpt lat="45.4076341" lon="11.0590853"><ele>37.75</ele><time>2026-04-22T16:50:35.546Z</time></trkpt><trkpt lat="45.4077384" lon="11.059046"><ele>38.0</ele><time>2026-04-22T16:50:36.548Z</time></trkpt><trkpt lat="45.4078254" lon="11.0589706"><ele>38.0</ele><time>2026-04-22T16:50:37.556Z</time></trkpt><trkpt lat="45.4078988" lon="11.0588516"><ele>38.0</ele><time>2026-04-22T16:50:38.552Z</time></trkpt><trkpt lat="45.4079587" lon="11.0586995"><ele>38.0</ele><time>2026-04-22T16:50:39.549Z</time></trkpt><trkpt lat="45.4080335" lon="11.0585589"><ele>38.0</ele><time>2026-04-22T16:50:40.553Z</time></trkpt><trkpt lat="45.4081354" lon="11.0584364"><ele>37.33333333333333</ele><time>2026-04-22T16:50:41.554Z</time></trkpt><trkpt lat="45.4082665" lon="11.058335"><ele>36.666666666666664</ele><time>2026-04-22T16:50:42.546Z</time></trkpt><trkpt lat="45.4084182" lon="11.0582447"><ele>36.0</ele><time>2026-04-22T16:50:43.552Z</time></trkpt><trkpt lat="45.4085895" lon="11.0581567"><ele>36.0</ele><time>2026-04-22T16:50:44.553Z</time></trkpt><trkpt lat="45.4087642" lon="11.0580558"><ele>36.0</ele><time>2026-04-22T16:50:45.546Z</time></trkpt><trkpt lat="45.4089464" lon="11.0579494"><ele>36.0</ele><time>2026-04-22T16:50:46.566Z</time></trkpt><trkpt lat="45.4091192" lon="11.0578548"><ele>36.333333333333336</ele><time>2026-04-22T16:50:47.55Z</time></trkpt><trkpt lat="45.4092785" lon="11.0577678"><ele>36.66666666666667</ele><time>2026-04-22T16:50:48.553Z</time></trkpt><trkpt lat="45.4094266" lon="11.0576847"><ele>37.0</ele><time>2026-04-22T16:50:49.551Z</time></trkpt><trkpt lat="45.409564" lon="11.0576204"><ele>37.75</ele><time>2026-04-22T16:50:50.548Z</time></trkpt><trkpt lat="45.4097053" lon="11.0575862"><ele>38.5</ele><time>2026-04-22T16:50:51.541Z</time></trkpt><trkpt lat="45.409851" lon="11.0575817"><ele>39.25</ele><time>2026-04-22T16:50:52.549Z</time></trkpt><trkpt lat="45.4099929" lon="11.05759"><ele>40.0</ele><time>2026-04-22T16:50:53.553Z</time></trkpt><trkpt lat="45.4101235" lon="11.0576062"><ele>40.0</ele><time>2026-04-22T16:50:54.546Z</time></trkpt><trkpt lat="45.4102349" lon="11.0576373"><ele>40.0</ele><time>2026-04-22T16:50:55.55Z</time></trkpt><trkpt lat="45.4103589" lon="11.05769"><ele>40.0</ele><time>2026-04-22T16:50:56.546Z</time></trkpt><trkpt lat="45.4104817" lon="11.0577771"><ele>40.0</ele><time>2026-04-22T16:50:57.551Z</time></trkpt><trkpt lat="45.4106067" lon="11.0578941"><ele>40.333333333333336</ele><time>2026-04-22T16:50:58.551Z</time></trkpt><trkpt lat="45.410732" lon="11.0580357"><ele>40.666666666666664</ele><time>2026-04-22T16:50:59.552Z</time></trkpt><trkpt lat="45.4108562" lon="11.0582004"><ele>41.0</ele><time>2026-04-22T16:51:00.555Z</time></trkpt><trkpt lat="45.4109734" lon="11.0583718"><ele>41.0</ele><time>2026-04-22T16:51:01.555Z</time></trkpt><trkpt lat="45.4110799" lon="11.0585332"><ele>41.0</ele><time>2026-04-22T16:51:02.548Z</time></trkpt><trkpt lat="45.4111761" lon="11.0586757"><ele>41.0</ele><time>2026-04-22T16:51:03.547Z</time></trkpt><trkpt lat="45.4112616" lon="11.0588039"><ele>41.0</ele><time>2026-04-22T16:51:04.55Z</time></trkpt><trkpt lat="45.4113392" lon="11.0589219"><ele>41.0</ele><time>2026-04-22T16:51:05.55Z</time></trkpt><trkpt lat="45.4114127" lon="11.0590259"><ele>41.0</ele><time>2026-04-22T16:51:06.552Z</time></trkpt><trkpt lat="45.4114978" lon="11.0591144"><ele>41.0</ele><time>2026-04-22T16:51:07.553Z</time></trkpt><trkpt lat="45.4116032" lon="11.0591896"><ele>41.0</ele><time>2026-04-22T16:51:08.549Z</time></trkpt><trkpt lat="45.4117166" lon="11.0592652"><ele>41.0</ele><time>2026-04-22T16:51:09.548Z</time></trkpt><trkpt lat="45.4118456" lon="11.0593159"><ele>41.0</ele><time>2026-04-22T16:51:10.548Z</time></trkpt><trkpt lat="45.4119812" lon="11.0593171"><ele>41.0</ele><time>2026-04-22T16:51:11.549Z</time></trkpt><trkpt lat="45.4121233" lon="11.0592863"><ele>41.0</ele><time>2026-04-22T16:51:12.554Z</time></trkpt><trkpt lat="45.4122648" lon="11.059252"><ele>41.25</ele><time>2026-04-22T16:51:13.545Z</time></trkpt><trkpt lat="45.4124063" lon="11.0592028"><ele>41.5</ele><time>2026-04-22T16:51:14.558Z</time></trkpt><trkpt lat="45.4125428" lon="11.0591335"><ele>41.75</ele><time>2026-04-22T16:51:15.552Z</time></trkpt><trkpt lat="45.4126654" lon="11.0590636"><ele>42.0</ele><time>2026-04-22T16:51:16.548Z</time></trkpt><trkpt lat="45.4127731" lon="11.058992"><ele>42.400000000000006</ele><time>2026-04-22T16:51:17.547Z</time></trkpt><trkpt lat="45.4128608" lon="11.0589175"><ele>42.800000000000004</ele><time>2026-04-22T16:51:18.557Z</time></trkpt><trkpt lat="45.4129244" lon="11.0588307"><ele>43.2</ele><time>2026-04-22T16:51:19.546Z</time></trkpt><trkpt lat="45.4129612" lon="11.0587295"><ele>43.6</ele><time>2026-04-22T16:51:20.552Z</time></trkpt><trkpt lat="45.4129926" lon="11.0586397"><ele>44.0</ele><time>2026-04-22T16:51:21.546Z</time></trkpt><trkpt lat="45.4130078" lon="11.0584717"><ele>44.0</ele><time>2026-04-22T16:51:23.551Z</time></trkpt><trkpt lat="45.4130133" lon="11.0583727"><ele>44.0</ele><time>2026-04-22T16:51:25.552Z</time></trkpt><trkpt lat="45.4129344" lon="11.0583559"><ele>44.0</ele><time>2026-04-22T16:51:52.546Z</time></trkpt><trkpt lat="45.4128634" lon="11.0583509"><ele>44.0</ele><time>2026-04-22T16:51:54.547Z</time></trkpt><trkpt lat="45.4128311" lon="11.0582528"><ele>42.0</ele><time>2026-04-22T16:51:56.545Z</time></trkpt></trkseg></trk></gpx>